<?xml version='1.0' encoding='UTF-8'?><gpx version="1.1" creator="JPX - https://github.com/jenetics/jpx" xmlns="http://www.topografix.com/GPX/1/1"><trk><trkseg><trkpt lat="40.729516304840686" lon="17.581341718494098"><ele>212.99999999999997</ele><time>2026-05-03T13:37:49.999Z</time></trkpt><trkpt lat="40.72957199875182" lon="17.581296096787323"><ele>213.0</ele><time>2026-05-03T13:37:50.999Z</time></trkpt><trkpt lat="40.729629793015526" lon="17.58126277811684"><ele>213.0</ele><time>2026-05-03T13:37:51.999Z</time></trkpt><trkpt lat="40.729695937023116" lon="17.581233438161053"><ele>213.0</ele><time>2026-05-03T13:37:52.999Z</time></trkpt><trkpt lat="40.72976769238482" lon="17.58124501192647"><ele>213.0</ele><time>2026-05-03T13:37:53.999Z</time></trkpt><trkpt lat="40.729844188843764" lon="17.581225301534637"><ele>212.99999999999997</ele><time>2026-05-03T13:37:54.999Z</time></trkpt><trkpt lat="40.72992153166438" lon="17.581238196667123"><ele>213.0</ele><time>2026-05-03T13:37:55.999Z</time></trkpt><trkpt lat="40.73000760067476" lon="17.581248715007433"><ele>213.0</ele><time>2026-05-03T13:37:56.999Z</time></trkpt><trkpt lat="40.73009555067494" lon="17.581229170090555"><ele>213.0</ele><time>2026-05-03T13:37:57.999Z</time></trkpt><trkpt lat="40.73018218644644" lon="17.58120168918959"><ele>213.0</ele><time>2026-05-03T13:37:58.999Z</time></trkpt><trkpt lat="40.73026491084416" lon="17.58116700775329"><ele>213.0</ele><time>2026-05-03T13:37:59.999Z</time></trkpt><trkpt lat="40.73035183632892" lon="17.581135008344194"><ele>213.0</ele><time>2026-05-03T13:38:00.999Z</time></trkpt><trkpt lat="40.73042673556587" lon="17.58109766768473"><ele>213.0</ele><time>2026-05-03T13:38:01.999Z</time></trkpt><trkpt lat="40.73050699189555" lon="17.581062356496993"><ele>213.5</ele><time>2026-05-03T13:38:02.999Z</time></trkpt><trkpt lat="40.73058928315789" lon="17.581015841731364"><ele>214.0</ele><time>2026-05-03T13:38:03.999Z</time></trkpt><trkpt lat="40.73066077278536" lon="17.580963860788728"><ele>214.5</ele><time>2026-05-03T13:38:04.999Z</time></trkpt><trkpt lat="40.73072895296192" lon="17.580924452385066"><ele>215.0</ele><time>2026-05-03T13:38:05.999Z</time></trkpt><trkpt lat="40.730793665369504" lon="17.580876143854717"><ele>215.5</ele><time>2026-05-03T13:38:06.999Z</time></trkpt><trkpt lat="40.73085666981799" lon="17.58081494816837"><ele>216.0</ele><time>2026-05-03T13:38:08Z</time></trkpt><trkpt lat="40.73090603648276" lon="17.58074866502884"><ele>216.0</ele><time>2026-05-03T13:38:09Z</time></trkpt><trkpt lat="40.730952695301994" lon="17.580686041249542"><ele>216.0</ele><time>2026-05-03T13:38:10Z</time></trkpt><trkpt lat="40.73100393499125" lon="17.58061448711451"><ele>216.0</ele><time>2026-05-03T13:38:11Z</time></trkpt><trkpt lat="40.731034151958426" lon="17.580540505306747"><ele>216.0</ele><time>2026-05-03T13:38:12Z</time></trkpt><trkpt lat="40.7310763552163" lon="17.580472477559358"><ele>216.0</ele><time>2026-05-03T13:38:13Z</time></trkpt><trkpt lat="40.731127528359856" lon="17.580422231306112"><ele>216.0</ele><time>2026-05-03T13:38:14Z</time></trkpt><trkpt lat="40.731186189049616" lon="17.58037766771349"><ele>216.0</ele><time>2026-05-03T13:38:15Z</time></trkpt><trkpt lat="40.7312531279392" lon="17.58035601660053"><ele>215.16666666666666</ele><time>2026-05-03T13:38:16Z</time></trkpt><trkpt lat="40.73131238517223" lon="17.58031496769174"><ele>214.33333333333331</ele><time>2026-05-03T13:38:17Z</time></trkpt><trkpt lat="40.731438280716" lon="17.580275688095355"><ele>213.5</ele><time>2026-05-03T13:38:19Z</time></trkpt><trkpt lat="40.73151035649498" lon="17.580297149282345"><ele>212.66666666666666</ele><time>2026-05-03T13:38:20Z</time></trkpt><trkpt lat="40.73158279183402" lon="17.580359500116494"><ele>211.83333333333331</ele><time>2026-05-03T13:38:21Z</time></trkpt><trkpt lat="40.731651850946136" lon="17.580426754656504"><ele>211.0</ele><time>2026-05-03T13:38:22Z</time></trkpt><trkpt lat="40.731723100685294" lon="17.58047824326456"><ele>209.0</ele><time>2026-05-03T13:38:23Z</time></trkpt><trkpt lat="40.73181128243855" lon="17.580490697776934"><ele>207.0</ele><time>2026-05-03T13:38:24Z</time></trkpt><trkpt lat="40.73190180026097" lon="17.58046456157122"><ele>205.0</ele><time>2026-05-03T13:38:25Z</time></trkpt><trkpt lat="40.732005362097496" lon="17.580436108750717"><ele>203.0</ele><time>2026-05-03T13:38:26Z</time></trkpt><trkpt lat="40.73211907145955" lon="17.580421181915117"><ele>201.0</ele><time>2026-05-03T13:38:27Z</time></trkpt><trkpt lat="40.73222955917816" lon="17.580426455317124"><ele>198.66666666666666</ele><time>2026-05-03T13:38:28Z</time></trkpt><trkpt lat="40.732332003747246" lon="17.58043543123613"><ele>196.33333333333334</ele><time>2026-05-03T13:38:29Z</time></trkpt><trkpt lat="40.73242447440502" lon="17.58043741844311"><ele>194.0</ele><time>2026-05-03T13:38:30Z</time></trkpt><trkpt lat="40.73251022026647" lon="17.58043456116354"><ele>191.66666666666669</ele><time>2026-05-03T13:38:31Z</time></trkpt><trkpt lat="40.73259223008223" lon="17.580442540649276"><ele>189.33333333333334</ele><time>2026-05-03T13:38:32Z</time></trkpt><trkpt lat="40.73266275263818" lon="17.58046541570189"><ele>187.0</ele><time>2026-05-03T13:38:33Z</time></trkpt><trkpt lat="40.732729007664126" lon="17.580496188343243"><ele>187.0</ele><time>2026-05-03T13:38:34Z</time></trkpt><trkpt lat="40.73278523029453" lon="17.580544896745312"><ele>187.0</ele><time>2026-05-03T13:38:35Z</time></trkpt><trkpt lat="40.73283577754038" lon="17.580603366504153"><ele>187.0</ele><time>2026-05-03T13:38:36Z</time></trkpt><trkpt lat="40.732859643247004" lon="17.580681077457186"><ele>187.0</ele><time>2026-05-03T13:38:37Z</time></trkpt><trkpt lat="40.7329163111401" lon="17.580776377575003"><ele>187.0</ele><time>2026-05-03T13:38:39Z</time></trkpt><trkpt lat="40.73299731857181" lon="17.58076664068226"><ele>187.0</ele><time>2026-05-03T13:38:41Z</time></trkpt><trkpt lat="40.733097288809226" lon="17.580681511126"><ele>187.0</ele><time>2026-05-03T13:38:43Z</time></trkpt><trkpt lat="40.73317518750135" lon="17.580670882836596"><ele>187.0</ele><time>2026-05-03T13:38:44Z</time></trkpt><trkpt lat="40.7332678248844" lon="17.580691166377797"><ele>187.0</ele><time>2026-05-03T13:38:45Z</time></trkpt><trkpt lat="40.73335993186735" lon="17.580713088598937"><ele>187.0</ele><time>2026-05-03T13:38:46Z</time></trkpt><trkpt lat="40.73344968219047" lon="17.58070611723092"><ele>187.0</ele><time>2026-05-03T13:38:47Z</time></trkpt><trkpt lat="40.73352605827788" lon="17.580707685351612"><ele>187.0</ele><time>2026-05-03T13:38:48Z</time></trkpt><trkpt lat="40.733600595950726" lon="17.58070939052637"><ele>186.33333333333334</ele><time>2026-05-03T13:38:49Z</time></trkpt><trkpt lat="40.733663203292515" lon="17.580727730380833"><ele>185.66666666666669</ele><time>2026-05-03T13:38:50Z</time></trkpt><trkpt lat="40.73371456903615" lon="17.580776412884788"><ele>185.0</ele><time>2026-05-03T13:38:51Z</time></trkpt><trkpt lat="40.73372072485328" lon="17.580941620997667"><ele>184.33333333333334</ele><time>2026-05-03T13:38:53Z</time></trkpt><trkpt lat="40.73370781408284" lon="17.581029840217152"><ele>183.66666666666666</ele><time>2026-05-03T13:38:54Z</time></trkpt><trkpt lat="40.733697010483276" lon="17.581112000767256"><ele>183.0</ele><time>2026-05-03T13:38:55Z</time></trkpt><trkpt lat="40.7337227375373" lon="17.581269604263365"><ele>181.25</ele><time>2026-05-03T13:38:57Z</time></trkpt><trkpt lat="40.73375709741656" lon="17.581419275759547"><ele>179.5</ele><time>2026-05-03T13:38:59Z</time></trkpt><trkpt lat="40.733783649680355" lon="17.58157290736002"><ele>177.75</ele><time>2026-05-03T13:39:01Z</time></trkpt><trkpt lat="40.733820339446424" lon="17.581660312453703"><ele>176.0</ele><time>2026-05-03T13:39:02.999Z</time></trkpt><trkpt lat="40.73396000313" lon="17.581662011683235"><ele>176.0</ele><time>2026-05-03T13:39:06.999Z</time></trkpt><trkpt lat="40.73402143531814" lon="17.581594676700686"><ele>176.0</ele><time>2026-05-03T13:39:07.999Z</time></trkpt><trkpt lat="40.7340648297016" lon="17.581526656634793"><ele>176.0</ele><time>2026-05-03T13:39:08.999Z</time></trkpt><trkpt lat="40.73414846812539" lon="17.581418015482807"><ele>176.0</ele><time>2026-05-03T13:39:10.999Z</time></trkpt><trkpt lat="40.73425270435544" lon="17.581334886750355"><ele>176.0</ele><time>2026-05-03T13:39:12.999Z</time></trkpt><trkpt lat="40.734317043650535" lon="17.58133740314134"><ele>176.0</ele><time>2026-05-03T13:39:13.999Z</time></trkpt><trkpt lat="40.73438268909062" lon="17.581346918136617"><ele>176.0</ele><time>2026-05-03T13:39:14.999Z</time></trkpt><trkpt lat="40.734450803441085" lon="17.581333318672613"><ele>176.0</ele><time>2026-05-03T13:39:15.999Z</time></trkpt><trkpt lat="40.73452972841101" lon="17.58132524260458"><ele>176.0</ele><time>2026-05-03T13:39:16.999Z</time></trkpt><trkpt lat="40.73461092625743" lon="17.58132660265477"><ele>176.0</ele><time>2026-05-03T13:39:17.999Z</time></trkpt><trkpt lat="40.734698020886654" lon="17.581319518687057"><ele>176.0</ele><time>2026-05-03T13:39:18.999Z</time></trkpt><trkpt lat="40.73478918104374" lon="17.581289895547755"><ele>175.8</ele><time>2026-05-03T13:39:19.999Z</time></trkpt><trkpt lat="40.734882449802484" lon="17.581237659925296"><ele>175.60000000000002</ele><time>2026-05-03T13:39:20.999Z</time></trkpt><trkpt lat="40.73497198647238" lon="17.58116521600797"><ele>175.4</ele><time>2026-05-03T13:39:21.999Z</time></trkpt><trkpt lat="40.73507150041575" lon="17.581097417179397"><ele>175.2</ele><time>2026-05-03T13:39:22.999Z</time></trkpt><trkpt lat="40.73517317697451" lon="17.581018455590023"><ele>175.0</ele><time>2026-05-03T13:39:23.999Z</time></trkpt><trkpt lat="40.7352742648265" lon="17.58092646699326"><ele>172.25</ele><time>2026-05-03T13:39:24.999Z</time></trkpt><trkpt lat="40.73537198504939" lon="17.58080457651168"><ele>169.5</ele><time>2026-05-03T13:39:25.999Z</time></trkpt><trkpt lat="40.73547213142842" lon="17.58066721508402"><ele>166.75</ele><time>2026-05-03T13:39:26.999Z</time></trkpt><trkpt lat="40.73556720612915" lon="17.580524947366342"><ele>164.0</ele><time>2026-05-03T13:39:27.999Z</time></trkpt><trkpt lat="40.73564314395905" lon="17.5803807425833"><ele>165.0</ele><time>2026-05-03T13:39:28.999Z</time></trkpt><trkpt lat="40.73572448591624" lon="17.580231054985965"><ele>166.0</ele><time>2026-05-03T13:39:29.999Z</time></trkpt><trkpt lat="40.73575604020864" lon="17.580052983863922"><ele>167.0</ele><time>2026-05-03T13:39:30.999Z</time></trkpt><trkpt lat="40.735802210005026" lon="17.579876649413897"><ele>168.0</ele><time>2026-05-03T13:39:31.999Z</time></trkpt><trkpt lat="40.735845342640786" lon="17.579716529326436"><ele>168.0</ele><time>2026-05-03T13:39:32.999Z</time></trkpt><trkpt lat="40.735916037194485" lon="17.57956827571513"><ele>168.0</ele><time>2026-05-03T13:39:33.999Z</time></trkpt><trkpt lat="40.73598027577912" lon="17.57941857181315"><ele>168.0</ele><time>2026-05-03T13:39:34.999Z</time></trkpt><trkpt lat="40.736010901563866" lon="17.579268283388764"><ele>168.0</ele><time>2026-05-03T13:39:35.999Z</time></trkpt><trkpt lat="40.73604018980172" lon="17.579130747501605"><ele>168.60000000000002</ele><time>2026-05-03T13:39:36.999Z</time></trkpt><trkpt lat="40.73606676774072" lon="17.579005410685408"><ele>169.20000000000002</ele><time>2026-05-03T13:39:37.999Z</time></trkpt><trkpt lat="40.7360664235336" lon="17.578881946042017"><ele>169.8</ele><time>2026-05-03T13:39:38.999Z</time></trkpt><trkpt lat="40.736045455833406" lon="17.57876686526366"><ele>170.4</ele><time>2026-05-03T13:39:39.999Z</time></trkpt><trkpt lat="40.73601222230438" lon="17.57865449942279"><ele>171.0</ele><time>2026-05-03T13:39:40.999Z</time></trkpt><trkpt lat="40.73599843902427" lon="17.578552064544"><ele>171.60000000000002</ele><time>2026-05-03T13:39:41.999Z</time></trkpt><trkpt lat="40.735955624002955" lon="17.578462588287838"><ele>172.2</ele><time>2026-05-03T13:39:42.999Z</time></trkpt><trkpt lat="40.73594090563309" lon="17.57836791047097"><ele>172.8</ele><time>2026-05-03T13:39:43.999Z</time></trkpt><trkpt lat="40.73594384161162" lon="17.578283400255085"><ele>173.39999999999998</ele><time>2026-05-03T13:39:44.999Z</time></trkpt><trkpt lat="40.736005948773276" lon="17.578144756475375"><ele>174.0</ele><time>2026-05-03T13:39:46.999Z</time></trkpt><trkpt lat="40.73611921780895" lon="17.578064869606965"><ele>172.2</ele><time>2026-05-03T13:39:48.999Z</time></trkpt><trkpt lat="40.736182530139885" lon="17.57803987003672"><ele>170.39999999999998</ele><time>2026-05-03T13:39:49.999Z</time></trkpt><trkpt lat="40.7362657036396" lon="17.578119042889508"><ele>168.6</ele><time>2026-05-03T13:39:50.999Z</time></trkpt><trkpt lat="40.73632829447177" lon="17.57819268248032"><ele>166.8</ele><time>2026-05-03T13:39:51.999Z</time></trkpt><trkpt lat="40.736394309690205" lon="17.578288310152445"><ele>165.0</ele><time>2026-05-03T13:39:52.999Z</time></trkpt><trkpt lat="40.73647467868991" lon="17.578389286059345"><ele>165.0</ele><time>2026-05-03T13:39:53.999Z</time></trkpt><trkpt lat="40.73656079842959" lon="17.57850188182091"><ele>165.0</ele><time>2026-05-03T13:39:54.999Z</time></trkpt><trkpt lat="40.73664605353369" lon="17.578614320694733"><ele>165.0</ele><time>2026-05-03T13:39:55.999Z</time></trkpt><trkpt lat="40.73672299639543" lon="17.57871609779075"><ele>165.0</ele><time>2026-05-03T13:39:56.999Z</time></trkpt><trkpt lat="40.736794297107785" lon="17.578808234942922"><ele>164.66666666666666</ele><time>2026-05-03T13:39:57.999Z</time></trkpt><trkpt lat="40.73686084134798" lon="17.57889716893354"><ele>164.33333333333334</ele><time>2026-05-03T13:39:58.999Z</time></trkpt><trkpt lat="40.73692275229516" lon="17.578978134663394"><ele>164.0</ele><time>2026-05-03T13:39:59.999Z</time></trkpt><trkpt lat="40.73698243382909" lon="17.579052629238674"><ele>163.66666666666669</ele><time>2026-05-03T13:40:00.999Z</time></trkpt><trkpt lat="40.73703588474917" lon="17.57912609561298"><ele>163.33333333333334</ele><time>2026-05-03T13:40:01.999Z</time></trkpt><trkpt lat="40.73707830130858" lon="17.579200386503384"><ele>163.0</ele><time>2026-05-03T13:40:02.999Z</time></trkpt><trkpt lat="40.73711129352081" lon="17.579331862231513"><ele>162.20000000000002</ele><time>2026-05-03T13:40:04.999Z</time></trkpt><trkpt lat="40.73718985179566" lon="17.579429805730808"><ele>161.4</ele><time>2026-05-03T13:40:06.999Z</time></trkpt><trkpt lat="40.737256804298006" lon="17.57943933041163"><ele>160.60000000000002</ele><time>2026-05-03T13:40:07.999Z</time></trkpt><trkpt lat="40.73734556082188" lon="17.57941189410379"><ele>159.8</ele><time>2026-05-03T13:40:08.999Z</time></trkpt><trkpt lat="40.73743696756479" lon="17.579374750182847"><ele>159.0</ele><time>2026-05-03T13:40:09.999Z</time></trkpt><trkpt lat="40.73754533974807" lon="17.579359830774155"><ele>159.0</ele><time>2026-05-03T13:40:10.999Z</time></trkpt><trkpt lat="40.73766509637855" lon="17.579359105229376"><ele>159.0</ele><time>2026-05-03T13:40:11.999Z</time></trkpt><trkpt lat="40.73778849600573" lon="17.579373684260037"><ele>159.0</ele><time>2026-05-03T13:40:12.999Z</time></trkpt><trkpt lat="40.73791308375504" lon="17.579389176567243"><ele>159.0</ele><time>2026-05-03T13:40:14Z</time></trkpt><trkpt lat="40.73804399171489" lon="17.579413539276647"><ele>157.4</ele><time>2026-05-03T13:40:15Z</time></trkpt><trkpt lat="40.73815642107768" lon="17.579432964153888"><ele>155.8</ele><time>2026-05-03T13:40:16Z</time></trkpt><trkpt lat="40.73826591641879" lon="17.57945903860651"><ele>154.2</ele><time>2026-05-03T13:40:17Z</time></trkpt><trkpt lat="40.73837911332664" lon="17.57946695058536"><ele>152.6</ele><time>2026-05-03T13:40:18Z</time></trkpt><trkpt lat="40.738488289909995" lon="17.579451199809583"><ele>151.0</ele><time>2026-05-03T13:40:19Z</time></trkpt><trkpt lat="40.73860417690512" lon="17.579420087639082"><ele>150.5</ele><time>2026-05-03T13:40:20Z</time></trkpt><trkpt lat="40.738718806211374" lon="17.579373447325466"><ele>150.0</ele><time>2026-05-03T13:40:21Z</time></trkpt><trkpt lat="40.73882576445844" lon="17.579307013354008"><ele>149.5</ele><time>2026-05-03T13:40:22Z</time></trkpt><trkpt lat="40.73892087442583" lon="17.57921826238879"><ele>149.0</ele><time>2026-05-03T13:40:23Z</time></trkpt><trkpt lat="40.73900040487534" lon="17.57910221834278"><ele>149.0</ele><time>2026-05-03T13:40:24Z</time></trkpt><trkpt lat="40.73905574699577" lon="17.57896538599749"><ele>149.0</ele><time>2026-05-03T13:40:25Z</time></trkpt><trkpt lat="40.73910283759149" lon="17.578820525911002"><ele>149.0</ele><time>2026-05-03T13:40:26Z</time></trkpt><trkpt lat="40.739135225151934" lon="17.57866756736952"><ele>149.0</ele><time>2026-05-03T13:40:27Z</time></trkpt><trkpt lat="40.73916929562944" lon="17.578527656621866"><ele>149.0</ele><time>2026-05-03T13:40:28Z</time></trkpt><trkpt lat="40.73920841632994" lon="17.578395903722818"><ele>149.0</ele><time>2026-05-03T13:40:29Z</time></trkpt><trkpt lat="40.73924860500879" lon="17.57827109216739"><ele>149.0</ele><time>2026-05-03T13:40:30Z</time></trkpt><trkpt lat="40.73929624387062" lon="17.578161181758027"><ele>149.0</ele><time>2026-05-03T13:40:31Z</time></trkpt><trkpt lat="40.73934968369528" lon="17.57804403907587"><ele>149.0</ele><time>2026-05-03T13:40:32Z</time></trkpt><trkpt lat="40.7394013843503" lon="17.577933669154405"><ele>145.8</ele><time>2026-05-03T13:40:33Z</time></trkpt><trkpt lat="40.73945302195245" lon="17.577840348840144"><ele>142.60000000000002</ele><time>2026-05-03T13:40:34Z</time></trkpt><trkpt lat="40.73950453652262" lon="17.57775312359829"><ele>139.4</ele><time>2026-05-03T13:40:35Z</time></trkpt><trkpt lat="40.739553608868256" lon="17.57767087782314"><ele>136.20000000000002</ele><time>2026-05-03T13:40:36Z</time></trkpt><trkpt lat="40.73963958215938" lon="17.577572828549282"><ele>133.0</ele><time>2026-05-03T13:40:38Z</time></trkpt><trkpt lat="40.73973612747441" lon="17.577504493128703"><ele>133.0</ele><time>2026-05-03T13:40:40Z</time></trkpt><trkpt lat="40.73980421644918" lon="17.577491812596737"><ele>133.0</ele><time>2026-05-03T13:40:41Z</time></trkpt><trkpt lat="40.739885867732454" lon="17.577497774864955"><ele>133.0</ele><time>2026-05-03T13:40:42Z</time></trkpt><trkpt lat="40.73996763550767" lon="17.577492435886853"><ele>133.0</ele><time>2026-05-03T13:40:43Z</time></trkpt><trkpt lat="40.740056020030586" lon="17.577461949104297"><ele>133.0</ele><time>2026-05-03T13:40:44Z</time></trkpt><trkpt lat="40.74013086494866" lon="17.577394762149336"><ele>133.0</ele><time>2026-05-03T13:40:45Z</time></trkpt><trkpt lat="40.74019048563969" lon="17.57730816808485"><ele>132.8</ele><time>2026-05-03T13:40:46Z</time></trkpt><trkpt lat="40.740245008146886" lon="17.57721444541475"><ele>132.60000000000002</ele><time>2026-05-03T13:40:47Z</time></trkpt><trkpt lat="40.74026032907127" lon="17.577076555683025"><ele>132.39999999999998</ele><time>2026-05-03T13:40:48Z</time></trkpt><trkpt lat="40.74023630444144" lon="17.576944182913806"><ele>132.2</ele><time>2026-05-03T13:40:49Z</time></trkpt><trkpt lat="40.74019756850739" lon="17.576822727668116"><ele>132.0</ele><time>2026-05-03T13:40:50Z</time></trkpt><trkpt lat="40.74012768767111" lon="17.576715531671265"><ele>132.0</ele><time>2026-05-03T13:40:51Z</time></trkpt><trkpt lat="40.740086940360875" lon="17.576586688517686"><ele>132.0</ele><time>2026-05-03T13:40:52Z</time></trkpt><trkpt lat="40.74006669331488" lon="17.57643780643239"><ele>132.0</ele><time>2026-05-03T13:40:53Z</time></trkpt><trkpt lat="40.7400671886401" lon="17.57628959324437"><ele>132.0</ele><time>2026-05-03T13:40:54Z</time></trkpt><trkpt lat="40.74005275257353" lon="17.57614756331871"><ele>132.0</ele><time>2026-05-03T13:40:55Z</time></trkpt><trkpt lat="40.74015542684061" lon="17.57599195827438"><ele>130.0</ele><time>2026-05-03T13:40:56Z</time></trkpt><trkpt lat="40.740220025475594" lon="17.57581929980802"><ele>128.0</ele><time>2026-05-03T13:40:57Z</time></trkpt><trkpt lat="40.74027317237506" lon="17.575620360741187"><ele>126.0</ele><time>2026-05-03T13:40:58Z</time></trkpt><trkpt lat="40.74035727335918" lon="17.575431110540364"><ele>126.0</ele><time>2026-05-03T13:40:59Z</time></trkpt><trkpt lat="40.74043045081438" lon="17.575228291882706"><ele>126.0</ele><time>2026-05-03T13:41:00Z</time></trkpt><trkpt lat="40.74050781115213" lon="17.575011947678536"><ele>126.0</ele><time>2026-05-03T13:41:01Z</time></trkpt><trkpt lat="40.74059525508761" lon="17.574762524516284"><ele>126.0</ele><time>2026-05-03T13:41:02Z</time></trkpt><trkpt lat="40.74067516820167" lon="17.57453374161114"><ele>126.0</ele><time>2026-05-03T13:41:03Z</time></trkpt><trkpt lat="40.74074178882714" lon="17.57433696269799"><ele>126.0</ele><time>2026-05-03T13:41:04Z</time></trkpt><trkpt lat="40.74078345382392" lon="17.574167692421007"><ele>126.0</ele><time>2026-05-03T13:41:05Z</time></trkpt><trkpt lat="40.740842114042294" lon="17.57404062977643"><ele>126.0</ele><time>2026-05-03T13:41:06Z</time></trkpt><trkpt lat="40.74087736325472" lon="17.573904499110963"><ele>126.0</ele><time>2026-05-03T13:41:07Z</time></trkpt><trkpt lat="40.740920207300704" lon="17.57378121131115"><ele>126.0</ele><time>2026-05-03T13:41:08Z</time></trkpt><trkpt lat="40.740964066104354" lon="17.573652045425348"><ele>126.0</ele><time>2026-05-03T13:41:09Z</time></trkpt><trkpt lat="40.74099941170633" lon="17.573527045999153"><ele>126.0</ele><time>2026-05-03T13:41:10Z</time></trkpt><trkpt lat="40.741038616591574" lon="17.573418533331523"><ele>126.0</ele><time>2026-05-03T13:41:11Z</time></trkpt><trkpt lat="40.74109310028944" lon="17.573306565657447"><ele>126.0</ele><time>2026-05-03T13:41:12Z</time></trkpt><trkpt lat="40.74112062969669" lon="17.57317752472344"><ele>126.0</ele><time>2026-05-03T13:41:13Z</time></trkpt><trkpt lat="40.74118374262678" lon="17.573039995671053"><ele>126.0</ele><time>2026-05-03T13:41:14Z</time></trkpt><trkpt lat="40.74121373348394" lon="17.57290369397386"><ele>125.4</ele><time>2026-05-03T13:41:15Z</time></trkpt><trkpt lat="40.74126179796789" lon="17.57278325375909"><ele>124.8</ele><time>2026-05-03T13:41:16Z</time></trkpt><trkpt lat="40.74130549212396" lon="17.572661473001027"><ele>124.20000000000002</ele><time>2026-05-03T13:41:17Z</time></trkpt><trkpt lat="40.741352509163164" lon="17.572550422412153"><ele>123.60000000000001</ele><time>2026-05-03T13:41:18Z</time></trkpt><trkpt lat="40.741402610836694" lon="17.572443156083136"><ele>123.0</ele><time>2026-05-03T13:41:19Z</time></trkpt><trkpt lat="40.741453206080536" lon="17.572353040513295"><ele>123.0</ele><time>2026-05-03T13:41:19.999Z</time></trkpt><trkpt lat="40.741511365314366" lon="17.572275525673508"><ele>123.00000000000001</ele><time>2026-05-03T13:41:20.999Z</time></trkpt><trkpt lat="40.741582598615736" lon="17.57221270965104"><ele>123.00000000000001</ele><time>2026-05-03T13:41:21.999Z</time></trkpt><trkpt lat="40.74166354504942" lon="17.572152391077296"><ele>123.0</ele><time>2026-05-03T13:41:22.999Z</time></trkpt><trkpt lat="40.74176003732688" lon="17.572094649992483"><ele>123.0</ele><time>2026-05-03T13:41:23.999Z</time></trkpt><trkpt lat="40.74187760557364" lon="17.57205049028899"><ele>122.25</ele><time>2026-05-03T13:41:24.999Z</time></trkpt><trkpt lat="40.74200946472181" lon="17.57201535537691"><ele>121.5</ele><time>2026-05-03T13:41:25.999Z</time></trkpt><trkpt lat="40.74215158636026" lon="17.571976320953127"><ele>120.75</ele><time>2026-05-03T13:41:26.999Z</time></trkpt><trkpt lat="40.7422966189269" lon="17.571924819104947"><ele>120.0</ele><time>2026-05-03T13:41:27.999Z</time></trkpt><trkpt lat="40.742444154535846" lon="17.57187545190396"><ele>120.0</ele><time>2026-05-03T13:41:28.999Z</time></trkpt><trkpt lat="40.74257910206483" lon="17.571815787303777"><ele>120.0</ele><time>2026-05-03T13:41:29.999Z</time></trkpt><trkpt lat="40.74270643342792" lon="17.571747998270112"><ele>120.0</ele><time>2026-05-03T13:41:30.999Z</time></trkpt><trkpt lat="40.74282574314489" lon="17.571677459140385"><ele>120.0</ele><time>2026-05-03T13:41:31.999Z</time></trkpt><trkpt lat="40.74293791280739" lon="17.571617253314344"><ele>119.75</ele><time>2026-05-03T13:41:32.999Z</time></trkpt><trkpt lat="40.74304771895516" lon="17.57156381993467"><ele>119.5</ele><time>2026-05-03T13:41:33.999Z</time></trkpt><trkpt lat="40.743150362598115" lon="17.57150938720509"><ele>119.25</ele><time>2026-05-03T13:41:34.999Z</time></trkpt><trkpt lat="40.743217941043135" lon="17.571452394645576"><ele>119.0</ele><time>2026-05-03T13:41:35.999Z</time></trkpt><trkpt lat="40.74334330122421" lon="17.571335579712553"><ele>119.0</ele><time>2026-05-03T13:41:36.999Z</time></trkpt><trkpt lat="40.74345215178792" lon="17.571208018172232"><ele>119.0</ele><time>2026-05-03T13:41:37.999Z</time></trkpt><trkpt lat="40.743572497918855" lon="17.571044754377162"><ele>119.0</ele><time>2026-05-03T13:41:38.999Z</time></trkpt><trkpt lat="40.74369900970607" lon="17.570857039327233"><ele>118.0</ele><time>2026-05-03T13:41:39.999Z</time></trkpt><trkpt lat="40.743841142370464" lon="17.570641955765865"><ele>117.0</ele><time>2026-05-03T13:41:40.999Z</time></trkpt><trkpt lat="40.74398550467489" lon="17.570428430209077"><ele>116.0</ele><time>2026-05-03T13:41:41.999Z</time></trkpt><trkpt lat="40.74412970379365" lon="17.570217543762368"><ele>116.0</ele><time>2026-05-03T13:41:42.999Z</time></trkpt><trkpt lat="40.744307984055155" lon="17.570010802644347"><ele>116.0</ele><time>2026-05-03T13:41:43.999Z</time></trkpt><trkpt lat="40.74444874696814" lon="17.56982199109212"><ele>116.0</ele><time>2026-05-03T13:41:44.999Z</time></trkpt><trkpt lat="40.74460764123981" lon="17.569621705733237"><ele>114.0</ele><time>2026-05-03T13:41:45.999Z</time></trkpt><trkpt lat="40.74476168264063" lon="17.569414704973436"><ele>112.0</ele><time>2026-05-03T13:41:46.999Z</time></trkpt><trkpt lat="40.74491982428639" lon="17.569194622888656"><ele>112.0</ele><time>2026-05-03T13:41:47.999Z</time></trkpt><trkpt lat="40.74507322775058" lon="17.568988489857617"><ele>112.0</ele><time>2026-05-03T13:41:48.999Z</time></trkpt><trkpt lat="40.745217488276566" lon="17.56878974275767"><ele>112.0</ele><time>2026-05-03T13:41:49.999Z</time></trkpt><trkpt lat="40.745364867135635" lon="17.568593158344246"><ele>111.33333333333334</ele><time>2026-05-03T13:41:50.999Z</time></trkpt><trkpt lat="40.74551524912507" lon="17.568388026458962"><ele>110.66666666666666</ele><time>2026-05-03T13:41:51.999Z</time></trkpt><trkpt lat="40.74566139643951" lon="17.568198774332544"><ele>110.0</ele><time>2026-05-03T13:41:52.999Z</time></trkpt><trkpt lat="40.745825402388185" lon="17.568003138160734"><ele>110.0</ele><time>2026-05-03T13:41:53.999Z</time></trkpt><trkpt lat="40.74601873717766" lon="17.567836554622016"><ele>110.0</ele><time>2026-05-03T13:41:54.999Z</time></trkpt><trkpt lat="40.74621216049184" lon="17.567652837701942"><ele>109.0</ele><time>2026-05-03T13:41:55.999Z</time></trkpt><trkpt lat="40.746391791007404" lon="17.567458597976767"><ele>108.0</ele><time>2026-05-03T13:41:56.999Z</time></trkpt><trkpt lat="40.74658035988113" lon="17.567269579276385"><ele>108.0</ele><time>2026-05-03T13:41:57.999Z</time></trkpt><trkpt lat="40.74676029810678" lon="17.567074479857883"><ele>108.0</ele><time>2026-05-03T13:41:58.999Z</time></trkpt><trkpt lat="40.74693066738879" lon="17.566878593821297"><ele>106.33333333333334</ele><time>2026-05-03T13:41:59.999Z</time></trkpt><trkpt lat="40.74708966902707" lon="17.566676473678935"><ele>104.66666666666667</ele><time>2026-05-03T13:42:00.999Z</time></trkpt><trkpt lat="40.74724488942919" lon="17.56648240212898"><ele>103.0</ele><time>2026-05-03T13:42:01.999Z</time></trkpt><trkpt lat="40.747398273936625" lon="17.566294481219693"><ele>102.33333333333334</ele><time>2026-05-03T13:42:02.999Z</time></trkpt><trkpt lat="40.74755456641047" lon="17.56609653273484"><ele>101.66666666666666</ele><time>2026-05-03T13:42:03.999Z</time></trkpt><trkpt lat="40.747708941953405" lon="17.565886959160736"><ele>101.0</ele><time>2026-05-03T13:42:04.999Z</time></trkpt><trkpt lat="40.74786011922081" lon="17.565682106243315"><ele>100.0</ele><time>2026-05-03T13:42:05.999Z</time></trkpt><trkpt lat="40.748006886143415" lon="17.56548461223532"><ele>99.0</ele><time>2026-05-03T13:42:06.999Z</time></trkpt><trkpt lat="40.74815494811912" lon="17.565296643518128"><ele>98.0</ele><time>2026-05-03T13:42:07.999Z</time></trkpt><trkpt lat="40.74832435257958" lon="17.565153367476604"><ele>97.66666666666666</ele><time>2026-05-03T13:42:08.999Z</time></trkpt><trkpt lat="40.74850011457445" lon="17.56500552973538"><ele>97.33333333333334</ele><time>2026-05-03T13:42:09.999Z</time></trkpt><trkpt lat="40.74868542644654" lon="17.564866342638958"><ele>97.0</ele><time>2026-05-03T13:42:10.999Z</time></trkpt><trkpt lat="40.748882900506736" lon="17.56474892183779"><ele>95.66666666666667</ele><time>2026-05-03T13:42:11.999Z</time></trkpt><trkpt lat="40.74907762916224" lon="17.56461567672468"><ele>94.33333333333334</ele><time>2026-05-03T13:42:12.999Z</time></trkpt><trkpt lat="40.74928145841015" lon="17.564508922847995"><ele>93.0</ele><time>2026-05-03T13:42:13.999Z</time></trkpt><trkpt lat="40.749496937474376" lon="17.564414675089317"><ele>92.5</ele><time>2026-05-03T13:42:14.999Z</time></trkpt><trkpt lat="40.74972141935657" lon="17.564332134881646"><ele>92.0</ele><time>2026-05-03T13:42:15.999Z</time></trkpt><trkpt lat="40.74995057493888" lon="17.56425341225187"><ele>92.0</ele><time>2026-05-03T13:42:16.999Z</time></trkpt><trkpt lat="40.750183912821505" lon="17.564156539012004"><ele>92.0</ele><time>2026-05-03T13:42:17.999Z</time></trkpt><trkpt lat="40.750420529325226" lon="17.564043601456074"><ele>91.0</ele><time>2026-05-03T13:42:18.999Z</time></trkpt><trkpt lat="40.750657501163275" lon="17.56394703123614"><ele>90.0</ele><time>2026-05-03T13:42:20Z</time></trkpt><trkpt lat="40.750884796986114" lon="17.56384914106511"><ele>88.5</ele><time>2026-05-03T13:42:21Z</time></trkpt><trkpt lat="40.75110768807529" lon="17.56376281879083"><ele>87.0</ele><time>2026-05-03T13:42:22Z</time></trkpt><trkpt lat="40.75132561037158" lon="17.563683596774503"><ele>86.66666666666667</ele><time>2026-05-03T13:42:23Z</time></trkpt><trkpt lat="40.7515389106766" lon="17.56360681175417"><ele>86.33333333333334</ele><time>2026-05-03T13:42:24Z</time></trkpt><trkpt lat="40.75174176740788" lon="17.563530218035094"><ele>86.0</ele><time>2026-05-03T13:42:25Z</time></trkpt><trkpt lat="40.75193506851593" lon="17.563462830021248"><ele>85.66666666666667</ele><time>2026-05-03T13:42:26Z</time></trkpt><trkpt lat="40.75212230190862" lon="17.563395820160544"><ele>85.33333333333333</ele><time>2026-05-03T13:42:27Z</time></trkpt><trkpt lat="40.7522977649017" lon="17.563365659108783"><ele>85.0</ele><time>2026-05-03T13:42:28Z</time></trkpt><trkpt lat="40.7524740280607" lon="17.56335073329689"><ele>85.0</ele><time>2026-05-03T13:42:29Z</time></trkpt><trkpt lat="40.7526508887421" lon="17.563376011049773"><ele>85.0</ele><time>2026-05-03T13:42:30Z</time></trkpt><trkpt lat="40.752833162008685" lon="17.56342048606551"><ele>85.0</ele><time>2026-05-03T13:42:31Z</time></trkpt><trkpt lat="40.75301677562062" lon="17.56347108528705"><ele>84.66666666666666</ele><time>2026-05-03T13:42:32Z</time></trkpt><trkpt lat="40.753202106262464" lon="17.563517905364364"><ele>84.33333333333333</ele><time>2026-05-03T13:42:33Z</time></trkpt><trkpt lat="40.75338766466005" lon="17.563565942503825"><ele>84.0</ele><time>2026-05-03T13:42:34Z</time></trkpt><trkpt lat="40.753577708403874" lon="17.563616336689915"><ele>84.0</ele><time>2026-05-03T13:42:35Z</time></trkpt><trkpt lat="40.75376693471755" lon="17.563667247591944"><ele>84.0</ele><time>2026-05-03T13:42:36Z</time></trkpt><trkpt lat="40.75396518005079" lon="17.563712650491595"><ele>84.0</ele><time>2026-05-03T13:42:37Z</time></trkpt><trkpt lat="40.75416278126855" lon="17.563760139536406"><ele>84.0</ele><time>2026-05-03T13:42:38Z</time></trkpt><trkpt lat="40.754365307875595" lon="17.56380892673439"><ele>84.0</ele><time>2026-05-03T13:42:39Z</time></trkpt><trkpt lat="40.75457192829692" lon="17.563874539080647"><ele>84.0</ele><time>2026-05-03T13:42:40Z</time></trkpt><trkpt lat="40.75477995138728" lon="17.563928721040764"><ele>83.66666666666667</ele><time>2026-05-03T13:42:41Z</time></trkpt><trkpt lat="40.75499332243281" lon="17.563986218276185"><ele>83.33333333333334</ele><time>2026-05-03T13:42:42Z</time></trkpt><trkpt lat="40.75520535970294" lon="17.564041088833598"><ele>83.0</ele><time>2026-05-03T13:42:43Z</time></trkpt><trkpt lat="40.75542727514505" lon="17.564103779060996"><ele>82.66666666666667</ele><time>2026-05-03T13:42:44Z</time></trkpt><trkpt lat="40.75564788919953" lon="17.564159727053788"><ele>82.33333333333333</ele><time>2026-05-03T13:42:45Z</time></trkpt><trkpt lat="40.755867641733296" lon="17.56422007557917"><ele>82.0</ele><time>2026-05-03T13:42:46Z</time></trkpt><trkpt lat="40.75609397691004" lon="17.56427407953434"><ele>80.5</ele><time>2026-05-03T13:42:47Z</time></trkpt><trkpt lat="40.756317555175684" lon="17.56433002718498"><ele>79.0</ele><time>2026-05-03T13:42:48Z</time></trkpt><trkpt lat="40.75654457080612" lon="17.564404837634402"><ele>79.0</ele><time>2026-05-03T13:42:49Z</time></trkpt><trkpt lat="40.756764395677024" lon="17.564447471190537"><ele>79.0</ele><time>2026-05-03T13:42:50Z</time></trkpt><trkpt lat="40.756971796422306" lon="17.564474109204273"><ele>79.0</ele><time>2026-05-03T13:42:51Z</time></trkpt><trkpt lat="40.75721318489196" lon="17.564573167678123"><ele>78.33333333333333</ele><time>2026-05-03T13:42:52Z</time></trkpt><trkpt lat="40.75743418023076" lon="17.56463191936836"><ele>77.66666666666667</ele><time>2026-05-03T13:42:53Z</time></trkpt><trkpt lat="40.75764713614607" lon="17.564695396091413"><ele>77.0</ele><time>2026-05-03T13:42:54Z</time></trkpt><trkpt lat="40.75785754671388" lon="17.564748093371495"><ele>76.33333333333334</ele><time>2026-05-03T13:42:55Z</time></trkpt><trkpt lat="40.75806444853587" lon="17.56480279420108"><ele>75.66666666666667</ele><time>2026-05-03T13:42:56Z</time></trkpt><trkpt lat="40.75827300997358" lon="17.564857178055487"><ele>75.0</ele><time>2026-05-03T13:42:57Z</time></trkpt><trkpt lat="40.75848187137024" lon="17.564891132491635"><ele>73.66666666666667</ele><time>2026-05-03T13:42:58Z</time></trkpt><trkpt lat="40.758694421116864" lon="17.564902538482034"><ele>72.33333333333334</ele><time>2026-05-03T13:42:59Z</time></trkpt><trkpt lat="40.758906059567785" lon="17.56487645466194"><ele>71.0</ele><time>2026-05-03T13:43:00Z</time></trkpt><trkpt lat="40.75911951802842" lon="17.564818087986776"><ele>71.0</ele><time>2026-05-03T13:43:01Z</time></trkpt><trkpt lat="40.759344428253584" lon="17.564729774649553"><ele>71.0</ele><time>2026-05-03T13:43:02Z</time></trkpt><trkpt lat="40.75956471104364" lon="17.564631808415637"><ele>72.0</ele><time>2026-05-03T13:43:03Z</time></trkpt><trkpt lat="40.75979268425959" lon="17.564527208253285"><ele>73.0</ele><time>2026-05-03T13:43:04Z</time></trkpt><trkpt lat="40.76002799451078" lon="17.564429500877015"><ele>70.5</ele><time>2026-05-03T13:43:05Z</time></trkpt><trkpt lat="40.760262498082206" lon="17.56433403315537"><ele>68.0</ele><time>2026-05-03T13:43:06Z</time></trkpt><trkpt lat="40.760491554484176" lon="17.564239840529922"><ele>68.0</ele><time>2026-05-03T13:43:07Z</time></trkpt><trkpt lat="40.760713229530495" lon="17.56413197875082"><ele>68.0</ele><time>2026-05-03T13:43:08Z</time></trkpt><trkpt lat="40.76092887304033" lon="17.564013359108067"><ele>66.0</ele><time>2026-05-03T13:43:09Z</time></trkpt><trkpt lat="40.76113671098853" lon="17.563863440515867"><ele>64.0</ele><time>2026-05-03T13:43:10Z</time></trkpt><trkpt lat="40.761342221966586" lon="17.5636929518889"><ele>64.0</ele><time>2026-05-03T13:43:11Z</time></trkpt><trkpt lat="40.76153164084307" lon="17.563497679441927"><ele>64.0</ele><time>2026-05-03T13:43:12Z</time></trkpt><trkpt lat="40.76170570038007" lon="17.563275884494235"><ele>63.0</ele><time>2026-05-03T13:43:13Z</time></trkpt><trkpt lat="40.761866554089366" lon="17.563024734179585"><ele>62.0</ele><time>2026-05-03T13:43:14Z</time></trkpt><trkpt lat="40.762019537102965" lon="17.562760352081238"><ele>62.0</ele><time>2026-05-03T13:43:15Z</time></trkpt><trkpt lat="40.76217940100849" lon="17.56247869075286"><ele>62.0</ele><time>2026-05-03T13:43:16Z</time></trkpt><trkpt lat="40.7623439876666" lon="17.562192747195468"><ele>62.0</ele><time>2026-05-03T13:43:17Z</time></trkpt><trkpt lat="40.76251117304235" lon="17.561903900087167"><ele>62.0</ele><time>2026-05-03T13:43:18Z</time></trkpt><trkpt lat="40.7626833357195" lon="17.561613098917842"><ele>60.5</ele><time>2026-05-03T13:43:19Z</time></trkpt><trkpt lat="40.762856312341626" lon="17.56131616765952"><ele>59.0</ele><time>2026-05-03T13:43:20Z</time></trkpt><trkpt lat="40.76302002567117" lon="17.561029812530652"><ele>59.0</ele><time>2026-05-03T13:43:21Z</time></trkpt><trkpt lat="40.763185840172014" lon="17.560751330020473"><ele>59.0</ele><time>2026-05-03T13:43:22Z</time></trkpt><trkpt lat="40.76335068199573" lon="17.560472538154702"><ele>59.0</ele><time>2026-05-03T13:43:23Z</time></trkpt><trkpt lat="40.7635186830644" lon="17.56018707593206"><ele>59.0</ele><time>2026-05-03T13:43:24Z</time></trkpt><trkpt lat="40.76368203455941" lon="17.559906524904232"><ele>58.5</ele><time>2026-05-03T13:43:25Z</time></trkpt><trkpt lat="40.76384458726408" lon="17.559631023486073"><ele>58.0</ele><time>2026-05-03T13:43:26Z</time></trkpt><trkpt lat="40.764001983709335" lon="17.55935590402064"><ele>58.0</ele><time>2026-05-03T13:43:27Z</time></trkpt><trkpt lat="40.76415578577933" lon="17.559088755172315"><ele>58.0</ele><time>2026-05-03T13:43:28Z</time></trkpt><trkpt lat="40.764305694968805" lon="17.55883114260226"><ele>58.0</ele><time>2026-05-03T13:43:28.999Z</time></trkpt><trkpt lat="40.764449519928846" lon="17.55857879823048"><ele>58.0</ele><time>2026-05-03T13:43:29.999Z</time></trkpt><trkpt lat="40.764590850852784" lon="17.558343946295054"><ele>58.0</ele><time>2026-05-03T13:43:30.999Z</time></trkpt><trkpt lat="40.76472876843819" lon="17.558130671020983"><ele>58.0</ele><time>2026-05-03T13:43:31.999Z</time></trkpt><trkpt lat="40.76487480591542" lon="17.557929922238678"><ele>58.0</ele><time>2026-05-03T13:43:32.999Z</time></trkpt><trkpt lat="40.76502858242733" lon="17.5577485848427"><ele>58.33333333333333</ele><time>2026-05-03T13:43:33.999Z</time></trkpt><trkpt lat="40.7651900239716" lon="17.55759243375618"><ele>58.66666666666667</ele><time>2026-05-03T13:43:34.999Z</time></trkpt><trkpt lat="40.76535669045563" lon="17.557455688901037"><ele>59.0</ele><time>2026-05-03T13:43:35.999Z</time></trkpt><trkpt lat="40.76553094655009" lon="17.55733466263772"><ele>58.333333333333336</ele><time>2026-05-03T13:43:36.999Z</time></trkpt><trkpt lat="40.765715510247595" lon="17.55723852291383"><ele>57.66666666666667</ele><time>2026-05-03T13:43:37.999Z</time></trkpt><trkpt lat="40.76591073458978" lon="17.557161710632975"><ele>57.0</ele><time>2026-05-03T13:43:38.999Z</time></trkpt><trkpt lat="40.76611771320343" lon="17.557094495393613"><ele>56.0</ele><time>2026-05-03T13:43:39.999Z</time></trkpt><trkpt lat="40.766336300812384" lon="17.557037331381505"><ele>55.0</ele><time>2026-05-03T13:43:40.999Z</time></trkpt><trkpt lat="40.76656491958636" lon="17.556978038538674"><ele>55.0</ele><time>2026-05-03T13:43:41.999Z</time></trkpt><trkpt lat="40.766792875512216" lon="17.556914690595587"><ele>55.0</ele><time>2026-05-03T13:43:42.999Z</time></trkpt><trkpt lat="40.76701833456051" lon="17.55684658820667"><ele>54.5</ele><time>2026-05-03T13:43:43.999Z</time></trkpt><trkpt lat="40.767245143950966" lon="17.55678138419819"><ele>54.0</ele><time>2026-05-03T13:43:44.999Z</time></trkpt><trkpt lat="40.76747033933267" lon="17.556721356989716"><ele>54.5</ele><time>2026-05-03T13:43:45.999Z</time></trkpt><trkpt lat="40.76769530332265" lon="17.556661517711177"><ele>55.0</ele><time>2026-05-03T13:43:46.999Z</time></trkpt><trkpt lat="40.76791425201311" lon="17.55661055692968"><ele>55.0</ele><time>2026-05-03T13:43:47.999Z</time></trkpt><trkpt lat="40.76812475146845" lon="17.556568508878744"><ele>55.0</ele><time>2026-05-03T13:43:48.999Z</time></trkpt><trkpt lat="40.76831766730763" lon="17.556523037155024"><ele>55.0</ele><time>2026-05-03T13:43:49.999Z</time></trkpt><trkpt lat="40.76850397465906" lon="17.556477952278225"><ele>54.0</ele><time>2026-05-03T13:43:50.999Z</time></trkpt><trkpt lat="40.76866873585473" lon="17.55642356364906"><ele>53.0</ele><time>2026-05-03T13:43:51.999Z</time></trkpt><trkpt lat="40.76882279367446" lon="17.55636272676823"><ele>52.0</ele><time>2026-05-03T13:43:52.999Z</time></trkpt><trkpt lat="40.76895745109525" lon="17.55627652030058"><ele>52.0</ele><time>2026-05-03T13:43:53.999Z</time></trkpt><trkpt lat="40.76908853993262" lon="17.556139778685115"><ele>52.0</ele><time>2026-05-03T13:43:54.999Z</time></trkpt><trkpt lat="40.76922157675006" lon="17.55596539009575"><ele>52.0</ele><time>2026-05-03T13:43:55.999Z</time></trkpt><trkpt lat="40.76937044914732" lon="17.555768383322413"><ele>51.666666666666664</ele><time>2026-05-03T13:43:56.999Z</time></trkpt><trkpt lat="40.769530083286945" lon="17.555563517481254"><ele>51.33333333333333</ele><time>2026-05-03T13:43:57.999Z</time></trkpt><trkpt lat="40.76969176704579" lon="17.555359089206565"><ele>51.0</ele><time>2026-05-03T13:43:58.999Z</time></trkpt><trkpt lat="40.769849887059536" lon="17.55515614062235"><ele>51.0</ele><time>2026-05-03T13:43:59.999Z</time></trkpt><trkpt lat="40.77000592355236" lon="17.554964992784512"><ele>51.0</ele><time>2026-05-03T13:44:00.999Z</time></trkpt><trkpt lat="40.770165173733794" lon="17.55478475071197"><ele>51.0</ele><time>2026-05-03T13:44:01.999Z</time></trkpt><trkpt lat="40.770332490412805" lon="17.55459690339518"><ele>50.33333333333333</ele><time>2026-05-03T13:44:02.999Z</time></trkpt><trkpt lat="40.770508435899444" lon="17.554416252826083"><ele>49.666666666666664</ele><time>2026-05-03T13:44:03.999Z</time></trkpt><trkpt lat="40.77067642084189" lon="17.554237669589753"><ele>49.0</ele><time>2026-05-03T13:44:04.999Z</time></trkpt><trkpt lat="40.77084427212414" lon="17.55405032862575"><ele>49.0</ele><time>2026-05-03T13:44:05.999Z</time></trkpt><trkpt lat="40.77100325327892" lon="17.55385755498693"><ele>49.0</ele><time>2026-05-03T13:44:06.999Z</time></trkpt><trkpt lat="40.77115314959196" lon="17.553657982828998"><ele>49.0</ele><time>2026-05-03T13:44:07.999Z</time></trkpt><trkpt lat="40.77129830033037" lon="17.553469585540842"><ele>48.666666666666664</ele><time>2026-05-03T13:44:08.999Z</time></trkpt><trkpt lat="40.77145636250463" lon="17.553297072361932"><ele>48.33333333333333</ele><time>2026-05-03T13:44:09.999Z</time></trkpt><trkpt lat="40.77162210435167" lon="17.553137772293532"><ele>48.0</ele><time>2026-05-03T13:44:10.999Z</time></trkpt><trkpt lat="40.771794963384046" lon="17.55298954931034"><ele>48.0</ele><time>2026-05-03T13:44:11.999Z</time></trkpt><trkpt lat="40.7719727773179" lon="17.5528442968033"><ele>48.0</ele><time>2026-05-03T13:44:12.999Z</time></trkpt><trkpt lat="40.77214768708356" lon="17.552687446546486"><ele>48.0</ele><time>2026-05-03T13:44:13.999Z</time></trkpt><trkpt lat="40.772326298166824" lon="17.552537571584114"><ele>48.0</ele><time>2026-05-03T13:44:14.999Z</time></trkpt><trkpt lat="40.772506085009034" lon="17.552390584594683"><ele>48.0</ele><time>2026-05-03T13:44:15.999Z</time></trkpt><trkpt lat="40.77268954401324" lon="17.552270497171598"><ele>48.0</ele><time>2026-05-03T13:44:16.999Z</time></trkpt><trkpt lat="40.772884417274895" lon="17.552165886577686"><ele>47.666666666666664</ele><time>2026-05-03T13:44:17.999Z</time></trkpt><trkpt lat="40.77308208548914" lon="17.552063708907497"><ele>47.33333333333333</ele><time>2026-05-03T13:44:18.999Z</time></trkpt><trkpt lat="40.773279327576226" lon="17.551942177982745"><ele>47.0</ele><time>2026-05-03T13:44:19.999Z</time></trkpt><trkpt lat="40.77347639647511" lon="17.55180452213074"><ele>46.0</ele><time>2026-05-03T13:44:20.999Z</time></trkpt><trkpt lat="40.77367374569728" lon="17.551653777875874"><ele>45.0</ele><time>2026-05-03T13:44:21.999Z</time></trkpt><trkpt lat="40.77387394417239" lon="17.55150040229843"><ele>45.0</ele><time>2026-05-03T13:44:22.999Z</time></trkpt><trkpt lat="40.77407951278451" lon="17.551343462359767"><ele>45.0</ele><time>2026-05-03T13:44:23.999Z</time></trkpt><trkpt lat="40.77428529310859" lon="17.551190715623967"><ele>45.0</ele><time>2026-05-03T13:44:24.999Z</time></trkpt><trkpt lat="40.77448775592647" lon="17.551044747211556"><ele>45.0</ele><time>2026-05-03T13:44:26Z</time></trkpt><trkpt lat="40.774682337137364" lon="17.5509014299396"><ele>45.0</ele><time>2026-05-03T13:44:27Z</time></trkpt><trkpt lat="40.77487281227228" lon="17.550756637965144"><ele>45.0</ele><time>2026-05-03T13:44:28Z</time></trkpt><trkpt lat="40.77505526708188" lon="17.55060176068425"><ele>45.0</ele><time>2026-05-03T13:44:29Z</time></trkpt><trkpt lat="40.77522900184728" lon="17.550418234735456"><ele>45.0</ele><time>2026-05-03T13:44:30Z</time></trkpt><trkpt lat="40.775403840249744" lon="17.550206671238698"><ele>45.0</ele><time>2026-05-03T13:44:31Z</time></trkpt><trkpt lat="40.77557851370686" lon="17.54998144946557"><ele>45.0</ele><time>2026-05-03T13:44:32Z</time></trkpt><trkpt lat="40.77575706812619" lon="17.549759884896652"><ele>45.0</ele><time>2026-05-03T13:44:33Z</time></trkpt><trkpt lat="40.77593195508883" lon="17.549538812074143"><ele>45.5</ele><time>2026-05-03T13:44:34Z</time></trkpt><trkpt lat="40.77610131377199" lon="17.5493082580739"><ele>46.0</ele><time>2026-05-03T13:44:35Z</time></trkpt><trkpt lat="40.776259338556805" lon="17.549063066502605"><ele>46.0</ele><time>2026-05-03T13:44:36Z</time></trkpt><trkpt lat="40.77640597050294" lon="17.548814544901916"><ele>46.0</ele><time>2026-05-03T13:44:37Z</time></trkpt><trkpt lat="40.776541929309175" lon="17.548550760877166"><ele>46.5</ele><time>2026-05-03T13:44:38Z</time></trkpt><trkpt lat="40.776667969968315" lon="17.548261878595873"><ele>47.0</ele><time>2026-05-03T13:44:39Z</time></trkpt><trkpt lat="40.77679533946221" lon="17.5479822648817"><ele>45.5</ele><time>2026-05-03T13:44:40Z</time></trkpt><trkpt lat="40.77693499783599" lon="17.54770202246167"><ele>44.0</ele><time>2026-05-03T13:44:41Z</time></trkpt><trkpt lat="40.77706082526273" lon="17.547422480627432"><ele>44.0</ele><time>2026-05-03T13:44:42Z</time></trkpt><trkpt lat="40.777185129274805" lon="17.54714632325519"><ele>44.0</ele><time>2026-05-03T13:44:43Z</time></trkpt><trkpt lat="40.77729433832639" lon="17.546866215400037"><ele>44.0</ele><time>2026-05-03T13:44:44Z</time></trkpt><trkpt lat="40.777423364790565" lon="17.5466127542884"><ele>44.0</ele><time>2026-05-03T13:44:45Z</time></trkpt><trkpt lat="40.777567462250055" lon="17.546357983925404"><ele>44.0</ele><time>2026-05-03T13:44:46Z</time></trkpt><trkpt lat="40.7777143877883" lon="17.546115312755834"><ele>44.0</ele><time>2026-05-03T13:44:47Z</time></trkpt><trkpt lat="40.77785804091686" lon="17.545874073455746"><ele>44.0</ele><time>2026-05-03T13:44:48Z</time></trkpt><trkpt lat="40.77800982108358" lon="17.545640053051052"><ele>44.0</ele><time>2026-05-03T13:44:49Z</time></trkpt><trkpt lat="40.77815042755775" lon="17.545387992177908"><ele>43.5</ele><time>2026-05-03T13:44:50Z</time></trkpt><trkpt lat="40.77829517516223" lon="17.545151560215487"><ele>43.0</ele><time>2026-05-03T13:44:51Z</time></trkpt><trkpt lat="40.77845115209029" lon="17.544912817439492"><ele>42.5</ele><time>2026-05-03T13:44:52Z</time></trkpt><trkpt lat="40.77860413515651" lon="17.544670165993704"><ele>42.0</ele><time>2026-05-03T13:44:53Z</time></trkpt><trkpt lat="40.77874512742301" lon="17.54442398704084"><ele>42.0</ele><time>2026-05-03T13:44:54Z</time></trkpt><trkpt lat="40.7788972549866" lon="17.5441878290334"><ele>42.0</ele><time>2026-05-03T13:44:55Z</time></trkpt><trkpt lat="40.77905184902704" lon="17.543962794624672"><ele>42.0</ele><time>2026-05-03T13:44:56Z</time></trkpt><trkpt lat="40.77919514504355" lon="17.54373326033044"><ele>42.0</ele><time>2026-05-03T13:44:57Z</time></trkpt><trkpt lat="40.77933315742697" lon="17.54350709045968"><ele>42.0</ele><time>2026-05-03T13:44:58Z</time></trkpt><trkpt lat="40.77947666384027" lon="17.54327914040463"><ele>42.0</ele><time>2026-05-03T13:44:59Z</time></trkpt><trkpt lat="40.779626486040144" lon="17.543051745659962"><ele>42.0</ele><time>2026-05-03T13:45:00Z</time></trkpt><trkpt lat="40.779775748174984" lon="17.54281557962487"><ele>42.5</ele><time>2026-05-03T13:45:01Z</time></trkpt><trkpt lat="40.77992014240942" lon="17.54258188685015"><ele>43.0</ele><time>2026-05-03T13:45:02Z</time></trkpt><trkpt lat="40.7800700637819" lon="17.542343346443754"><ele>43.0</ele><time>2026-05-03T13:45:03Z</time></trkpt><trkpt lat="40.78021441168019" lon="17.542104154152042"><ele>43.0</ele><time>2026-05-03T13:45:04Z</time></trkpt><trkpt lat="40.780341733552845" lon="17.541857574045885"><ele>43.0</ele><time>2026-05-03T13:45:05Z</time></trkpt><trkpt lat="40.780449723251245" lon="17.54157819356404"><ele>43.0</ele><time>2026-05-03T13:45:06Z</time></trkpt><trkpt lat="40.78055465579513" lon="17.541291524907084"><ele>43.5</ele><time>2026-05-03T13:45:07Z</time></trkpt><trkpt lat="40.78066203245685" lon="17.541002913544094"><ele>44.0</ele><time>2026-05-03T13:45:08Z</time></trkpt><trkpt lat="40.78077167907671" lon="17.54071879728239"><ele>44.0</ele><time>2026-05-03T13:45:09Z</time></trkpt><trkpt lat="40.780885795623234" lon="17.54043350490297"><ele>44.0</ele><time>2026-05-03T13:45:10Z</time></trkpt><trkpt lat="40.78099647493357" lon="17.540151025817156"><ele>45.0</ele><time>2026-05-03T13:45:11Z</time></trkpt><trkpt lat="40.78110024900718" lon="17.539868560965513"><ele>46.0</ele><time>2026-05-03T13:45:12Z</time></trkpt><trkpt lat="40.78121255931388" lon="17.539597711213986"><ele>45.5</ele><time>2026-05-03T13:45:13Z</time></trkpt><trkpt lat="40.781320196402504" lon="17.539316291175133"><ele>45.0</ele><time>2026-05-03T13:45:14Z</time></trkpt><trkpt lat="40.78142459835035" lon="17.539052922992393"><ele>45.0</ele><time>2026-05-03T13:45:15Z</time></trkpt><trkpt lat="40.781527329172974" lon="17.538778566620206"><ele>45.0</ele><time>2026-05-03T13:45:16Z</time></trkpt><trkpt lat="40.781633436901444" lon="17.538510946811485"><ele>45.0</ele><time>2026-05-03T13:45:17Z</time></trkpt><trkpt lat="40.781735024827974" lon="17.538239333392667"><ele>45.0</ele><time>2026-05-03T13:45:18Z</time></trkpt><trkpt lat="40.78183389881825" lon="17.537969993022514"><ele>43.666666666666664</ele><time>2026-05-03T13:45:19Z</time></trkpt><trkpt lat="40.78192821538723" lon="17.53771064211299"><ele>42.33333333333333</ele><time>2026-05-03T13:45:20Z</time></trkpt><trkpt lat="40.782023707476114" lon="17.537468103155906"><ele>41.0</ele><time>2026-05-03T13:45:21Z</time></trkpt><trkpt lat="40.782114521925536" lon="17.537245378037035"><ele>41.666666666666664</ele><time>2026-05-03T13:45:22Z</time></trkpt><trkpt lat="40.782211481303854" lon="17.53701493806881"><ele>42.333333333333336</ele><time>2026-05-03T13:45:23Z</time></trkpt><trkpt lat="40.782329502058495" lon="17.53678427593943"><ele>43.0</ele><time>2026-05-03T13:45:24Z</time></trkpt><trkpt lat="40.782459967907485" lon="17.536574363412996"><ele>43.0</ele><time>2026-05-03T13:45:25Z</time></trkpt><trkpt lat="40.78260889959933" lon="17.53638133177776"><ele>43.0</ele><time>2026-05-03T13:45:26Z</time></trkpt><trkpt lat="40.78276959989861" lon="17.5361996842316"><ele>43.0</ele><time>2026-05-03T13:45:27Z</time></trkpt><trkpt lat="40.78293695419722" lon="17.53604877886175"><ele>44.0</ele><time>2026-05-03T13:45:28Z</time></trkpt><trkpt lat="40.78310792862578" lon="17.535931367053404"><ele>45.0</ele><time>2026-05-03T13:45:29Z</time></trkpt><trkpt lat="40.783291014165734" lon="17.535834178037863"><ele>46.0</ele><time>2026-05-03T13:45:30Z</time></trkpt><trkpt lat="40.78347713148009" lon="17.535751124659466"><ele>45.333333333333336</ele><time>2026-05-03T13:45:31Z</time></trkpt><trkpt lat="40.78367350367915" lon="17.535698666360783"><ele>44.666666666666664</ele><time>2026-05-03T13:45:32Z</time></trkpt><trkpt lat="40.783867851277975" lon="17.5356506756571"><ele>44.0</ele><time>2026-05-03T13:45:33Z</time></trkpt><trkpt lat="40.78407128005943" lon="17.53563477000027"><ele>44.0</ele><time>2026-05-03T13:45:34Z</time></trkpt><trkpt lat="40.78427849848538" lon="17.535629697579903"><ele>44.0</ele><time>2026-05-03T13:45:35Z</time></trkpt><trkpt lat="40.784489453879125" lon="17.535652130665557"><ele>44.0</ele><time>2026-05-03T13:45:36Z</time></trkpt><trkpt lat="40.78469300821966" lon="17.535703749440987"><ele>43.33333333333333</ele><time>2026-05-03T13:45:37Z</time></trkpt><trkpt lat="40.784884149138136" lon="17.53576475223308"><ele>42.666666666666664</ele><time>2026-05-03T13:45:38Z</time></trkpt><trkpt lat="40.78507139789162" lon="17.535805473122245"><ele>42.0</ele><time>2026-05-03T13:45:39Z</time></trkpt><trkpt lat="40.78526993499556" lon="17.535827848096826"><ele>41.0</ele><time>2026-05-03T13:45:39.999Z</time></trkpt><trkpt lat="40.78547281420262" lon="17.535868656760485"><ele>40.0</ele><time>2026-05-03T13:45:40.999Z</time></trkpt><trkpt lat="40.78568553121074" lon="17.53590682610536"><ele>39.0</ele><time>2026-05-03T13:45:41.999Z</time></trkpt><trkpt lat="40.78591518523336" lon="17.53593649683607"><ele>39.0</ele><time>2026-05-03T13:45:42.999Z</time></trkpt><trkpt lat="40.786179293475406" lon="17.535967727245357"><ele>39.0</ele><time>2026-05-03T13:45:43.999Z</time></trkpt><trkpt lat="40.78647123801963" lon="17.536005712241526"><ele>39.0</ele><time>2026-05-03T13:45:44.999Z</time></trkpt><trkpt lat="40.78675607458478" lon="17.53605636195723"><ele>39.0</ele><time>2026-05-03T13:45:45.999Z</time></trkpt><trkpt lat="40.787037245130264" lon="17.536139966847436"><ele>38.5</ele><time>2026-05-03T13:45:46.999Z</time></trkpt><trkpt lat="40.78728161473414" lon="17.53621758289388"><ele>38.0</ele><time>2026-05-03T13:45:47.999Z</time></trkpt><trkpt lat="40.78753176266921" lon="17.53623857511759"><ele>37.0</ele><time>2026-05-03T13:45:48.999Z</time></trkpt><trkpt lat="40.78777688182157" lon="17.53628726678556"><ele>36.0</ele><time>2026-05-03T13:45:49.999Z</time></trkpt><trkpt lat="40.78801718220072" lon="17.53633546582344"><ele>36.0</ele><time>2026-05-03T13:45:50.999Z</time></trkpt><trkpt lat="40.78826131627167" lon="17.53637800776816"><ele>36.0</ele><time>2026-05-03T13:45:51.999Z</time></trkpt><trkpt lat="40.788503031383826" lon="17.536416876155016"><ele>34.5</ele><time>2026-05-03T13:45:52.999Z</time></trkpt><trkpt lat="40.78874904925015" lon="17.536460789949754"><ele>33.0</ele><time>2026-05-03T13:45:53.999Z</time></trkpt><trkpt lat="40.78899208132005" lon="17.536507040435083"><ele>33.0</ele><time>2026-05-03T13:45:54.999Z</time></trkpt><trkpt lat="40.789234919099535" lon="17.53655327363618"><ele>33.0</ele><time>2026-05-03T13:45:55.999Z</time></trkpt><trkpt lat="40.789479865417576" lon="17.536614618400403"><ele>31.5</ele><time>2026-05-03T13:45:56.999Z</time></trkpt><trkpt lat="40.78972127670159" lon="17.536653542836298"><ele>30.0</ele><time>2026-05-03T13:45:57.999Z</time></trkpt><trkpt lat="40.78997379533093" lon="17.53672409836374"><ele>29.5</ele><time>2026-05-03T13:45:58.999Z</time></trkpt><trkpt lat="40.7902174663062" lon="17.53677174969662"><ele>29.0</ele><time>2026-05-03T13:45:59.999Z</time></trkpt><trkpt lat="40.79045690989694" lon="17.53683612856778"><ele>29.0</ele><time>2026-05-03T13:46:00.999Z</time></trkpt><trkpt lat="40.79071424038112" lon="17.53692778656463"><ele>29.0</ele><time>2026-05-03T13:46:01.999Z</time></trkpt><trkpt lat="40.790951736132826" lon="17.537029023433313"><ele>28.5</ele><time>2026-05-03T13:46:02.999Z</time></trkpt><trkpt lat="40.7912242946189" lon="17.537117427366887"><ele>28.0</ele><time>2026-05-03T13:46:03.999Z</time></trkpt><trkpt lat="40.7915114842015" lon="17.537224050343504"><ele>28.0</ele><time>2026-05-03T13:46:04.999Z</time></trkpt><trkpt lat="40.791763819673875" lon="17.537330071636426"><ele>28.0</ele><time>2026-05-03T13:46:05.999Z</time></trkpt><trkpt lat="40.792019115949856" lon="17.53742932160005"><ele>27.0</ele><time>2026-05-03T13:46:06.999Z</time></trkpt><trkpt lat="40.79227355744374" lon="17.53752874219435"><ele>26.0</ele><time>2026-05-03T13:46:07.999Z</time></trkpt><trkpt lat="40.79252517110114" lon="17.537624537530167"><ele>25.5</ele><time>2026-05-03T13:46:08.999Z</time></trkpt><trkpt lat="40.79277999965929" lon="17.53772295972888"><ele>25.0</ele><time>2026-05-03T13:46:09.999Z</time></trkpt><trkpt lat="40.793044177749366" lon="17.537817034497774"><ele>25.0</ele><time>2026-05-03T13:46:10.999Z</time></trkpt><trkpt lat="40.793304481172335" lon="17.537893768698478"><ele>25.0</ele><time>2026-05-03T13:46:11.999Z</time></trkpt><trkpt lat="40.793568232748385" lon="17.537963694867553"><ele>25.0</ele><time>2026-05-03T13:46:12.999Z</time></trkpt><trkpt lat="40.79383671230272" lon="17.538025671253564"><ele>25.0</ele><time>2026-05-03T13:46:13.999Z</time></trkpt><trkpt lat="40.794107982141014" lon="17.5380891738175"><ele>23.5</ele><time>2026-05-03T13:46:14.999Z</time></trkpt><trkpt lat="40.79437667615329" lon="17.53815411136091"><ele>22.0</ele><time>2026-05-03T13:46:15.999Z</time></trkpt><trkpt lat="40.794636961340366" lon="17.53822402707382"><ele>22.0</ele><time>2026-05-03T13:46:16.999Z</time></trkpt><trkpt lat="40.79489566559234" lon="17.538297340987985"><ele>22.0</ele><time>2026-05-03T13:46:17.999Z</time></trkpt><trkpt lat="40.795150194615104" lon="17.538385662669462"><ele>20.5</ele><time>2026-05-03T13:46:18.999Z</time></trkpt><trkpt lat="40.795400487944605" lon="17.53849477037733"><ele>19.0</ele><time>2026-05-03T13:46:19.999Z</time></trkpt><trkpt lat="40.79564317392659" lon="17.53861063878942"><ele>18.5</ele><time>2026-05-03T13:46:20.999Z</time></trkpt><trkpt lat="40.7958830400932" lon="17.538725865538478"><ele>18.0</ele><time>2026-05-03T13:46:21.999Z</time></trkpt><trkpt lat="40.79612038319764" lon="17.538842174490103"><ele>17.0</ele><time>2026-05-03T13:46:22.999Z</time></trkpt><trkpt lat="40.796355195991325" lon="17.538952610884845"><ele>16.0</ele><time>2026-05-03T13:46:23.999Z</time></trkpt><trkpt lat="40.796576375425104" lon="17.539058656088223"><ele>16.0</ele><time>2026-05-03T13:46:24.999Z</time></trkpt><trkpt lat="40.7967930016973" lon="17.539160850021656"><ele>16.0</ele><time>2026-05-03T13:46:25.999Z</time></trkpt><trkpt lat="40.7969989684031" lon="17.539262709332366"><ele>15.333333333333332</ele><time>2026-05-03T13:46:26.999Z</time></trkpt><trkpt lat="40.79719809710033" lon="17.53935738441477"><ele>14.666666666666668</ele><time>2026-05-03T13:46:27.999Z</time></trkpt><trkpt lat="40.79738238524223" lon="17.53944624487208"><ele>14.0</ele><time>2026-05-03T13:46:28.999Z</time></trkpt><trkpt lat="40.7975617751365" lon="17.539534616758857"><ele>13.333333333333334</ele><time>2026-05-03T13:46:29.999Z</time></trkpt><trkpt lat="40.79772507349414" lon="17.539610197697193"><ele>12.666666666666668</ele><time>2026-05-03T13:46:30.999Z</time></trkpt><trkpt lat="40.79788458739134" lon="17.539686511792066"><ele>12.0</ele><time>2026-05-03T13:46:32Z</time></trkpt><trkpt lat="40.79802804783589" lon="17.539758068579392"><ele>12.0</ele><time>2026-05-03T13:46:33Z</time></trkpt><trkpt lat="40.798164060595454" lon="17.539827109421957"><ele>12.0</ele><time>2026-05-03T13:46:34Z</time></trkpt><trkpt lat="40.79828241948704" lon="17.539885441325122"><ele>12.0</ele><time>2026-05-03T13:46:35Z</time></trkpt><trkpt lat="40.79837986415995" lon="17.539944586191236"><ele>12.0</ele><time>2026-05-03T13:46:36Z</time></trkpt><trkpt lat="40.7984508075253" lon="17.540002314815816"><ele>11.8</ele><time>2026-05-03T13:46:37Z</time></trkpt><trkpt lat="40.79852567963096" lon="17.540110081513173"><ele>11.6</ele><time>2026-05-03T13:46:39Z</time></trkpt><trkpt lat="40.79858006088579" lon="17.54022620341011"><ele>11.4</ele><time>2026-05-03T13:46:41Z</time></trkpt><trkpt lat="40.79859948772539" lon="17.540348870249417"><ele>11.200000000000001</ele><time>2026-05-03T13:46:43Z</time></trkpt><trkpt lat="40.79867159757161" lon="17.54039270453051"><ele>11.0</ele><time>2026-05-03T13:46:44Z</time></trkpt><trkpt lat="40.798788743451816" lon="17.540430801715313"><ele>11.0</ele><time>2026-05-03T13:46:46Z</time></trkpt><trkpt lat="40.79885280897249" lon="17.54042375210705"><ele>11.0</ele><time>2026-05-03T13:46:47Z</time></trkpt><trkpt lat="40.79891522696562" lon="17.540387095186713"><ele>11.0</ele><time>2026-05-03T13:46:48Z</time></trkpt><trkpt lat="40.798980418199676" lon="17.540369771216692"><ele>11.0</ele><time>2026-05-03T13:46:49Z</time></trkpt><trkpt lat="40.79900494655884" lon="17.54020953775062"><ele>11.0</ele><time>2026-05-03T13:46:50Z</time></trkpt><trkpt lat="40.7990191699294" lon="17.54008016368028"><ele>11.0</ele><time>2026-05-03T13:46:51Z</time></trkpt><trkpt lat="40.79901591596414" lon="17.539951849355514"><ele>11.0</ele><time>2026-05-03T13:46:52Z</time></trkpt><trkpt lat="40.799014581476115" lon="17.539818098834722"><ele>11.0</ele><time>2026-05-03T13:46:53Z</time></trkpt><trkpt lat="40.799041575974016" lon="17.5396863304999"><ele>11.0</ele><time>2026-05-03T13:46:54Z</time></trkpt><trkpt lat="40.79910307717973" lon="17.539568777784318"><ele>11.0</ele><time>2026-05-03T13:46:55Z</time></trkpt><trkpt lat="40.79918437510663" lon="17.539464936148"><ele>11.0</ele><time>2026-05-03T13:46:56Z</time></trkpt><trkpt lat="40.7992704762243" lon="17.539362460613432"><ele>10.75</ele><time>2026-05-03T13:46:57Z</time></trkpt><trkpt lat="40.79936821268813" lon="17.539260668565102"><ele>10.5</ele><time>2026-05-03T13:46:58Z</time></trkpt><trkpt lat="40.799492520869585" lon="17.53915863872438"><ele>10.25</ele><time>2026-05-03T13:46:59Z</time></trkpt><trkpt lat="40.799634187041015" lon="17.539065581466847"><ele>10.0</ele><time>2026-05-03T13:47:00Z</time></trkpt><trkpt lat="40.79978210748407" lon="17.53899347779387"><ele>10.0</ele><time>2026-05-03T13:47:01Z</time></trkpt><trkpt lat="40.79994620980973" lon="17.53894430522793"><ele>10.0</ele><time>2026-05-03T13:47:02Z</time></trkpt><trkpt lat="40.800128308900305" lon="17.538945273154457"><ele>10.0</ele><time>2026-05-03T13:47:03Z</time></trkpt><trkpt lat="40.80032610010341" lon="17.538955297750217"><ele>9.5</ele><time>2026-05-03T13:47:04Z</time></trkpt><trkpt lat="40.80054627861824" lon="17.538997064066706"><ele>9.0</ele><time>2026-05-03T13:47:05Z</time></trkpt><trkpt lat="40.80080689763209" lon="17.539034954901577"><ele>7.5</ele><time>2026-05-03T13:47:06Z</time></trkpt><trkpt lat="40.80107682657407" lon="17.53909538950806"><ele>6.0</ele><time>2026-05-03T13:47:07Z</time></trkpt><trkpt lat="40.80132669896472" lon="17.539161704615697"><ele>6.0</ele><time>2026-05-03T13:47:08Z</time></trkpt><trkpt lat="40.80154852168799" lon="17.53921389637637"><ele>6.0</ele><time>2026-05-03T13:47:09Z</time></trkpt><trkpt lat="40.801752929462715" lon="17.539267106774208"><ele>6.0</ele><time>2026-05-03T13:47:10Z</time></trkpt><trkpt lat="40.801934950803506" lon="17.539281881532467"><ele>6.0</ele><time>2026-05-03T13:47:11Z</time></trkpt><trkpt lat="40.80212034695522" lon="17.539304193044877"><ele>6.0</ele><time>2026-05-03T13:47:12Z</time></trkpt><trkpt lat="40.80229701371586" lon="17.539293984418414"><ele>6.0</ele><time>2026-05-03T13:47:13Z</time></trkpt><trkpt lat="40.80247551378518" lon="17.539237171861714"><ele>6.0</ele><time>2026-05-03T13:47:14Z</time></trkpt><trkpt lat="40.80265714072361" lon="17.53919003101627"><ele>6.0</ele><time>2026-05-03T13:47:15Z</time></trkpt><trkpt lat="40.8028144998487" lon="17.539120044254897"><ele>6.0</ele><time>2026-05-03T13:47:16Z</time></trkpt><trkpt lat="40.802951253885844" lon="17.539044314799668"><ele>5.8</ele><time>2026-05-03T13:47:17Z</time></trkpt><trkpt lat="40.80307470623531" lon="17.53897830155016"><ele>5.6</ele><time>2026-05-03T13:47:18Z</time></trkpt><trkpt lat="40.80318105624079" lon="17.538925390678028"><ele>5.4</ele><time>2026-05-03T13:47:19Z</time></trkpt><trkpt lat="40.80326472396439" lon="17.538873436458378"><ele>5.2</ele><time>2026-05-03T13:47:20Z</time></trkpt><trkpt lat="40.803321195234396" lon="17.538807718655555"><ele>5.0</ele><time>2026-05-03T13:47:21Z</time></trkpt><trkpt lat="40.803352550373866" lon="17.538720789611997"><ele>4.666666666666667</ele><time>2026-05-03T13:47:22Z</time></trkpt><trkpt lat="40.80340258661912" lon="17.5386632040624"><ele>4.333333333333334</ele><time>2026-05-03T13:47:23Z</time></trkpt><trkpt lat="40.80332566810844" lon="17.53854446261627"><ele>4.0</ele><time>2026-05-03T13:47:24Z</time></trkpt><trkpt lat="40.80327097897927" lon="17.53848014486812"><ele>3.666666666666667</ele><time>2026-05-03T13:47:25Z</time></trkpt><trkpt lat="40.803190895840565" lon="17.53844044240619"><ele>3.3333333333333335</ele><time>2026-05-03T13:47:26Z</time></trkpt><trkpt lat="40.80310363931096" lon="17.538402898012084"><ele>3.0</ele><time>2026-05-03T13:47:27Z</time></trkpt><trkpt lat="40.80302091486486" lon="17.538337328180898"><ele>3.0</ele><time>2026-05-03T13:47:28Z</time></trkpt><trkpt lat="40.80293941038277" lon="17.53824229784157"><ele>3.0</ele><time>2026-05-03T13:47:29Z</time></trkpt><trkpt lat="40.802847095573235" lon="17.53816538590803"><ele>3.0</ele><time>2026-05-03T13:47:30Z</time></trkpt><trkpt lat="40.80273826328914" lon="17.538140685940366"><ele>3.0</ele><time>2026-05-03T13:47:31Z</time></trkpt><trkpt lat="40.80260563542009" lon="17.53816659601527"><ele>3.75</ele><time>2026-05-03T13:47:32Z</time></trkpt><trkpt lat="40.80245429589451" lon="17.53821553096973"><ele>4.5</ele><time>2026-05-03T13:47:33Z</time></trkpt><trkpt lat="40.80231736334855" lon="17.538279997769635"><ele>5.25</ele><time>2026-05-03T13:47:34Z</time></trkpt><trkpt lat="40.8021953972051" lon="17.53833043734178"><ele>6.0</ele><time>2026-05-03T13:47:35Z</time></trkpt><trkpt lat="40.802102317184264" lon="17.538373052450186"><ele>6.0</ele><time>2026-05-03T13:47:36Z</time></trkpt><trkpt lat="40.80202413134821" lon="17.538376417513238"><ele>6.0</ele><time>2026-05-03T13:47:37Z</time></trkpt><trkpt lat="40.8019637631982" lon="17.53834083912203"><ele>6.0</ele><time>2026-05-03T13:47:38Z</time></trkpt><trkpt lat="40.80190600056861" lon="17.53807569848469"><ele>6.0</ele><time>2026-05-03T13:47:41Z</time></trkpt><trkpt lat="40.8018922047516" lon="17.537954537150885"><ele>6.0</ele><time>2026-05-03T13:47:41.999Z</time></trkpt><trkpt lat="40.801874807597194" lon="17.53782375080955"><ele>6.0</ele><time>2026-05-03T13:47:42.999Z</time></trkpt><trkpt lat="40.80185856992818" lon="17.53768507937648"><ele>6.0</ele><time>2026-05-03T13:47:43.999Z</time></trkpt><trkpt lat="40.80184525331589" lon="17.53754682789778"><ele>6.0</ele><time>2026-05-03T13:47:44.999Z</time></trkpt><trkpt lat="40.80184367849589" lon="17.537399919948008"><ele>6.0</ele><time>2026-05-03T13:47:45.999Z</time></trkpt><trkpt lat="40.80186458310122" lon="17.53724131296021"><ele>6.0</ele><time>2026-05-03T13:47:46.999Z</time></trkpt><trkpt lat="40.80192586253438" lon="17.5370717981583"><ele>6.666666666666666</ele><time>2026-05-03T13:47:47.999Z</time></trkpt><trkpt lat="40.80202102111264" lon="17.536890517239154"><ele>7.333333333333333</ele><time>2026-05-03T13:47:48.999Z</time></trkpt><trkpt lat="40.802130516616074" lon="17.536692396372825"><ele>8.0</ele><time>2026-05-03T13:47:49.999Z</time></trkpt><trkpt lat="40.802226669008846" lon="17.5364880225286"><ele>8.0</ele><time>2026-05-03T13:47:50.999Z</time></trkpt><trkpt lat="40.802352543682794" lon="17.53628447747627"><ele>8.0</ele><time>2026-05-03T13:47:51.999Z</time></trkpt><trkpt lat="40.802470750189585" lon="17.536066036005426"><ele>8.0</ele><time>2026-05-03T13:47:52.999Z</time></trkpt><trkpt lat="40.80258489932525" lon="17.535865906001412"><ele>8.333333333333332</ele><time>2026-05-03T13:47:53.999Z</time></trkpt><trkpt lat="40.80270105910952" lon="17.53567154847217"><ele>8.666666666666666</ele><time>2026-05-03T13:47:54.999Z</time></trkpt><trkpt lat="40.80281873189405" lon="17.535463677809343"><ele>9.0</ele><time>2026-05-03T13:47:55.999Z</time></trkpt><trkpt lat="40.80295533792163" lon="17.535262001211496"><ele>9.0</ele><time>2026-05-03T13:47:56.999Z</time></trkpt><trkpt lat="40.80308626560537" lon="17.535045442646155"><ele>9.0</ele><time>2026-05-03T13:47:57.999Z</time></trkpt><trkpt lat="40.80321151224867" lon="17.53482072987801"><ele>9.0</ele><time>2026-05-03T13:47:58.999Z</time></trkpt><trkpt lat="40.80334612288946" lon="17.53461045930997"><ele>8.0</ele><time>2026-05-03T13:47:59.999Z</time></trkpt><trkpt lat="40.80344791795577" lon="17.534384127956255"><ele>7.0</ele><time>2026-05-03T13:48:00.999Z</time></trkpt><trkpt lat="40.803566061847846" lon="17.534172772123988"><ele>6.0</ele><time>2026-05-03T13:48:01.999Z</time></trkpt><trkpt lat="40.80368632299004" lon="17.53395542351871"><ele>6.0</ele><time>2026-05-03T13:48:02.999Z</time></trkpt><trkpt lat="40.803804235762854" lon="17.533743882486426"><ele>6.0</ele><time>2026-05-03T13:48:03.999Z</time></trkpt><trkpt lat="40.803927105734" lon="17.533516685950225"><ele>6.0</ele><time>2026-05-03T13:48:04.999Z</time></trkpt><trkpt lat="40.804041442290966" lon="17.53330485222422"><ele>6.0</ele><time>2026-05-03T13:48:05.999Z</time></trkpt><trkpt lat="40.804156549204755" lon="17.5330960148006"><ele>6.0</ele><time>2026-05-03T13:48:06.999Z</time></trkpt><trkpt lat="40.80427480082743" lon="17.532881333961804"><ele>6.0</ele><time>2026-05-03T13:48:07.999Z</time></trkpt><trkpt lat="40.80439165350767" lon="17.532666470315455"><ele>6.0</ele><time>2026-05-03T13:48:08.999Z</time></trkpt><trkpt lat="40.80462807876086" lon="17.532235942824443"><ele>6.0</ele><time>2026-05-03T13:48:10.999Z</time></trkpt><trkpt lat="40.804746511923554" lon="17.53202241948911"><ele>6.0</ele><time>2026-05-03T13:48:11.999Z</time></trkpt><trkpt lat="40.80486363554727" lon="17.53180827927155"><ele>6.0</ele><time>2026-05-03T13:48:12.999Z</time></trkpt><trkpt lat="40.8049805946618" lon="17.531594076226952"><ele>6.0</ele><time>2026-05-03T13:48:13.999Z</time></trkpt><trkpt lat="40.80509898501386" lon="17.53138112900736"><ele>4.666666666666667</ele><time>2026-05-03T13:48:14.999Z</time></trkpt><trkpt lat="40.805209920288625" lon="17.531171351976962"><ele>3.333333333333333</ele><time>2026-05-03T13:48:15.999Z</time></trkpt><trkpt lat="40.80532201220673" lon="17.53096051224856"><ele>2.0</ele><time>2026-05-03T13:48:16.999Z</time></trkpt><trkpt lat="40.80543373667716" lon="17.530752785924513"><ele>2.0</ele><time>2026-05-03T13:48:17.999Z</time></trkpt><trkpt lat="40.805549003220925" lon="17.530542237706573"><ele>2.0</ele><time>2026-05-03T13:48:18.999Z</time></trkpt><trkpt lat="40.80566227145059" lon="17.53033497594925"><ele>2.0</ele><time>2026-05-03T13:48:19.999Z</time></trkpt><trkpt lat="40.80577510171459" lon="17.530127812057835"><ele>2.0</ele><time>2026-05-03T13:48:20.999Z</time></trkpt><trkpt lat="40.80588969916544" lon="17.529922256253705"><ele>2.0</ele><time>2026-05-03T13:48:21.999Z</time></trkpt><trkpt lat="40.806002361055185" lon="17.52971683016139"><ele>2.0</ele><time>2026-05-03T13:48:22.999Z</time></trkpt><trkpt lat="40.80611508785984" lon="17.52950356182557"><ele>2.0</ele><time>2026-05-03T13:48:23.999Z</time></trkpt><trkpt lat="40.80622726474895" lon="17.529299376874587"><ele>2.0</ele><time>2026-05-03T13:48:24.999Z</time></trkpt><trkpt lat="40.806338378229" lon="17.52909564906543"><ele>2.0</ele><time>2026-05-03T13:48:25.999Z</time></trkpt><trkpt lat="40.806450802188905" lon="17.52888880001967"><ele>2.6666666666666665</ele><time>2026-05-03T13:48:26.999Z</time></trkpt><trkpt lat="40.80656347819727" lon="17.528684247528297"><ele>3.333333333333333</ele><time>2026-05-03T13:48:27.999Z</time></trkpt><trkpt lat="40.80667416695271" lon="17.52848215715721"><ele>4.0</ele><time>2026-05-03T13:48:28.999Z</time></trkpt><trkpt lat="40.80678471212916" lon="17.528278140200804"><ele>3.333333333333333</ele><time>2026-05-03T13:48:29.999Z</time></trkpt><trkpt lat="40.806892751440294" lon="17.52807095135827"><ele>2.6666666666666665</ele><time>2026-05-03T13:48:30.999Z</time></trkpt><trkpt lat="40.80699151715573" lon="17.52785353512784"><ele>2.0</ele><time>2026-05-03T13:48:31.999Z</time></trkpt><trkpt lat="40.807100815026" lon="17.52761058266008"><ele>2.0</ele><time>2026-05-03T13:48:32.999Z</time></trkpt><trkpt lat="40.80720155722908" lon="17.527366470005088"><ele>2.0</ele><time>2026-05-03T13:48:33.999Z</time></trkpt><trkpt lat="40.80730029012414" lon="17.527120570193997"><ele>2.0</ele><time>2026-05-03T13:48:34.999Z</time></trkpt><trkpt lat="40.80739788745351" lon="17.52687523498352"><ele>2.6666666666666665</ele><time>2026-05-03T13:48:35.999Z</time></trkpt><trkpt lat="40.80749505252674" lon="17.52662991752468"><ele>3.333333333333333</ele><time>2026-05-03T13:48:36.999Z</time></trkpt><trkpt lat="40.80759247266044" lon="17.526388010788573"><ele>4.0</ele><time>2026-05-03T13:48:38Z</time></trkpt><trkpt lat="40.8076891055853" lon="17.526143156795662"><ele>2.6666666666666665</ele><time>2026-05-03T13:48:39Z</time></trkpt><trkpt lat="40.80778332827142" lon="17.525897859603756"><ele>1.3333333333333333</ele><time>2026-05-03T13:48:40Z</time></trkpt><trkpt lat="40.80787713741145" lon="17.525651702306266"><ele>0.0</ele><time>2026-05-03T13:48:41Z</time></trkpt><trkpt lat="40.80798633726566" lon="17.525420722672013"><ele>1.0</ele><time>2026-05-03T13:48:42Z</time></trkpt><trkpt lat="40.80808103750396" lon="17.52517836549956"><ele>2.0</ele><time>2026-05-03T13:48:43Z</time></trkpt><trkpt lat="40.80816223315678" lon="17.52492989100516"><ele>3.0</ele><time>2026-05-03T13:48:44Z</time></trkpt><trkpt lat="40.80825575254795" lon="17.524696614782986"><ele>3.333333333333333</ele><time>2026-05-03T13:48:45Z</time></trkpt><trkpt lat="40.80834919377361" lon="17.524460408625686"><ele>3.6666666666666665</ele><time>2026-05-03T13:48:46Z</time></trkpt><trkpt lat="40.80844126366572" lon="17.52422431279247"><ele>4.0</ele><time>2026-05-03T13:48:47Z</time></trkpt><trkpt lat="40.80853222021284" lon="17.52398788323226"><ele>3.0</ele><time>2026-05-03T13:48:48Z</time></trkpt><trkpt lat="40.80862446251311" lon="17.523754249845144"><ele>2.0</ele><time>2026-05-03T13:48:49Z</time></trkpt><trkpt lat="40.80871571226627" lon="17.52352122915053"><ele>1.0</ele><time>2026-05-03T13:48:50Z</time></trkpt><trkpt lat="40.80882525766848" lon="17.52329258277664"><ele>1.0</ele><time>2026-05-03T13:48:51Z</time></trkpt><trkpt lat="40.80892182077006" lon="17.523052784773725"><ele>1.0</ele><time>2026-05-03T13:48:52Z</time></trkpt><trkpt lat="40.80900387161169" lon="17.52280227504785"><ele>1.0</ele><time>2026-05-03T13:48:53Z</time></trkpt><trkpt lat="40.80910219522491" lon="17.522558750425976"><ele>1.3333333333333333</ele><time>2026-05-03T13:48:54Z</time></trkpt><trkpt lat="40.80919934754598" lon="17.522312821727972"><ele>1.6666666666666665</ele><time>2026-05-03T13:48:55Z</time></trkpt><trkpt lat="40.80929665532907" lon="17.52206625268207"><ele>2.0</ele><time>2026-05-03T13:48:56Z</time></trkpt><trkpt lat="40.809394306426114" lon="17.52181962963997"><ele>1.6666666666666665</ele><time>2026-05-03T13:48:57Z</time></trkpt><trkpt lat="40.80949030920734" lon="17.52157100399132"><ele>1.3333333333333333</ele><time>2026-05-03T13:48:58Z</time></trkpt><trkpt lat="40.80958831013561" lon="17.521320169228673"><ele>1.0</ele><time>2026-05-03T13:48:59Z</time></trkpt><trkpt lat="40.80968966801254" lon="17.521065637469416"><ele>1.0</ele><time>2026-05-03T13:49:00Z</time></trkpt><trkpt lat="40.80979128407094" lon="17.52080813658043"><ele>1.0</ele><time>2026-05-03T13:49:01Z</time></trkpt><trkpt lat="40.80989318635384" lon="17.520546442591478"><ele>1.0</ele><time>2026-05-03T13:49:02Z</time></trkpt><trkpt lat="40.80999710587618" lon="17.520285024032713"><ele>2.0</ele><time>2026-05-03T13:49:03Z</time></trkpt><trkpt lat="40.81010126283019" lon="17.520021105841906"><ele>3.0</ele><time>2026-05-03T13:49:04Z</time></trkpt><trkpt lat="40.81020589829311" lon="17.51975601301714"><ele>2.0</ele><time>2026-05-03T13:49:05Z</time></trkpt><trkpt lat="40.81031104488281" lon="17.519489472290935"><ele>1.0</ele><time>2026-05-03T13:49:06Z</time></trkpt><trkpt lat="40.81041792965816" lon="17.51921823140556"><ele>1.0</ele><time>2026-05-03T13:49:07Z</time></trkpt><trkpt lat="40.810525953237146" lon="17.5189460523839"><ele>1.0</ele><time>2026-05-03T13:49:08Z</time></trkpt><trkpt lat="40.81063373066492" lon="17.51867249014194"><ele>1.5</ele><time>2026-05-03T13:49:09Z</time></trkpt><trkpt lat="40.81074288717063" lon="17.51839976510455"><ele>2.0</ele><time>2026-05-03T13:49:10Z</time></trkpt><trkpt lat="40.81085279555671" lon="17.51812621601469"><ele>2.5</ele><time>2026-05-03T13:49:11Z</time></trkpt><trkpt lat="40.81096250821081" lon="17.517851040430163"><ele>3.0</ele><time>2026-05-03T13:49:12Z</time></trkpt><trkpt lat="40.811085634332485" lon="17.517584779213813"><ele>1.5</ele><time>2026-05-03T13:49:13Z</time></trkpt><trkpt lat="40.81120343997205" lon="17.51729213532899"><ele>0.0</ele><time>2026-05-03T13:49:14Z</time></trkpt><trkpt lat="40.81132396256467" lon="17.516989815239643"><ele>0.0</ele><time>2026-05-03T13:49:15Z</time></trkpt><trkpt lat="40.8114393436646" lon="17.516699906691738"><ele>0.0</ele><time>2026-05-03T13:49:16Z</time></trkpt><trkpt lat="40.81154062853657" lon="17.516391478109323"><ele>1.5</ele><time>2026-05-03T13:49:17Z</time></trkpt><trkpt lat="40.81166125186588" lon="17.516084636401953"><ele>3.0</ele><time>2026-05-03T13:49:18Z</time></trkpt><trkpt lat="40.81178296189591" lon="17.51576751514124"><ele>2.0</ele><time>2026-05-03T13:49:19Z</time></trkpt><trkpt lat="40.81190848010386" lon="17.515453979259384"><ele>1.0</ele><time>2026-05-03T13:49:20Z</time></trkpt><trkpt lat="40.81196211177747" lon="17.515110584225294"><ele>1.0</ele><time>2026-05-03T13:49:21Z</time></trkpt><trkpt lat="40.81208113861406" lon="17.514809125268776"><ele>1.0</ele><time>2026-05-03T13:49:22Z</time></trkpt><trkpt lat="40.81219990878157" lon="17.514508316374435"><ele>1.5</ele><time>2026-05-03T13:49:23Z</time></trkpt><trkpt lat="40.81231877645625" lon="17.514207260580104"><ele>2.0</ele><time>2026-05-03T13:49:24Z</time></trkpt><trkpt lat="40.81243777859025" lon="17.513905867938135"><ele>3.0</ele><time>2026-05-03T13:49:25Z</time></trkpt><trkpt lat="40.812556778592416" lon="17.513604489900708"><ele>4.0</ele><time>2026-05-03T13:49:26Z</time></trkpt><trkpt lat="40.81267437788761" lon="17.513306659283003"><ele>2.5</ele><time>2026-05-03T13:49:27Z</time></trkpt><trkpt lat="40.81285179939529" lon="17.513054380390564"><ele>1.0</ele><time>2026-05-03T13:49:28Z</time></trkpt><trkpt lat="40.81296597115219" lon="17.512758970768733"><ele>1.0</ele><time>2026-05-03T13:49:29Z</time></trkpt><trkpt lat="40.813082155964985" lon="17.512471675086477"><ele>1.0</ele><time>2026-05-03T13:49:29.999Z</time></trkpt><trkpt lat="40.81320085028772" lon="17.512183987608555"><ele>1.5</ele><time>2026-05-03T13:49:30.999Z</time></trkpt><trkpt lat="40.813313990926545" lon="17.511901393886802"><ele>2.0</ele><time>2026-05-03T13:49:31.999Z</time></trkpt><trkpt lat="40.81342588389314" lon="17.511615442338623"><ele>1.0</ele><time>2026-05-03T13:49:32.999Z</time></trkpt><trkpt lat="40.81353661129909" lon="17.511330126921038"><ele>0.0</ele><time>2026-05-03T13:49:33.999Z</time></trkpt><trkpt lat="40.81364792554411" lon="17.511045139433673"><ele>0.0</ele><time>2026-05-03T13:49:34.999Z</time></trkpt><trkpt lat="40.813761405155276" lon="17.510761109288477"><ele>0.0</ele><time>2026-05-03T13:49:35.999Z</time></trkpt><trkpt lat="40.81387268848614" lon="17.51047649319923"><ele>0.5</ele><time>2026-05-03T13:49:36.999Z</time></trkpt><trkpt lat="40.81398480076438" lon="17.510198186705342"><ele>1.0</ele><time>2026-05-03T13:49:37.999Z</time></trkpt><trkpt lat="40.81409299454801" lon="17.509912985421444"><ele>1.0</ele><time>2026-05-03T13:49:38.999Z</time></trkpt><trkpt lat="40.81420081079244" lon="17.50963385005575"><ele>1.0</ele><time>2026-05-03T13:49:39.999Z</time></trkpt><trkpt lat="40.81431217341507" lon="17.50935247678279"><ele>0.5</ele><time>2026-05-03T13:49:40.999Z</time></trkpt><trkpt lat="40.81442554799369" lon="17.50907706707357"><ele>0.0</ele><time>2026-05-03T13:49:41.999Z</time></trkpt><trkpt lat="40.81453836756549" lon="17.508797096340704"><ele>0.5</ele><time>2026-05-03T13:49:42.999Z</time></trkpt><trkpt lat="40.81464730439904" lon="17.50851964977844"><ele>1.0</ele><time>2026-05-03T13:49:43.999Z</time></trkpt><trkpt lat="40.81475936824527" lon="17.50823802923105"><ele>1.0</ele><time>2026-05-03T13:49:44.999Z</time></trkpt><trkpt lat="40.814869469717486" lon="17.50795497288855"><ele>1.0</ele><time>2026-05-03T13:49:45.999Z</time></trkpt><trkpt lat="40.81497979134793" lon="17.50767501507299"><ele>1.5</ele><time>2026-05-03T13:49:46.999Z</time></trkpt><trkpt lat="40.815086534304484" lon="17.507381812256593"><ele>2.0</ele><time>2026-05-03T13:49:47.999Z</time></trkpt><trkpt lat="40.81519839047706" lon="17.50709361745067"><ele>1.5</ele><time>2026-05-03T13:49:48.999Z</time></trkpt><trkpt lat="40.8153129408513" lon="17.506805394206896"><ele>1.0</ele><time>2026-05-03T13:49:49.999Z</time></trkpt><trkpt lat="40.815429309576565" lon="17.506518672928994"><ele>1.5</ele><time>2026-05-03T13:49:50.999Z</time></trkpt><trkpt lat="40.81554595758471" lon="17.50622658452376"><ele>2.0</ele><time>2026-05-03T13:49:51.999Z</time></trkpt><trkpt lat="40.815663657717735" lon="17.505932861687928"><ele>2.0</ele><time>2026-05-03T13:49:52.999Z</time></trkpt><trkpt lat="40.81578084559333" lon="17.50563798564351"><ele>2.0</ele><time>2026-05-03T13:49:53.999Z</time></trkpt><trkpt lat="40.81589828888116" lon="17.505340021583244"><ele>1.5</ele><time>2026-05-03T13:49:54.999Z</time></trkpt><trkpt lat="40.81601489272521" lon="17.50504219704774"><ele>1.0</ele><time>2026-05-03T13:49:55.999Z</time></trkpt><trkpt lat="40.81613326055045" lon="17.504744083472435"><ele>1.5</ele><time>2026-05-03T13:49:56.999Z</time></trkpt><trkpt lat="40.81625085957809" lon="17.504448354586906"><ele>2.0</ele><time>2026-05-03T13:49:57.999Z</time></trkpt><trkpt lat="40.81637134978748" lon="17.504149869289883"><ele>2.0</ele><time>2026-05-03T13:49:58.999Z</time></trkpt><trkpt lat="40.81648830561571" lon="17.503857359715816"><ele>2.0</ele><time>2026-05-03T13:49:59.999Z</time></trkpt><trkpt lat="40.816602982351505" lon="17.503566360838363"><ele>2.0</ele><time>2026-05-03T13:50:00.999Z</time></trkpt><trkpt lat="40.816718316243005" lon="17.503273796027653"><ele>2.0</ele><time>2026-05-03T13:50:01.999Z</time></trkpt><trkpt lat="40.81683498411079" lon="17.502984482296256"><ele>0.5</ele><time>2026-05-03T13:50:02.999Z</time></trkpt><trkpt lat="40.81694799869574" lon="17.502696341611966"><ele>-1.0</ele><time>2026-05-03T13:50:03.999Z</time></trkpt><trkpt lat="40.81706116728239" lon="17.502409727248704"><ele>-1.0</ele><time>2026-05-03T13:50:04.999Z</time></trkpt><trkpt lat="40.81717392161477" lon="17.50212650115014"><ele>-1.0</ele><time>2026-05-03T13:50:05.999Z</time></trkpt><trkpt lat="40.817285951774764" lon="17.501842810134324"><ele>-0.5</ele><time>2026-05-03T13:50:06.999Z</time></trkpt><trkpt lat="40.81739660640421" lon="17.501560396661045"><ele>0.0</ele><time>2026-05-03T13:50:07.999Z</time></trkpt><trkpt lat="40.81750561975279" lon="17.501278613688267"><ele>0.0</ele><time>2026-05-03T13:50:08.999Z</time></trkpt><trkpt lat="40.81761157945545" lon="17.500998851667337"><ele>0.0</ele><time>2026-05-03T13:50:09.999Z</time></trkpt><trkpt lat="40.81772166539725" lon="17.50071816992807"><ele>0.0</ele><time>2026-05-03T13:50:10.999Z</time></trkpt><trkpt lat="40.817833792929356" lon="17.500438217115924"><ele>0.0</ele><time>2026-05-03T13:50:11.999Z</time></trkpt><trkpt lat="40.817950185619964" lon="17.50015185122651"><ele>0.0</ele><time>2026-05-03T13:50:12.999Z</time></trkpt><trkpt lat="40.81806548051497" lon="17.4998589419519"><ele>0.0</ele><time>2026-05-03T13:50:13.999Z</time></trkpt><trkpt lat="40.8181809733055" lon="17.499564437635666"><ele>1.0</ele><time>2026-05-03T13:50:14.999Z</time></trkpt><trkpt lat="40.818298886620134" lon="17.49927041429697"><ele>2.0</ele><time>2026-05-03T13:50:15.999Z</time></trkpt><trkpt lat="40.81841584906983" lon="17.49895188682231"><ele>1.0</ele><time>2026-05-03T13:50:16.999Z</time></trkpt><trkpt lat="40.818539041282705" lon="17.498666866109314"><ele>0.0</ele><time>2026-05-03T13:50:17.999Z</time></trkpt><trkpt lat="40.818663468218766" lon="17.498349525532216"><ele>0.0</ele><time>2026-05-03T13:50:18.999Z</time></trkpt><trkpt lat="40.818784851861864" lon="17.498034123344876"><ele>0.0</ele><time>2026-05-03T13:50:19.999Z</time></trkpt><trkpt lat="40.81891524332439" lon="17.4977021319738"><ele>1.0</ele><time>2026-05-03T13:50:20.999Z</time></trkpt><trkpt lat="40.81903515328875" lon="17.497361912885534"><ele>2.0</ele><time>2026-05-03T13:50:21.999Z</time></trkpt><trkpt lat="40.819166909504766" lon="17.497023793086008"><ele>1.5</ele><time>2026-05-03T13:50:22.999Z</time></trkpt><trkpt lat="40.81930335197377" lon="17.496681664067893"><ele>1.0</ele><time>2026-05-03T13:50:23.999Z</time></trkpt><trkpt lat="40.819432055498254" lon="17.496336073222587"><ele>1.0</ele><time>2026-05-03T13:50:24.999Z</time></trkpt><trkpt lat="40.81956797163576" lon="17.496004457827862"><ele>1.0</ele><time>2026-05-03T13:50:25.999Z</time></trkpt><trkpt lat="40.81969988634905" lon="17.495675369571316"><ele>0.5</ele><time>2026-05-03T13:50:26.999Z</time></trkpt><trkpt lat="40.81982791751456" lon="17.495355020881146"><ele>0.0</ele><time>2026-05-03T13:50:27.999Z</time></trkpt><trkpt lat="40.81995676561843" lon="17.49504439258115"><ele>0.0</ele><time>2026-05-03T13:50:28.999Z</time></trkpt><trkpt lat="40.8200885579282" lon="17.49473890830575"><ele>0.0</ele><time>2026-05-03T13:50:29.999Z</time></trkpt><trkpt lat="40.820227410878694" lon="17.494440024053826"><ele>0.5</ele><time>2026-05-03T13:50:30.999Z</time></trkpt><trkpt lat="40.82037081595684" lon="17.49414512820902"><ele>1.0</ele><time>2026-05-03T13:50:31.999Z</time></trkpt><trkpt lat="40.820518501722255" lon="17.493851895468154"><ele>1.0</ele><time>2026-05-03T13:50:32.999Z</time></trkpt><trkpt lat="40.82066530558354" lon="17.493560323226596"><ele>1.0</ele><time>2026-05-03T13:50:33.999Z</time></trkpt><trkpt lat="40.820817376176976" lon="17.493267020791887"><ele>1.0</ele><time>2026-05-03T13:50:34.999Z</time></trkpt><trkpt lat="40.8209660472278" lon="17.492981582737404"><ele>1.0</ele><time>2026-05-03T13:50:35.999Z</time></trkpt><trkpt lat="40.821117265911525" lon="17.492696328363472"><ele>0.5</ele><time>2026-05-03T13:50:36.999Z</time></trkpt><trkpt lat="40.82126702616964" lon="17.49241149232141"><ele>0.0</ele><time>2026-05-03T13:50:37.999Z</time></trkpt><trkpt lat="40.82141996830786" lon="17.492124890899472"><ele>0.5</ele><time>2026-05-03T13:50:38.999Z</time></trkpt><trkpt lat="40.82157243473888" lon="17.49183718537035"><ele>1.0</ele><time>2026-05-03T13:50:39.999Z</time></trkpt><trkpt lat="40.821722506303644" lon="17.491552210981467"><ele>1.0</ele><time>2026-05-03T13:50:40.999Z</time></trkpt><trkpt lat="40.82186593642933" lon="17.49127471063756"><ele>1.0</ele><time>2026-05-03T13:50:41.999Z</time></trkpt><trkpt lat="40.82200238595276" lon="17.491011307769043"><ele>1.6666666666666665</ele><time>2026-05-03T13:50:42.999Z</time></trkpt><trkpt lat="40.8221466253812" lon="17.490773908712548"><ele>2.3333333333333335</ele><time>2026-05-03T13:50:44Z</time></trkpt><trkpt lat="40.82227183216606" lon="17.49053869846376"><ele>3.0</ele><time>2026-05-03T13:50:45Z</time></trkpt><trkpt lat="40.82238917640274" lon="17.490317297491753"><ele>3.0</ele><time>2026-05-03T13:50:46Z</time></trkpt><trkpt lat="40.822489530695805" lon="17.490094150871553"><ele>3.0</ele><time>2026-05-03T13:50:47Z</time></trkpt><trkpt lat="40.82259868272262" lon="17.48989270656238"><ele>3.0</ele><time>2026-05-03T13:50:48Z</time></trkpt><trkpt lat="40.822705800257516" lon="17.489692760199944"><ele>2.0</ele><time>2026-05-03T13:50:49Z</time></trkpt><trkpt lat="40.822810794255105" lon="17.48949596217063"><ele>1.0</ele><time>2026-05-03T13:50:50Z</time></trkpt><trkpt lat="40.82290405101189" lon="17.489308235566888"><ele>0.0</ele><time>2026-05-03T13:50:51Z</time></trkpt><trkpt lat="40.82297773924552" lon="17.489119149035407"><ele>0.0</ele><time>2026-05-03T13:50:52Z</time></trkpt><trkpt lat="40.82303104570947" lon="17.48892742330395"><ele>0.0</ele><time>2026-05-03T13:50:53Z</time></trkpt><trkpt lat="40.82305181685973" lon="17.488731847955098"><ele>0.0</ele><time>2026-05-03T13:50:54Z</time></trkpt><trkpt lat="40.823052626136906" lon="17.48851226264295"><ele>0.6666666666666666</ele><time>2026-05-03T13:50:55Z</time></trkpt><trkpt lat="40.82304317050756" lon="17.48826700885952"><ele>1.3333333333333333</ele><time>2026-05-03T13:50:56Z</time></trkpt><trkpt lat="40.82302657754091" lon="17.488017426203537"><ele>2.0</ele><time>2026-05-03T13:50:57Z</time></trkpt><trkpt lat="40.82302403878976" lon="17.48777510204796"><ele>2.333333333333333</ele><time>2026-05-03T13:50:58Z</time></trkpt><trkpt lat="40.822999253628595" lon="17.48755809283406"><ele>2.6666666666666665</ele><time>2026-05-03T13:50:59Z</time></trkpt><trkpt lat="40.823003045623196" lon="17.487352511431624"><ele>3.0</ele><time>2026-05-03T13:51:00Z</time></trkpt><trkpt lat="40.82302315208514" lon="17.487159277545523"><ele>3.333333333333333</ele><time>2026-05-03T13:51:01Z</time></trkpt><trkpt lat="40.823066262053786" lon="17.48696664118258"><ele>3.6666666666666665</ele><time>2026-05-03T13:51:02Z</time></trkpt><trkpt lat="40.82313040477891" lon="17.486788348585936"><ele>4.0</ele><time>2026-05-03T13:51:03Z</time></trkpt><trkpt lat="40.82320987776825" lon="17.486606599876765"><ele>4.0</ele><time>2026-05-03T13:51:04Z</time></trkpt><trkpt lat="40.823289122830374" lon="17.48642038387227"><ele>4.0</ele><time>2026-05-03T13:51:05Z</time></trkpt><trkpt lat="40.82336532406472" lon="17.486230557511046"><ele>4.0</ele><time>2026-05-03T13:51:06Z</time></trkpt><trkpt lat="40.82344338723255" lon="17.48602961099997"><ele>3.333333333333333</ele><time>2026-05-03T13:51:07Z</time></trkpt><trkpt lat="40.82352812425603" lon="17.485816081379337"><ele>2.6666666666666665</ele><time>2026-05-03T13:51:08Z</time></trkpt><trkpt lat="40.823617291611804" lon="17.485589522126617"><ele>2.0</ele><time>2026-05-03T13:51:09Z</time></trkpt><trkpt lat="40.823707333724684" lon="17.485358273147114"><ele>2.0</ele><time>2026-05-03T13:51:10Z</time></trkpt><trkpt lat="40.823794762716695" lon="17.4851345570933"><ele>2.0</ele><time>2026-05-03T13:51:11Z</time></trkpt><trkpt lat="40.82387329149489" lon="17.484924877146295"><ele>2.0</ele><time>2026-05-03T13:51:12Z</time></trkpt><trkpt lat="40.82395281441345" lon="17.484716942442443"><ele>2.333333333333333</ele><time>2026-05-03T13:51:13Z</time></trkpt><trkpt lat="40.824051561617104" lon="17.484520670887665"><ele>2.6666666666666665</ele><time>2026-05-03T13:51:14Z</time></trkpt><trkpt lat="40.82413151276463" lon="17.48430420754597"><ele>3.0</ele><time>2026-05-03T13:51:15Z</time></trkpt><trkpt lat="40.82421694095822" lon="17.484098732131976"><ele>3.0</ele><time>2026-05-03T13:51:16Z</time></trkpt><trkpt lat="40.824303420951566" lon="17.483893294695914"><ele>3.0</ele><time>2026-05-03T13:51:17Z</time></trkpt><trkpt lat="40.8243908474044" lon="17.483685788200486"><ele>3.0</ele><time>2026-05-03T13:51:18Z</time></trkpt><trkpt lat="40.824478581305364" lon="17.48348549354092"><ele>2.3333333333333335</ele><time>2026-05-03T13:51:19Z</time></trkpt><trkpt lat="40.82456941054133" lon="17.483291556385286"><ele>1.6666666666666665</ele><time>2026-05-03T13:51:20Z</time></trkpt><trkpt lat="40.82466758842617" lon="17.483087751074866"><ele>1.0</ele><time>2026-05-03T13:51:21Z</time></trkpt><trkpt lat="40.82477832400406" lon="17.482865071572814"><ele>1.0</ele><time>2026-05-03T13:51:22Z</time></trkpt><trkpt lat="40.82489492412221" lon="17.482642190534932"><ele>1.0</ele><time>2026-05-03T13:51:23Z</time></trkpt><trkpt lat="40.82500831698532" lon="17.482420294054442"><ele>1.0</ele><time>2026-05-03T13:51:24Z</time></trkpt><trkpt lat="40.8251228055682" lon="17.48219499613943"><ele>0.6666666666666666</ele><time>2026-05-03T13:51:25Z</time></trkpt><trkpt lat="40.82523373659452" lon="17.48196917640909"><ele>0.3333333333333333</ele><time>2026-05-03T13:51:26Z</time></trkpt><trkpt lat="40.825346761007644" lon="17.481750263592932"><ele>0.0</ele><time>2026-05-03T13:51:27Z</time></trkpt><trkpt lat="40.82546119337872" lon="17.48154879007874"><ele>0.0</ele><time>2026-05-03T13:51:28Z</time></trkpt><trkpt lat="40.8255694677659" lon="17.48132538786775"><ele>0.0</ele><time>2026-05-03T13:51:29Z</time></trkpt><trkpt lat="40.82568143055116" lon="17.481115771607378"><ele>0.0</ele><time>2026-05-03T13:51:30Z</time></trkpt><trkpt lat="40.82578685356925" lon="17.480912336993605"><ele>0.6666666666666666</ele><time>2026-05-03T13:51:31Z</time></trkpt><trkpt lat="40.82588117185902" lon="17.480726202138968"><ele>1.3333333333333333</ele><time>2026-05-03T13:51:32Z</time></trkpt><trkpt lat="40.82597378671946" lon="17.480546093327227"><ele>2.0</ele><time>2026-05-03T13:51:33Z</time></trkpt><trkpt lat="40.82606516349413" lon="17.48037464397777"><ele>2.0</ele><time>2026-05-03T13:51:34Z</time></trkpt><trkpt lat="40.82615597132393" lon="17.480220506413474"><ele>2.0</ele><time>2026-05-03T13:51:35Z</time></trkpt><trkpt lat="40.82624270635914" lon="17.480073189470385"><ele>2.0</ele><time>2026-05-03T13:51:36Z</time></trkpt><trkpt lat="40.826318166198625" lon="17.479937093169966"><ele>2.0</ele><time>2026-05-03T13:51:37Z</time></trkpt><trkpt lat="40.82639855858777" lon="17.47978916950364"><ele>2.0</ele><time>2026-05-03T13:51:38Z</time></trkpt><trkpt lat="40.826487645275705" lon="17.47962522994999"><ele>2.0</ele><time>2026-05-03T13:51:38.999Z</time></trkpt><trkpt lat="40.82658242356213" lon="17.479438218084915"><ele>2.0</ele><time>2026-05-03T13:51:39.999Z</time></trkpt><trkpt lat="40.82670472363838" lon="17.479258534592873"><ele>2.333333333333333</ele><time>2026-05-03T13:51:40.999Z</time></trkpt><trkpt lat="40.82681875207668" lon="17.479061174955778"><ele>2.6666666666666665</ele><time>2026-05-03T13:51:41.999Z</time></trkpt><trkpt lat="40.82693503061217" lon="17.478872307970526"><ele>3.0</ele><time>2026-05-03T13:51:42.999Z</time></trkpt><trkpt lat="40.82703816280727" lon="17.47868347006474"><ele>3.0</ele><time>2026-05-03T13:51:43.999Z</time></trkpt><trkpt lat="40.827153260312166" lon="17.47851202647967"><ele>3.0</ele><time>2026-05-03T13:51:44.999Z</time></trkpt><trkpt lat="40.82725923416053" lon="17.47834355881143"><ele>3.0</ele><time>2026-05-03T13:51:45.999Z</time></trkpt><trkpt lat="40.82737018018873" lon="17.478177750933046"><ele>3.0</ele><time>2026-05-03T13:51:46.999Z</time></trkpt><trkpt lat="40.8274817140611" lon="17.478006678937785"><ele>3.0</ele><time>2026-05-03T13:51:47.999Z</time></trkpt><trkpt lat="40.827588421510164" lon="17.477816781686936"><ele>3.0</ele><time>2026-05-03T13:51:48.999Z</time></trkpt><trkpt lat="40.82769935665692" lon="17.477647139979382"><ele>2.6666666666666665</ele><time>2026-05-03T13:51:49.999Z</time></trkpt><trkpt lat="40.82782403194736" lon="17.47748567105569"><ele>2.333333333333333</ele><time>2026-05-03T13:51:50.999Z</time></trkpt><trkpt lat="40.82792636496465" lon="17.47732859584147"><ele>2.0</ele><time>2026-05-03T13:51:51.999Z</time></trkpt><trkpt lat="40.82801838598683" lon="17.477153290173398"><ele>2.6666666666666665</ele><time>2026-05-03T13:51:52.999Z</time></trkpt><trkpt lat="40.82813414748614" lon="17.47698193875083"><ele>3.333333333333333</ele><time>2026-05-03T13:51:53.999Z</time></trkpt><trkpt lat="40.828250751215805" lon="17.476820818369713"><ele>4.0</ele><time>2026-05-03T13:51:54.999Z</time></trkpt><trkpt lat="40.828344644151514" lon="17.476674594170312"><ele>4.0</ele><time>2026-05-03T13:51:55.999Z</time></trkpt><trkpt lat="40.82843476216064" lon="17.476532038777467"><ele>4.0</ele><time>2026-05-03T13:51:56.999Z</time></trkpt><trkpt lat="40.82852756462024" lon="17.476383783888636"><ele>4.0</ele><time>2026-05-03T13:51:57.999Z</time></trkpt><trkpt lat="40.82862615407038" lon="17.476231424404887"><ele>4.0</ele><time>2026-05-03T13:51:58.999Z</time></trkpt><trkpt lat="40.82872464392472" lon="17.476078327794415"><ele>3.6666666666666665</ele><time>2026-05-03T13:51:59.999Z</time></trkpt><trkpt lat="40.828823773707136" lon="17.475924326262184"><ele>3.333333333333333</ele><time>2026-05-03T13:52:00.999Z</time></trkpt><trkpt lat="40.82892419266387" lon="17.475768321957275"><ele>3.0</ele><time>2026-05-03T13:52:01.999Z</time></trkpt><trkpt lat="40.829029904546495" lon="17.47560409492021"><ele>3.0</ele><time>2026-05-03T13:52:02.999Z</time></trkpt><trkpt lat="40.82912422584213" lon="17.47542211008899"><ele>3.0</ele><time>2026-05-03T13:52:03.999Z</time></trkpt><trkpt lat="40.829231880036836" lon="17.475250358575746"><ele>3.0</ele><time>2026-05-03T13:52:04.999Z</time></trkpt><trkpt lat="40.8293359465238" lon="17.475072927798163"><ele>3.0</ele><time>2026-05-03T13:52:05.999Z</time></trkpt><trkpt lat="40.82944067847829" lon="17.47489400994287"><ele>3.0</ele><time>2026-05-03T13:52:06.999Z</time></trkpt><trkpt lat="40.82953564834314" lon="17.474716550753755"><ele>3.0</ele><time>2026-05-03T13:52:07.999Z</time></trkpt><trkpt lat="40.82962387004755" lon="17.47454531888252"><ele>2.6666666666666665</ele><time>2026-05-03T13:52:08.999Z</time></trkpt><trkpt lat="40.829724117971395" lon="17.47439083667127"><ele>2.333333333333333</ele><time>2026-05-03T13:52:09.999Z</time></trkpt><trkpt lat="40.82981123936872" lon="17.474217860920568"><ele>2.0</ele><time>2026-05-03T13:52:10.999Z</time></trkpt><trkpt lat="40.82989948033545" lon="17.474043942622462"><ele>2.0</ele><time>2026-05-03T13:52:11.999Z</time></trkpt><trkpt lat="40.829987850706935" lon="17.47386976977294"><ele>2.0</ele><time>2026-05-03T13:52:12.999Z</time></trkpt><trkpt lat="40.8300644265097" lon="17.4736805996449"><ele>2.0</ele><time>2026-05-03T13:52:13.999Z</time></trkpt><trkpt lat="40.830153685469504" lon="17.473509634020527"><ele>2.0</ele><time>2026-05-03T13:52:14.999Z</time></trkpt><trkpt lat="40.830237630010124" lon="17.473347866661456"><ele>2.0</ele><time>2026-05-03T13:52:15.999Z</time></trkpt><trkpt lat="40.83031606638967" lon="17.473197659649276"><ele>2.0</ele><time>2026-05-03T13:52:16.999Z</time></trkpt><trkpt lat="40.83038856729223" lon="17.47306281093365"><ele>2.0</ele><time>2026-05-03T13:52:17.999Z</time></trkpt><trkpt lat="40.83045244836358" lon="17.472939048588458"><ele>2.0</ele><time>2026-05-03T13:52:18.999Z</time></trkpt><trkpt lat="40.830510422129464" lon="17.472818275127896"><ele>2.0</ele><time>2026-05-03T13:52:19.999Z</time></trkpt><trkpt lat="40.830570726475536" lon="17.472696550818423"><ele>2.0</ele><time>2026-05-03T13:52:20.999Z</time></trkpt><trkpt lat="40.83062545145599" lon="17.472568414214965"><ele>2.0</ele><time>2026-05-03T13:52:21.999Z</time></trkpt><trkpt lat="40.83067919333529" lon="17.47244592169393"><ele>2.0</ele><time>2026-05-03T13:52:22.999Z</time></trkpt><trkpt lat="40.83073150788382" lon="17.472315202278487"><ele>2.0</ele><time>2026-05-03T13:52:23.999Z</time></trkpt><trkpt lat="40.83077595175966" lon="17.47218198418515"><ele>2.0</ele><time>2026-05-03T13:52:24.999Z</time></trkpt><trkpt lat="40.83083523432732" lon="17.47205682796632"><ele>2.0</ele><time>2026-05-03T13:52:25.999Z</time></trkpt><trkpt lat="40.83086939573762" lon="17.47191456200656"><ele>2.0</ele><time>2026-05-03T13:52:26.999Z</time></trkpt><trkpt lat="40.83091951506793" lon="17.47178504521185"><ele>2.0</ele><time>2026-05-03T13:52:27.999Z</time></trkpt><trkpt lat="40.83096753747507" lon="17.471651933904823"><ele>2.0</ele><time>2026-05-03T13:52:28.999Z</time></trkpt><trkpt lat="40.831016060617344" lon="17.471521192104575"><ele>2.0</ele><time>2026-05-03T13:52:29.999Z</time></trkpt><trkpt lat="40.83106407239366" lon="17.471391239479583"><ele>2.0</ele><time>2026-05-03T13:52:30.999Z</time></trkpt><trkpt lat="40.83110926105108" lon="17.471264257019477"><ele>2.0</ele><time>2026-05-03T13:52:31.999Z</time></trkpt><trkpt lat="40.83115370041064" lon="17.471139880544985"><ele>2.0</ele><time>2026-05-03T13:52:32.999Z</time></trkpt><trkpt lat="40.83121304613117" lon="17.471027187500468"><ele>2.0</ele><time>2026-05-03T13:52:33.999Z</time></trkpt><trkpt lat="40.831257334037176" lon="17.470904461914685"><ele>2.0</ele><time>2026-05-03T13:52:34.999Z</time></trkpt><trkpt lat="40.831300091463646" lon="17.47078370338315"><ele>2.0</ele><time>2026-05-03T13:52:35.999Z</time></trkpt><trkpt lat="40.831338767754644" lon="17.470647015456546"><ele>2.0</ele><time>2026-05-03T13:52:36.999Z</time></trkpt><trkpt lat="40.83136269287532" lon="17.470485332489325"><ele>2.0</ele><time>2026-05-03T13:52:37.999Z</time></trkpt><trkpt lat="40.831361762634785" lon="17.470296967293468"><ele>2.6666666666666665</ele><time>2026-05-03T13:52:38.999Z</time></trkpt><trkpt lat="40.831381299183356" lon="17.470105301249845"><ele>3.333333333333333</ele><time>2026-05-03T13:52:39.999Z</time></trkpt><trkpt lat="40.83140812347023" lon="17.469897609360316"><ele>4.0</ele><time>2026-05-03T13:52:40.999Z</time></trkpt><trkpt lat="40.83142652438662" lon="17.469668162540877"><ele>4.666666666666666</ele><time>2026-05-03T13:52:41.999Z</time></trkpt><trkpt lat="40.83144572666422" lon="17.46942872344015"><ele>5.333333333333333</ele><time>2026-05-03T13:52:42.999Z</time></trkpt><trkpt lat="40.831449296486966" lon="17.46918779665719"><ele>6.0</ele><time>2026-05-03T13:52:43.999Z</time></trkpt><trkpt lat="40.83147889789663" lon="17.468945677132332"><ele>5.666666666666667</ele><time>2026-05-03T13:52:44.999Z</time></trkpt><trkpt lat="40.83150242165274" lon="17.468696568868154"><ele>5.333333333333334</ele><time>2026-05-03T13:52:45.999Z</time></trkpt><trkpt lat="40.83152332955655" lon="17.468458920375006"><ele>5.0</ele><time>2026-05-03T13:52:46.999Z</time></trkpt><trkpt lat="40.83153393839798" lon="17.468225794027205"><ele>5.0</ele><time>2026-05-03T13:52:47.999Z</time></trkpt><trkpt lat="40.831567125233725" lon="17.468012451167716"><ele>5.0</ele><time>2026-05-03T13:52:48.999Z</time></trkpt><trkpt lat="40.831621041637376" lon="17.467802241073954"><ele>5.0</ele><time>2026-05-03T13:52:50Z</time></trkpt><trkpt lat="40.83170958975306" lon="17.467595456900682"><ele>4.333333333333334</ele><time>2026-05-03T13:52:51Z</time></trkpt><trkpt lat="40.83178944841399" lon="17.467374122680447"><ele>3.666666666666667</ele><time>2026-05-03T13:52:52Z</time></trkpt><trkpt lat="40.831854146015914" lon="17.467143569893594"><ele>3.0</ele><time>2026-05-03T13:52:53Z</time></trkpt><trkpt lat="40.831928975942965" lon="17.466930187228797"><ele>2.3333333333333335</ele><time>2026-05-03T13:52:54Z</time></trkpt><trkpt lat="40.83200137410044" lon="17.466722554634924"><ele>1.6666666666666665</ele><time>2026-05-03T13:52:55Z</time></trkpt><trkpt lat="40.83207381571681" lon="17.466516318254865"><ele>1.0</ele><time>2026-05-03T13:52:56Z</time></trkpt><trkpt lat="40.83214959158199" lon="17.466310677648252"><ele>1.0</ele><time>2026-05-03T13:52:57Z</time></trkpt><trkpt lat="40.83223715917358" lon="17.4661103882322"><ele>1.0</ele><time>2026-05-03T13:52:58Z</time></trkpt><trkpt lat="40.832328575444585" lon="17.46591186836512"><ele>1.0</ele><time>2026-05-03T13:52:59Z</time></trkpt><trkpt lat="40.832429627539305" lon="17.465713050059982"><ele>1.0</ele><time>2026-05-03T13:53:00Z</time></trkpt><trkpt lat="40.83253239635066" lon="17.465514490175927"><ele>1.0</ele><time>2026-05-03T13:53:01Z</time></trkpt><trkpt lat="40.83263224207959" lon="17.465314177232365"><ele>1.0</ele><time>2026-05-03T13:53:02Z</time></trkpt><trkpt lat="40.83273538530741" lon="17.465115878191693"><ele>1.0</ele><time>2026-05-03T13:53:03Z</time></trkpt><trkpt lat="40.832841549543126" lon="17.464923900418196"><ele>1.0</ele><time>2026-05-03T13:53:04Z</time></trkpt><trkpt lat="40.83294040783129" lon="17.464725544937412"><ele>1.0</ele><time>2026-05-03T13:53:05Z</time></trkpt><trkpt lat="40.833037020698534" lon="17.46452923497033"><ele>1.0</ele><time>2026-05-03T13:53:06Z</time></trkpt><trkpt lat="40.83313355190544" lon="17.46433801636437"><ele>1.0</ele><time>2026-05-03T13:53:07Z</time></trkpt><trkpt lat="40.833233396124875" lon="17.464154403504082"><ele>1.0</ele><time>2026-05-03T13:53:08Z</time></trkpt><trkpt lat="40.83334244428925" lon="17.46398093744882"><ele>1.0</ele><time>2026-05-03T13:53:09Z</time></trkpt><trkpt lat="40.83345464526812" lon="17.463817727063816"><ele>1.0</ele><time>2026-05-03T13:53:10Z</time></trkpt><trkpt lat="40.8335699298823" lon="17.46366296622177"><ele>1.0</ele><time>2026-05-03T13:53:11Z</time></trkpt><trkpt lat="40.83367481092727" lon="17.4635058111746"><ele>1.5</ele><time>2026-05-03T13:53:12Z</time></trkpt><trkpt lat="40.83376366919661" lon="17.46335892176086"><ele>2.0</ele><time>2026-05-03T13:53:13Z</time></trkpt><trkpt lat="40.83384731340038" lon="17.46322837007569"><ele>2.5</ele><time>2026-05-03T13:53:14Z</time></trkpt><trkpt lat="40.83392973924164" lon="17.46311754963542"><ele>3.0</ele><time>2026-05-03T13:53:15Z</time></trkpt><trkpt lat="40.833990961647224" lon="17.463024194783213"><ele>3.0</ele><time>2026-05-03T13:53:16Z</time></trkpt><trkpt lat="40.83404113910023" lon="17.462956893186707"><ele>3.0</ele><time>2026-05-03T13:53:17Z</time></trkpt><trkpt lat="40.83413636466437" lon="17.462873563573723"><ele>3.0</ele><time>2026-05-03T13:53:19Z</time></trkpt><trkpt lat="40.83421940046248" lon="17.46280224181875"><ele>3.0</ele><time>2026-05-03T13:53:21Z</time></trkpt><trkpt lat="40.83422634808511" lon="17.462653850513956"><ele>3.0</ele><time>2026-05-03T13:53:23Z</time></trkpt><trkpt lat="40.834144502794615" lon="17.462571613660376"><ele>3.3333333333333335</ele><time>2026-05-03T13:53:25Z</time></trkpt><trkpt lat="40.83403428759372" lon="17.462626795973392"><ele>3.666666666666667</ele><time>2026-05-03T13:53:27Z</time></trkpt><trkpt lat="40.83392112105137" lon="17.462673643442432"><ele>4.0</ele><time>2026-05-03T13:53:29Z</time></trkpt><trkpt lat="40.833851770877494" lon="17.462680112363692"><ele>4.333333333333334</ele><time>2026-05-03T13:53:30Z</time></trkpt><trkpt lat="40.833788570548336" lon="17.46268459885005"><ele>4.666666666666667</ele><time>2026-05-03T13:53:31Z</time></trkpt><trkpt lat="40.83372279807586" lon="17.46267866961511"><ele>5.0</ele><time>2026-05-03T13:53:32Z</time></trkpt><trkpt lat="40.83358859064269" lon="17.462665044586807"><ele>5.0</ele><time>2026-05-03T13:53:34Z</time></trkpt><trkpt lat="40.83351568985471" lon="17.462659116219033"><ele>5.0</ele><time>2026-05-03T13:53:35Z</time></trkpt><trkpt lat="40.83343907324049" lon="17.4626506663882"><ele>5.0</ele><time>2026-05-03T13:53:36Z</time></trkpt><trkpt lat="40.83335424165846" lon="17.46264156381695"><ele>5.0</ele><time>2026-05-03T13:53:37Z</time></trkpt><trkpt lat="40.83325871338314" lon="17.462629669093133"><ele>5.0</ele><time>2026-05-03T13:53:38Z</time></trkpt><trkpt lat="40.8331672403847" lon="17.462618861958454"><ele>5.0</ele><time>2026-05-03T13:53:39Z</time></trkpt><trkpt lat="40.83307011892974" lon="17.462607177000418"><ele>5.0</ele><time>2026-05-03T13:53:40Z</time></trkpt><trkpt lat="40.832968671852235" lon="17.462600491244615"><ele>5.0</ele><time>2026-05-03T13:53:41Z</time></trkpt><trkpt lat="40.83285927986877" lon="17.462591915969647"><ele>5.0</ele><time>2026-05-03T13:53:42Z</time></trkpt><trkpt lat="40.83274161628842" lon="17.462583102155314"><ele>5.0</ele><time>2026-05-03T13:53:43Z</time></trkpt><trkpt lat="40.83262395544139" lon="17.462572077238235"><ele>5.0</ele><time>2026-05-03T13:53:44Z</time></trkpt><trkpt lat="40.83252173883133" lon="17.462560632125058"><ele>5.4</ele><time>2026-05-03T13:53:45Z</time></trkpt><trkpt lat="40.832432349660046" lon="17.462548015455976"><ele>5.8</ele><time>2026-05-03T13:53:46Z</time></trkpt><trkpt lat="40.832347265979244" lon="17.4625389576241"><ele>6.199999999999999</ele><time>2026-05-03T13:53:47Z</time></trkpt><trkpt lat="40.8322566520359" lon="17.462514391590727"><ele>6.6</ele><time>2026-05-03T13:53:48Z</time></trkpt><trkpt lat="40.83216480458622" lon="17.462464930303504"><ele>7.0</ele><time>2026-05-03T13:53:49Z</time></trkpt><trkpt lat="40.832076417275644" lon="17.462404743951694"><ele>7.0</ele><time>2026-05-03T13:53:50Z</time></trkpt><trkpt lat="40.83199520945639" lon="17.462325760705703"><ele>6.999999999999999</ele><time>2026-05-03T13:53:51Z</time></trkpt><trkpt lat="40.83191879098157" lon="17.462234468768838"><ele>6.999999999999999</ele><time>2026-05-03T13:53:52Z</time></trkpt><trkpt lat="40.83186037319176" lon="17.462120042316098"><ele>7.0</ele><time>2026-05-03T13:53:52.999Z</time></trkpt><trkpt lat="40.83184283894875" lon="17.461988806540965"><ele>7.0</ele><time>2026-05-03T13:53:53.999Z</time></trkpt><trkpt lat="40.83179875795724" lon="17.461873186612603"><ele>7.6</ele><time>2026-05-03T13:53:54.999Z</time></trkpt><trkpt lat="40.83175326529314" lon="17.46173205742365"><ele>8.2</ele><time>2026-05-03T13:53:55.999Z</time></trkpt><trkpt lat="40.83171059088112" lon="17.46159412865671"><ele>8.8</ele><time>2026-05-03T13:53:56.999Z</time></trkpt><trkpt lat="40.831667210641356" lon="17.461458355841078"><ele>9.4</ele><time>2026-05-03T13:53:57.999Z</time></trkpt><trkpt lat="40.831627879560365" lon="17.461330687302812"><ele>10.0</ele><time>2026-05-03T13:53:58.999Z</time></trkpt><trkpt lat="40.831588566379075" lon="17.461208812567662"><ele>10.166666666666668</ele><time>2026-05-03T13:53:59.999Z</time></trkpt><trkpt lat="40.83155417656856" lon="17.461098343565425"><ele>10.333333333333334</ele><time>2026-05-03T13:54:00.999Z</time></trkpt><trkpt lat="40.8315239572443" lon="17.460997765265667"><ele>10.5</ele><time>2026-05-03T13:54:01.999Z</time></trkpt><trkpt lat="40.83149500421921" lon="17.460901490766165"><ele>10.666666666666666</ele><time>2026-05-03T13:54:02.999Z</time></trkpt><trkpt lat="40.83146489564621" lon="17.460804233051366"><ele>10.833333333333332</ele><time>2026-05-03T13:54:03.999Z</time></trkpt><trkpt lat="40.831433046569295" lon="17.46069700664669"><ele>11.0</ele><time>2026-05-03T13:54:04.999Z</time></trkpt><trkpt lat="40.83140421459125" lon="17.46058919022681"><ele>11.0</ele><time>2026-05-03T13:54:05.999Z</time></trkpt><trkpt lat="40.83138371516656" lon="17.460470859098262"><ele>11.0</ele><time>2026-05-03T13:54:06.999Z</time></trkpt><trkpt lat="40.83138283963607" lon="17.460339524626757"><ele>11.0</ele><time>2026-05-03T13:54:07.999Z</time></trkpt><trkpt lat="40.83139873827469" lon="17.460198225575475"><ele>11.0</ele><time>2026-05-03T13:54:08.999Z</time></trkpt><trkpt lat="40.831427971530935" lon="17.46005568161238"><ele>11.0</ele><time>2026-05-03T13:54:09.999Z</time></trkpt><trkpt lat="40.83146357584528" lon="17.459908672309588"><ele>11.0</ele><time>2026-05-03T13:54:10.999Z</time></trkpt><trkpt lat="40.831501413594864" lon="17.459739110187627"><ele>11.0</ele><time>2026-05-03T13:54:11.999Z</time></trkpt><trkpt lat="40.83154466943845" lon="17.45956011866273"><ele>11.0</ele><time>2026-05-03T13:54:12.999Z</time></trkpt><trkpt lat="40.83158721494178" lon="17.459390053987946"><ele>11.0</ele><time>2026-05-03T13:54:13.999Z</time></trkpt><trkpt lat="40.83162699669118" lon="17.4592059607645"><ele>11.333333333333332</ele><time>2026-05-03T13:54:14.999Z</time></trkpt><trkpt lat="40.831671729534555" lon="17.459015620423326"><ele>11.666666666666666</ele><time>2026-05-03T13:54:15.999Z</time></trkpt><trkpt lat="40.83172124597493" lon="17.45881659387281"><ele>12.0</ele><time>2026-05-03T13:54:16.999Z</time></trkpt><trkpt lat="40.83177296416236" lon="17.458612126107223"><ele>12.333333333333332</ele><time>2026-05-03T13:54:17.999Z</time></trkpt><trkpt lat="40.831826565114575" lon="17.458391475219152"><ele>12.666666666666666</ele><time>2026-05-03T13:54:18.999Z</time></trkpt><trkpt lat="40.831883106137745" lon="17.458150249694924"><ele>13.0</ele><time>2026-05-03T13:54:19.999Z</time></trkpt><trkpt lat="40.83194421237175" lon="17.457904485542574"><ele>13.0</ele><time>2026-05-03T13:54:20.999Z</time></trkpt><trkpt lat="40.832001328928456" lon="17.45765179408282"><ele>13.0</ele><time>2026-05-03T13:54:21.999Z</time></trkpt><trkpt lat="40.832058789656294" lon="17.457389104552686"><ele>13.0</ele><time>2026-05-03T13:54:22.999Z</time></trkpt><trkpt lat="40.832116504278346" lon="17.457112730849843"><ele>13.5</ele><time>2026-05-03T13:54:23.999Z</time></trkpt><trkpt lat="40.83217563242323" lon="17.456816454560403"><ele>14.0</ele><time>2026-05-03T13:54:24.999Z</time></trkpt><trkpt lat="40.83223550840027" lon="17.456496410105114"><ele>13.5</ele><time>2026-05-03T13:54:25.999Z</time></trkpt><trkpt lat="40.83229618396556" lon="17.456158400460836"><ele>13.0</ele><time>2026-05-03T13:54:26.999Z</time></trkpt><trkpt lat="40.832356997964055" lon="17.455821470179426"><ele>13.0</ele><time>2026-05-03T13:54:27.999Z</time></trkpt><trkpt lat="40.83241587314018" lon="17.455491986685686"><ele>13.0</ele><time>2026-05-03T13:54:28.999Z</time></trkpt><trkpt lat="40.832472700233446" lon="17.45516204824085"><ele>14.5</ele><time>2026-05-03T13:54:29.999Z</time></trkpt><trkpt lat="40.83252829354993" lon="17.454835428392403"><ele>16.0</ele><time>2026-05-03T13:54:30.999Z</time></trkpt><trkpt lat="40.83258305783202" lon="17.45451147211318"><ele>16.5</ele><time>2026-05-03T13:54:31.999Z</time></trkpt><trkpt lat="40.83263351424633" lon="17.454191304463386"><ele>17.0</ele><time>2026-05-03T13:54:32.999Z</time></trkpt><trkpt lat="40.83268196000801" lon="17.453874678094866"><ele>16.0</ele><time>2026-05-03T13:54:33.999Z</time></trkpt><trkpt lat="40.83272132371119" lon="17.453564310836203"><ele>15.0</ele><time>2026-05-03T13:54:34.999Z</time></trkpt><trkpt lat="40.83275259016563" lon="17.453255585815757"><ele>15.0</ele><time>2026-05-03T13:54:35.999Z</time></trkpt><trkpt lat="40.83278630714246" lon="17.452947813450006"><ele>15.0</ele><time>2026-05-03T13:54:36.999Z</time></trkpt><trkpt lat="40.83281588726828" lon="17.45262516466814"><ele>15.0</ele><time>2026-05-03T13:54:37.999Z</time></trkpt><trkpt lat="40.83284906594831" lon="17.452298422022736"><ele>15.0</ele><time>2026-05-03T13:54:38.999Z</time></trkpt><trkpt lat="40.83287757732383" lon="17.451971377087325"><ele>16.0</ele><time>2026-05-03T13:54:39.999Z</time></trkpt><trkpt lat="40.832903836041034" lon="17.45163841710319"><ele>17.0</ele><time>2026-05-03T13:54:40.999Z</time></trkpt><trkpt lat="40.8329237305498" lon="17.4513065620031"><ele>17.5</ele><time>2026-05-03T13:54:41.999Z</time></trkpt><trkpt lat="40.83294199607938" lon="17.450986946130065"><ele>18.0</ele><time>2026-05-03T13:54:42.999Z</time></trkpt><trkpt lat="40.832955052466914" lon="17.450682987914"><ele>18.333333333333332</ele><time>2026-05-03T13:54:43.999Z</time></trkpt><trkpt lat="40.832965760450705" lon="17.45038952762534"><ele>18.666666666666664</ele><time>2026-05-03T13:54:44.999Z</time></trkpt><trkpt lat="40.8329733444314" lon="17.450101649687376"><ele>19.0</ele><time>2026-05-03T13:54:45.999Z</time></trkpt><trkpt lat="40.83298465056872" lon="17.44981501202936"><ele>20.0</ele><time>2026-05-03T13:54:46.999Z</time></trkpt><trkpt lat="40.83299405084705" lon="17.44952442852711"><ele>21.0</ele><time>2026-05-03T13:54:47.999Z</time></trkpt><trkpt lat="40.833003095487356" lon="17.449241296007195"><ele>22.0</ele><time>2026-05-03T13:54:48.999Z</time></trkpt><trkpt lat="40.833004727085694" lon="17.448929779884004"><ele>22.5</ele><time>2026-05-03T13:54:49.999Z</time></trkpt><trkpt lat="40.833008342381696" lon="17.44861202110636"><ele>23.0</ele><time>2026-05-03T13:54:50.999Z</time></trkpt><trkpt lat="40.83300864768212" lon="17.44827687662513"><ele>23.0</ele><time>2026-05-03T13:54:51.999Z</time></trkpt><trkpt lat="40.8330106332079" lon="17.447928672514415"><ele>23.0</ele><time>2026-05-03T13:54:52.999Z</time></trkpt><trkpt lat="40.8330099792227" lon="17.447552319212512"><ele>24.0</ele><time>2026-05-03T13:54:53.999Z</time></trkpt><trkpt lat="40.83301895161051" lon="17.447121594652835"><ele>25.0</ele><time>2026-05-03T13:54:54.999Z</time></trkpt><trkpt lat="40.833024071112625" lon="17.44666090412353"><ele>25.5</ele><time>2026-05-03T13:54:56Z</time></trkpt><trkpt lat="40.83304264879343" lon="17.446252792784904"><ele>26.0</ele><time>2026-05-03T13:54:57Z</time></trkpt><trkpt lat="40.83305893673191" lon="17.445887489000263"><ele>26.0</ele><time>2026-05-03T13:54:58Z</time></trkpt><trkpt lat="40.8330742160512" lon="17.44554722510532"><ele>26.0</ele><time>2026-05-03T13:54:59Z</time></trkpt><trkpt lat="40.833087910748894" lon="17.445220430076876"><ele>27.0</ele><time>2026-05-03T13:55:00Z</time></trkpt><trkpt lat="40.83310073675235" lon="17.444907628163786"><ele>28.0</ele><time>2026-05-03T13:55:01Z</time></trkpt><trkpt lat="40.833105986104016" lon="17.44457785892807"><ele>28.0</ele><time>2026-05-03T13:55:02Z</time></trkpt><trkpt lat="40.833111008164394" lon="17.444242258564376"><ele>28.0</ele><time>2026-05-03T13:55:03Z</time></trkpt><trkpt lat="40.83311611959155" lon="17.44392056907039"><ele>28.666666666666668</ele><time>2026-05-03T13:55:04Z</time></trkpt><trkpt lat="40.8331243818719" lon="17.44362663219665"><ele>29.333333333333336</ele><time>2026-05-03T13:55:05Z</time></trkpt><trkpt lat="40.83313007283513" lon="17.443352289709875"><ele>30.0</ele><time>2026-05-03T13:55:06Z</time></trkpt><trkpt lat="40.83313842082981" lon="17.44307803650089"><ele>30.666666666666664</ele><time>2026-05-03T13:55:07Z</time></trkpt><trkpt lat="40.83314742440305" lon="17.442827035371185"><ele>31.333333333333332</ele><time>2026-05-03T13:55:08Z</time></trkpt><trkpt lat="40.833141218182305" lon="17.442585521737534"><ele>32.0</ele><time>2026-05-03T13:55:09Z</time></trkpt><trkpt lat="40.83314420100877" lon="17.442325464155637"><ele>32.0</ele><time>2026-05-03T13:55:10Z</time></trkpt><trkpt lat="40.83315321052628" lon="17.442078986693957"><ele>32.0</ele><time>2026-05-03T13:55:11Z</time></trkpt><trkpt lat="40.83315587013493" lon="17.4418300295226"><ele>32.0</ele><time>2026-05-03T13:55:12Z</time></trkpt><trkpt lat="40.83316112707819" lon="17.44157216085994"><ele>32.0</ele><time>2026-05-03T13:55:13Z</time></trkpt><trkpt lat="40.83316690306025" lon="17.44131314101442"><ele>32.0</ele><time>2026-05-03T13:55:14Z</time></trkpt><trkpt lat="40.833180259036325" lon="17.441053758802234"><ele>32.0</ele><time>2026-05-03T13:55:15Z</time></trkpt><trkpt lat="40.833185140950924" lon="17.44079078446398"><ele>32.0</ele><time>2026-05-03T13:55:16Z</time></trkpt><trkpt lat="40.83318903589083" lon="17.440528730889657"><ele>32.0</ele><time>2026-05-03T13:55:17Z</time></trkpt><trkpt lat="40.83319389304092" lon="17.44026240001924"><ele>32.0</ele><time>2026-05-03T13:55:18Z</time></trkpt><trkpt lat="40.83319648503225" lon="17.439995119891318"><ele>32.0</ele><time>2026-05-03T13:55:19Z</time></trkpt><trkpt lat="40.833197789242924" lon="17.43972553216054"><ele>32.0</ele><time>2026-05-03T13:55:20Z</time></trkpt><trkpt lat="40.83320335211941" lon="17.439451962342712"><ele>32.0</ele><time>2026-05-03T13:55:21Z</time></trkpt><trkpt lat="40.83320772415006" lon="17.439165886461996"><ele>32.0</ele><time>2026-05-03T13:55:22Z</time></trkpt><trkpt lat="40.83321747747522" lon="17.43887765008946"><ele>32.0</ele><time>2026-05-03T13:55:23Z</time></trkpt><trkpt lat="40.833222691734676" lon="17.438583530532473"><ele>32.0</ele><time>2026-05-03T13:55:24Z</time></trkpt><trkpt lat="40.83322627012997" lon="17.438285499570394"><ele>33.0</ele><time>2026-05-03T13:55:25Z</time></trkpt><trkpt lat="40.833231568876414" lon="17.43796334478429"><ele>34.0</ele><time>2026-05-03T13:55:26Z</time></trkpt><trkpt lat="40.833228573913544" lon="17.437665803499566"><ele>34.0</ele><time>2026-05-03T13:55:27Z</time></trkpt><trkpt lat="40.833243596524255" lon="17.43736442444109"><ele>34.0</ele><time>2026-05-03T13:55:28Z</time></trkpt><trkpt lat="40.833251098224586" lon="17.437058859509754"><ele>34.5</ele><time>2026-05-03T13:55:29Z</time></trkpt><trkpt lat="40.83326044137194" lon="17.43675699298595"><ele>35.0</ele><time>2026-05-03T13:55:30Z</time></trkpt><trkpt lat="40.83326782017638" lon="17.43645479425681"><ele>35.666666666666664</ele><time>2026-05-03T13:55:31Z</time></trkpt><trkpt lat="40.83326941748874" lon="17.43615412577038"><ele>36.333333333333336</ele><time>2026-05-03T13:55:32Z</time></trkpt><trkpt lat="40.83327116315136" lon="17.435861392353175"><ele>37.0</ele><time>2026-05-03T13:55:33Z</time></trkpt><trkpt lat="40.83327937018201" lon="17.43557063016384"><ele>37.0</ele><time>2026-05-03T13:55:34Z</time></trkpt><trkpt lat="40.83328635422342" lon="17.435280257777688"><ele>37.0</ele><time>2026-05-03T13:55:35Z</time></trkpt><trkpt lat="40.833287615082874" lon="17.43498406366039"><ele>37.0</ele><time>2026-05-03T13:55:36Z</time></trkpt><trkpt lat="40.833293235004106" lon="17.43469416668874"><ele>38.0</ele><time>2026-05-03T13:55:37Z</time></trkpt><trkpt lat="40.833306421103" lon="17.43439119660469"><ele>39.0</ele><time>2026-05-03T13:55:38Z</time></trkpt><trkpt lat="40.83331566020889" lon="17.4340901962411"><ele>39.5</ele><time>2026-05-03T13:55:39Z</time></trkpt><trkpt lat="40.83332165632658" lon="17.433787938611157"><ele>40.0</ele><time>2026-05-03T13:55:40Z</time></trkpt><trkpt lat="40.833326672314236" lon="17.433481551751733"><ele>40.0</ele><time>2026-05-03T13:55:41Z</time></trkpt><trkpt lat="40.83332930159429" lon="17.4331745908552"><ele>40.0</ele><time>2026-05-03T13:55:42Z</time></trkpt><trkpt lat="40.833333952846054" lon="17.432864907664573"><ele>40.5</ele><time>2026-05-03T13:55:43Z</time></trkpt><trkpt lat="40.83334076194413" lon="17.43255493698237"><ele>41.0</ele><time>2026-05-03T13:55:44Z</time></trkpt><trkpt lat="40.83336266886862" lon="17.43226427878637"><ele>41.0</ele><time>2026-05-03T13:55:45Z</time></trkpt><trkpt lat="40.83335816686412" lon="17.43193816019983"><ele>41.0</ele><time>2026-05-03T13:55:46Z</time></trkpt><trkpt lat="40.83336331959682" lon="17.431624232468682"><ele>41.5</ele><time>2026-05-03T13:55:47Z</time></trkpt><trkpt lat="40.83337390119141" lon="17.4313009852643"><ele>42.0</ele><time>2026-05-03T13:55:48Z</time></trkpt><trkpt lat="40.83337973059209" lon="17.430996918181112"><ele>42.0</ele><time>2026-05-03T13:55:49Z</time></trkpt><trkpt lat="40.833384536932" lon="17.430689142568006"><ele>42.0</ele><time>2026-05-03T13:55:50Z</time></trkpt><trkpt lat="40.833386977498535" lon="17.43038012499962"><ele>42.0</ele><time>2026-05-03T13:55:51Z</time></trkpt><trkpt lat="40.83339351227001" lon="17.43007840965168"><ele>42.0</ele><time>2026-05-03T13:55:52Z</time></trkpt><trkpt lat="40.83339794610392" lon="17.429781372206527"><ele>42.0</ele><time>2026-05-03T13:55:53Z</time></trkpt><trkpt lat="40.83340307937695" lon="17.429472019343283"><ele>42.0</ele><time>2026-05-03T13:55:54Z</time></trkpt><trkpt lat="40.833412009550344" lon="17.429180011233814"><ele>42.0</ele><time>2026-05-03T13:55:55Z</time></trkpt><trkpt lat="40.83341489655063" lon="17.42888575147929"><ele>42.0</ele><time>2026-05-03T13:55:56Z</time></trkpt><trkpt lat="40.83341793791294" lon="17.428593534813746"><ele>42.0</ele><time>2026-05-03T13:55:57Z</time></trkpt><trkpt lat="40.83342535991688" lon="17.428304229100995"><ele>41.666666666666664</ele><time>2026-05-03T13:55:58Z</time></trkpt><trkpt lat="40.83342906756139" lon="17.42801664376256"><ele>41.33333333333333</ele><time>2026-05-03T13:55:59Z</time></trkpt><trkpt lat="40.833434591470926" lon="17.42772801126801"><ele>41.0</ele><time>2026-05-03T13:56:00Z</time></trkpt><trkpt lat="40.833439493868035" lon="17.427440862667783"><ele>41.0</ele><time>2026-05-03T13:56:01Z</time></trkpt><trkpt lat="40.833446905039516" lon="17.427144920648736"><ele>41.0</ele><time>2026-05-03T13:56:02Z</time></trkpt><trkpt lat="40.833455518821296" lon="17.426847525459056"><ele>41.0</ele><time>2026-05-03T13:56:03Z</time></trkpt><trkpt lat="40.83345813271308" lon="17.426544227556967"><ele>42.5</ele><time>2026-05-03T13:56:04Z</time></trkpt><trkpt lat="40.83346376902913" lon="17.426241576575755"><ele>44.0</ele><time>2026-05-03T13:56:05Z</time></trkpt><trkpt lat="40.83347271719983" lon="17.425934724307417"><ele>44.0</ele><time>2026-05-03T13:56:06Z</time></trkpt><trkpt lat="40.83348091767897" lon="17.42561573659554"><ele>44.0</ele><time>2026-05-03T13:56:07Z</time></trkpt><trkpt lat="40.83348849387888" lon="17.4252900963263"><ele>44.0</ele><time>2026-05-03T13:56:08Z</time></trkpt><trkpt lat="40.83349023961399" lon="17.424960240949805"><ele>44.0</ele><time>2026-05-03T13:56:09Z</time></trkpt><trkpt lat="40.83349355038946" lon="17.424637840286824"><ele>43.0</ele><time>2026-05-03T13:56:10Z</time></trkpt><trkpt lat="40.83349715376506" lon="17.424324517994812"><ele>42.0</ele><time>2026-05-03T13:56:11Z</time></trkpt><trkpt lat="40.83350033145462" lon="17.424013224836532"><ele>43.0</ele><time>2026-05-03T13:56:11.999Z</time></trkpt><trkpt lat="40.83350851601331" lon="17.42370540552164"><ele>44.0</ele><time>2026-05-03T13:56:12.999Z</time></trkpt><trkpt lat="40.833519024073134" lon="17.423387923638195"><ele>44.0</ele><time>2026-05-03T13:56:13.999Z</time></trkpt><trkpt lat="40.833528443646756" lon="17.423059373906103"><ele>44.0</ele><time>2026-05-03T13:56:14.999Z</time></trkpt><trkpt lat="40.83353593020093" lon="17.42272491120123"><ele>44.0</ele><time>2026-05-03T13:56:15.999Z</time></trkpt><trkpt lat="40.83354295138151" lon="17.422391345618088"><ele>44.0</ele><time>2026-05-03T13:56:16.999Z</time></trkpt><trkpt lat="40.8335507733108" lon="17.422067580053227"><ele>44.666666666666664</ele><time>2026-05-03T13:56:17.999Z</time></trkpt><trkpt lat="40.833554960225065" lon="17.42176681699188"><ele>45.333333333333336</ele><time>2026-05-03T13:56:18.999Z</time></trkpt><trkpt lat="40.83355185251814" lon="17.421479859344405"><ele>46.0</ele><time>2026-05-03T13:56:19.999Z</time></trkpt><trkpt lat="40.833567917696364" lon="17.421182462930094"><ele>46.5</ele><time>2026-05-03T13:56:20.999Z</time></trkpt><trkpt lat="40.8335735413247" lon="17.420888255365266"><ele>47.0</ele><time>2026-05-03T13:56:21.999Z</time></trkpt><trkpt lat="40.83357664369311" lon="17.42058830174917"><ele>47.0</ele><time>2026-05-03T13:56:22.999Z</time></trkpt><trkpt lat="40.833582438855764" lon="17.42030492358235"><ele>47.0</ele><time>2026-05-03T13:56:23.999Z</time></trkpt><trkpt lat="40.83359524451356" lon="17.42003917346994"><ele>47.0</ele><time>2026-05-03T13:56:24.999Z</time></trkpt><trkpt lat="40.83359090965771" lon="17.41974881864051"><ele>47.0</ele><time>2026-05-03T13:56:25.999Z</time></trkpt><trkpt lat="40.8336015026879" lon="17.419474758277122"><ele>47.0</ele><time>2026-05-03T13:56:26.999Z</time></trkpt><trkpt lat="40.83360846785275" lon="17.419199823603396"><ele>47.0</ele><time>2026-05-03T13:56:27.999Z</time></trkpt><trkpt lat="40.83361192557036" lon="17.41890640401816"><ele>47.666666666666664</ele><time>2026-05-03T13:56:28.999Z</time></trkpt><trkpt lat="40.83362220751123" lon="17.418637135135377"><ele>48.33333333333333</ele><time>2026-05-03T13:56:29.999Z</time></trkpt><trkpt lat="40.8336338484349" lon="17.418349804202425"><ele>49.0</ele><time>2026-05-03T13:56:30.999Z</time></trkpt><trkpt lat="40.833631940398504" lon="17.418056170758657"><ele>49.0</ele><time>2026-05-03T13:56:31.999Z</time></trkpt><trkpt lat="40.83364036819305" lon="17.417746413072795"><ele>49.0</ele><time>2026-05-03T13:56:32.999Z</time></trkpt><trkpt lat="40.83363347694958" lon="17.417443836189015"><ele>49.0</ele><time>2026-05-03T13:56:33.999Z</time></trkpt><trkpt lat="40.83364565121838" lon="17.417149646592158"><ele>49.0</ele><time>2026-05-03T13:56:34.999Z</time></trkpt><trkpt lat="40.83365594031947" lon="17.416853089901036"><ele>49.0</ele><time>2026-05-03T13:56:35.999Z</time></trkpt><trkpt lat="40.833661648955186" lon="17.416555945435896"><ele>49.33333333333333</ele><time>2026-05-03T13:56:36.999Z</time></trkpt><trkpt lat="40.83366643621022" lon="17.416261214707085"><ele>49.66666666666667</ele><time>2026-05-03T13:56:37.999Z</time></trkpt><trkpt lat="40.833673082380834" lon="17.41596583610022"><ele>50.0</ele><time>2026-05-03T13:56:38.999Z</time></trkpt><trkpt lat="40.833679592080834" lon="17.415666949969943"><ele>50.5</ele><time>2026-05-03T13:56:39.999Z</time></trkpt><trkpt lat="40.83368645411475" lon="17.415366332290553"><ele>51.0</ele><time>2026-05-03T13:56:40.999Z</time></trkpt><trkpt lat="40.83369375728865" lon="17.415063049132147"><ele>51.0</ele><time>2026-05-03T13:56:41.999Z</time></trkpt><trkpt lat="40.83370100773733" lon="17.414770593328008"><ele>51.0</ele><time>2026-05-03T13:56:42.999Z</time></trkpt><trkpt lat="40.83370393076687" lon="17.41449105963465"><ele>51.0</ele><time>2026-05-03T13:56:43.999Z</time></trkpt><trkpt lat="40.83370989572045" lon="17.414230102679692"><ele>50.66666666666667</ele><time>2026-05-03T13:56:44.999Z</time></trkpt><trkpt lat="40.833715339587805" lon="17.413964163883957"><ele>50.333333333333336</ele><time>2026-05-03T13:56:45.999Z</time></trkpt><trkpt lat="40.83372106263551" lon="17.413690999136822"><ele>50.0</ele><time>2026-05-03T13:56:46.999Z</time></trkpt><trkpt lat="40.83372503144425" lon="17.413409790073832"><ele>50.0</ele><time>2026-05-03T13:56:47.999Z</time></trkpt><trkpt lat="40.8337329319727" lon="17.4131315426295"><ele>50.0</ele><time>2026-05-03T13:56:48.999Z</time></trkpt><trkpt lat="40.83373837644399" lon="17.412844248218786"><ele>50.0</ele><time>2026-05-03T13:56:49.999Z</time></trkpt><trkpt lat="40.83374342068233" lon="17.412575431284722"><ele>51.0</ele><time>2026-05-03T13:56:50.999Z</time></trkpt><trkpt lat="40.83375148562338" lon="17.412310143840184"><ele>52.0</ele><time>2026-05-03T13:56:51.999Z</time></trkpt><trkpt lat="40.83375515129701" lon="17.412065156533"><ele>53.0</ele><time>2026-05-03T13:56:52.999Z</time></trkpt><trkpt lat="40.833754528916394" lon="17.41184015901697"><ele>53.0</ele><time>2026-05-03T13:56:53.999Z</time></trkpt><trkpt lat="40.83376032714949" lon="17.411605136878485"><ele>53.0</ele><time>2026-05-03T13:56:54.999Z</time></trkpt><trkpt lat="40.833770670063615" lon="17.411381236571533"><ele>53.0</ele><time>2026-05-03T13:56:55.999Z</time></trkpt><trkpt lat="40.83377535869093" lon="17.411127442895257"><ele>53.333333333333336</ele><time>2026-05-03T13:56:56.999Z</time></trkpt><trkpt lat="40.83378116585136" lon="17.41088575166495"><ele>53.66666666666667</ele><time>2026-05-03T13:56:57.999Z</time></trkpt><trkpt lat="40.83379162556976" lon="17.41063209922816"><ele>54.0</ele><time>2026-05-03T13:56:58.999Z</time></trkpt><trkpt lat="40.83379947704764" lon="17.410371931596057"><ele>54.33333333333333</ele><time>2026-05-03T13:56:59.999Z</time></trkpt><trkpt lat="40.833800194838915" lon="17.410118801501117"><ele>54.666666666666664</ele><time>2026-05-03T13:57:00.999Z</time></trkpt><trkpt lat="40.8337954785887" lon="17.409870602836104"><ele>55.0</ele><time>2026-05-03T13:57:02Z</time></trkpt><trkpt lat="40.83379912307107" lon="17.409643332009583"><ele>55.666666666666664</ele><time>2026-05-03T13:57:03Z</time></trkpt><trkpt lat="40.833807921440915" lon="17.40940130979022"><ele>56.33333333333333</ele><time>2026-05-03T13:57:04Z</time></trkpt><trkpt lat="40.83381618480666" lon="17.40914366826711"><ele>57.0</ele><time>2026-05-03T13:57:05Z</time></trkpt><trkpt lat="40.833822277902186" lon="17.408883015918146"><ele>57.66666666666667</ele><time>2026-05-03T13:57:06Z</time></trkpt><trkpt lat="40.83382748758967" lon="17.408612177338437"><ele>58.333333333333336</ele><time>2026-05-03T13:57:07Z</time></trkpt><trkpt lat="40.833833109545026" lon="17.40834687854859"><ele>59.0</ele><time>2026-05-03T13:57:08Z</time></trkpt><trkpt lat="40.833834665287874" lon="17.40807300483694"><ele>59.0</ele><time>2026-05-03T13:57:09Z</time></trkpt><trkpt lat="40.83383976538732" lon="17.407806036978673"><ele>59.0</ele><time>2026-05-03T13:57:10Z</time></trkpt><trkpt lat="40.833840633678115" lon="17.40752200619681"><ele>59.0</ele><time>2026-05-03T13:57:11Z</time></trkpt><trkpt lat="40.83384662539661" lon="17.407241800294507"><ele>59.333333333333336</ele><time>2026-05-03T13:57:12Z</time></trkpt><trkpt lat="40.83385286550254" lon="17.406965490824767"><ele>59.66666666666667</ele><time>2026-05-03T13:57:13Z</time></trkpt><trkpt lat="40.833865044701874" lon="17.40669884564827"><ele>60.0</ele><time>2026-05-03T13:57:14Z</time></trkpt><trkpt lat="40.83386461179336" lon="17.406423675797527"><ele>60.0</ele><time>2026-05-03T13:57:15Z</time></trkpt><trkpt lat="40.833874643273965" lon="17.406144361561335"><ele>60.0</ele><time>2026-05-03T13:57:16Z</time></trkpt><trkpt lat="40.83388523966424" lon="17.405867911825045"><ele>60.0</ele><time>2026-05-03T13:57:17Z</time></trkpt><trkpt lat="40.833891502963" lon="17.405583034511775"><ele>60.33333333333333</ele><time>2026-05-03T13:57:18Z</time></trkpt><trkpt lat="40.83389908848706" lon="17.405288317134367"><ele>60.666666666666664</ele><time>2026-05-03T13:57:19Z</time></trkpt><trkpt lat="40.83389933565039" lon="17.40499430935134"><ele>61.0</ele><time>2026-05-03T13:57:20Z</time></trkpt><trkpt lat="40.833904496875924" lon="17.404689651803793"><ele>61.5</ele><time>2026-05-03T13:57:21Z</time></trkpt><trkpt lat="40.83391087482187" lon="17.404384536044645"><ele>62.0</ele><time>2026-05-03T13:57:22Z</time></trkpt><trkpt lat="40.83391565116832" lon="17.404077790929282"><ele>62.5</ele><time>2026-05-03T13:57:23Z</time></trkpt><trkpt lat="40.833920976070324" lon="17.403769675054996"><ele>63.0</ele><time>2026-05-03T13:57:24Z</time></trkpt><trkpt lat="40.833928037202426" lon="17.40346447391163"><ele>63.0</ele><time>2026-05-03T13:57:25Z</time></trkpt><trkpt lat="40.83393468277724" lon="17.403153684771794"><ele>63.0</ele><time>2026-05-03T13:57:26Z</time></trkpt><trkpt lat="40.83394486744589" lon="17.40282606634642"><ele>63.5</ele><time>2026-05-03T13:57:27Z</time></trkpt><trkpt lat="40.833951403785115" lon="17.402527627410038"><ele>64.0</ele><time>2026-05-03T13:57:28Z</time></trkpt><trkpt lat="40.833951308578676" lon="17.402186049589993"><ele>64.5</ele><time>2026-05-03T13:57:29Z</time></trkpt><trkpt lat="40.83396567945678" lon="17.40186815303911"><ele>65.0</ele><time>2026-05-03T13:57:30Z</time></trkpt><trkpt lat="40.83396557743894" lon="17.40153646983003"><ele>65.0</ele><time>2026-05-03T13:57:31Z</time></trkpt><trkpt lat="40.83397206827197" lon="17.40120511471783"><ele>65.0</ele><time>2026-05-03T13:57:32Z</time></trkpt><trkpt lat="40.83397548603522" lon="17.40087541226554"><ele>65.0</ele><time>2026-05-03T13:57:33Z</time></trkpt><trkpt lat="40.833981365528786" lon="17.400547013147698"><ele>65.0</ele><time>2026-05-03T13:57:34Z</time></trkpt><trkpt lat="40.833991179918655" lon="17.400221743226513"><ele>65.5</ele><time>2026-05-03T13:57:35Z</time></trkpt><trkpt lat="40.83400575839663" lon="17.399909366406046"><ele>66.0</ele><time>2026-05-03T13:57:36Z</time></trkpt><trkpt lat="40.83400879940189" lon="17.399565130912144"><ele>67.0</ele><time>2026-05-03T13:57:37Z</time></trkpt><trkpt lat="40.83400814311194" lon="17.399236842629687"><ele>68.0</ele><time>2026-05-03T13:57:38Z</time></trkpt><trkpt lat="40.83402168455325" lon="17.398933705383776"><ele>68.5</ele><time>2026-05-03T13:57:39Z</time></trkpt><trkpt lat="40.83402836585406" lon="17.398609291691038"><ele>69.0</ele><time>2026-05-03T13:57:40Z</time></trkpt><trkpt lat="40.834032905542095" lon="17.398286442487805"><ele>69.5</ele><time>2026-05-03T13:57:41Z</time></trkpt><trkpt lat="40.83403912333079" lon="17.39797148777512"><ele>70.0</ele><time>2026-05-03T13:57:42Z</time></trkpt><trkpt lat="40.834047111585214" lon="17.3976532837118"><ele>70.0</ele><time>2026-05-03T13:57:43Z</time></trkpt><trkpt lat="40.83405368781608" lon="17.397341378579995"><ele>70.0</ele><time>2026-05-03T13:57:44Z</time></trkpt><trkpt lat="40.83405930818853" lon="17.397030582548403"><ele>71.0</ele><time>2026-05-03T13:57:45Z</time></trkpt><trkpt lat="40.834065844823016" lon="17.39672124394194"><ele>72.0</ele><time>2026-05-03T13:57:46Z</time></trkpt><trkpt lat="40.83407184456152" lon="17.39641048040903"><ele>72.5</ele><time>2026-05-03T13:57:47Z</time></trkpt><trkpt lat="40.83407825427472" lon="17.396106774759964"><ele>73.0</ele><time>2026-05-03T13:57:48Z</time></trkpt><trkpt lat="40.83408989848021" lon="17.39580104628309"><ele>72.5</ele><time>2026-05-03T13:57:49Z</time></trkpt><trkpt lat="40.83410478979839" lon="17.39549202198667"><ele>72.0</ele><time>2026-05-03T13:57:50Z</time></trkpt><trkpt lat="40.83413045347689" lon="17.395184290006668"><ele>72.0</ele><time>2026-05-03T13:57:51Z</time></trkpt><trkpt lat="40.83415885858796" lon="17.394881400982452"><ele>72.0</ele><time>2026-05-03T13:57:52Z</time></trkpt><trkpt lat="40.83419067627036" lon="17.394575767983806"><ele>72.5</ele><time>2026-05-03T13:57:53Z</time></trkpt><trkpt lat="40.83422194538115" lon="17.394273116772148"><ele>73.0</ele><time>2026-05-03T13:57:54Z</time></trkpt><trkpt lat="40.83425436179161" lon="17.393976512515295"><ele>73.33333333333333</ele><time>2026-05-03T13:57:55Z</time></trkpt><trkpt lat="40.83428482350996" lon="17.393680428541007"><ele>73.66666666666667</ele><time>2026-05-03T13:57:56Z</time></trkpt><trkpt lat="40.834321611489905" lon="17.393390473005972"><ele>74.0</ele><time>2026-05-03T13:57:57Z</time></trkpt><trkpt lat="40.83435819443434" lon="17.393100650699253"><ele>73.66666666666667</ele><time>2026-05-03T13:57:58Z</time></trkpt><trkpt lat="40.83440432597147" lon="17.392817951260405"><ele>73.33333333333333</ele><time>2026-05-03T13:57:59Z</time></trkpt><trkpt lat="40.83445084828447" lon="17.392538337127952"><ele>73.0</ele><time>2026-05-03T13:58:00Z</time></trkpt><trkpt lat="40.834496949174074" lon="17.392251059560138"><ele>73.66666666666666</ele><time>2026-05-03T13:58:01Z</time></trkpt><trkpt lat="40.83454960172603" lon="17.391961019681418"><ele>74.33333333333333</ele><time>2026-05-03T13:58:02Z</time></trkpt><trkpt lat="40.8346065401092" lon="17.391678762447576"><ele>75.0</ele><time>2026-05-03T13:58:03Z</time></trkpt><trkpt lat="40.834665883884306" lon="17.39138356005748"><ele>77.0</ele><time>2026-05-03T13:58:04Z</time></trkpt><trkpt lat="40.83473264571245" lon="17.391097902580075"><ele>79.0</ele><time>2026-05-03T13:58:05Z</time></trkpt><trkpt lat="40.83479950081792" lon="17.39079330961269"><ele>79.5</ele><time>2026-05-03T13:58:06Z</time></trkpt><trkpt lat="40.834878455822235" lon="17.3905026129883"><ele>80.0</ele><time>2026-05-03T13:58:07Z</time></trkpt><trkpt lat="40.83495380382736" lon="17.39018210897436"><ele>80.0</ele><time>2026-05-03T13:58:08Z</time></trkpt><trkpt lat="40.83502635017969" lon="17.38986426959603"><ele>80.0</ele><time>2026-05-03T13:58:09Z</time></trkpt><trkpt lat="40.835115423534596" lon="17.38955074111595"><ele>80.5</ele><time>2026-05-03T13:58:10Z</time></trkpt><trkpt lat="40.83520583054916" lon="17.389235454805483"><ele>81.0</ele><time>2026-05-03T13:58:11Z</time></trkpt><trkpt lat="40.83530157263044" lon="17.38892329910311"><ele>81.5</ele><time>2026-05-03T13:58:11.999Z</time></trkpt><trkpt lat="40.835396805286095" lon="17.388623581415782"><ele>82.0</ele><time>2026-05-03T13:58:12.999Z</time></trkpt><trkpt lat="40.83548623341612" lon="17.38834821971838"><ele>82.0</ele><time>2026-05-03T13:58:13.999Z</time></trkpt><trkpt lat="40.83557894703421" lon="17.388093171081962"><ele>82.0</ele><time>2026-05-03T13:58:14.999Z</time></trkpt><trkpt lat="40.835642724572246" lon="17.387841096727897"><ele>82.0</ele><time>2026-05-03T13:58:15.999Z</time></trkpt><trkpt lat="40.835727673597965" lon="17.387594136411654"><ele>82.0</ele><time>2026-05-03T13:58:16.999Z</time></trkpt><trkpt lat="40.83581781803095" lon="17.38735199589714"><ele>82.0</ele><time>2026-05-03T13:58:17.999Z</time></trkpt><trkpt lat="40.83589322633962" lon="17.387078252389397"><ele>82.0</ele><time>2026-05-03T13:58:18.999Z</time></trkpt><trkpt lat="40.835972897157035" lon="17.386811809717564"><ele>82.0</ele><time>2026-05-03T13:58:19.999Z</time></trkpt><trkpt lat="40.83606017267299" lon="17.386550971975087"><ele>82.0</ele><time>2026-05-03T13:58:20.999Z</time></trkpt><trkpt lat="40.836133155671604" lon="17.38631585124076"><ele>82.0</ele><time>2026-05-03T13:58:21.999Z</time></trkpt><trkpt lat="40.836225941633934" lon="17.386072289649263"><ele>82.0</ele><time>2026-05-03T13:58:22.999Z</time></trkpt><trkpt lat="40.836300606003206" lon="17.38585026397488"><ele>82.0</ele><time>2026-05-03T13:58:23.999Z</time></trkpt><trkpt lat="40.83637364831046" lon="17.38561716046265"><ele>82.0</ele><time>2026-05-03T13:58:24.999Z</time></trkpt><trkpt lat="40.83644738302317" lon="17.38539550799399"><ele>82.33333333333333</ele><time>2026-05-03T13:58:25.999Z</time></trkpt><trkpt lat="40.836529611936" lon="17.38514948419897"><ele>82.66666666666667</ele><time>2026-05-03T13:58:26.999Z</time></trkpt><trkpt lat="40.83660316240835" lon="17.384896447692956"><ele>83.0</ele><time>2026-05-03T13:58:27.999Z</time></trkpt><trkpt lat="40.836689178801784" lon="17.38465704749644"><ele>83.0</ele><time>2026-05-03T13:58:28.999Z</time></trkpt><trkpt lat="40.8367767469036" lon="17.3843764303138"><ele>83.0</ele><time>2026-05-03T13:58:29.999Z</time></trkpt><trkpt lat="40.83687343259331" lon="17.38409038826091"><ele>81.5</ele><time>2026-05-03T13:58:30.999Z</time></trkpt><trkpt lat="40.83696703751898" lon="17.383816218301"><ele>80.0</ele><time>2026-05-03T13:58:31.999Z</time></trkpt><trkpt lat="40.837051330182454" lon="17.3835386643572"><ele>80.0</ele><time>2026-05-03T13:58:32.999Z</time></trkpt><trkpt lat="40.83712684449777" lon="17.3832602373023"><ele>80.0</ele><time>2026-05-03T13:58:33.999Z</time></trkpt><trkpt lat="40.83720685026898" lon="17.382990230385456"><ele>80.0</ele><time>2026-05-03T13:58:34.999Z</time></trkpt><trkpt lat="40.83728930506972" lon="17.382717069855612"><ele>80.66666666666667</ele><time>2026-05-03T13:58:35.999Z</time></trkpt><trkpt lat="40.837371257122385" lon="17.382444781962793"><ele>81.33333333333333</ele><time>2026-05-03T13:58:36.999Z</time></trkpt><trkpt lat="40.83745384638737" lon="17.382175926941226"><ele>82.0</ele><time>2026-05-03T13:58:37.999Z</time></trkpt><trkpt lat="40.837528043124" lon="17.381909194255673"><ele>81.5</ele><time>2026-05-03T13:58:38.999Z</time></trkpt><trkpt lat="40.83761665391807" lon="17.381631414900408"><ele>81.0</ele><time>2026-05-03T13:58:39.999Z</time></trkpt><trkpt lat="40.8377022605503" lon="17.38135711331094"><ele>83.5</ele><time>2026-05-03T13:58:40.999Z</time></trkpt><trkpt lat="40.83778342846613" lon="17.38108387996458"><ele>86.0</ele><time>2026-05-03T13:58:41.999Z</time></trkpt><trkpt lat="40.837864480766264" lon="17.38079174347004"><ele>86.0</ele><time>2026-05-03T13:58:42.999Z</time></trkpt><trkpt lat="40.83794745041843" lon="17.380515678369306"><ele>86.0</ele><time>2026-05-03T13:58:43.999Z</time></trkpt><trkpt lat="40.838029945410604" lon="17.380230134524755"><ele>86.0</ele><time>2026-05-03T13:58:44.999Z</time></trkpt><trkpt lat="40.838112978138994" lon="17.37994528775733"><ele>86.0</ele><time>2026-05-03T13:58:45.999Z</time></trkpt><trkpt lat="40.838199333575375" lon="17.37966051888209"><ele>85.5</ele><time>2026-05-03T13:58:46.999Z</time></trkpt><trkpt lat="40.83828380186707" lon="17.379369691095736"><ele>85.0</ele><time>2026-05-03T13:58:47.999Z</time></trkpt><trkpt lat="40.83837891625653" lon="17.37908814994093"><ele>85.33333333333333</ele><time>2026-05-03T13:58:48.999Z</time></trkpt><trkpt lat="40.83845990259481" lon="17.378818474864797"><ele>85.66666666666667</ele><time>2026-05-03T13:58:49.999Z</time></trkpt><trkpt lat="40.838543340461094" lon="17.378572114962548"><ele>86.0</ele><time>2026-05-03T13:58:50.999Z</time></trkpt><trkpt lat="40.83861774805211" lon="17.378310275912476"><ele>86.0</ele><time>2026-05-03T13:58:51.999Z</time></trkpt><trkpt lat="40.838697123524476" lon="17.37806543334966"><ele>86.0</ele><time>2026-05-03T13:58:52.999Z</time></trkpt><trkpt lat="40.83878409731199" lon="17.37781777986637"><ele>86.0</ele><time>2026-05-03T13:58:53.999Z</time></trkpt><trkpt lat="40.83886332535072" lon="17.377571647056516"><ele>85.66666666666667</ele><time>2026-05-03T13:58:54.999Z</time></trkpt><trkpt lat="40.83893708821771" lon="17.37732856501539"><ele>85.33333333333333</ele><time>2026-05-03T13:58:55.999Z</time></trkpt><trkpt lat="40.83900568186156" lon="17.377080748203234"><ele>85.0</ele><time>2026-05-03T13:58:56.999Z</time></trkpt><trkpt lat="40.839085830997355" lon="17.376838083165126"><ele>85.0</ele><time>2026-05-03T13:58:57.999Z</time></trkpt><trkpt lat="40.83916222540888" lon="17.37659476617328"><ele>85.0</ele><time>2026-05-03T13:58:58.999Z</time></trkpt><trkpt lat="40.83924483362241" lon="17.376344503070808"><ele>85.0</ele><time>2026-05-03T13:58:59.999Z</time></trkpt><trkpt lat="40.83932368922684" lon="17.376096730769685"><ele>84.0</ele><time>2026-05-03T13:59:00.999Z</time></trkpt><trkpt lat="40.83939848209888" lon="17.375851037759997"><ele>83.0</ele><time>2026-05-03T13:59:01.999Z</time></trkpt><trkpt lat="40.83948328776275" lon="17.375596078845177"><ele>82.0</ele><time>2026-05-03T13:59:02.999Z</time></trkpt><trkpt lat="40.83956421409276" lon="17.375332006436466"><ele>82.0</ele><time>2026-05-03T13:59:03.999Z</time></trkpt><trkpt lat="40.839650235844175" lon="17.375061403133685"><ele>82.0</ele><time>2026-05-03T13:59:04.999Z</time></trkpt><trkpt lat="40.8397368993312" lon="17.374780583487063"><ele>83.5</ele><time>2026-05-03T13:59:05.999Z</time></trkpt><trkpt lat="40.83982400847476" lon="17.374498545528695"><ele>85.0</ele><time>2026-05-03T13:59:06.999Z</time></trkpt><trkpt lat="40.83991749835478" lon="17.37421218492914"><ele>85.0</ele><time>2026-05-03T13:59:08Z</time></trkpt><trkpt lat="40.84001063586554" lon="17.373924655486682"><ele>85.0</ele><time>2026-05-03T13:59:09Z</time></trkpt><trkpt lat="40.84010217226721" lon="17.373636969610082"><ele>85.0</ele><time>2026-05-03T13:59:10Z</time></trkpt><trkpt lat="40.84019540274217" lon="17.37334571765468"><ele>85.0</ele><time>2026-05-03T13:59:11Z</time></trkpt><trkpt lat="40.84029155368333" lon="17.37305270775302"><ele>85.5</ele><time>2026-05-03T13:59:12Z</time></trkpt><trkpt lat="40.84038566974897" lon="17.372765903987293"><ele>86.0</ele><time>2026-05-03T13:59:13Z</time></trkpt><trkpt lat="40.84047134265499" lon="17.372483618904557"><ele>86.0</ele><time>2026-05-03T13:59:14Z</time></trkpt><trkpt lat="40.84055739693054" lon="17.372211547907032"><ele>86.0</ele><time>2026-05-03T13:59:15Z</time></trkpt><trkpt lat="40.84063760110287" lon="17.371956781459684"><ele>86.0</ele><time>2026-05-03T13:59:16Z</time></trkpt><trkpt lat="40.8407229366136" lon="17.37171667167366"><ele>87.66666666666667</ele><time>2026-05-03T13:59:17Z</time></trkpt><trkpt lat="40.8407978847148" lon="17.371475493159867"><ele>89.33333333333333</ele><time>2026-05-03T13:59:18Z</time></trkpt><trkpt lat="40.840871937236635" lon="17.371229415475703"><ele>91.0</ele><time>2026-05-03T13:59:19Z</time></trkpt><trkpt lat="40.84095440451768" lon="17.370964500674443"><ele>89.5</ele><time>2026-05-03T13:59:20Z</time></trkpt><trkpt lat="40.84104229634014" lon="17.370686241442936"><ele>88.0</ele><time>2026-05-03T13:59:21Z</time></trkpt><trkpt lat="40.84113193040486" lon="17.370411423041567"><ele>87.5</ele><time>2026-05-03T13:59:22Z</time></trkpt><trkpt lat="40.841220750135385" lon="17.370109750836754"><ele>87.0</ele><time>2026-05-03T13:59:23Z</time></trkpt><trkpt lat="40.84130476666467" lon="17.36979889633817"><ele>88.0</ele><time>2026-05-03T13:59:24Z</time></trkpt><trkpt lat="40.84141009933775" lon="17.369502548461643"><ele>89.0</ele><time>2026-05-03T13:59:25Z</time></trkpt><trkpt lat="40.84151129216453" lon="17.369194743614898"><ele>89.0</ele><time>2026-05-03T13:59:26Z</time></trkpt><trkpt lat="40.84160589955144" lon="17.36890112401113"><ele>89.0</ele><time>2026-05-03T13:59:27Z</time></trkpt><trkpt lat="40.84170098169395" lon="17.368624024844905"><ele>88.5</ele><time>2026-05-03T13:59:28Z</time></trkpt><trkpt lat="40.841799338319156" lon="17.368353780824336"><ele>88.0</ele><time>2026-05-03T13:59:29Z</time></trkpt><trkpt lat="40.84190660628398" lon="17.368075651403064"><ele>88.0</ele><time>2026-05-03T13:59:30Z</time></trkpt><trkpt lat="40.84202262760551" lon="17.367805194013187"><ele>88.0</ele><time>2026-05-03T13:59:31Z</time></trkpt><trkpt lat="40.84214858229684" lon="17.367545592682575"><ele>88.0</ele><time>2026-05-03T13:59:32Z</time></trkpt><trkpt lat="40.84228602114393" lon="17.36729212830661"><ele>88.0</ele><time>2026-05-03T13:59:33Z</time></trkpt><trkpt lat="40.842421442478866" lon="17.36703914190722"><ele>88.0</ele><time>2026-05-03T13:59:34Z</time></trkpt><trkpt lat="40.84255824413478" lon="17.366797867873593"><ele>88.0</ele><time>2026-05-03T13:59:35Z</time></trkpt><trkpt lat="40.84269647664713" lon="17.366562810448897"><ele>88.5</ele><time>2026-05-03T13:59:36Z</time></trkpt><trkpt lat="40.84284490092763" lon="17.366332548976047"><ele>89.0</ele><time>2026-05-03T13:59:37Z</time></trkpt><trkpt lat="40.84299639761759" lon="17.366111761722152"><ele>89.0</ele><time>2026-05-03T13:59:38Z</time></trkpt><trkpt lat="40.84315566436982" lon="17.36589131189947"><ele>89.0</ele><time>2026-05-03T13:59:39Z</time></trkpt><trkpt lat="40.8433156722343" lon="17.365683411244994"><ele>88.5</ele><time>2026-05-03T13:59:40Z</time></trkpt><trkpt lat="40.84348423963622" lon="17.365471851737247"><ele>88.0</ele><time>2026-05-03T13:59:41Z</time></trkpt><trkpt lat="40.84365821997461" lon="17.365268118624623"><ele>88.0</ele><time>2026-05-03T13:59:42Z</time></trkpt><trkpt lat="40.8438386009036" lon="17.365077165561264"><ele>88.0</ele><time>2026-05-03T13:59:43Z</time></trkpt><trkpt lat="40.84402508707047" lon="17.364886404604402"><ele>88.0</ele><time>2026-05-03T13:59:44Z</time></trkpt><trkpt lat="40.844210483221225" lon="17.364699066008438"><ele>88.0</ele><time>2026-05-03T13:59:45Z</time></trkpt><trkpt lat="40.84439003615706" lon="17.364505745039516"><ele>89.5</ele><time>2026-05-03T13:59:46Z</time></trkpt><trkpt lat="40.8445679667979" lon="17.364311043054798"><ele>91.0</ele><time>2026-05-03T13:59:47Z</time></trkpt><trkpt lat="40.84474052378953" lon="17.36412412219876"><ele>91.0</ele><time>2026-05-03T13:59:48Z</time></trkpt><trkpt lat="40.844912408890764" lon="17.363940873660937"><ele>91.0</ele><time>2026-05-03T13:59:49Z</time></trkpt><trkpt lat="40.845084438595435" lon="17.36376070755859"><ele>91.0</ele><time>2026-05-03T13:59:50Z</time></trkpt><trkpt lat="40.84525944482733" lon="17.363579665010686"><ele>91.0</ele><time>2026-05-03T13:59:51Z</time></trkpt><trkpt lat="40.84542627546143" lon="17.363397965377796"><ele>91.0</ele><time>2026-05-03T13:59:52Z</time></trkpt><trkpt lat="40.845597251361184" lon="17.363218278315113"><ele>91.0</ele><time>2026-05-03T13:59:53Z</time></trkpt><trkpt lat="40.84576717159966" lon="17.36304017164755"><ele>91.33333333333333</ele><time>2026-05-03T13:59:54Z</time></trkpt><trkpt lat="40.84593773543062" lon="17.36285908295011"><ele>91.66666666666667</ele><time>2026-05-03T13:59:55Z</time></trkpt><trkpt lat="40.84610922612179" lon="17.362676286711036"><ele>92.0</ele><time>2026-05-03T13:59:56Z</time></trkpt><trkpt lat="40.84628360728438" lon="17.362490875374995"><ele>92.0</ele><time>2026-05-03T13:59:57Z</time></trkpt><trkpt lat="40.84645799973439" lon="17.362306070196635"><ele>92.0</ele><time>2026-05-03T13:59:58Z</time></trkpt><trkpt lat="40.846638170785596" lon="17.36212129950233"><ele>90.66666666666667</ele><time>2026-05-03T13:59:59Z</time></trkpt><trkpt lat="40.84680398417127" lon="17.361937937709104"><ele>89.33333333333333</ele><time>2026-05-03T14:00:00Z</time></trkpt><trkpt lat="40.84697662292885" lon="17.361756157053804"><ele>88.0</ele><time>2026-05-03T14:00:01Z</time></trkpt><trkpt lat="40.847147225201304" lon="17.361575764808457"><ele>88.0</ele><time>2026-05-03T14:00:02Z</time></trkpt><trkpt lat="40.84731111656936" lon="17.36140212967783"><ele>88.0</ele><time>2026-05-03T14:00:03Z</time></trkpt><trkpt lat="40.847472110222604" lon="17.36123038901165"><ele>88.0</ele><time>2026-05-03T14:00:04Z</time></trkpt><trkpt lat="40.84763097871453" lon="17.361060911801353"><ele>88.0</ele><time>2026-05-03T14:00:05Z</time></trkpt><trkpt lat="40.8477886104527" lon="17.360890430885313"><ele>88.0</ele><time>2026-05-03T14:00:06Z</time></trkpt><trkpt lat="40.847949364226174" lon="17.360716309120065"><ele>88.0</ele><time>2026-05-03T14:00:07Z</time></trkpt><trkpt lat="40.84811392593875" lon="17.360543626722144"><ele>87.66666666666666</ele><time>2026-05-03T14:00:08Z</time></trkpt><trkpt lat="40.8482830122555" lon="17.3603703509874"><ele>87.33333333333333</ele><time>2026-05-03T14:00:09Z</time></trkpt><trkpt lat="40.848445794057895" lon="17.360192746260633"><ele>87.0</ele><time>2026-05-03T14:00:10Z</time></trkpt><trkpt lat="40.848614726716924" lon="17.360012110325997"><ele>86.66666666666667</ele><time>2026-05-03T14:00:10.999Z</time></trkpt><trkpt lat="40.848781606622524" lon="17.359832736580564"><ele>86.33333333333334</ele><time>2026-05-03T14:00:11.999Z</time></trkpt><trkpt lat="40.84894979879032" lon="17.35965567342868"><ele>86.0</ele><time>2026-05-03T14:00:12.999Z</time></trkpt><trkpt lat="40.84911570979325" lon="17.35947740531049"><ele>86.0</ele><time>2026-05-03T14:00:13.999Z</time></trkpt><trkpt lat="40.84928748372854" lon="17.35929475152149"><ele>86.0</ele><time>2026-05-03T14:00:14.999Z</time></trkpt><trkpt lat="40.849447075433176" lon="17.359121139441314"><ele>86.0</ele><time>2026-05-03T14:00:15.999Z</time></trkpt><trkpt lat="40.84960774305157" lon="17.35895378932929"><ele>86.33333333333334</ele><time>2026-05-03T14:00:16.999Z</time></trkpt><trkpt lat="40.849764162361716" lon="17.358790191212762"><ele>86.66666666666667</ele><time>2026-05-03T14:00:17.999Z</time></trkpt><trkpt lat="40.84991981914796" lon="17.35862084363677"><ele>87.0</ele><time>2026-05-03T14:00:18.999Z</time></trkpt><trkpt lat="40.85007617021151" lon="17.358451683541194"><ele>87.0</ele><time>2026-05-03T14:00:19.999Z</time></trkpt><trkpt lat="40.85023467259644" lon="17.35828503159172"><ele>87.0</ele><time>2026-05-03T14:00:20.999Z</time></trkpt><trkpt lat="40.85039087705313" lon="17.35811808699871"><ele>87.0</ele><time>2026-05-03T14:00:21.999Z</time></trkpt><trkpt lat="40.85054254424247" lon="17.357952612699965"><ele>87.33333333333333</ele><time>2026-05-03T14:00:22.999Z</time></trkpt><trkpt lat="40.850697484557266" lon="17.35778923237349"><ele>87.66666666666666</ele><time>2026-05-03T14:00:23.999Z</time></trkpt><trkpt lat="40.85085157388306" lon="17.357624944015207"><ele>88.0</ele><time>2026-05-03T14:00:24.999Z</time></trkpt><trkpt lat="40.85101022371456" lon="17.357457716726753"><ele>88.0</ele><time>2026-05-03T14:00:25.999Z</time></trkpt><trkpt lat="40.851167668329374" lon="17.35728918841995"><ele>88.0</ele><time>2026-05-03T14:00:26.999Z</time></trkpt><trkpt lat="40.85132936608193" lon="17.357120450519492"><ele>88.0</ele><time>2026-05-03T14:00:27.999Z</time></trkpt><trkpt lat="40.851498588888184" lon="17.356938531633098"><ele>87.66666666666666</ele><time>2026-05-03T14:00:28.999Z</time></trkpt><trkpt lat="40.85166580974364" lon="17.356761564000475"><ele>87.33333333333333</ele><time>2026-05-03T14:00:29.999Z</time></trkpt><trkpt lat="40.85182629325349" lon="17.356594913903276"><ele>87.0</ele><time>2026-05-03T14:00:30.999Z</time></trkpt><trkpt lat="40.85197740709588" lon="17.35644293901263"><ele>86.66666666666667</ele><time>2026-05-03T14:00:31.999Z</time></trkpt><trkpt lat="40.8521226715122" lon="17.35629786845155"><ele>86.33333333333334</ele><time>2026-05-03T14:00:32.999Z</time></trkpt><trkpt lat="40.85226170223235" lon="17.356152748185007"><ele>86.0</ele><time>2026-05-03T14:00:33.999Z</time></trkpt><trkpt lat="40.85239478879016" lon="17.356013121996785"><ele>86.0</ele><time>2026-05-03T14:00:34.999Z</time></trkpt><trkpt lat="40.85251921656382" lon="17.355877882140163"><ele>86.0</ele><time>2026-05-03T14:00:35.999Z</time></trkpt><trkpt lat="40.85263489382124" lon="17.355754636096446"><ele>86.0</ele><time>2026-05-03T14:00:36.999Z</time></trkpt><trkpt lat="40.852748461898294" lon="17.3556593395952"><ele>86.0</ele><time>2026-05-03T14:00:37.999Z</time></trkpt><trkpt lat="40.85284763140376" lon="17.355585456645834"><ele>86.0</ele><time>2026-05-03T14:00:38.999Z</time></trkpt><trkpt lat="40.852949109358896" lon="17.35555993040042"><ele>86.0</ele><time>2026-05-03T14:00:39.999Z</time></trkpt><trkpt lat="40.85306238404344" lon="17.355578135632424"><ele>86.0</ele><time>2026-05-03T14:00:40.999Z</time></trkpt><trkpt lat="40.85317364202144" lon="17.35563605024842"><ele>86.0</ele><time>2026-05-03T14:00:41.999Z</time></trkpt><trkpt lat="40.85325816238997" lon="17.35570358083874"><ele>86.0</ele><time>2026-05-03T14:00:42.999Z</time></trkpt><trkpt lat="40.85333500426645" lon="17.35580471516696"><ele>86.0</ele><time>2026-05-03T14:00:43.999Z</time></trkpt><trkpt lat="40.85340153115231" lon="17.355931055416256"><ele>86.0</ele><time>2026-05-03T14:00:44.999Z</time></trkpt><trkpt lat="40.8534404621759" lon="17.356064871376784"><ele>86.0</ele><time>2026-05-03T14:00:45.999Z</time></trkpt><trkpt lat="40.85345277728725" lon="17.356218387106452"><ele>86.0</ele><time>2026-05-03T14:00:46.999Z</time></trkpt><trkpt lat="40.85343299977578" lon="17.35636581764076"><ele>85.8</ele><time>2026-05-03T14:00:47.999Z</time></trkpt><trkpt lat="40.85339761325457" lon="17.356490797964373"><ele>85.6</ele><time>2026-05-03T14:00:48.999Z</time></trkpt><trkpt lat="40.85334801350174" lon="17.3565864520541"><ele>85.4</ele><time>2026-05-03T14:00:49.999Z</time></trkpt><trkpt lat="40.85329233600824" lon="17.35668221700666"><ele>85.2</ele><time>2026-05-03T14:00:50.999Z</time></trkpt><trkpt lat="40.85321794177993" lon="17.356781345344647"><ele>85.0</ele><time>2026-05-03T14:00:51.999Z</time></trkpt><trkpt lat="40.85312347902049" lon="17.356885028823477"><ele>85.0</ele><time>2026-05-03T14:00:52.999Z</time></trkpt><trkpt lat="40.85302194474476" lon="17.356993290953888"><ele>85.0</ele><time>2026-05-03T14:00:53.999Z</time></trkpt><trkpt lat="40.852912186064366" lon="17.357106340720897"><ele>85.0</ele><time>2026-05-03T14:00:54.999Z</time></trkpt><trkpt lat="40.85279532600518" lon="17.35721970307696"><ele>85.0</ele><time>2026-05-03T14:00:55.999Z</time></trkpt><trkpt lat="40.852682192503806" lon="17.35733274696637"><ele>85.25</ele><time>2026-05-03T14:00:56.999Z</time></trkpt><trkpt lat="40.85256423120362" lon="17.35743409946862"><ele>85.5</ele><time>2026-05-03T14:00:57.999Z</time></trkpt><trkpt lat="40.85243847426947" lon="17.357519533251835"><ele>85.75</ele><time>2026-05-03T14:00:58.999Z</time></trkpt><trkpt lat="40.8523032826586" lon="17.357581770334974"><ele>86.0</ele><time>2026-05-03T14:00:59.999Z</time></trkpt><trkpt lat="40.85216583497103" lon="17.35763756505858"><ele>86.0</ele><time>2026-05-03T14:01:00.999Z</time></trkpt><trkpt lat="40.852029667270685" lon="17.3576793839459"><ele>86.0</ele><time>2026-05-03T14:01:01.999Z</time></trkpt><trkpt lat="40.851888488141746" lon="17.357712959665452"><ele>86.0</ele><time>2026-05-03T14:01:02.999Z</time></trkpt><trkpt lat="40.851743447365926" lon="17.35773336686293"><ele>86.0</ele><time>2026-05-03T14:01:03.999Z</time></trkpt><trkpt lat="40.851598998584805" lon="17.357744539203452"><ele>86.66666666666667</ele><time>2026-05-03T14:01:04.999Z</time></trkpt><trkpt lat="40.85144499655738" lon="17.357738690451043"><ele>87.33333333333333</ele><time>2026-05-03T14:01:05.999Z</time></trkpt><trkpt lat="40.851286808630654" lon="17.357707602531168"><ele>88.0</ele><time>2026-05-03T14:01:06.999Z</time></trkpt><trkpt lat="40.85112134199527" lon="17.357666367746802"><ele>88.33333333333333</ele><time>2026-05-03T14:01:07.999Z</time></trkpt><trkpt lat="40.850948658015795" lon="17.357595480367404"><ele>88.66666666666667</ele><time>2026-05-03T14:01:08.999Z</time></trkpt><trkpt lat="40.850777780031834" lon="17.357507584308564"><ele>89.0</ele><time>2026-05-03T14:01:09.999Z</time></trkpt><trkpt lat="40.85061041482862" lon="17.3574189534883"><ele>89.0</ele><time>2026-05-03T14:01:10.999Z</time></trkpt><trkpt lat="40.850453904218305" lon="17.357334091611815"><ele>89.0</ele><time>2026-05-03T14:01:11.999Z</time></trkpt><trkpt lat="40.85030857454822" lon="17.357257375087247"><ele>89.0</ele><time>2026-05-03T14:01:12.999Z</time></trkpt><trkpt lat="40.850158709674204" lon="17.357164171238075"><ele>90.33333333333334</ele><time>2026-05-03T14:01:14Z</time></trkpt><trkpt lat="40.8500019591207" lon="17.35709333205464"><ele>91.66666666666667</ele><time>2026-05-03T14:01:15Z</time></trkpt><trkpt lat="40.84983951639406" lon="17.3570119879499"><ele>93.0</ele><time>2026-05-03T14:01:16Z</time></trkpt><trkpt lat="40.84967490119185" lon="17.356930556968386"><ele>93.0</ele><time>2026-05-03T14:01:17Z</time></trkpt><trkpt lat="40.84951098266354" lon="17.35684528120395"><ele>93.0</ele><time>2026-05-03T14:01:18Z</time></trkpt><trkpt lat="40.84934052807029" lon="17.35675709317827"><ele>93.0</ele><time>2026-05-03T14:01:19Z</time></trkpt><trkpt lat="40.84917014206449" lon="17.35666767964435"><ele>93.66666666666667</ele><time>2026-05-03T14:01:20Z</time></trkpt><trkpt lat="40.849000602383995" lon="17.356581253244254"><ele>94.33333333333334</ele><time>2026-05-03T14:01:21Z</time></trkpt><trkpt lat="40.84883058204798" lon="17.356500696024455"><ele>95.0</ele><time>2026-05-03T14:01:22Z</time></trkpt><trkpt lat="40.84866515298154" lon="17.356423565549555"><ele>95.0</ele><time>2026-05-03T14:01:23Z</time></trkpt><trkpt lat="40.848501781932384" lon="17.356341895903704"><ele>95.0</ele><time>2026-05-03T14:01:24Z</time></trkpt><trkpt lat="40.84833678907761" lon="17.35625748010769"><ele>95.0</ele><time>2026-05-03T14:01:25Z</time></trkpt><trkpt lat="40.84816297565414" lon="17.356165805878558"><ele>95.0</ele><time>2026-05-03T14:01:26Z</time></trkpt><trkpt lat="40.84798002187747" lon="17.35607090474087"><ele>95.0</ele><time>2026-05-03T14:01:27Z</time></trkpt><trkpt lat="40.847779118218284" lon="17.355971783965106"><ele>95.0</ele><time>2026-05-03T14:01:28Z</time></trkpt><trkpt lat="40.84756462042975" lon="17.355864349621623"><ele>95.0</ele><time>2026-05-03T14:01:29Z</time></trkpt><trkpt lat="40.84734570609488" lon="17.355752331210027"><ele>95.0</ele><time>2026-05-03T14:01:30Z</time></trkpt><trkpt lat="40.84714481019016" lon="17.355651457745292"><ele>95.0</ele><time>2026-05-03T14:01:31Z</time></trkpt><trkpt lat="40.84695655860451" lon="17.355556131491202"><ele>95.0</ele><time>2026-05-03T14:01:32Z</time></trkpt><trkpt lat="40.84677099556071" lon="17.355455853910037"><ele>95.0</ele><time>2026-05-03T14:01:33Z</time></trkpt><trkpt lat="40.84657294173446" lon="17.355359814868415"><ele>96.33333333333334</ele><time>2026-05-03T14:01:34Z</time></trkpt><trkpt lat="40.84637791855581" lon="17.355255599867792"><ele>97.66666666666667</ele><time>2026-05-03T14:01:35Z</time></trkpt><trkpt lat="40.84617505272947" lon="17.35514807627512"><ele>99.0</ele><time>2026-05-03T14:01:36Z</time></trkpt><trkpt lat="40.84596476355104" lon="17.35504294076554"><ele>100.5</ele><time>2026-05-03T14:01:37Z</time></trkpt><trkpt lat="40.84574791253779" lon="17.354935596284708"><ele>102.0</ele><time>2026-05-03T14:01:38Z</time></trkpt><trkpt lat="40.845533136663526" lon="17.354829532635993"><ele>102.0</ele><time>2026-05-03T14:01:39Z</time></trkpt><trkpt lat="40.84533330280745" lon="17.354724530825923"><ele>102.0</ele><time>2026-05-03T14:01:40Z</time></trkpt><trkpt lat="40.84513222191823" lon="17.354621059894782"><ele>102.0</ele><time>2026-05-03T14:01:41Z</time></trkpt><trkpt lat="40.84492634087452" lon="17.354519182083955"><ele>102.5</ele><time>2026-05-03T14:01:42Z</time></trkpt><trkpt lat="40.84471119677849" lon="17.354410993763622"><ele>103.0</ele><time>2026-05-03T14:01:43Z</time></trkpt><trkpt lat="40.84449073559401" lon="17.354298971437814"><ele>103.0</ele><time>2026-05-03T14:01:44Z</time></trkpt><trkpt lat="40.844267427586715" lon="17.35418366608924"><ele>103.0</ele><time>2026-05-03T14:01:45Z</time></trkpt><trkpt lat="40.844047484413224" lon="17.354071635496606"><ele>103.0</ele><time>2026-05-03T14:01:46Z</time></trkpt><trkpt lat="40.84382827911568" lon="17.353962705632476"><ele>103.0</ele><time>2026-05-03T14:01:47Z</time></trkpt><trkpt lat="40.843611373756616" lon="17.35386138185002"><ele>104.0</ele><time>2026-05-03T14:01:48Z</time></trkpt><trkpt lat="40.8433934741881" lon="17.353750530435907"><ele>105.0</ele><time>2026-05-03T14:01:49Z</time></trkpt><trkpt lat="40.843183068800904" lon="17.353637826714543"><ele>105.0</ele><time>2026-05-03T14:01:50Z</time></trkpt><trkpt lat="40.84297045189451" lon="17.35352529738404"><ele>105.0</ele><time>2026-05-03T14:01:51Z</time></trkpt><trkpt lat="40.84275468083261" lon="17.35341271841915"><ele>106.0</ele><time>2026-05-03T14:01:52Z</time></trkpt><trkpt lat="40.84253489208267" lon="17.353301729051534"><ele>107.0</ele><time>2026-05-03T14:01:53Z</time></trkpt><trkpt lat="40.84231040050325" lon="17.353189317875035"><ele>107.0</ele><time>2026-05-03T14:01:54Z</time></trkpt><trkpt lat="40.842064725418616" lon="17.353072450018715"><ele>107.0</ele><time>2026-05-03T14:01:55Z</time></trkpt><trkpt lat="40.84180472968325" lon="17.352951575388097"><ele>108.0</ele><time>2026-05-03T14:01:56Z</time></trkpt><trkpt lat="40.841548444384536" lon="17.352813608396378"><ele>109.0</ele><time>2026-05-03T14:01:57Z</time></trkpt><trkpt lat="40.84131648118095" lon="17.352699539124124"><ele>109.0</ele><time>2026-05-03T14:01:58Z</time></trkpt><trkpt lat="40.84110622191321" lon="17.352580389573923"><ele>109.0</ele><time>2026-05-03T14:01:59Z</time></trkpt><trkpt lat="40.84091501326859" lon="17.352476552154737"><ele>109.0</ele><time>2026-05-03T14:02:00Z</time></trkpt><trkpt lat="40.84071506552135" lon="17.352371518950694"><ele>108.5</ele><time>2026-05-03T14:02:01Z</time></trkpt><trkpt lat="40.84050360250856" lon="17.352275423490084"><ele>108.0</ele><time>2026-05-03T14:02:02Z</time></trkpt><trkpt lat="40.840290917155244" lon="17.352164569502335"><ele>108.5</ele><time>2026-05-03T14:02:03Z</time></trkpt><trkpt lat="40.840072846698924" lon="17.352051228870693"><ele>109.0</ele><time>2026-05-03T14:02:04Z</time></trkpt><trkpt lat="40.83983206030891" lon="17.351936370461612"><ele>109.0</ele><time>2026-05-03T14:02:05Z</time></trkpt><trkpt lat="40.83956540595337" lon="17.351812212165953"><ele>109.0</ele><time>2026-05-03T14:02:06Z</time></trkpt><trkpt lat="40.83929459309269" lon="17.351660617586877"><ele>110.0</ele><time>2026-05-03T14:02:07Z</time></trkpt><trkpt lat="40.83901772129073" lon="17.35151964930501"><ele>111.0</ele><time>2026-05-03T14:02:08Z</time></trkpt><trkpt lat="40.83875137970954" lon="17.351384042451922"><ele>113.5</ele><time>2026-05-03T14:02:09Z</time></trkpt><trkpt lat="40.838490553378364" lon="17.35127227055092"><ele>116.0</ele><time>2026-05-03T14:02:10Z</time></trkpt><trkpt lat="40.83821623805451" lon="17.3511141227214"><ele>117.5</ele><time>2026-05-03T14:02:11Z</time></trkpt><trkpt lat="40.83795163107288" lon="17.35098377938375"><ele>119.0</ele><time>2026-05-03T14:02:12Z</time></trkpt><trkpt lat="40.83768058529306" lon="17.35084916219927"><ele>121.5</ele><time>2026-05-03T14:02:13Z</time></trkpt><trkpt lat="40.83740275036236" lon="17.35073108770255"><ele>124.0</ele><time>2026-05-03T14:02:13.999Z</time></trkpt><trkpt lat="40.83712252228517" lon="17.350618576160326"><ele>125.0</ele><time>2026-05-03T14:02:14.999Z</time></trkpt><trkpt lat="40.836840437942584" lon="17.350511116745647"><ele>126.0</ele><time>2026-05-03T14:02:15.999Z</time></trkpt><trkpt lat="40.83656729219416" lon="17.350409562160745"><ele>127.0</ele><time>2026-05-03T14:02:16.999Z</time></trkpt><trkpt lat="40.836292316462625" lon="17.350330235046748"><ele>128.0</ele><time>2026-05-03T14:02:17.999Z</time></trkpt><trkpt lat="40.83600732961637" lon="17.350261910870262"><ele>128.5</ele><time>2026-05-03T14:02:18.999Z</time></trkpt><trkpt lat="40.835726583661476" lon="17.350193204286068"><ele>129.0</ele><time>2026-05-03T14:02:19.999Z</time></trkpt><trkpt lat="40.835442922625525" lon="17.350143869968576"><ele>129.0</ele><time>2026-05-03T14:02:20.999Z</time></trkpt><trkpt lat="40.83516709551198" lon="17.350107129256756"><ele>129.0</ele><time>2026-05-03T14:02:21.999Z</time></trkpt><trkpt lat="40.83490343338678" lon="17.350072576590257"><ele>129.5</ele><time>2026-05-03T14:02:22.999Z</time></trkpt><trkpt lat="40.83464542061841" lon="17.350042890678765"><ele>130.0</ele><time>2026-05-03T14:02:23.999Z</time></trkpt><trkpt lat="40.834409628466155" lon="17.35004053676359"><ele>130.0</ele><time>2026-05-03T14:02:24.999Z</time></trkpt><trkpt lat="40.83419111178287" lon="17.35003042793896"><ele>130.0</ele><time>2026-05-03T14:02:25.999Z</time></trkpt><trkpt lat="40.833971874829224" lon="17.350036054905118"><ele>130.0</ele><time>2026-05-03T14:02:26.999Z</time></trkpt><trkpt lat="40.83377208594796" lon="17.350044498349128"><ele>130.0</ele><time>2026-05-03T14:02:27.999Z</time></trkpt><trkpt lat="40.833584429606745" lon="17.350051916359696"><ele>130.0</ele><time>2026-05-03T14:02:28.999Z</time></trkpt><trkpt lat="40.833412783871864" lon="17.350067305313523"><ele>130.0</ele><time>2026-05-03T14:02:29.999Z</time></trkpt><trkpt lat="40.833246404587236" lon="17.350080765558342"><ele>130.25</ele><time>2026-05-03T14:02:30.999Z</time></trkpt><trkpt lat="40.833091466242514" lon="17.350097097998788"><ele>130.5</ele><time>2026-05-03T14:02:31.999Z</time></trkpt><trkpt lat="40.832971867048826" lon="17.350112847232534"><ele>130.75</ele><time>2026-05-03T14:02:32.999Z</time></trkpt><trkpt lat="40.83286382346765" lon="17.35011444968101"><ele>131.0</ele><time>2026-05-03T14:02:33.999Z</time></trkpt><trkpt lat="40.83277778920572" lon="17.35011449994016"><ele>131.0</ele><time>2026-05-03T14:02:34.999Z</time></trkpt><trkpt lat="40.832691728769916" lon="17.350119784772378"><ele>131.0</ele><time>2026-05-03T14:02:35.999Z</time></trkpt><trkpt lat="40.832594507709764" lon="17.350134460949622"><ele>131.0</ele><time>2026-05-03T14:02:36.999Z</time></trkpt><trkpt lat="40.83249717303545" lon="17.350150575527934"><ele>131.0</ele><time>2026-05-03T14:02:37.999Z</time></trkpt><trkpt lat="40.832393356192405" lon="17.350161860546002"><ele>131.0</ele><time>2026-05-03T14:02:38.999Z</time></trkpt><trkpt lat="40.832279433314575" lon="17.350169673714664"><ele>131.5</ele><time>2026-05-03T14:02:39.999Z</time></trkpt><trkpt lat="40.83215173992496" lon="17.350177766693403"><ele>132.0</ele><time>2026-05-03T14:02:40.999Z</time></trkpt><trkpt lat="40.832025447379515" lon="17.350191673854976"><ele>132.5</ele><time>2026-05-03T14:02:41.999Z</time></trkpt><trkpt lat="40.83189306769258" lon="17.350202542960197"><ele>133.0</ele><time>2026-05-03T14:02:42.999Z</time></trkpt><trkpt lat="40.83176383225084" lon="17.350212106583417"><ele>134.0</ele><time>2026-05-03T14:02:43.999Z</time></trkpt><trkpt lat="40.83162357958787" lon="17.350219639805424"><ele>135.0</ele><time>2026-05-03T14:02:44.999Z</time></trkpt><trkpt lat="40.831498683502964" lon="17.350230115556432"><ele>136.0</ele><time>2026-05-03T14:02:45.999Z</time></trkpt><trkpt lat="40.83137719366039" lon="17.350241353653978"><ele>137.0</ele><time>2026-05-03T14:02:46.999Z</time></trkpt><trkpt lat="40.831254476550534" lon="17.35025033060042"><ele>137.0</ele><time>2026-05-03T14:02:47.999Z</time></trkpt><trkpt lat="40.83112752037336" lon="17.350263987509262"><ele>137.0</ele><time>2026-05-03T14:02:48.999Z</time></trkpt><trkpt lat="40.83099975854868" lon="17.3502776007008"><ele>137.0</ele><time>2026-05-03T14:02:49.999Z</time></trkpt><trkpt lat="40.830871960835054" lon="17.350291680032505"><ele>137.0</ele><time>2026-05-03T14:02:50.999Z</time></trkpt><trkpt lat="40.830741706031866" lon="17.35030525119105"><ele>137.0</ele><time>2026-05-03T14:02:51.999Z</time></trkpt><trkpt lat="40.83061678012179" lon="17.35030626347408"><ele>137.0</ele><time>2026-05-03T14:02:52.999Z</time></trkpt><trkpt lat="40.830514094788285" lon="17.350325068474202"><ele>137.0</ele><time>2026-05-03T14:02:53.999Z</time></trkpt><trkpt lat="40.83041936849732" lon="17.350331722398867"><ele>137.0</ele><time>2026-05-03T14:02:54.999Z</time></trkpt><trkpt lat="40.8303267986321" lon="17.35034292149806"><ele>137.0</ele><time>2026-05-03T14:02:55.999Z</time></trkpt><trkpt lat="40.83023974582866" lon="17.35035641860791"><ele>137.0</ele><time>2026-05-03T14:02:56.999Z</time></trkpt><trkpt lat="40.83016480302" lon="17.350362426193755"><ele>137.0</ele><time>2026-05-03T14:02:57.999Z</time></trkpt><trkpt lat="40.8300645456419" lon="17.350358762119576"><ele>137.0</ele><time>2026-05-03T14:02:59.999Z</time></trkpt><trkpt lat="40.82997885175815" lon="17.35031380780393"><ele>137.0</ele><time>2026-05-03T14:03:01.999Z</time></trkpt><trkpt lat="40.82992247549595" lon="17.350255538919473"><ele>137.0</ele><time>2026-05-03T14:03:02.999Z</time></trkpt><trkpt lat="40.82985892061846" lon="17.350156180301777"><ele>137.0</ele><time>2026-05-03T14:03:03.999Z</time></trkpt><trkpt lat="40.829816178006375" lon="17.35005001821719"><ele>137.5</ele><time>2026-05-03T14:03:04.999Z</time></trkpt><trkpt lat="40.82979359899675" lon="17.34993641614385"><ele>138.0</ele><time>2026-05-03T14:03:05.999Z</time></trkpt><trkpt lat="40.82979561132898" lon="17.349784485424422"><ele>138.5</ele><time>2026-05-03T14:03:06.999Z</time></trkpt><trkpt lat="40.82981224321844" lon="17.349620587509765"><ele>139.0</ele><time>2026-05-03T14:03:07.999Z</time></trkpt><trkpt lat="40.82984861658571" lon="17.34945590150241"><ele>139.25</ele><time>2026-05-03T14:03:08.999Z</time></trkpt><trkpt lat="40.82991297012154" lon="17.349306469464302"><ele>139.5</ele><time>2026-05-03T14:03:09.999Z</time></trkpt><trkpt lat="40.830006474051316" lon="17.34917821026495"><ele>139.75</ele><time>2026-05-03T14:03:10.999Z</time></trkpt><trkpt lat="40.83010151090218" lon="17.34904068048387"><ele>140.0</ele><time>2026-05-03T14:03:11.999Z</time></trkpt><trkpt lat="40.830159770313095" lon="17.348892262177227"><ele>141.5</ele><time>2026-05-03T14:03:12.999Z</time></trkpt><trkpt lat="40.83019604781567" lon="17.348737903004977"><ele>143.0</ele><time>2026-05-03T14:03:13.999Z</time></trkpt><trkpt lat="40.83021740864747" lon="17.348575930852636"><ele>144.5</ele><time>2026-05-03T14:03:14.999Z</time></trkpt><trkpt lat="40.83022980157223" lon="17.348421140295034"><ele>146.0</ele><time>2026-05-03T14:03:15.999Z</time></trkpt><trkpt lat="40.83023903989678" lon="17.34825707376396"><ele>146.0</ele><time>2026-05-03T14:03:16.999Z</time></trkpt><trkpt lat="40.830243884878385" lon="17.34809657023473"><ele>146.0</ele><time>2026-05-03T14:03:17.999Z</time></trkpt><trkpt lat="40.8302573521898" lon="17.347974264868235"><ele>146.0</ele><time>2026-05-03T14:03:18.999Z</time></trkpt><trkpt lat="40.83026612330159" lon="17.34786772576968"><ele>146.0</ele><time>2026-05-03T14:03:20Z</time></trkpt><trkpt lat="40.83027230770077" lon="17.347773244361782"><ele>146.0</ele><time>2026-05-03T14:03:21Z</time></trkpt><trkpt lat="40.83029403405443" lon="17.34769160213081"><ele>146.0</ele><time>2026-05-03T14:03:22Z</time></trkpt><trkpt lat="40.83029930888723" lon="17.347606170780534"><ele>147.0</ele><time>2026-05-03T14:03:23Z</time></trkpt><trkpt lat="40.830297045303865" lon="17.347518171131483"><ele>148.0</ele><time>2026-05-03T14:03:24Z</time></trkpt><trkpt lat="40.830308539763465" lon="17.34741783960052"><ele>149.0</ele><time>2026-05-03T14:03:25Z</time></trkpt><trkpt lat="40.83029618584171" lon="17.347322454742677"><ele>150.0</ele><time>2026-05-03T14:03:26Z</time></trkpt><trkpt lat="40.830308331263396" lon="17.347232452630696"><ele>151.0</ele><time>2026-05-03T14:03:27Z</time></trkpt><trkpt lat="40.830276128511166" lon="17.347125987659265"><ele>152.0</ele><time>2026-05-03T14:03:28Z</time></trkpt><trkpt lat="40.83020433079469" lon="17.347020537833842"><ele>157.25</ele><time>2026-05-03T14:03:29Z</time></trkpt><trkpt lat="40.8301169569094" lon="17.346911313289464"><ele>162.5</ele><time>2026-05-03T14:03:30Z</time></trkpt><trkpt lat="40.8300165672369" lon="17.346788927782587"><ele>167.75</ele><time>2026-05-03T14:03:31Z</time></trkpt><trkpt lat="40.82990120649245" lon="17.34663994632559"><ele>173.0</ele><time>2026-05-03T14:03:32Z</time></trkpt><trkpt lat="40.82978518011" lon="17.346499229207616"><ele>176.0</ele><time>2026-05-03T14:03:33Z</time></trkpt><trkpt lat="40.8296882967832" lon="17.34637007729343"><ele>179.0</ele><time>2026-05-03T14:03:34Z</time></trkpt><trkpt lat="40.82959735861483" lon="17.346239847118483"><ele>182.0</ele><time>2026-05-03T14:03:35Z</time></trkpt><trkpt lat="40.829502149593374" lon="17.346119831497035"><ele>185.0</ele><time>2026-05-03T14:03:36Z</time></trkpt><trkpt lat="40.829387963916105" lon="17.34603128309539"><ele>186.25</ele><time>2026-05-03T14:03:37Z</time></trkpt><trkpt lat="40.82927598179981" lon="17.345943404624574"><ele>187.5</ele><time>2026-05-03T14:03:38Z</time></trkpt><trkpt lat="40.829178376278925" lon="17.345861419305177"><ele>188.75</ele><time>2026-05-03T14:03:39Z</time></trkpt><trkpt lat="40.829083436699065" lon="17.34578151835288"><ele>190.0</ele><time>2026-05-03T14:03:40Z</time></trkpt><trkpt lat="40.829010362352456" lon="17.345650099274952"><ele>191.75</ele><time>2026-05-03T14:03:41Z</time></trkpt><trkpt lat="40.828927189750694" lon="17.345515202007444"><ele>193.5</ele><time>2026-05-03T14:03:42Z</time></trkpt><trkpt lat="40.82884909654166" lon="17.345388443969025"><ele>195.25</ele><time>2026-05-03T14:03:43Z</time></trkpt><trkpt lat="40.828785162587586" lon="17.345269731849303"><ele>197.0</ele><time>2026-05-03T14:03:44Z</time></trkpt><trkpt lat="40.82873899575855" lon="17.34512477931999"><ele>197.0</ele><time>2026-05-03T14:03:45Z</time></trkpt><trkpt lat="40.82868946066207" lon="17.344950189180196"><ele>197.0</ele><time>2026-05-03T14:03:46Z</time></trkpt><trkpt lat="40.82864086371831" lon="17.34474514136031"><ele>197.0</ele><time>2026-05-03T14:03:47Z</time></trkpt><trkpt lat="40.82861166051186" lon="17.344537979465827"><ele>199.39999999999998</ele><time>2026-05-03T14:03:48Z</time></trkpt><trkpt lat="40.8285992105465" lon="17.34439470457351"><ele>201.79999999999998</ele><time>2026-05-03T14:03:49Z</time></trkpt><trkpt lat="40.82858565805064" lon="17.34429153178861"><ele>204.2</ele><time>2026-05-03T14:03:50Z</time></trkpt><trkpt lat="40.82857887045602" lon="17.34418089254877"><ele>206.6</ele><time>2026-05-03T14:03:51Z</time></trkpt><trkpt lat="40.828572901710196" lon="17.344025928271137"><ele>209.0</ele><time>2026-05-03T14:03:52Z</time></trkpt><trkpt lat="40.82857316350852" lon="17.34389655185227"><ele>210.0</ele><time>2026-05-03T14:03:53Z</time></trkpt><trkpt lat="40.828584249654604" lon="17.34374644233958"><ele>211.0</ele><time>2026-05-03T14:03:54Z</time></trkpt><trkpt lat="40.82858029107458" lon="17.34360924385611"><ele>211.99999999999997</ele><time>2026-05-03T14:03:55Z</time></trkpt><trkpt lat="40.8285566566277" lon="17.343458543861324"><ele>213.0</ele><time>2026-05-03T14:03:56Z</time></trkpt><trkpt lat="40.828544792709216" lon="17.343314290239178"><ele>214.0</ele><time>2026-05-03T14:03:57Z</time></trkpt><trkpt lat="40.82852805403572" lon="17.34317368860639"><ele>214.39999999999998</ele><time>2026-05-03T14:03:58Z</time></trkpt><trkpt lat="40.82853645849912" lon="17.3430420963598"><ele>214.79999999999998</ele><time>2026-05-03T14:03:59Z</time></trkpt><trkpt lat="40.82855940466681" lon="17.34293313477972"><ele>215.20000000000002</ele><time>2026-05-03T14:04:00Z</time></trkpt><trkpt lat="40.82861250837785" lon="17.34282201819097"><ele>215.60000000000002</ele><time>2026-05-03T14:04:01Z</time></trkpt><trkpt lat="40.828680302396904" lon="17.342694962947217"><ele>216.0</ele><time>2026-05-03T14:04:02Z</time></trkpt><trkpt lat="40.82874841577727" lon="17.342590899697772"><ele>216.0</ele><time>2026-05-03T14:04:03Z</time></trkpt><trkpt lat="40.828833987399555" lon="17.342484424910534"><ele>216.00000000000003</ele><time>2026-05-03T14:04:04Z</time></trkpt><trkpt lat="40.828916322312246" lon="17.342384262442685"><ele>216.00000000000003</ele><time>2026-05-03T14:04:05Z</time></trkpt><trkpt lat="40.82899106802837" lon="17.342293329591893"><ele>216.0</ele><time>2026-05-03T14:04:06Z</time></trkpt><trkpt lat="40.829059080658666" lon="17.34220114485799"><ele>216.0</ele><time>2026-05-03T14:04:07Z</time></trkpt><trkpt lat="40.82911490576201" lon="17.342103476551895"><ele>216.20000000000002</ele><time>2026-05-03T14:04:08Z</time></trkpt><trkpt lat="40.82915120983923" lon="17.341975667852154"><ele>216.40000000000003</ele><time>2026-05-03T14:04:09Z</time></trkpt><trkpt lat="40.829199017243944" lon="17.341843691996726"><ele>216.6</ele><time>2026-05-03T14:04:10Z</time></trkpt><trkpt lat="40.82925378494167" lon="17.341726059957594"><ele>216.8</ele><time>2026-05-03T14:04:11Z</time></trkpt><trkpt lat="40.82929293514149" lon="17.341608683511637"><ele>217.0</ele><time>2026-05-03T14:04:12Z</time></trkpt><trkpt lat="40.82933271134892" lon="17.341507947899878"><ele>217.0</ele><time>2026-05-03T14:04:13Z</time></trkpt><trkpt lat="40.82937792989327" lon="17.341401574918933"><ele>217.0</ele><time>2026-05-03T14:04:14Z</time></trkpt><trkpt lat="40.829425369700104" lon="17.341292793988476"><ele>217.0</ele><time>2026-05-03T14:04:15Z</time></trkpt><trkpt lat="40.82947483294866" lon="17.341186172557236"><ele>217.0</ele><time>2026-05-03T14:04:16Z</time></trkpt><trkpt lat="40.829531113337154" lon="17.341081938430314"><ele>217.0</ele><time>2026-05-03T14:04:17Z</time></trkpt><trkpt lat="40.829583719504356" lon="17.34099154714065"><ele>218.42857142857144</ele><time>2026-05-03T14:04:18Z</time></trkpt><trkpt lat="40.82963102180182" lon="17.340913710843687"><ele>219.85714285714286</ele><time>2026-05-03T14:04:19Z</time></trkpt><trkpt lat="40.82966703831463" lon="17.34083181367668"><ele>221.28571428571428</ele><time>2026-05-03T14:04:20Z</time></trkpt><trkpt lat="40.82969019539523" lon="17.34074174969998"><ele>222.71428571428572</ele><time>2026-05-03T14:04:20.999Z</time></trkpt><trkpt lat="40.82970599121784" lon="17.340649143158238"><ele>224.14285714285717</ele><time>2026-05-03T14:04:21.999Z</time></trkpt><trkpt lat="40.829707769875625" lon="17.34054741568677"><ele>225.57142857142858</ele><time>2026-05-03T14:04:22.999Z</time></trkpt><trkpt lat="40.829727952995306" lon="17.340452030494394"><ele>227.0</ele><time>2026-05-03T14:04:23.999Z</time></trkpt><trkpt lat="40.829717837263665" lon="17.340296186051603"><ele>228.83333333333334</ele><time>2026-05-03T14:04:25.999Z</time></trkpt><trkpt lat="40.82973398083097" lon="17.340209018817728"><ele>230.66666666666669</ele><time>2026-05-03T14:04:26.999Z</time></trkpt><trkpt lat="40.829732958427435" lon="17.34009782952957"><ele>232.5</ele><time>2026-05-03T14:04:27.999Z</time></trkpt><trkpt lat="40.82973295842469" lon="17.33996861496812"><ele>234.33333333333331</ele><time>2026-05-03T14:04:28.999Z</time></trkpt><trkpt lat="40.82973303109065" lon="17.339861958275847"><ele>236.16666666666666</ele><time>2026-05-03T14:04:29.999Z</time></trkpt><trkpt lat="40.829733694478065" lon="17.339773860155088"><ele>238.0</ele><time>2026-05-03T14:04:30.999Z</time></trkpt><trkpt lat="40.82973676690107" lon="17.339682032629455"><ele>239.99999999999997</ele><time>2026-05-03T14:04:31.999Z</time></trkpt><trkpt lat="40.8297515692017" lon="17.339583488990126"><ele>242.0</ele><time>2026-05-03T14:04:32.999Z</time></trkpt><trkpt lat="40.82979964959834" lon="17.339522020342766"><ele>244.0</ele><time>2026-05-03T14:04:33.999Z</time></trkpt><trkpt lat="40.82985551199631" lon="17.339437785801127"><ele>246.0</ele><time>2026-05-03T14:04:34.999Z</time></trkpt><trkpt lat="40.829918722863084" lon="17.33934292567588"><ele>247.99999999999997</ele><time>2026-05-03T14:04:35.999Z</time></trkpt><trkpt lat="40.829968404861994" lon="17.339237034292974"><ele>250.0</ele><time>2026-05-03T14:04:36.999Z</time></trkpt><trkpt lat="40.83002588958399" lon="17.339161697736856"><ele>249.99999999999997</ele><time>2026-05-03T14:04:37.999Z</time></trkpt><trkpt lat="40.83007257124303" lon="17.33908486468541"><ele>250.0</ele><time>2026-05-03T14:04:38.999Z</time></trkpt><trkpt lat="40.830120647864774" lon="17.33901093255556"><ele>250.0</ele><time>2026-05-03T14:04:39.999Z</time></trkpt><trkpt lat="40.83015262773247" lon="17.338937028559695"><ele>250.0</ele><time>2026-05-03T14:04:40.999Z</time></trkpt><trkpt lat="40.830204724713234" lon="17.33884208465702"><ele>249.99999999999997</ele><time>2026-05-03T14:04:42.999Z</time></trkpt><trkpt lat="40.83025414190006" lon="17.338758304273"><ele>250.0</ele><time>2026-05-03T14:04:44.999Z</time></trkpt><trkpt lat="40.83022807896143" lon="17.338641099587893"><ele>249.83333333333331</ele><time>2026-05-03T14:04:46.999Z</time></trkpt><trkpt lat="40.83016409168694" lon="17.338626148736914"><ele>249.66666666666666</ele><time>2026-05-03T14:04:47.999Z</time></trkpt><trkpt lat="40.83009187139696" lon="17.338675998260022"><ele>249.5</ele><time>2026-05-03T14:04:48.999Z</time></trkpt><trkpt lat="40.83002291077458" lon="17.33874397607648"><ele>249.33333333333331</ele><time>2026-05-03T14:04:50.999Z</time></trkpt><trkpt lat="40.82995378525295" lon="17.338780180171497"><ele>249.16666666666666</ele><time>2026-05-03T14:04:52.999Z</time></trkpt><trkpt lat="40.829888515800576" lon="17.338750043004456"><ele>249.0</ele><time>2026-05-03T14:04:55.999Z</time></trkpt><trkpt lat="40.82995263598173" lon="17.33865362133758"><ele>249.0</ele><time>2026-05-03T14:04:57.999Z</time></trkpt><trkpt lat="40.830029882324084" lon="17.338624616167312"><ele>249.0</ele><time>2026-05-03T14:04:58.999Z</time></trkpt><trkpt lat="40.83010482264368" lon="17.338566667987244"><ele>249.0</ele><time>2026-05-03T14:04:59.999Z</time></trkpt><trkpt lat="40.830172359574675" lon="17.338508026836113"><ele>249.0</ele><time>2026-05-03T14:05:00.999Z</time></trkpt><trkpt lat="40.830246690056526" lon="17.3384306697112"><ele>249.0</ele><time>2026-05-03T14:05:01.999Z</time></trkpt><trkpt lat="40.83031373479463" lon="17.338340982012827"><ele>249.0</ele><time>2026-05-03T14:05:02.999Z</time></trkpt><trkpt lat="40.83036269624295" lon="17.338238973385835"><ele>249.0</ele><time>2026-05-03T14:05:03.999Z</time></trkpt><trkpt lat="40.83040568697183" lon="17.3381463874948"><ele>249.0</ele><time>2026-05-03T14:05:04.999Z</time></trkpt><trkpt lat="40.830441038870724" lon="17.338066743348325"><ele>249.0</ele><time>2026-05-03T14:05:05.999Z</time></trkpt><trkpt lat="40.83048055740385" lon="17.33797682713744"><ele>249.0</ele><time>2026-05-03T14:05:07.999Z</time></trkpt><trkpt lat="40.83051553675866" lon="17.337896963864484"><ele>249.0</ele><time>2026-05-03T14:05:09.999Z</time></trkpt><trkpt lat="40.83054801298888" lon="17.337822815627206"><ele>249.0</ele><time>2026-05-03T14:05:12.999Z</time></trkpt><trkpt lat="40.83060317842459" lon="17.337665640187662"><ele>252.33333333333334</ele><time>2026-05-03T14:05:14.999Z</time></trkpt><trkpt lat="40.83064662525234" lon="17.337583932668398"><ele>255.66666666666669</ele><time>2026-05-03T14:05:16.999Z</time></trkpt><trkpt lat="40.83063283751022" lon="17.33747989923252"><ele>259.0</ele><time>2026-05-03T14:05:19.999Z</time></trkpt><trkpt lat="40.83054947153483" lon="17.33751091322649"><ele>262.33333333333337</ele><time>2026-05-03T14:05:21.999Z</time></trkpt><trkpt lat="40.83049775543715" lon="17.33760061779996"><ele>265.6666666666667</ele><time>2026-05-03T14:05:22.999Z</time></trkpt><trkpt lat="40.83041210828788" lon="17.337684312440373"><ele>269.0</ele><time>2026-05-03T14:05:23.999Z</time></trkpt><trkpt lat="40.83031535740647" lon="17.33776885779288"><ele>269.0</ele><time>2026-05-03T14:05:24.999Z</time></trkpt><trkpt lat="40.83021942621026" lon="17.33784479120381"><ele>269.0</ele><time>2026-05-03T14:05:26Z</time></trkpt><trkpt lat="40.83010390395803" lon="17.33792010161309"><ele>269.0</ele><time>2026-05-03T14:05:27Z</time></trkpt><trkpt lat="40.82998676200512" lon="17.337996653818404"><ele>269.0</ele><time>2026-05-03T14:05:28Z</time></trkpt><trkpt lat="40.8298903657727" lon="17.338017070642866"><ele>269.33333333333337</ele><time>2026-05-03T14:05:29Z</time></trkpt><trkpt lat="40.8298342661529" lon="17.33805703759833"><ele>269.6666666666667</ele><time>2026-05-03T14:05:30Z</time></trkpt><trkpt lat="40.82975944003102" lon="17.338093299734247"><ele>270.0</ele><time>2026-05-03T14:05:32Z</time></trkpt><trkpt lat="40.82973431031847" lon="17.338015273843098"><ele>270.3333333333333</ele><time>2026-05-03T14:05:34Z</time></trkpt><trkpt lat="40.82979820261004" lon="17.338006209868524"><ele>270.66666666666663</ele><time>2026-05-03T14:05:36Z</time></trkpt><trkpt lat="40.829927976661686" lon="17.337889620119693"><ele>271.0</ele><time>2026-05-03T14:05:38Z</time></trkpt><trkpt lat="40.82999418880763" lon="17.33783219975745"><ele>270.6</ele><time>2026-05-03T14:05:39Z</time></trkpt><trkpt lat="40.83005475030438" lon="17.337699354336294"><ele>270.20000000000005</ele><time>2026-05-03T14:05:40Z</time></trkpt><trkpt lat="40.83014919890133" lon="17.337570162868353"><ele>269.79999999999995</ele><time>2026-05-03T14:05:41Z</time></trkpt><trkpt lat="40.8302181971683" lon="17.337462759630228"><ele>269.4</ele><time>2026-05-03T14:05:42Z</time></trkpt><trkpt lat="40.8302573805896" lon="17.337392962176928"><ele>269.0</ele><time>2026-05-03T14:05:43Z</time></trkpt><trkpt lat="40.830249106630774" lon="17.33729486886041"><ele>269.0</ele><time>2026-05-03T14:05:45Z</time></trkpt><trkpt lat="40.830156749094854" lon="17.337294397019146"><ele>269.0</ele><time>2026-05-03T14:05:47Z</time></trkpt><trkpt lat="40.83009979256538" lon="17.33737002765921"><ele>269.0</ele><time>2026-05-03T14:05:49Z</time></trkpt><trkpt lat="40.830066639197774" lon="17.3374545902922"><ele>269.0</ele><time>2026-05-03T14:05:51Z</time></trkpt><trkpt lat="40.83000988680219" lon="17.33749591258206"><ele>269.0</ele><time>2026-05-03T14:05:54Z</time></trkpt><trkpt lat="40.82991499649038" lon="17.33756323436802"><ele>269.0</ele><time>2026-05-03T14:05:56Z</time></trkpt><trkpt lat="40.82984442085523" lon="17.33758825887601"><ele>273.0</ele><time>2026-05-03T14:05:57Z</time></trkpt><trkpt lat="40.82974025018318" lon="17.337612352336617"><ele>277.0</ele><time>2026-05-03T14:05:58Z</time></trkpt><trkpt lat="40.829653354118676" lon="17.337624017457824"><ele>281.0</ele><time>2026-05-03T14:05:59Z</time></trkpt><trkpt lat="40.829556815939426" lon="17.337603435489108"><ele>285.0</ele><time>2026-05-03T14:06:01Z</time></trkpt><trkpt lat="40.829471586850495" lon="17.33760686117311"><ele>289.0</ele><time>2026-05-03T14:06:03Z</time></trkpt><trkpt lat="40.82940729943621" lon="17.337567045327564"><ele>293.0</ele><time>2026-05-03T14:06:05Z</time></trkpt><trkpt lat="40.82940340675591" lon="17.337475502946315"><ele>293.0</ele><time>2026-05-03T14:06:10Z</time></trkpt><trkpt lat="40.82948088630524" lon="17.33751889921311"><ele>293.0</ele><time>2026-05-03T14:06:12Z</time></trkpt><trkpt lat="40.8295598057815" lon="17.337518099361805"><ele>293.0</ele><time>2026-05-03T14:06:14Z</time></trkpt><trkpt lat="40.82964315206469" lon="17.33748887210899"><ele>293.0</ele><time>2026-05-03T14:06:16Z</time></trkpt><trkpt lat="40.82971742071403" lon="17.33744582117081"><ele>293.0</ele><time>2026-05-03T14:06:18Z</time></trkpt><trkpt lat="40.82977609199971" lon="17.33736268068421"><ele>293.0</ele><time>2026-05-03T14:06:20Z</time></trkpt><trkpt lat="40.82984332181694" lon="17.337271646461446"><ele>296.6666666666667</ele><time>2026-05-03T14:06:22Z</time></trkpt><trkpt lat="40.82988652395403" lon="17.33717254298673"><ele>300.33333333333337</ele><time>2026-05-03T14:06:24Z</time></trkpt><trkpt lat="40.82993951946847" lon="17.337047264703294"><ele>304.0</ele><time>2026-05-03T14:06:26Z</time></trkpt><trkpt lat="40.82997204678366" lon="17.336970372044803"><ele>307.6666666666667</ele><time>2026-05-03T14:06:27Z</time></trkpt><trkpt lat="40.83000889233138" lon="17.33688426428139"><ele>311.3333333333333</ele><time>2026-05-03T14:06:28Z</time></trkpt><trkpt lat="40.83004102270631" lon="17.33680227902287"><ele>315.0</ele><time>2026-05-03T14:06:29Z</time></trkpt><trkpt lat="40.83007486862252" lon="17.33671104555589"><ele>315.0</ele><time>2026-05-03T14:06:30Z</time></trkpt><trkpt lat="40.83010577233681" lon="17.33661287609796"><ele>315.0</ele><time>2026-05-03T14:06:31Z</time></trkpt><trkpt lat="40.83013111333924" lon="17.33651089561653"><ele>315.0</ele><time>2026-05-03T14:06:32Z</time></trkpt><trkpt lat="40.830152933559184" lon="17.336413299955474"><ele>315.0</ele><time>2026-05-03T14:06:32.999Z</time></trkpt><trkpt lat="40.83019084953635" lon="17.33622167337014"><ele>315.0</ele><time>2026-05-03T14:06:34.999Z</time></trkpt><trkpt lat="40.830203620512165" lon="17.336118817672762"><ele>314.8333333333333</ele><time>2026-05-03T14:06:35.999Z</time></trkpt><trkpt lat="40.8302114646453" lon="17.336023482635703"><ele>314.6666666666667</ele><time>2026-05-03T14:06:36.999Z</time></trkpt><trkpt lat="40.830219829600445" lon="17.33592789293212"><ele>314.5</ele><time>2026-05-03T14:06:37.999Z</time></trkpt><trkpt lat="40.83022793318044" lon="17.33583529006974"><ele>314.33333333333337</ele><time>2026-05-03T14:06:38.999Z</time></trkpt><trkpt lat="40.83023750186327" lon="17.335725944900563"><ele>314.1666666666667</ele><time>2026-05-03T14:06:39.999Z</time></trkpt><trkpt lat="40.83024236831069" lon="17.335546830392524"><ele>314.0</ele><time>2026-05-03T14:06:41.999Z</time></trkpt><trkpt lat="40.83024574009802" lon="17.335451734033924"><ele>314.0</ele><time>2026-05-03T14:06:42.999Z</time></trkpt><trkpt lat="40.830253002510695" lon="17.33535879085662"><ele>314.0</ele><time>2026-05-03T14:06:43.999Z</time></trkpt><trkpt lat="40.830261993872185" lon="17.335274077981875"><ele>314.0</ele><time>2026-05-03T14:06:44.999Z</time></trkpt><trkpt lat="40.83026613424321" lon="17.335116110544767"><ele>314.0</ele><time>2026-05-03T14:06:46.999Z</time></trkpt><trkpt lat="40.830190022367724" lon="17.335088065011067"><ele>314.0</ele><time>2026-05-03T14:06:48.999Z</time></trkpt><trkpt lat="40.830149680564844" lon="17.33523168313773"><ele>314.0</ele><time>2026-05-03T14:06:50.999Z</time></trkpt><trkpt lat="40.8301429256315" lon="17.335320867010903"><ele>314.0</ele><time>2026-05-03T14:06:51.999Z</time></trkpt><trkpt lat="40.8301090518171" lon="17.33546478087656"><ele>314.0</ele><time>2026-05-03T14:06:53.999Z</time></trkpt><trkpt lat="40.8300505057048" lon="17.33557931857649"><ele>314.0</ele><time>2026-05-03T14:06:55.999Z</time></trkpt><trkpt lat="40.83000420782542" lon="17.335680637717395"><ele>314.0</ele><time>2026-05-03T14:06:57.999Z</time></trkpt><trkpt lat="40.829951249517634" lon="17.335760732442832"><ele>317.0</ele><time>2026-05-03T14:06:59.999Z</time></trkpt><trkpt lat="40.829892520053576" lon="17.335867630924245"><ele>320.0</ele><time>2026-05-03T14:07:01.999Z</time></trkpt><trkpt lat="40.82982555391559" lon="17.335993246008243"><ele>323.0</ele><time>2026-05-03T14:07:03.999Z</time></trkpt><trkpt lat="40.82974351760814" lon="17.33611596289677"><ele>326.0</ele><time>2026-05-03T14:07:05.999Z</time></trkpt><trkpt lat="40.82971029338846" lon="17.3361874235895"><ele>329.0</ele><time>2026-05-03T14:07:06.999Z</time></trkpt><trkpt lat="40.82966123587176" lon="17.336242404048367"><ele>329.0</ele><time>2026-05-03T14:07:07.999Z</time></trkpt><trkpt lat="40.829612316875455" lon="17.336307177930138"><ele>329.0</ele><time>2026-05-03T14:07:08.999Z</time></trkpt><trkpt lat="40.829576923653484" lon="17.336383580095593"><ele>329.0</ele><time>2026-05-03T14:07:09.999Z</time></trkpt><trkpt lat="40.82952343281398" lon="17.33643265079097"><ele>329.0</ele><time>2026-05-03T14:07:10.999Z</time></trkpt><trkpt lat="40.82944130081819" lon="17.336546186564053"><ele>329.0</ele><time>2026-05-03T14:07:12.999Z</time></trkpt><trkpt lat="40.829364137851385" lon="17.336530756296796"><ele>329.0</ele><time>2026-05-03T14:07:14.999Z</time></trkpt><trkpt lat="40.82941985889971" lon="17.336447243808514"><ele>329.0</ele><time>2026-05-03T14:07:17.999Z</time></trkpt><trkpt lat="40.8294879796406" lon="17.33640755141875"><ele>329.0</ele><time>2026-05-03T14:07:19.999Z</time></trkpt><trkpt lat="40.82953745965313" lon="17.336299608345946"><ele>329.0</ele><time>2026-05-03T14:07:21.999Z</time></trkpt><trkpt lat="40.8296037744257" lon="17.336208720015705"><ele>329.0</ele><time>2026-05-03T14:07:24.999Z</time></trkpt><trkpt lat="40.82965583980046" lon="17.3361383552271"><ele>329.0</ele><time>2026-05-03T14:07:26.999Z</time></trkpt><trkpt lat="40.82962115239874" lon="17.33592441377238"><ele>329.0</ele><time>2026-05-03T14:07:28.999Z</time></trkpt><trkpt lat="40.829653197420285" lon="17.335746458710492"><ele>329.0</ele><time>2026-05-03T14:07:30.999Z</time></trkpt><trkpt lat="40.82966701464124" lon="17.33562757509869"><ele>329.0</ele><time>2026-05-03T14:07:32Z</time></trkpt><trkpt lat="40.82971483015641" lon="17.33549797591815"><ele>329.0</ele><time>2026-05-03T14:07:33Z</time></trkpt><trkpt lat="40.82972861085521" lon="17.33536107914762"><ele>329.0</ele><time>2026-05-03T14:07:34Z</time></trkpt><trkpt lat="40.8297549138201" lon="17.33522109609439"><ele>332.5</ele><time>2026-05-03T14:07:35Z</time></trkpt><trkpt lat="40.82977549797486" lon="17.33503962807944"><ele>336.0</ele><time>2026-05-03T14:07:36Z</time></trkpt><trkpt lat="40.82977779644387" lon="17.334856960232187"><ele>339.5</ele><time>2026-05-03T14:07:37Z</time></trkpt><trkpt lat="40.8297879965193" lon="17.33464084360319"><ele>343.0</ele><time>2026-05-03T14:07:38Z</time></trkpt><trkpt lat="40.82977452235395" lon="17.334425527303605"><ele>346.79999999999995</ele><time>2026-05-03T14:07:39Z</time></trkpt><trkpt lat="40.82975568171391" lon="17.334246854069495"><ele>350.6</ele><time>2026-05-03T14:07:40Z</time></trkpt><trkpt lat="40.82975571802251" lon="17.334140533126902"><ele>354.4</ele><time>2026-05-03T14:07:41Z</time></trkpt><trkpt lat="40.829741947779226" lon="17.334004812778744"><ele>358.20000000000005</ele><time>2026-05-03T14:07:42Z</time></trkpt><trkpt lat="40.82973661516704" lon="17.333905031243507"><ele>362.0</ele><time>2026-05-03T14:07:43Z</time></trkpt><trkpt lat="40.82975155184991" lon="17.333773433811373"><ele>362.57142857142856</ele><time>2026-05-03T14:07:45Z</time></trkpt><trkpt lat="40.82981595358803" lon="17.333725427320214"><ele>363.1428571428571</ele><time>2026-05-03T14:07:46Z</time></trkpt><trkpt lat="40.82986972996723" lon="17.33368104723115"><ele>363.7142857142857</ele><time>2026-05-03T14:07:47Z</time></trkpt><trkpt lat="40.82993978159831" lon="17.33364682394248"><ele>364.2857142857143</ele><time>2026-05-03T14:07:48Z</time></trkpt><trkpt lat="40.82999612077472" lon="17.33360896017358"><ele>364.8571428571429</ele><time>2026-05-03T14:07:49Z</time></trkpt><trkpt lat="40.8300518396033" lon="17.333563655967993"><ele>365.42857142857144</ele><time>2026-05-03T14:07:50Z</time></trkpt><trkpt lat="40.83010738304379" lon="17.333518755194902"><ele>366.0</ele><time>2026-05-03T14:07:51Z</time></trkpt><trkpt lat="40.83020609737462" lon="17.333447260112393"><ele>366.0</ele><time>2026-05-03T14:07:53Z</time></trkpt><trkpt lat="40.830298420339346" lon="17.333363789420083"><ele>366.0</ele><time>2026-05-03T14:07:55Z</time></trkpt><trkpt lat="40.83037509676923" lon="17.333255478195753"><ele>366.0</ele><time>2026-05-03T14:07:57Z</time></trkpt><trkpt lat="40.83041096727396" lon="17.33318498046623"><ele>366.0</ele><time>2026-05-03T14:07:59Z</time></trkpt><trkpt lat="40.83043605505074" lon="17.33307572665577"><ele>366.0</ele><time>2026-05-03T14:08:15Z</time></trkpt><trkpt lat="40.83048035181667" lon="17.33299374055369"><ele>367.1666666666667</ele><time>2026-05-03T14:08:18Z</time></trkpt><trkpt lat="40.83041808287626" lon="17.332881538894537"><ele>368.3333333333333</ele><time>2026-05-03T14:08:20Z</time></trkpt><trkpt lat="40.83035956551104" lon="17.332839000629118"><ele>369.5</ele><time>2026-05-03T14:08:21Z</time></trkpt><trkpt lat="40.83028694425474" lon="17.33278786014955"><ele>370.66666666666663</ele><time>2026-05-03T14:08:22Z</time></trkpt><trkpt lat="40.830212634110055" lon="17.332727061369535"><ele>371.8333333333333</ele><time>2026-05-03T14:08:23Z</time></trkpt><trkpt lat="40.83013401886" lon="17.332671002173964"><ele>373.0</ele><time>2026-05-03T14:08:24Z</time></trkpt><trkpt lat="40.830060215636074" lon="17.33260655761307"><ele>373.59999999999997</ele><time>2026-05-03T14:08:25Z</time></trkpt><trkpt lat="40.82997936372755" lon="17.3325467240949"><ele>374.2</ele><time>2026-05-03T14:08:26Z</time></trkpt><trkpt lat="40.82990943929571" lon="17.33250297665794"><ele>374.8</ele><time>2026-05-03T14:08:27Z</time></trkpt><trkpt lat="40.829853553496136" lon="17.332459449159686"><ele>375.4</ele><time>2026-05-03T14:08:28Z</time></trkpt><trkpt lat="40.82975234670096" lon="17.332403692948482"><ele>376.0</ele><time>2026-05-03T14:08:30Z</time></trkpt><trkpt lat="40.82964420869157" lon="17.332369754263546"><ele>376.0</ele><time>2026-05-03T14:08:32Z</time></trkpt><trkpt lat="40.8295810065628" lon="17.332346401160034"><ele>376.0</ele><time>2026-05-03T14:08:33Z</time></trkpt><trkpt lat="40.82950836743352" lon="17.33231476568061"><ele>376.0</ele><time>2026-05-03T14:08:34Z</time></trkpt><trkpt lat="40.829415347212844" lon="17.33227905133211"><ele>376.0</ele><time>2026-05-03T14:08:35Z</time></trkpt><trkpt lat="40.829301981366804" lon="17.3322298013418"><ele>376.0</ele><time>2026-05-03T14:08:36Z</time></trkpt><trkpt lat="40.8291735778712" lon="17.332179108655208"><ele>378.5</ele><time>2026-05-03T14:08:37Z</time></trkpt><trkpt lat="40.82905046980784" lon="17.33213815167623"><ele>381.0</ele><time>2026-05-03T14:08:38Z</time></trkpt><trkpt lat="40.82891174019589" lon="17.33211224774862"><ele>383.5</ele><time>2026-05-03T14:08:38.999Z</time></trkpt><trkpt lat="40.82877556331016" lon="17.332094167367256"><ele>386.0</ele><time>2026-05-03T14:08:39.999Z</time></trkpt><trkpt lat="40.82865267089799" lon="17.332106307991864"><ele>386.0</ele><time>2026-05-03T14:08:40.999Z</time></trkpt><trkpt lat="40.82853702520288" lon="17.33209927973889"><ele>386.0</ele><time>2026-05-03T14:08:41.999Z</time></trkpt><trkpt lat="40.82841931173191" lon="17.33207794638078"><ele>386.0</ele><time>2026-05-03T14:08:42.999Z</time></trkpt><trkpt lat="40.82829572114954" lon="17.332029492088658"><ele>386.0</ele><time>2026-05-03T14:08:43.999Z</time></trkpt><trkpt lat="40.82816750397371" lon="17.331933656287454"><ele>388.20000000000005</ele><time>2026-05-03T14:08:44.999Z</time></trkpt><trkpt lat="40.828058131297254" lon="17.331841035736616"><ele>390.40000000000003</ele><time>2026-05-03T14:08:45.999Z</time></trkpt><trkpt lat="40.827954313584016" lon="17.331801239356395"><ele>392.6</ele><time>2026-05-03T14:08:46.999Z</time></trkpt><trkpt lat="40.82785307766296" lon="17.331800427141495"><ele>394.8</ele><time>2026-05-03T14:08:47.999Z</time></trkpt><trkpt lat="40.82775853606187" lon="17.33182105307578"><ele>397.0</ele><time>2026-05-03T14:08:48.999Z</time></trkpt><trkpt lat="40.827667661182915" lon="17.33184140183151"><ele>397.75</ele><time>2026-05-03T14:08:49.999Z</time></trkpt><trkpt lat="40.82757664427472" lon="17.331807806840146"><ele>398.5</ele><time>2026-05-03T14:08:50.999Z</time></trkpt><trkpt lat="40.827499233860046" lon="17.33171551021444"><ele>399.25</ele><time>2026-05-03T14:08:51.999Z</time></trkpt><trkpt lat="40.82739985763202" lon="17.331594481837733"><ele>400.0</ele><time>2026-05-03T14:08:52.999Z</time></trkpt><trkpt lat="40.82729258466331" lon="17.331471407040155"><ele>401.0</ele><time>2026-05-03T14:08:53.999Z</time></trkpt><trkpt lat="40.82717680835323" lon="17.33135494578827"><ele>402.0</ele><time>2026-05-03T14:08:54.999Z</time></trkpt><trkpt lat="40.827060327471855" lon="17.331235545098387"><ele>403.0</ele><time>2026-05-03T14:08:55.999Z</time></trkpt><trkpt lat="40.826956265188834" lon="17.331116085482257"><ele>404.0</ele><time>2026-05-03T14:08:56.999Z</time></trkpt><trkpt lat="40.82683489581737" lon="17.331006826412704"><ele>405.4</ele><time>2026-05-03T14:08:57.999Z</time></trkpt><trkpt lat="40.82678254080784" lon="17.330934294305422"><ele>406.79999999999995</ele><time>2026-05-03T14:08:58.999Z</time></trkpt><trkpt lat="40.826722049684314" lon="17.330863031816552"><ele>408.20000000000005</ele><time>2026-05-03T14:08:59.999Z</time></trkpt><trkpt lat="40.82665694482794" lon="17.330801039583076"><ele>409.6</ele><time>2026-05-03T14:09:01.999Z</time></trkpt><trkpt lat="40.82655818368758" lon="17.330765415521007"><ele>411.0</ele><time>2026-05-03T14:09:09.999Z</time></trkpt><trkpt lat="40.82645087924362" lon="17.330710154916158"><ele>411.0</ele><time>2026-05-03T14:09:10.999Z</time></trkpt><trkpt lat="40.82637534215983" lon="17.330651692694325"><ele>411.0</ele><time>2026-05-03T14:09:11.999Z</time></trkpt><trkpt lat="40.826303268490534" lon="17.330607617365764"><ele>411.0</ele><time>2026-05-03T14:09:12.999Z</time></trkpt><trkpt lat="40.82622521644671" lon="17.330528790108705"><ele>411.0</ele><time>2026-05-03T14:09:13.999Z</time></trkpt><trkpt lat="40.8261692823684" lon="17.330436814653684"><ele>411.0</ele><time>2026-05-03T14:09:14.999Z</time></trkpt><trkpt lat="40.82610068166076" lon="17.33034417586529"><ele>410.8</ele><time>2026-05-03T14:09:15.999Z</time></trkpt><trkpt lat="40.82604962882465" lon="17.330228072920146"><ele>410.6</ele><time>2026-05-03T14:09:16.999Z</time></trkpt><trkpt lat="40.825991683584355" lon="17.33012235050969"><ele>410.4</ele><time>2026-05-03T14:09:17.999Z</time></trkpt><trkpt lat="40.82593766536251" lon="17.329991803167253"><ele>410.2</ele><time>2026-05-03T14:09:18.999Z</time></trkpt><trkpt lat="40.825858951768154" lon="17.329853646117805"><ele>410.0</ele><time>2026-05-03T14:09:19.999Z</time></trkpt><trkpt lat="40.82577069526375" lon="17.329722736175835"><ele>406.25</ele><time>2026-05-03T14:09:20.999Z</time></trkpt><trkpt lat="40.82568430512021" lon="17.329593765274282"><ele>402.5</ele><time>2026-05-03T14:09:21.999Z</time></trkpt><trkpt lat="40.82559828831096" lon="17.329464886920267"><ele>398.75</ele><time>2026-05-03T14:09:22.999Z</time></trkpt><trkpt lat="40.82551192178582" lon="17.32932326484339"><ele>395.0</ele><time>2026-05-03T14:09:23.999Z</time></trkpt><trkpt lat="40.82541505988544" lon="17.329170552525795"><ele>395.0</ele><time>2026-05-03T14:09:24.999Z</time></trkpt><trkpt lat="40.8253206902431" lon="17.329007244037655"><ele>395.0</ele><time>2026-05-03T14:09:25.999Z</time></trkpt><trkpt lat="40.825232128319506" lon="17.328834889946354"><ele>395.0</ele><time>2026-05-03T14:09:26.999Z</time></trkpt><trkpt lat="40.82514974412655" lon="17.32866146339051"><ele>395.5</ele><time>2026-05-03T14:09:27.999Z</time></trkpt><trkpt lat="40.8250786261084" lon="17.328496875453183"><ele>396.0</ele><time>2026-05-03T14:09:28.999Z</time></trkpt><trkpt lat="40.82501202723874" lon="17.32835359299201"><ele>396.5</ele><time>2026-05-03T14:09:29.999Z</time></trkpt><trkpt lat="40.824938512855844" lon="17.328217096448363"><ele>397.0</ele><time>2026-05-03T14:09:30.999Z</time></trkpt><trkpt lat="40.82485200537736" lon="17.328073769135994"><ele>398.0</ele><time>2026-05-03T14:09:31.999Z</time></trkpt><trkpt lat="40.82474529316277" lon="17.32792383945704"><ele>399.0</ele><time>2026-05-03T14:09:32.999Z</time></trkpt><trkpt lat="40.824634619444545" lon="17.327755754963864"><ele>400.0</ele><time>2026-05-03T14:09:33.999Z</time></trkpt><trkpt lat="40.82453796430891" lon="17.327605572088174"><ele>400.0</ele><time>2026-05-03T14:09:34.999Z</time></trkpt><trkpt lat="40.82443374909596" lon="17.327470288305342"><ele>400.0</ele><time>2026-05-03T14:09:35.999Z</time></trkpt><trkpt lat="40.824354085127304" lon="17.327346603221937"><ele>400.0</ele><time>2026-05-03T14:09:36.999Z</time></trkpt><trkpt lat="40.82429795447076" lon="17.327230070520063"><ele>400.0</ele><time>2026-05-03T14:09:38Z</time></trkpt><trkpt lat="40.82424946368747" lon="17.32714316887696"><ele>400.6</ele><time>2026-05-03T14:09:39Z</time></trkpt><trkpt lat="40.82419361726854" lon="17.3270191653852"><ele>401.2</ele><time>2026-05-03T14:09:41Z</time></trkpt><trkpt lat="40.824205877806506" lon="17.32688276983765"><ele>401.79999999999995</ele><time>2026-05-03T14:09:43Z</time></trkpt><trkpt lat="40.8242774699701" lon="17.326791089251973"><ele>402.4</ele><time>2026-05-03T14:09:45Z</time></trkpt><trkpt lat="40.82432537947566" lon="17.32670329226312"><ele>403.0</ele><time>2026-05-03T14:09:46Z</time></trkpt><trkpt lat="40.8244103091325" lon="17.326606817773733"><ele>403.0</ele><time>2026-05-03T14:09:47Z</time></trkpt><trkpt lat="40.8244856421943" lon="17.32648279465278"><ele>403.0</ele><time>2026-05-03T14:09:48Z</time></trkpt><trkpt lat="40.82455921939414" lon="17.326381009207033"><ele>403.0</ele><time>2026-05-03T14:09:49Z</time></trkpt><trkpt lat="40.824646088493374" lon="17.326293043394937"><ele>403.0</ele><time>2026-05-03T14:09:50Z</time></trkpt><trkpt lat="40.82471678725796" lon="17.326199001358415"><ele>403.0</ele><time>2026-05-03T14:09:51Z</time></trkpt><trkpt lat="40.824773903085365" lon="17.326119596156882"><ele>403.00000000000006</ele><time>2026-05-03T14:09:52Z</time></trkpt><trkpt lat="40.82481956493831" lon="17.3260510197121"><ele>403.0</ele><time>2026-05-03T14:09:53Z</time></trkpt><trkpt lat="40.82486208824018" lon="17.32596224083682"><ele>403.0</ele><time>2026-05-03T14:09:55Z</time></trkpt><trkpt lat="40.82484333814692" lon="17.325873239376474"><ele>403.0</ele><time>2026-05-03T14:09:57Z</time></trkpt><trkpt lat="40.8247413667697" lon="17.325815450007138"><ele>403.00000000000006</ele><time>2026-05-03T14:09:59Z</time></trkpt><trkpt lat="40.82468046622043" lon="17.325772948310803"><ele>403.0</ele><time>2026-05-03T14:10:00Z</time></trkpt><trkpt lat="40.82464091810158" lon="17.325706884378647"><ele>403.0</ele><time>2026-05-03T14:10:01Z</time></trkpt><trkpt lat="40.82457534903026" lon="17.325659210204364"><ele>403.0</ele><time>2026-05-03T14:10:02Z</time></trkpt><trkpt lat="40.824447496480964" lon="17.325601900506758"><ele>403.0</ele><time>2026-05-03T14:10:04Z</time></trkpt><trkpt lat="40.82436906854363" lon="17.32560044392999"><ele>403.0</ele><time>2026-05-03T14:10:05Z</time></trkpt><trkpt lat="40.824283236263945" lon="17.325631097078208"><ele>403.0</ele><time>2026-05-03T14:10:06Z</time></trkpt><trkpt lat="40.824194631172894" lon="17.325672492477256"><ele>402.79999999999995</ele><time>2026-05-03T14:10:07Z</time></trkpt><trkpt lat="40.82409399502709" lon="17.325715178065472"><ele>402.6</ele><time>2026-05-03T14:10:08Z</time></trkpt><trkpt lat="40.82399308805858" lon="17.32575622841615"><ele>402.4</ele><time>2026-05-03T14:10:09Z</time></trkpt><trkpt lat="40.82388719528516" lon="17.32580656261892"><ele>402.20000000000005</ele><time>2026-05-03T14:10:10Z</time></trkpt><trkpt lat="40.82378159783968" lon="17.32585656555341"><ele>402.0</ele><time>2026-05-03T14:10:11Z</time></trkpt><trkpt lat="40.823665910467476" lon="17.325899390543647"><ele>402.0</ele><time>2026-05-03T14:10:12Z</time></trkpt><trkpt lat="40.82354442158726" lon="17.325921555360992"><ele>402.0</ele><time>2026-05-03T14:10:13Z</time></trkpt><trkpt lat="40.823418463253155" lon="17.325904409315967"><ele>402.0</ele><time>2026-05-03T14:10:14Z</time></trkpt><trkpt lat="40.823299305430275" lon="17.325894286194803"><ele>402.0</ele><time>2026-05-03T14:10:15Z</time></trkpt><trkpt lat="40.823190687525134" lon="17.325903412637167"><ele>399.0</ele><time>2026-05-03T14:10:16Z</time></trkpt><trkpt lat="40.82308705796168" lon="17.325941629292096"><ele>396.0</ele><time>2026-05-03T14:10:17Z</time></trkpt><trkpt lat="40.82299462438045" lon="17.326033837982497"><ele>393.0</ele><time>2026-05-03T14:10:18Z</time></trkpt><trkpt lat="40.82291393448" lon="17.326175535772286"><ele>390.0</ele><time>2026-05-03T14:10:19Z</time></trkpt><trkpt lat="40.82283229277835" lon="17.326338537367512"><ele>392.0</ele><time>2026-05-03T14:10:20Z</time></trkpt><trkpt lat="40.822753023210865" lon="17.326493589753753"><ele>394.0</ele><time>2026-05-03T14:10:21Z</time></trkpt><trkpt lat="40.822703438018486" lon="17.3266626681538"><ele>396.0</ele><time>2026-05-03T14:10:22Z</time></trkpt><trkpt lat="40.8226937299357" lon="17.326824094831153"><ele>398.0</ele><time>2026-05-03T14:10:23Z</time></trkpt><trkpt lat="40.82265617144658" lon="17.326949908460072"><ele>395.4</ele><time>2026-05-03T14:10:24Z</time></trkpt><trkpt lat="40.82258797240449" lon="17.32702916321888"><ele>392.79999999999995</ele><time>2026-05-03T14:10:25Z</time></trkpt><trkpt lat="40.82249030288652" lon="17.327046551649072"><ele>390.2</ele><time>2026-05-03T14:10:26Z</time></trkpt><trkpt lat="40.82237885707793" lon="17.327087426234392"><ele>387.6</ele><time>2026-05-03T14:10:27Z</time></trkpt><trkpt lat="40.822246125531485" lon="17.327125611075804"><ele>385.0</ele><time>2026-05-03T14:10:28Z</time></trkpt><trkpt lat="40.82209859718085" lon="17.32722534366284"><ele>383.0</ele><time>2026-05-03T14:10:29Z</time></trkpt><trkpt lat="40.821963967397465" lon="17.32732166400531"><ele>381.0</ele><time>2026-05-03T14:10:30Z</time></trkpt><trkpt lat="40.821837384355675" lon="17.327418968463938"><ele>379.0</ele><time>2026-05-03T14:10:31Z</time></trkpt><trkpt lat="40.82169364781007" lon="17.32755858803063"><ele>379.0</ele><time>2026-05-03T14:10:32Z</time></trkpt><trkpt lat="40.82155140370271" lon="17.327725767832682"><ele>379.0</ele><time>2026-05-03T14:10:33Z</time></trkpt><trkpt lat="40.82141645322104" lon="17.327899861441058"><ele>379.0</ele><time>2026-05-03T14:10:34Z</time></trkpt><trkpt lat="40.82127697902675" lon="17.328068587946863"><ele>377.3333333333333</ele><time>2026-05-03T14:10:35Z</time></trkpt><trkpt lat="40.82114389594597" lon="17.328237930926907"><ele>375.6666666666667</ele><time>2026-05-03T14:10:36Z</time></trkpt><trkpt lat="40.821007340237635" lon="17.32841329731476"><ele>374.0</ele><time>2026-05-03T14:10:37Z</time></trkpt><trkpt lat="40.82086508544377" lon="17.328609441805895"><ele>374.0</ele><time>2026-05-03T14:10:38Z</time></trkpt><trkpt lat="40.82072776118612" lon="17.32880444557028"><ele>374.0</ele><time>2026-05-03T14:10:39Z</time></trkpt><trkpt lat="40.820600641928614" lon="17.328985270519837"><ele>374.0</ele><time>2026-05-03T14:10:40Z</time></trkpt><trkpt lat="40.82047891253813" lon="17.329152963545443"><ele>377.6666666666667</ele><time>2026-05-03T14:10:41Z</time></trkpt><trkpt lat="40.82037260471244" lon="17.32933603264969"><ele>381.33333333333337</ele><time>2026-05-03T14:10:42Z</time></trkpt><trkpt lat="40.820266437437716" lon="17.32952525366809"><ele>385.0</ele><time>2026-05-03T14:10:43Z</time></trkpt><trkpt lat="40.82016131022609" lon="17.329697463033117"><ele>379.33333333333337</ele><time>2026-05-03T14:10:44Z</time></trkpt><trkpt lat="40.82003748273219" lon="17.329865505148575"><ele>373.6666666666667</ele><time>2026-05-03T14:10:45Z</time></trkpt><trkpt lat="40.81989211912234" lon="17.330008631734824"><ele>368.0</ele><time>2026-05-03T14:10:46Z</time></trkpt><trkpt lat="40.81974101285193" lon="17.33016063437632"><ele>368.0</ele><time>2026-05-03T14:10:47Z</time></trkpt><trkpt lat="40.81959594496661" lon="17.330329630807462"><ele>368.0</ele><time>2026-05-03T14:10:48Z</time></trkpt><trkpt lat="40.81945210937244" lon="17.330501535197847"><ele>368.0</ele><time>2026-05-03T14:10:48.999Z</time></trkpt><trkpt lat="40.819310951747426" lon="17.33068002388571"><ele>367.33333333333337</ele><time>2026-05-03T14:10:49.999Z</time></trkpt><trkpt lat="40.8191665078409" lon="17.330855166029643"><ele>366.6666666666667</ele><time>2026-05-03T14:10:50.999Z</time></trkpt><trkpt lat="40.81901160941286" lon="17.331021322979154"><ele>366.0</ele><time>2026-05-03T14:10:51.999Z</time></trkpt><trkpt lat="40.81885133856936" lon="17.331162319559937"><ele>366.0</ele><time>2026-05-03T14:10:52.999Z</time></trkpt><trkpt lat="40.81869624547619" lon="17.331289404165382"><ele>366.0</ele><time>2026-05-03T14:10:53.999Z</time></trkpt><trkpt lat="40.81854636932163" lon="17.33141251412421"><ele>366.0</ele><time>2026-05-03T14:10:54.999Z</time></trkpt><trkpt lat="40.818399372646866" lon="17.331536355586337"><ele>364.0</ele><time>2026-05-03T14:10:55.999Z</time></trkpt><trkpt lat="40.818263867687044" lon="17.331679916896846"><ele>362.0</ele><time>2026-05-03T14:10:56.999Z</time></trkpt><trkpt lat="40.8181389786732" lon="17.331835674515936"><ele>360.0</ele><time>2026-05-03T14:10:57.999Z</time></trkpt><trkpt lat="40.81802861761504" lon="17.33200326332713"><ele>360.0</ele><time>2026-05-03T14:10:58.999Z</time></trkpt><trkpt lat="40.817924137867955" lon="17.332155578902857"><ele>360.0</ele><time>2026-05-03T14:10:59.999Z</time></trkpt><trkpt lat="40.8177941733155" lon="17.33228085379445"><ele>360.0</ele><time>2026-05-03T14:11:00.999Z</time></trkpt><trkpt lat="40.817649559021696" lon="17.33238405002385"><ele>357.6666666666667</ele><time>2026-05-03T14:11:01.999Z</time></trkpt><trkpt lat="40.817508394428394" lon="17.332505985015185"><ele>355.33333333333337</ele><time>2026-05-03T14:11:02.999Z</time></trkpt><trkpt lat="40.81738062965499" lon="17.33265317152958"><ele>353.0</ele><time>2026-05-03T14:11:03.999Z</time></trkpt><trkpt lat="40.81726118870247" lon="17.33280557496226"><ele>353.0</ele><time>2026-05-03T14:11:04.999Z</time></trkpt><trkpt lat="40.81715658154629" lon="17.33295946250973"><ele>353.0</ele><time>2026-05-03T14:11:05.999Z</time></trkpt><trkpt lat="40.817057582704464" lon="17.33311246134699"><ele>353.0</ele><time>2026-05-03T14:11:06.999Z</time></trkpt><trkpt lat="40.81695455637734" lon="17.333246165636258"><ele>352.0</ele><time>2026-05-03T14:11:07.999Z</time></trkpt><trkpt lat="40.81684186863239" lon="17.333356394788378"><ele>351.0</ele><time>2026-05-03T14:11:08.999Z</time></trkpt><trkpt lat="40.81672043512031" lon="17.333440345105064"><ele>350.0</ele><time>2026-05-03T14:11:09.999Z</time></trkpt><trkpt lat="40.816596463264794" lon="17.33349129268702"><ele>349.0</ele><time>2026-05-03T14:11:10.999Z</time></trkpt><trkpt lat="40.81647905209941" lon="17.333549486221266"><ele>349.0</ele><time>2026-05-03T14:11:11.999Z</time></trkpt><trkpt lat="40.81638341646838" lon="17.333645401457332"><ele>349.0</ele><time>2026-05-03T14:11:12.999Z</time></trkpt><trkpt lat="40.81629395048955" lon="17.333791533697188"><ele>349.0</ele><time>2026-05-03T14:11:13.999Z</time></trkpt><trkpt lat="40.81621175036867" lon="17.33393321839212"><ele>349.0</ele><time>2026-05-03T14:11:14.999Z</time></trkpt><trkpt lat="40.81614701440542" lon="17.33406790835827"><ele>346.6</ele><time>2026-05-03T14:11:15.999Z</time></trkpt><trkpt lat="40.81610230394084" lon="17.33420320185346"><ele>344.2</ele><time>2026-05-03T14:11:16.999Z</time></trkpt><trkpt lat="40.816077049731035" lon="17.33433310208528"><ele>341.8</ele><time>2026-05-03T14:11:17.999Z</time></trkpt><trkpt lat="40.816026373695934" lon="17.334449367727846"><ele>339.40000000000003</ele><time>2026-05-03T14:11:18.999Z</time></trkpt><trkpt lat="40.815990669926855" lon="17.334568520066114"><ele>337.0</ele><time>2026-05-03T14:11:19.999Z</time></trkpt><trkpt lat="40.815975629111996" lon="17.33467447106139"><ele>338.0</ele><time>2026-05-03T14:11:20.999Z</time></trkpt><trkpt lat="40.815962141528054" lon="17.33480731968951"><ele>339.0</ele><time>2026-05-03T14:11:21.999Z</time></trkpt><trkpt lat="40.81595491963362" lon="17.334936463104434"><ele>340.0</ele><time>2026-05-03T14:11:22.999Z</time></trkpt><trkpt lat="40.81592188121716" lon="17.335056049423642"><ele>341.0</ele><time>2026-05-03T14:11:23.999Z</time></trkpt><trkpt lat="40.81589403093011" lon="17.335160142242"><ele>342.0</ele><time>2026-05-03T14:11:24.999Z</time></trkpt><trkpt lat="40.81585254652154" lon="17.335287633267633"><ele>342.0</ele><time>2026-05-03T14:11:25.999Z</time></trkpt><trkpt lat="40.81580886576162" lon="17.335437823445993"><ele>342.0</ele><time>2026-05-03T14:11:26.999Z</time></trkpt><trkpt lat="40.815767496250906" lon="17.335586194534482"><ele>342.0</ele><time>2026-05-03T14:11:27.999Z</time></trkpt><trkpt lat="40.81575804485244" lon="17.335731250605733"><ele>342.0</ele><time>2026-05-03T14:11:28.999Z</time></trkpt><trkpt lat="40.81578963268949" lon="17.335866492223236"><ele>342.20000000000005</ele><time>2026-05-03T14:11:29.999Z</time></trkpt><trkpt lat="40.81586585409689" lon="17.335974271625197"><ele>342.4</ele><time>2026-05-03T14:11:30.999Z</time></trkpt><trkpt lat="40.815938720912726" lon="17.336071682661974"><ele>342.6</ele><time>2026-05-03T14:11:31.999Z</time></trkpt><trkpt lat="40.8159540270418" lon="17.336192207898684"><ele>342.79999999999995</ele><time>2026-05-03T14:11:32.999Z</time></trkpt><trkpt lat="40.81591379897935" lon="17.33630821837301"><ele>343.0</ele><time>2026-05-03T14:11:33.999Z</time></trkpt><trkpt lat="40.81582184372195" lon="17.336386972557026"><ele>343.0</ele><time>2026-05-03T14:11:34.999Z</time></trkpt><trkpt lat="40.815704848566774" lon="17.336479397389308"><ele>343.0</ele><time>2026-05-03T14:11:35.999Z</time></trkpt><trkpt lat="40.81556160572369" lon="17.336611922432073"><ele>343.0</ele><time>2026-05-03T14:11:36.999Z</time></trkpt><trkpt lat="40.81540383405106" lon="17.33676534578969"><ele>343.0</ele><time>2026-05-03T14:11:37.999Z</time></trkpt><trkpt lat="40.81525859841289" lon="17.33697694802169"><ele>343.0</ele><time>2026-05-03T14:11:38.999Z</time></trkpt><trkpt lat="40.81511966847537" lon="17.337188741280663"><ele>343.0</ele><time>2026-05-03T14:11:39.999Z</time></trkpt><trkpt lat="40.81495749890212" lon="17.33735264113664"><ele>340.0</ele><time>2026-05-03T14:11:40.999Z</time></trkpt><trkpt lat="40.814787096655564" lon="17.337523940481766"><ele>337.0</ele><time>2026-05-03T14:11:41.999Z</time></trkpt><trkpt lat="40.81463956377566" lon="17.33769991676097"><ele>334.0</ele><time>2026-05-03T14:11:42.999Z</time></trkpt><trkpt lat="40.81449332771103" lon="17.337851706593042"><ele>334.0</ele><time>2026-05-03T14:11:44Z</time></trkpt><trkpt lat="40.81434473220783" lon="17.337989056900994"><ele>334.0</ele><time>2026-05-03T14:11:45Z</time></trkpt><trkpt lat="40.81419647610033" lon="17.33809559580741"><ele>334.0</ele><time>2026-05-03T14:11:46Z</time></trkpt><trkpt lat="40.814064555751166" lon="17.338208779812618"><ele>333.25</ele><time>2026-05-03T14:11:47Z</time></trkpt><trkpt lat="40.81394068842757" lon="17.33833139217231"><ele>332.5</ele><time>2026-05-03T14:11:48Z</time></trkpt><trkpt lat="40.81382917337845" lon="17.33846447667361"><ele>331.75</ele><time>2026-05-03T14:11:49Z</time></trkpt><trkpt lat="40.81374387259082" lon="17.33861003882683"><ele>331.0</ele><time>2026-05-03T14:11:50Z</time></trkpt><trkpt lat="40.8136865432101" lon="17.338789437389128"><ele>332.5</ele><time>2026-05-03T14:11:51Z</time></trkpt><trkpt lat="40.8136545840865" lon="17.33899303650684"><ele>334.0</ele><time>2026-05-03T14:11:52Z</time></trkpt><trkpt lat="40.81364020586387" lon="17.339184796908544"><ele>335.5</ele><time>2026-05-03T14:11:53Z</time></trkpt><trkpt lat="40.81358530142689" lon="17.339361426052996"><ele>337.0</ele><time>2026-05-03T14:11:54Z</time></trkpt><trkpt lat="40.81350604777051" lon="17.339504345137748"><ele>333.3333333333333</ele><time>2026-05-03T14:11:55Z</time></trkpt><trkpt lat="40.81340106317037" lon="17.339649466915066"><ele>329.6666666666667</ele><time>2026-05-03T14:11:56Z</time></trkpt><trkpt lat="40.81328506931341" lon="17.339769325581372"><ele>326.0</ele><time>2026-05-03T14:11:57Z</time></trkpt><trkpt lat="40.813155065072024" lon="17.339905897656124"><ele>326.0</ele><time>2026-05-03T14:11:58Z</time></trkpt><trkpt lat="40.813009991545165" lon="17.34001913971198"><ele>326.0</ele><time>2026-05-03T14:11:59Z</time></trkpt><trkpt lat="40.81288201089049" lon="17.340123978291988"><ele>326.0</ele><time>2026-05-03T14:12:00Z</time></trkpt><trkpt lat="40.81275428501033" lon="17.34023602980797"><ele>323.33333333333337</ele><time>2026-05-03T14:12:01Z</time></trkpt><trkpt lat="40.81262886288032" lon="17.34035020855125"><ele>320.6666666666667</ele><time>2026-05-03T14:12:02Z</time></trkpt><trkpt lat="40.8125115592573" lon="17.34048158773625"><ele>318.0</ele><time>2026-05-03T14:12:03Z</time></trkpt><trkpt lat="40.81241631940186" lon="17.34063364006181"><ele>318.0</ele><time>2026-05-03T14:12:04Z</time></trkpt><trkpt lat="40.81233656281717" lon="17.340793704095418"><ele>318.0</ele><time>2026-05-03T14:12:05Z</time></trkpt><trkpt lat="40.81225770807237" lon="17.34095307709981"><ele>318.0</ele><time>2026-05-03T14:12:06Z</time></trkpt><trkpt lat="40.812186738255264" lon="17.34111267389213"><ele>318.0</ele><time>2026-05-03T14:12:07Z</time></trkpt><trkpt lat="40.81211815796502" lon="17.341277931279368"><ele>319.5</ele><time>2026-05-03T14:12:08Z</time></trkpt><trkpt lat="40.81202797610641" lon="17.34143563701073"><ele>321.0</ele><time>2026-05-03T14:12:09Z</time></trkpt><trkpt lat="40.811923962831145" lon="17.341571381889356"><ele>322.5</ele><time>2026-05-03T14:12:10Z</time></trkpt><trkpt lat="40.81183716655002" lon="17.341678634835414"><ele>324.0</ele><time>2026-05-03T14:12:11Z</time></trkpt><trkpt lat="40.811750037441286" lon="17.34175580485408"><ele>321.5</ele><time>2026-05-03T14:12:12Z</time></trkpt><trkpt lat="40.811657258514536" lon="17.34178050749486"><ele>319.0</ele><time>2026-05-03T14:12:13Z</time></trkpt><trkpt lat="40.8115650744749" lon="17.341820821140594"><ele>316.5</ele><time>2026-05-03T14:12:14Z</time></trkpt><trkpt lat="40.81147575691546" lon="17.341831891132852"><ele>314.0</ele><time>2026-05-03T14:12:15Z</time></trkpt><trkpt lat="40.81139297859894" lon="17.34184353744422"><ele>311.5</ele><time>2026-05-03T14:12:16Z</time></trkpt><trkpt lat="40.81131713410509" lon="17.34186381267343"><ele>309.0</ele><time>2026-05-03T14:12:17Z</time></trkpt><trkpt lat="40.81122404487994" lon="17.341927202364012"><ele>309.0</ele><time>2026-05-03T14:12:19Z</time></trkpt><trkpt lat="40.81114855722785" lon="17.34195373626999"><ele>309.0</ele><time>2026-05-03T14:12:22Z</time></trkpt><trkpt lat="40.81112772457918" lon="17.34179740751294"><ele>309.0</ele><time>2026-05-03T14:12:25Z</time></trkpt><trkpt lat="40.811148236598434" lon="17.341646822679824"><ele>309.0</ele><time>2026-05-03T14:12:26Z</time></trkpt><trkpt lat="40.81117894636454" lon="17.34151984694098"><ele>309.0</ele><time>2026-05-03T14:12:27Z</time></trkpt><trkpt lat="40.811197147310736" lon="17.341388261472023"><ele>308.25</ele><time>2026-05-03T14:12:28Z</time></trkpt><trkpt lat="40.811212838132555" lon="17.341243566682742"><ele>307.5</ele><time>2026-05-03T14:12:29Z</time></trkpt><trkpt lat="40.81124007985194" lon="17.34110341508225"><ele>306.75</ele><time>2026-05-03T14:12:30Z</time></trkpt><trkpt lat="40.81127686682476" lon="17.34093224109836"><ele>306.0</ele><time>2026-05-03T14:12:31Z</time></trkpt><trkpt lat="40.81132029590261" lon="17.34077436302121"><ele>306.0</ele><time>2026-05-03T14:12:32Z</time></trkpt><trkpt lat="40.81137098354259" lon="17.340625614010822"><ele>306.0</ele><time>2026-05-03T14:12:33Z</time></trkpt><trkpt lat="40.811421042355015" lon="17.340465459641756"><ele>306.0</ele><time>2026-05-03T14:12:34Z</time></trkpt><trkpt lat="40.81146961083556" lon="17.3402990774014"><ele>306.0</ele><time>2026-05-03T14:12:35Z</time></trkpt><trkpt lat="40.81153351912092" lon="17.34015671599605"><ele>305.25</ele><time>2026-05-03T14:12:36Z</time></trkpt><trkpt lat="40.81158687992911" lon="17.34001211225508"><ele>304.5</ele><time>2026-05-03T14:12:37Z</time></trkpt><trkpt lat="40.81165151285091" lon="17.339863191467952"><ele>303.75</ele><time>2026-05-03T14:12:38Z</time></trkpt><trkpt lat="40.811727097656664" lon="17.339706486868348"><ele>303.0</ele><time>2026-05-03T14:12:39Z</time></trkpt><trkpt lat="40.81181895236988" lon="17.339533313671186"><ele>303.0</ele><time>2026-05-03T14:12:40Z</time></trkpt><trkpt lat="40.81191937563328" lon="17.33933785990492"><ele>303.0</ele><time>2026-05-03T14:12:41Z</time></trkpt><trkpt lat="40.81202310527566" lon="17.339138062175454"><ele>303.0</ele><time>2026-05-03T14:12:42Z</time></trkpt><trkpt lat="40.812127753247154" lon="17.3389201177193"><ele>301.3333333333333</ele><time>2026-05-03T14:12:43Z</time></trkpt><trkpt lat="40.812217813484345" lon="17.33867029892998"><ele>299.66666666666663</ele><time>2026-05-03T14:12:44Z</time></trkpt><trkpt lat="40.812301321850576" lon="17.33840607280638"><ele>298.0</ele><time>2026-05-03T14:12:45Z</time></trkpt><trkpt lat="40.81237614585902" lon="17.33813914266797"><ele>296.66666666666663</ele><time>2026-05-03T14:12:46Z</time></trkpt><trkpt lat="40.812452862480455" lon="17.337875363549152"><ele>295.3333333333333</ele><time>2026-05-03T14:12:47Z</time></trkpt><trkpt lat="40.81254356560036" lon="17.337638975424856"><ele>294.0</ele><time>2026-05-03T14:12:48Z</time></trkpt><trkpt lat="40.81261398311484" lon="17.337410567842724"><ele>294.0</ele><time>2026-05-03T14:12:49Z</time></trkpt><trkpt lat="40.81266807966608" lon="17.337184499090032"><ele>294.0</ele><time>2026-05-03T14:12:50Z</time></trkpt><trkpt lat="40.81273633206613" lon="17.336979070131232"><ele>294.0</ele><time>2026-05-03T14:12:50.999Z</time></trkpt><trkpt lat="40.81280162017332" lon="17.336772284968337"><ele>294.0</ele><time>2026-05-03T14:12:51.999Z</time></trkpt><trkpt lat="40.81286702679393" lon="17.336559483929612"><ele>294.0</ele><time>2026-05-03T14:12:52.999Z</time></trkpt><trkpt lat="40.812918092973945" lon="17.336341365196652"><ele>294.0</ele><time>2026-05-03T14:12:53.999Z</time></trkpt><trkpt lat="40.81295296644893" lon="17.33609594490517"><ele>293.0</ele><time>2026-05-03T14:12:54.999Z</time></trkpt><trkpt lat="40.812981448882" lon="17.335834567866968"><ele>292.0</ele><time>2026-05-03T14:12:55.999Z</time></trkpt><trkpt lat="40.81302180532899" lon="17.335565218259514"><ele>291.0</ele><time>2026-05-03T14:12:56.999Z</time></trkpt><trkpt lat="40.81308257993769" lon="17.33529196225996"><ele>289.6666666666667</ele><time>2026-05-03T14:12:57.999Z</time></trkpt><trkpt lat="40.813143713704335" lon="17.33500927190685"><ele>288.33333333333337</ele><time>2026-05-03T14:12:58.999Z</time></trkpt><trkpt lat="40.81322182364124" lon="17.33473009061537"><ele>287.0</ele><time>2026-05-03T14:12:59.999Z</time></trkpt><trkpt lat="40.81330803715084" lon="17.334444283912376"><ele>285.0</ele><time>2026-05-03T14:13:00.999Z</time></trkpt><trkpt lat="40.81337896603525" lon="17.33415086843651"><ele>283.0</ele><time>2026-05-03T14:13:01.999Z</time></trkpt><trkpt lat="40.813436532896326" lon="17.33386219727631"><ele>283.3333333333333</ele><time>2026-05-03T14:13:02.999Z</time></trkpt><trkpt lat="40.81349174066112" lon="17.3335811713275"><ele>283.6666666666667</ele><time>2026-05-03T14:13:03.999Z</time></trkpt><trkpt lat="40.813539020788994" lon="17.333325051240294"><ele>284.0</ele><time>2026-05-03T14:13:04.999Z</time></trkpt><trkpt lat="40.813573056582044" lon="17.33306652720729"><ele>282.33333333333337</ele><time>2026-05-03T14:13:05.999Z</time></trkpt><trkpt lat="40.813592848790314" lon="17.332787519665096"><ele>280.6666666666667</ele><time>2026-05-03T14:13:06.999Z</time></trkpt><trkpt lat="40.81358275214816" lon="17.33249696387075"><ele>279.0</ele><time>2026-05-03T14:13:07.999Z</time></trkpt><trkpt lat="40.8135701826171" lon="17.332177701607062"><ele>278.0</ele><time>2026-05-03T14:13:08.999Z</time></trkpt><trkpt lat="40.813562732440005" lon="17.331874070106146"><ele>277.0</ele><time>2026-05-03T14:13:09.999Z</time></trkpt><trkpt lat="40.813559337100045" lon="17.331580529155932"><ele>276.3333333333333</ele><time>2026-05-03T14:13:10.999Z</time></trkpt><trkpt lat="40.813554488959" lon="17.331302214358423"><ele>275.6666666666667</ele><time>2026-05-03T14:13:11.999Z</time></trkpt><trkpt lat="40.813558457655716" lon="17.33104924221927"><ele>275.0</ele><time>2026-05-03T14:13:12.999Z</time></trkpt><trkpt lat="40.813570702928146" lon="17.33079015163951"><ele>274.33333333333337</ele><time>2026-05-03T14:13:13.999Z</time></trkpt><trkpt lat="40.81358392705893" lon="17.3305153210197"><ele>273.6666666666667</ele><time>2026-05-03T14:13:14.999Z</time></trkpt><trkpt lat="40.81364678403822" lon="17.33023362180097"><ele>273.0</ele><time>2026-05-03T14:13:15.999Z</time></trkpt><trkpt lat="40.81370185912926" lon="17.329934860511973"><ele>271.5</ele><time>2026-05-03T14:13:16.999Z</time></trkpt><trkpt lat="40.81374531140747" lon="17.329627944855254"><ele>270.0</ele><time>2026-05-03T14:13:17.999Z</time></trkpt><trkpt lat="40.81380022918951" lon="17.329312120526897"><ele>270.0</ele><time>2026-05-03T14:13:18.999Z</time></trkpt><trkpt lat="40.813831202428695" lon="17.328984029921564"><ele>270.0</ele><time>2026-05-03T14:13:19.999Z</time></trkpt><trkpt lat="40.81383484768929" lon="17.328602614344206"><ele>270.0</ele><time>2026-05-03T14:13:20.999Z</time></trkpt><trkpt lat="40.81383157360807" lon="17.328238096244554"><ele>270.0</ele><time>2026-05-03T14:13:21.999Z</time></trkpt><trkpt lat="40.81385129359026" lon="17.32786796557144"><ele>270.0</ele><time>2026-05-03T14:13:22.999Z</time></trkpt><trkpt lat="40.81385696252326" lon="17.327514586692104"><ele>270.0</ele><time>2026-05-03T14:13:23.999Z</time></trkpt><trkpt lat="40.813846532781454" lon="17.3271935719622"><ele>269.6666666666667</ele><time>2026-05-03T14:13:24.999Z</time></trkpt><trkpt lat="40.81386130231198" lon="17.326902725160796"><ele>269.33333333333337</ele><time>2026-05-03T14:13:25.999Z</time></trkpt><trkpt lat="40.813906970130304" lon="17.326633484195856"><ele>269.0</ele><time>2026-05-03T14:13:26.999Z</time></trkpt><trkpt lat="40.813958878810745" lon="17.326371451055408"><ele>268.0</ele><time>2026-05-03T14:13:27.999Z</time></trkpt><trkpt lat="40.814029634894126" lon="17.326097327994606"><ele>267.0</ele><time>2026-05-03T14:13:28.999Z</time></trkpt><trkpt lat="40.81409446251019" lon="17.325802770517825"><ele>267.0</ele><time>2026-05-03T14:13:29.999Z</time></trkpt><trkpt lat="40.814176899407485" lon="17.325509655368265"><ele>267.0</ele><time>2026-05-03T14:13:30.999Z</time></trkpt><trkpt lat="40.81425712914779" lon="17.325212506638433"><ele>267.3333333333333</ele><time>2026-05-03T14:13:31.999Z</time></trkpt><trkpt lat="40.81435067691537" lon="17.324934091496807"><ele>267.66666666666663</ele><time>2026-05-03T14:13:32.999Z</time></trkpt><trkpt lat="40.81442183738184" lon="17.324667470052713"><ele>268.0</ele><time>2026-05-03T14:13:33.999Z</time></trkpt><trkpt lat="40.81442011268492" lon="17.324372380966192"><ele>267.3333333333333</ele><time>2026-05-03T14:13:34.999Z</time></trkpt><trkpt lat="40.814424723617215" lon="17.32408663873834"><ele>266.6666666666667</ele><time>2026-05-03T14:13:35.999Z</time></trkpt><trkpt lat="40.81442083276448" lon="17.32380143421773"><ele>266.0</ele><time>2026-05-03T14:13:36.999Z</time></trkpt><trkpt lat="40.81441615845462" lon="17.32354104833119"><ele>266.0</ele><time>2026-05-03T14:13:37.999Z</time></trkpt><trkpt lat="40.814429852187146" lon="17.32328351995204"><ele>266.0</ele><time>2026-05-03T14:13:38.999Z</time></trkpt><trkpt lat="40.81447027562131" lon="17.323032091818902"><ele>266.0</ele><time>2026-05-03T14:13:39.999Z</time></trkpt><trkpt lat="40.814536464958344" lon="17.322776197783856"><ele>266.5</ele><time>2026-05-03T14:13:40.999Z</time></trkpt><trkpt lat="40.814635864286956" lon="17.32251488640917"><ele>267.0</ele><time>2026-05-03T14:13:41.999Z</time></trkpt><trkpt lat="40.81475024648517" lon="17.32224759192088"><ele>267.0</ele><time>2026-05-03T14:13:42.999Z</time></trkpt><trkpt lat="40.81487028444684" lon="17.321976104891036"><ele>267.0</ele><time>2026-05-03T14:13:43.999Z</time></trkpt><trkpt lat="40.81498706064758" lon="17.321693120932373"><ele>267.0</ele><time>2026-05-03T14:13:44.999Z</time></trkpt><trkpt lat="40.81510826106267" lon="17.32140777371986"><ele>267.0</ele><time>2026-05-03T14:13:45.999Z</time></trkpt><trkpt lat="40.81521760910271" lon="17.321142937519244"><ele>267.0</ele><time>2026-05-03T14:13:46.999Z</time></trkpt><trkpt lat="40.815322290371014" lon="17.320886726815562"><ele>267.0</ele><time>2026-05-03T14:13:47.999Z</time></trkpt><trkpt lat="40.81542317944846" lon="17.320644722284843"><ele>267.0</ele><time>2026-05-03T14:13:48.999Z</time></trkpt><trkpt lat="40.815515859606215" lon="17.32041288882207"><ele>267.0</ele><time>2026-05-03T14:13:50Z</time></trkpt><trkpt lat="40.81560298284939" lon="17.32019834547978"><ele>267.0</ele><time>2026-05-03T14:13:51Z</time></trkpt><trkpt lat="40.81568772480515" lon="17.31999415987052"><ele>267.0</ele><time>2026-05-03T14:13:52Z</time></trkpt><trkpt lat="40.81576812718812" lon="17.31979651570663"><ele>268.0</ele><time>2026-05-03T14:13:53Z</time></trkpt><trkpt lat="40.81583736400504" lon="17.319591683562045"><ele>269.0</ele><time>2026-05-03T14:13:54Z</time></trkpt><trkpt lat="40.815898438610546" lon="17.319379063167712"><ele>270.0</ele><time>2026-05-03T14:13:55Z</time></trkpt><trkpt lat="40.81595061439633" lon="17.3191600042334"><ele>268.6666666666667</ele><time>2026-05-03T14:13:56Z</time></trkpt><trkpt lat="40.815988266614085" lon="17.318940814815683"><ele>267.33333333333337</ele><time>2026-05-03T14:13:57Z</time></trkpt><trkpt lat="40.81600943477469" lon="17.318713454514445"><ele>266.0</ele><time>2026-05-03T14:13:58Z</time></trkpt><trkpt lat="40.81601725606277" lon="17.318480533330327"><ele>266.0</ele><time>2026-05-03T14:13:59Z</time></trkpt><trkpt lat="40.81602820570982" lon="17.318251785558914"><ele>266.0</ele><time>2026-05-03T14:14:00Z</time></trkpt><trkpt lat="40.81605790645167" lon="17.31802271654658"><ele>266.0</ele><time>2026-05-03T14:14:01Z</time></trkpt><trkpt lat="40.8161044701919" lon="17.31779393248818"><ele>265.6666666666667</ele><time>2026-05-03T14:14:02Z</time></trkpt><trkpt lat="40.816152008080266" lon="17.31758252474344"><ele>265.3333333333333</ele><time>2026-05-03T14:14:03Z</time></trkpt><trkpt lat="40.81620351313204" lon="17.317360653508036"><ele>265.0</ele><time>2026-05-03T14:14:04Z</time></trkpt><trkpt lat="40.81625503159596" lon="17.317125319514716"><ele>265.0</ele><time>2026-05-03T14:14:05Z</time></trkpt><trkpt lat="40.816304409150185" lon="17.316883938094293"><ele>265.0</ele><time>2026-05-03T14:14:06Z</time></trkpt><trkpt lat="40.81634166901425" lon="17.31663873650424"><ele>265.0</ele><time>2026-05-03T14:14:07Z</time></trkpt><trkpt lat="40.816362544313456" lon="17.316399174174222"><ele>265.66666666666663</ele><time>2026-05-03T14:14:08Z</time></trkpt><trkpt lat="40.81637714714697" lon="17.316168870854643"><ele>266.3333333333333</ele><time>2026-05-03T14:14:09Z</time></trkpt><trkpt lat="40.816390907888525" lon="17.31595566897009"><ele>267.0</ele><time>2026-05-03T14:14:10Z</time></trkpt><trkpt lat="40.81640481044294" lon="17.315753413819355"><ele>267.3333333333333</ele><time>2026-05-03T14:14:11Z</time></trkpt><trkpt lat="40.81642717342482" lon="17.315556174441838"><ele>267.66666666666663</ele><time>2026-05-03T14:14:12Z</time></trkpt><trkpt lat="40.81646498277389" lon="17.315356157268287"><ele>268.0</ele><time>2026-05-03T14:14:13Z</time></trkpt><trkpt lat="40.81652658399485" lon="17.315146721330375"><ele>268.0</ele><time>2026-05-03T14:14:14Z</time></trkpt><trkpt lat="40.816596756925065" lon="17.314942646271987"><ele>268.0</ele><time>2026-05-03T14:14:15Z</time></trkpt><trkpt lat="40.81667440535104" lon="17.314737341244342"><ele>268.0</ele><time>2026-05-03T14:14:16Z</time></trkpt><trkpt lat="40.81675427801198" lon="17.31454618734753"><ele>268.3333333333333</ele><time>2026-05-03T14:14:17Z</time></trkpt><trkpt lat="40.816825819705294" lon="17.31434990503293"><ele>268.6666666666667</ele><time>2026-05-03T14:14:18Z</time></trkpt><trkpt lat="40.81687725624006" lon="17.31413615398732"><ele>269.0</ele><time>2026-05-03T14:14:19Z</time></trkpt><trkpt lat="40.816912467181254" lon="17.31392278348714"><ele>268.6666666666667</ele><time>2026-05-03T14:14:20Z</time></trkpt><trkpt lat="40.81692998922437" lon="17.31368707195261"><ele>268.3333333333333</ele><time>2026-05-03T14:14:21Z</time></trkpt><trkpt lat="40.81694765506899" lon="17.31344705038683"><ele>268.0</ele><time>2026-05-03T14:14:22Z</time></trkpt><trkpt lat="40.81696108602839" lon="17.313216777589314"><ele>268.0</ele><time>2026-05-03T14:14:23Z</time></trkpt><trkpt lat="40.81697172620713" lon="17.31299215263117"><ele>268.0</ele><time>2026-05-03T14:14:24Z</time></trkpt><trkpt lat="40.81697992858243" lon="17.312781252072757"><ele>268.0</ele><time>2026-05-03T14:14:25Z</time></trkpt><trkpt lat="40.8169863563976" lon="17.312574576806018"><ele>268.0</ele><time>2026-05-03T14:14:26Z</time></trkpt><trkpt lat="40.81699477253755" lon="17.312374387061165"><ele>268.0</ele><time>2026-05-03T14:14:27Z</time></trkpt><trkpt lat="40.81700673838297" lon="17.312172983799343"><ele>268.0</ele><time>2026-05-03T14:14:28Z</time></trkpt><trkpt lat="40.81702220322652" lon="17.311968876761856"><ele>268.0</ele><time>2026-05-03T14:14:29Z</time></trkpt><trkpt lat="40.81704477607833" lon="17.311760894706172"><ele>268.0</ele><time>2026-05-03T14:14:30Z</time></trkpt><trkpt lat="40.81706973540978" lon="17.311548446244846"><ele>268.0</ele><time>2026-05-03T14:14:31Z</time></trkpt><trkpt lat="40.817093467152034" lon="17.31133270837504"><ele>268.0</ele><time>2026-05-03T14:14:32Z</time></trkpt><trkpt lat="40.81711874642184" lon="17.31111871500559"><ele>268.0</ele><time>2026-05-03T14:14:33Z</time></trkpt><trkpt lat="40.8171392320416" lon="17.31090881913057"><ele>268.0</ele><time>2026-05-03T14:14:34Z</time></trkpt><trkpt lat="40.81716156101962" lon="17.310698260778967"><ele>268.0</ele><time>2026-05-03T14:14:35Z</time></trkpt><trkpt lat="40.81718267186556" lon="17.310484777982865"><ele>268.0</ele><time>2026-05-03T14:14:36Z</time></trkpt><trkpt lat="40.81720297597754" lon="17.310272683538496"><ele>268.0</ele><time>2026-05-03T14:14:37Z</time></trkpt><trkpt lat="40.817224958969135" lon="17.310067734307786"><ele>268.0</ele><time>2026-05-03T14:14:38Z</time></trkpt><trkpt lat="40.81725289896104" lon="17.30986424764793"><ele>268.0</ele><time>2026-05-03T14:14:39Z</time></trkpt><trkpt lat="40.81728209929274" lon="17.30966622295799"><ele>268.0</ele><time>2026-05-03T14:14:40Z</time></trkpt><trkpt lat="40.81731192648699" lon="17.309460810933146"><ele>268.0</ele><time>2026-05-03T14:14:41Z</time></trkpt><trkpt lat="40.8173330890777" lon="17.309262420612473"><ele>268.0</ele><time>2026-05-03T14:14:42Z</time></trkpt><trkpt lat="40.817344933944845" lon="17.309053397980474"><ele>268.0</ele><time>2026-05-03T14:14:43Z</time></trkpt><trkpt lat="40.81734073052844" lon="17.308840090104777"><ele>268.0</ele><time>2026-05-03T14:14:44Z</time></trkpt><trkpt lat="40.81732324204969" lon="17.308625497425098"><ele>268.0</ele><time>2026-05-03T14:14:45Z</time></trkpt><trkpt lat="40.81730592294511" lon="17.308411195247047"><ele>268.0</ele><time>2026-05-03T14:14:46Z</time></trkpt><trkpt lat="40.817300304292964" lon="17.3081927646882"><ele>268.0</ele><time>2026-05-03T14:14:47Z</time></trkpt><trkpt lat="40.817316193182165" lon="17.30797489158154"><ele>268.0</ele><time>2026-05-03T14:14:48Z</time></trkpt><trkpt lat="40.81735387044445" lon="17.307755468572395"><ele>268.0</ele><time>2026-05-03T14:14:49Z</time></trkpt><trkpt lat="40.817408376017134" lon="17.30753018382612"><ele>268.0</ele><time>2026-05-03T14:14:50Z</time></trkpt><trkpt lat="40.81747425771271" lon="17.307297068761425"><ele>268.0</ele><time>2026-05-03T14:14:51Z</time></trkpt><trkpt lat="40.81754636990901" lon="17.307056386833967"><ele>268.0</ele><time>2026-05-03T14:14:52Z</time></trkpt><trkpt lat="40.81761839899833" lon="17.306812607006254"><ele>268.0</ele><time>2026-05-03T14:14:53Z</time></trkpt><trkpt lat="40.817683550491026" lon="17.306564997451467"><ele>268.0</ele><time>2026-05-03T14:14:53.999Z</time></trkpt><trkpt lat="40.81774650673975" lon="17.306318442004564"><ele>268.0</ele><time>2026-05-03T14:14:54.999Z</time></trkpt><trkpt lat="40.817812316678456" lon="17.30607328059327"><ele>268.0</ele><time>2026-05-03T14:14:55.999Z</time></trkpt><trkpt lat="40.817881674109024" lon="17.305835092283605"><ele>268.0</ele><time>2026-05-03T14:14:56.999Z</time></trkpt><trkpt lat="40.817950826797464" lon="17.30561137030912"><ele>268.0</ele><time>2026-05-03T14:14:57.999Z</time></trkpt><trkpt lat="40.8180114412557" lon="17.305401010419278"><ele>268.3333333333333</ele><time>2026-05-03T14:14:58.999Z</time></trkpt><trkpt lat="40.81806459311662" lon="17.30520344354247"><ele>268.6666666666667</ele><time>2026-05-03T14:14:59.999Z</time></trkpt><trkpt lat="40.818120906111155" lon="17.30500915943025"><ele>269.0</ele><time>2026-05-03T14:15:00.999Z</time></trkpt><trkpt lat="40.81817830808777" lon="17.304800977560152"><ele>269.6666666666667</ele><time>2026-05-03T14:15:01.999Z</time></trkpt><trkpt lat="40.81825455972859" lon="17.30457682470501"><ele>270.3333333333333</ele><time>2026-05-03T14:15:02.999Z</time></trkpt><trkpt lat="40.81832198476035" lon="17.304338405622108"><ele>271.0</ele><time>2026-05-03T14:15:03.999Z</time></trkpt><trkpt lat="40.81838909342877" lon="17.304101104954643"><ele>271.0</ele><time>2026-05-03T14:15:04.999Z</time></trkpt><trkpt lat="40.8184617507511" lon="17.30384418401878"><ele>271.0</ele><time>2026-05-03T14:15:05.999Z</time></trkpt><trkpt lat="40.81854603888009" lon="17.303546135822042"><ele>271.0</ele><time>2026-05-03T14:15:06.999Z</time></trkpt><trkpt lat="40.81864653526724" lon="17.30319592170535"><ele>271.0</ele><time>2026-05-03T14:15:07.999Z</time></trkpt><trkpt lat="40.81874015543287" lon="17.302831877332064"><ele>271.0</ele><time>2026-05-03T14:15:08.999Z</time></trkpt><trkpt lat="40.81883727517122" lon="17.302477475531067"><ele>271.0</ele><time>2026-05-03T14:15:09.999Z</time></trkpt><trkpt lat="40.81892215778161" lon="17.302142501696252"><ele>271.0</ele><time>2026-05-03T14:15:10.999Z</time></trkpt><trkpt lat="40.81899490676545" lon="17.301840199821925"><ele>271.0</ele><time>2026-05-03T14:15:11.999Z</time></trkpt><trkpt lat="40.81906295609125" lon="17.301556695464754"><ele>271.0</ele><time>2026-05-03T14:15:12.999Z</time></trkpt><trkpt lat="40.8191269243786" lon="17.301285665944153"><ele>271.0</ele><time>2026-05-03T14:15:13.999Z</time></trkpt><trkpt lat="40.81919284682302" lon="17.300999462343793"><ele>271.0</ele><time>2026-05-03T14:15:14.999Z</time></trkpt><trkpt lat="40.819278368237015" lon="17.300697300556774"><ele>271.0</ele><time>2026-05-03T14:15:15.999Z</time></trkpt><trkpt lat="40.81936150882298" lon="17.300349371482117"><ele>272.0</ele><time>2026-05-03T14:15:16.999Z</time></trkpt><trkpt lat="40.819450465380555" lon="17.299983430952906"><ele>273.0</ele><time>2026-05-03T14:15:17.999Z</time></trkpt><trkpt lat="40.81954798185072" lon="17.299593078175295"><ele>274.5</ele><time>2026-05-03T14:15:18.999Z</time></trkpt><trkpt lat="40.81963859496404" lon="17.299180706553273"><ele>276.0</ele><time>2026-05-03T14:15:19.999Z</time></trkpt><trkpt lat="40.819765545234276" lon="17.29878288264436"><ele>277.0</ele><time>2026-05-03T14:15:20.999Z</time></trkpt><trkpt lat="40.81988316682063" lon="17.29836870415849"><ele>278.0</ele><time>2026-05-03T14:15:21.999Z</time></trkpt><trkpt lat="40.8199884928322" lon="17.29793446704711"><ele>279.5</ele><time>2026-05-03T14:15:22.999Z</time></trkpt><trkpt lat="40.82011354647623" lon="17.297488338202847"><ele>281.0</ele><time>2026-05-03T14:15:23.999Z</time></trkpt><trkpt lat="40.82024176089339" lon="17.29702544123504"><ele>283.0</ele><time>2026-05-03T14:15:24.999Z</time></trkpt><trkpt lat="40.82037416861751" lon="17.29655116114775"><ele>285.0</ele><time>2026-05-03T14:15:25.999Z</time></trkpt><trkpt lat="40.82050862226963" lon="17.296078656720223"><ele>285.0</ele><time>2026-05-03T14:15:26.999Z</time></trkpt><trkpt lat="40.820626693175996" lon="17.295645897979814"><ele>285.0</ele><time>2026-05-03T14:15:27.999Z</time></trkpt><trkpt lat="40.820751226502736" lon="17.295246880418627"><ele>287.0</ele><time>2026-05-03T14:15:28.999Z</time></trkpt><trkpt lat="40.8208490691663" lon="17.294844896181548"><ele>289.0</ele><time>2026-05-03T14:15:29.999Z</time></trkpt><trkpt lat="40.820960707240744" lon="17.294451111667705"><ele>292.0</ele><time>2026-05-03T14:15:30.999Z</time></trkpt><trkpt lat="40.82107251149222" lon="17.29405295571155"><ele>295.0</ele><time>2026-05-03T14:15:31.999Z</time></trkpt><trkpt lat="40.82119996985838" lon="17.29366759190674"><ele>297.0</ele><time>2026-05-03T14:15:32.999Z</time></trkpt><trkpt lat="40.82130654196823" lon="17.293293500103452"><ele>299.0</ele><time>2026-05-03T14:15:33.999Z</time></trkpt><trkpt lat="40.82139719660034" lon="17.292923574059483"><ele>300.5</ele><time>2026-05-03T14:15:34.999Z</time></trkpt><trkpt lat="40.82149154321414" lon="17.292582624847224"><ele>302.0</ele><time>2026-05-03T14:15:35.999Z</time></trkpt><trkpt lat="40.82158355363418" lon="17.292261118650245"><ele>304.0</ele><time>2026-05-03T14:15:36.999Z</time></trkpt><trkpt lat="40.82166184123122" lon="17.291977084403758"><ele>306.0</ele><time>2026-05-03T14:15:37.999Z</time></trkpt><trkpt lat="40.82173340977486" lon="17.291708836646063"><ele>308.0</ele><time>2026-05-03T14:15:38.999Z</time></trkpt><trkpt lat="40.82179300079392" lon="17.291450036962985"><ele>309.0</ele><time>2026-05-03T14:15:39.999Z</time></trkpt><trkpt lat="40.82182657868688" lon="17.29119272910059"><ele>310.0</ele><time>2026-05-03T14:15:40.999Z</time></trkpt><trkpt lat="40.821826833526764" lon="17.290921811430163"><ele>311.0</ele><time>2026-05-03T14:15:41.999Z</time></trkpt><trkpt lat="40.82179864915323" lon="17.290635563230687"><ele>312.5</ele><time>2026-05-03T14:15:42.999Z</time></trkpt><trkpt lat="40.82175976593798" lon="17.290320820265542"><ele>314.0</ele><time>2026-05-03T14:15:43.999Z</time></trkpt><trkpt lat="40.82171666564133" lon="17.289990310104212"><ele>314.5</ele><time>2026-05-03T14:15:44.999Z</time></trkpt><trkpt lat="40.82168219432446" lon="17.289664401318817"><ele>315.0</ele><time>2026-05-03T14:15:45.999Z</time></trkpt><trkpt lat="40.82167158904286" lon="17.28933750212416"><ele>315.0</ele><time>2026-05-03T14:15:46.999Z</time></trkpt><trkpt lat="40.821668822611436" lon="17.288988016515358"><ele>315.0</ele><time>2026-05-03T14:15:47.999Z</time></trkpt><trkpt lat="40.82167919577396" lon="17.288639092040736"><ele>315.0</ele><time>2026-05-03T14:15:48.999Z</time></trkpt><trkpt lat="40.821675994245496" lon="17.288299305547827"><ele>315.0</ele><time>2026-05-03T14:15:49.999Z</time></trkpt><trkpt lat="40.82166546127919" lon="17.287933199355553"><ele>315.0</ele><time>2026-05-03T14:15:50.999Z</time></trkpt><trkpt lat="40.821644743051564" lon="17.28755881292834"><ele>315.0</ele><time>2026-05-03T14:15:51.999Z</time></trkpt><trkpt lat="40.82162510309861" lon="17.287201789687437"><ele>314.0</ele><time>2026-05-03T14:15:52.999Z</time></trkpt><trkpt lat="40.82161294365062" lon="17.286851092327552"><ele>313.0</ele><time>2026-05-03T14:15:53.999Z</time></trkpt><trkpt lat="40.82161194935094" lon="17.28649719524123"><ele>312.0</ele><time>2026-05-03T14:15:54.999Z</time></trkpt><trkpt lat="40.82162149481376" lon="17.286133759916538"><ele>311.0</ele><time>2026-05-03T14:15:56Z</time></trkpt><trkpt lat="40.82163587113398" lon="17.285772479352442"><ele>310.0</ele><time>2026-05-03T14:15:57Z</time></trkpt><trkpt lat="40.82165122758662" lon="17.285408108503756"><ele>309.0</ele><time>2026-05-03T14:15:58Z</time></trkpt><trkpt lat="40.82166933638022" lon="17.28505306096431"><ele>309.0</ele><time>2026-05-03T14:15:59Z</time></trkpt><trkpt lat="40.82168553454269" lon="17.28470785943034"><ele>309.0</ele><time>2026-05-03T14:16:00Z</time></trkpt><trkpt lat="40.82170335849886" lon="17.284381092114263"><ele>309.0</ele><time>2026-05-03T14:16:01Z</time></trkpt><trkpt lat="40.82171826970218" lon="17.284074012487103"><ele>309.0</ele><time>2026-05-03T14:16:02Z</time></trkpt><trkpt lat="40.82172768271652" lon="17.28377842403764"><ele>308.0</ele><time>2026-05-03T14:16:03Z</time></trkpt><trkpt lat="40.82173023489167" lon="17.283477709047155"><ele>307.0</ele><time>2026-05-03T14:16:04Z</time></trkpt><trkpt lat="40.821716661300776" lon="17.283152754833853"><ele>307.5</ele><time>2026-05-03T14:16:05Z</time></trkpt><trkpt lat="40.82169574827081" lon="17.28282051252253"><ele>308.0</ele><time>2026-05-03T14:16:06Z</time></trkpt><trkpt lat="40.821669565341736" lon="17.282466208499052"><ele>306.5</ele><time>2026-05-03T14:16:07Z</time></trkpt><trkpt lat="40.82164589033079" lon="17.282108802714674"><ele>305.0</ele><time>2026-05-03T14:16:08Z</time></trkpt><trkpt lat="40.82163256127387" lon="17.281743926047778"><ele>305.0</ele><time>2026-05-03T14:16:09Z</time></trkpt><trkpt lat="40.8216217201822" lon="17.281370317634025"><ele>305.0</ele><time>2026-05-03T14:16:10Z</time></trkpt><trkpt lat="40.82161341367086" lon="17.28098646789768"><ele>305.0</ele><time>2026-05-03T14:16:11Z</time></trkpt><trkpt lat="40.821602083875426" lon="17.280609499751975"><ele>305.0</ele><time>2026-05-03T14:16:12Z</time></trkpt><trkpt lat="40.82158619773329" lon="17.280238953052404"><ele>305.0</ele><time>2026-05-03T14:16:13Z</time></trkpt><trkpt lat="40.821567002417936" lon="17.279876403525197"><ele>305.0</ele><time>2026-05-03T14:16:14Z</time></trkpt><trkpt lat="40.82155373826025" lon="17.27952494025903"><ele>305.0</ele><time>2026-05-03T14:16:15Z</time></trkpt><trkpt lat="40.82153702938213" lon="17.279173593872912"><ele>305.0</ele><time>2026-05-03T14:16:16Z</time></trkpt><trkpt lat="40.8215154649761" lon="17.278816461565"><ele>305.5</ele><time>2026-05-03T14:16:17Z</time></trkpt><trkpt lat="40.821489568743246" lon="17.278457070988246"><ele>306.0</ele><time>2026-05-03T14:16:18Z</time></trkpt><trkpt lat="40.82146430021927" lon="17.278111439033047"><ele>306.0</ele><time>2026-05-03T14:16:19Z</time></trkpt><trkpt lat="40.82144250327826" lon="17.27779095676917"><ele>306.0</ele><time>2026-05-03T14:16:20Z</time></trkpt><trkpt lat="40.82142552626561" lon="17.277500989875325"><ele>306.0</ele><time>2026-05-03T14:16:21Z</time></trkpt><trkpt lat="40.82140845655611" lon="17.277243794862038"><ele>306.0</ele><time>2026-05-03T14:16:22Z</time></trkpt><trkpt lat="40.821393787283284" lon="17.277024428682317"><ele>306.0</ele><time>2026-05-03T14:16:23Z</time></trkpt><trkpt lat="40.82138490061404" lon="17.27680668619803"><ele>306.0</ele><time>2026-05-03T14:16:24Z</time></trkpt><trkpt lat="40.82137717465927" lon="17.276576373536788"><ele>306.0</ele><time>2026-05-03T14:16:25Z</time></trkpt><trkpt lat="40.821380790322074" lon="17.276326318910623"><ele>306.0</ele><time>2026-05-03T14:16:26Z</time></trkpt><trkpt lat="40.82139867016565" lon="17.27606009466835"><ele>306.0</ele><time>2026-05-03T14:16:27Z</time></trkpt><trkpt lat="40.82142545255662" lon="17.27578511136579"><ele>306.0</ele><time>2026-05-03T14:16:28Z</time></trkpt><trkpt lat="40.82146272420925" lon="17.275490810770684"><ele>306.0</ele><time>2026-05-03T14:16:29Z</time></trkpt><trkpt lat="40.82151068796505" lon="17.275192823123405"><ele>306.0</ele><time>2026-05-03T14:16:30Z</time></trkpt><trkpt lat="40.821577236106435" lon="17.274882844343384"><ele>306.0</ele><time>2026-05-03T14:16:31Z</time></trkpt><trkpt lat="40.82165610222118" lon="17.2745839312975"><ele>305.5</ele><time>2026-05-03T14:16:32Z</time></trkpt><trkpt lat="40.82173061478634" lon="17.274289135414964"><ele>305.0</ele><time>2026-05-03T14:16:33Z</time></trkpt><trkpt lat="40.82180045980216" lon="17.273997324869057"><ele>305.0</ele><time>2026-05-03T14:16:34Z</time></trkpt><trkpt lat="40.821872772110474" lon="17.273707034949187"><ele>305.0</ele><time>2026-05-03T14:16:35Z</time></trkpt><trkpt lat="40.82193972825996" lon="17.273428270499306"><ele>305.0</ele><time>2026-05-03T14:16:36Z</time></trkpt><trkpt lat="40.82201374554337" lon="17.273153452828566"><ele>305.0</ele><time>2026-05-03T14:16:37Z</time></trkpt><trkpt lat="40.822087204286476" lon="17.27288074797858"><ele>305.0</ele><time>2026-05-03T14:16:38Z</time></trkpt><trkpt lat="40.822152617383104" lon="17.27261561588908"><ele>305.0</ele><time>2026-05-03T14:16:39Z</time></trkpt><trkpt lat="40.8222073690999" lon="17.272368430983764"><ele>305.0</ele><time>2026-05-03T14:16:40Z</time></trkpt><trkpt lat="40.822268198098946" lon="17.272128019493298"><ele>305.0</ele><time>2026-05-03T14:16:41Z</time></trkpt><trkpt lat="40.822327544021576" lon="17.27189652606155"><ele>305.0</ele><time>2026-05-03T14:16:42Z</time></trkpt><trkpt lat="40.82240500751976" lon="17.27167003012993"><ele>305.0</ele><time>2026-05-03T14:16:43Z</time></trkpt><trkpt lat="40.822506383478995" lon="17.27144683929477"><ele>305.0</ele><time>2026-05-03T14:16:44Z</time></trkpt><trkpt lat="40.82261395763386" lon="17.27121851221512"><ele>305.33333333333337</ele><time>2026-05-03T14:16:45Z</time></trkpt><trkpt lat="40.82273641478778" lon="17.270979665941486"><ele>305.6666666666667</ele><time>2026-05-03T14:16:46Z</time></trkpt><trkpt lat="40.82283387528336" lon="17.270736303506148"><ele>306.0</ele><time>2026-05-03T14:16:47Z</time></trkpt><trkpt lat="40.82290535304986" lon="17.27048501006607"><ele>306.0</ele><time>2026-05-03T14:16:48Z</time></trkpt><trkpt lat="40.82295866199118" lon="17.270207012909623"><ele>306.0</ele><time>2026-05-03T14:16:49Z</time></trkpt><trkpt lat="40.82299989782139" lon="17.269921684587104"><ele>306.0</ele><time>2026-05-03T14:16:50Z</time></trkpt><trkpt lat="40.82303732295298" lon="17.269649689625655"><ele>305.6666666666667</ele><time>2026-05-03T14:16:51Z</time></trkpt><trkpt lat="40.823073247665114" lon="17.269374684552204"><ele>305.33333333333337</ele><time>2026-05-03T14:16:52Z</time></trkpt><trkpt lat="40.82311341191737" lon="17.269075755543977"><ele>305.0</ele><time>2026-05-03T14:16:53Z</time></trkpt><trkpt lat="40.82314881108432" lon="17.268759615174446"><ele>304.5</ele><time>2026-05-03T14:16:54Z</time></trkpt><trkpt lat="40.82316727803313" lon="17.268408061226452"><ele>304.0</ele><time>2026-05-03T14:16:55Z</time></trkpt><trkpt lat="40.82317879631032" lon="17.26801281264108"><ele>303.0</ele><time>2026-05-03T14:16:55.999Z</time></trkpt><trkpt lat="40.823193397160594" lon="17.267590801907286"><ele>302.0</ele><time>2026-05-03T14:16:56.999Z</time></trkpt><trkpt lat="40.82321758427822" lon="17.267139784109876"><ele>301.5</ele><time>2026-05-03T14:16:57.999Z</time></trkpt><trkpt lat="40.823233798302816" lon="17.266663321704605"><ele>301.0</ele><time>2026-05-03T14:16:58.999Z</time></trkpt><trkpt lat="40.8232498289586" lon="17.266192247560753"><ele>301.0</ele><time>2026-05-03T14:16:59.999Z</time></trkpt><trkpt lat="40.82326661687162" lon="17.265786101407542"><ele>301.0</ele><time>2026-05-03T14:17:00.999Z</time></trkpt><trkpt lat="40.82329138619071" lon="17.265370737377037"><ele>301.0</ele><time>2026-05-03T14:17:01.999Z</time></trkpt><trkpt lat="40.82333147288617" lon="17.264966917559775"><ele>301.0</ele><time>2026-05-03T14:17:02.999Z</time></trkpt><trkpt lat="40.82338044750482" lon="17.264590065627754"><ele>301.0</ele><time>2026-05-03T14:17:03.999Z</time></trkpt><trkpt lat="40.82343616080963" lon="17.26419848765"><ele>301.0</ele><time>2026-05-03T14:17:04.999Z</time></trkpt><trkpt lat="40.82349786113906" lon="17.263782854793167"><ele>301.0</ele><time>2026-05-03T14:17:05.999Z</time></trkpt><trkpt lat="40.823559658765895" lon="17.263372992102155"><ele>301.0</ele><time>2026-05-03T14:17:06.999Z</time></trkpt><trkpt lat="40.82362548015759" lon="17.26293644251028"><ele>300.5</ele><time>2026-05-03T14:17:07.999Z</time></trkpt><trkpt lat="40.82367479626263" lon="17.262498328061586"><ele>300.0</ele><time>2026-05-03T14:17:08.999Z</time></trkpt><trkpt lat="40.82373318035805" lon="17.262069580453414"><ele>300.0</ele><time>2026-05-03T14:17:09.999Z</time></trkpt><trkpt lat="40.823774436460454" lon="17.261658375242003"><ele>300.0</ele><time>2026-05-03T14:17:10.999Z</time></trkpt><trkpt lat="40.823809647842516" lon="17.261255674375487"><ele>300.0</ele><time>2026-05-03T14:17:11.999Z</time></trkpt><trkpt lat="40.82384493602259" lon="17.2608565068742"><ele>300.0</ele><time>2026-05-03T14:17:12.999Z</time></trkpt><trkpt lat="40.823877991973454" lon="17.260442819189013"><ele>300.0</ele><time>2026-05-03T14:17:13.999Z</time></trkpt><trkpt lat="40.823915837758676" lon="17.260023794420565"><ele>300.0</ele><time>2026-05-03T14:17:14.999Z</time></trkpt><trkpt lat="40.82394954333804" lon="17.259607720513998"><ele>299.5</ele><time>2026-05-03T14:17:15.999Z</time></trkpt><trkpt lat="40.82398682274262" lon="17.259199717481355"><ele>299.0</ele><time>2026-05-03T14:17:16.999Z</time></trkpt><trkpt lat="40.82402354809912" lon="17.25879581524135"><ele>299.0</ele><time>2026-05-03T14:17:17.999Z</time></trkpt><trkpt lat="40.82406360298377" lon="17.25839714671202"><ele>299.0</ele><time>2026-05-03T14:17:18.999Z</time></trkpt><trkpt lat="40.824106631904115" lon="17.25800265903023"><ele>299.5</ele><time>2026-05-03T14:17:19.999Z</time></trkpt><trkpt lat="40.82415491370814" lon="17.257606512105944"><ele>300.0</ele><time>2026-05-03T14:17:20.999Z</time></trkpt><trkpt lat="40.824211107947995" lon="17.257203635300726"><ele>300.0</ele><time>2026-05-03T14:17:21.999Z</time></trkpt><trkpt lat="40.824273242003564" lon="17.256793820201366"><ele>300.0</ele><time>2026-05-03T14:17:22.999Z</time></trkpt><trkpt lat="40.824340116467056" lon="17.256380766482206"><ele>299.5</ele><time>2026-05-03T14:17:23.999Z</time></trkpt><trkpt lat="40.82441871297802" lon="17.25597935173954"><ele>299.0</ele><time>2026-05-03T14:17:24.999Z</time></trkpt><trkpt lat="40.82447837606876" lon="17.255583673388"><ele>298.0</ele><time>2026-05-03T14:17:25.999Z</time></trkpt><trkpt lat="40.82453233910723" lon="17.25522567517505"><ele>297.0</ele><time>2026-05-03T14:17:26.999Z</time></trkpt><trkpt lat="40.824576512864574" lon="17.254880912313368"><ele>297.5</ele><time>2026-05-03T14:17:27.999Z</time></trkpt><trkpt lat="40.824618534180914" lon="17.254542390199514"><ele>298.0</ele><time>2026-05-03T14:17:28.999Z</time></trkpt><trkpt lat="40.82464489130156" lon="17.254217532264537"><ele>298.0</ele><time>2026-05-03T14:17:29.999Z</time></trkpt><trkpt lat="40.82468738225711" lon="17.25390120692328"><ele>298.0</ele><time>2026-05-03T14:17:30.999Z</time></trkpt><trkpt lat="40.82472643055264" lon="17.253589734492206"><ele>298.0</ele><time>2026-05-03T14:17:31.999Z</time></trkpt><trkpt lat="40.82476766359316" lon="17.253282417536372"><ele>298.0</ele><time>2026-05-03T14:17:32.999Z</time></trkpt><trkpt lat="40.82480407012183" lon="17.252992009599406"><ele>298.66666666666663</ele><time>2026-05-03T14:17:33.999Z</time></trkpt><trkpt lat="40.82483796592953" lon="17.252715274054328"><ele>299.3333333333333</ele><time>2026-05-03T14:17:34.999Z</time></trkpt><trkpt lat="40.82487148548813" lon="17.252455947919742"><ele>300.0</ele><time>2026-05-03T14:17:35.999Z</time></trkpt><trkpt lat="40.82490211128551" lon="17.252207977052517"><ele>301.0</ele><time>2026-05-03T14:17:36.999Z</time></trkpt><trkpt lat="40.82492593950323" lon="17.251970974250877"><ele>302.0</ele><time>2026-05-03T14:17:37.999Z</time></trkpt><trkpt lat="40.82494856856232" lon="17.251739126374595"><ele>303.0</ele><time>2026-05-03T14:17:38.999Z</time></trkpt><trkpt lat="40.82496726652856" lon="17.25151502032094"><ele>303.0</ele><time>2026-05-03T14:17:39.999Z</time></trkpt><trkpt lat="40.82498580807696" lon="17.251289917548082"><ele>303.0</ele><time>2026-05-03T14:17:40.999Z</time></trkpt><trkpt lat="40.8250021984455" lon="17.251077105740805"><ele>303.0</ele><time>2026-05-03T14:17:41.999Z</time></trkpt><trkpt lat="40.82501748829663" lon="17.250873090437405"><ele>303.0</ele><time>2026-05-03T14:17:42.999Z</time></trkpt><trkpt lat="40.82503287718964" lon="17.250678989268984"><ele>303.0</ele><time>2026-05-03T14:17:43.999Z</time></trkpt><trkpt lat="40.825047680484005" lon="17.250486793340016"><ele>303.0</ele><time>2026-05-03T14:17:44.999Z</time></trkpt><trkpt lat="40.82506176256138" lon="17.25030620062289"><ele>303.0</ele><time>2026-05-03T14:17:45.999Z</time></trkpt><trkpt lat="40.82507323895413" lon="17.250142174881457"><ele>303.0</ele><time>2026-05-03T14:17:46.999Z</time></trkpt><trkpt lat="40.82508060998015" lon="17.249994793645172"><ele>303.0</ele><time>2026-05-03T14:17:47.999Z</time></trkpt><trkpt lat="40.82508988076935" lon="17.24985916493251"><ele>303.0</ele><time>2026-05-03T14:17:48.999Z</time></trkpt><trkpt lat="40.825103015904" lon="17.249733603275615"><ele>303.0</ele><time>2026-05-03T14:17:49.999Z</time></trkpt><trkpt lat="40.825119565071816" lon="17.24962245787622"><ele>303.0</ele><time>2026-05-03T14:17:50.999Z</time></trkpt><trkpt lat="40.82513811852541" lon="17.24951712275517"><ele>303.0</ele><time>2026-05-03T14:17:51.999Z</time></trkpt><trkpt lat="40.82516045993271" lon="17.249423542691222"><ele>303.0</ele><time>2026-05-03T14:17:52.999Z</time></trkpt><trkpt lat="40.825194494169224" lon="17.249341899565874"><ele>303.0</ele><time>2026-05-03T14:17:53.999Z</time></trkpt><trkpt lat="40.82523891318713" lon="17.249275972633928"><ele>303.0</ele><time>2026-05-03T14:17:54.999Z</time></trkpt><trkpt lat="40.82528531291312" lon="17.249215061281895"><ele>303.0</ele><time>2026-05-03T14:17:55.999Z</time></trkpt><trkpt lat="40.825312049253824" lon="17.249056320425954"><ele>303.0</ele><time>2026-05-03T14:17:57.999Z</time></trkpt><trkpt lat="40.825284835198445" lon="17.248904818483553"><ele>303.25</ele><time>2026-05-03T14:17:59.999Z</time></trkpt><trkpt lat="40.82521295885971" lon="17.248785246516107"><ele>303.5</ele><time>2026-05-03T14:18:02Z</time></trkpt><trkpt lat="40.82519979584679" lon="17.24860084051176"><ele>303.75</ele><time>2026-05-03T14:18:04Z</time></trkpt><trkpt lat="40.825214119804194" lon="17.24844607224898"><ele>304.0</ele><time>2026-05-03T14:18:06Z</time></trkpt><trkpt lat="40.825227108485585" lon="17.248289685582215"><ele>304.0</ele><time>2026-05-03T14:18:08Z</time></trkpt><trkpt lat="40.82523821272109" lon="17.24816675888839"><ele>304.0</ele><time>2026-05-03T14:18:10Z</time></trkpt><trkpt lat="40.825150255506685" lon="17.248294020574875"><ele>304.0</ele><time>2026-05-03T14:18:14Z</time></trkpt><trkpt lat="40.82516665728739" lon="17.248391778839427"><ele>304.0</ele><time>2026-05-03T14:18:15Z</time></trkpt><trkpt lat="40.825175014069025" lon="17.248480986115663"><ele>304.0</ele><time>2026-05-03T14:18:16Z</time></trkpt><trkpt lat="40.82515827972787" lon="17.248640781036755"><ele>304.0</ele><time>2026-05-03T14:18:18Z</time></trkpt><trkpt lat="40.82513230868866" lon="17.24877115636559"><ele>304.0</ele><time>2026-05-03T14:18:20Z</time></trkpt><trkpt lat="40.82508091704927" lon="17.248875013551224"><ele>304.0</ele><time>2026-05-03T14:18:22Z</time></trkpt><trkpt lat="40.82498676156491" lon="17.248942113395962"><ele>304.0</ele><time>2026-05-03T14:18:24Z</time></trkpt><trkpt lat="40.824909927849355" lon="17.24895701223878"><ele>304.0</ele><time>2026-05-03T14:18:25Z</time></trkpt><trkpt lat="40.82482456341249" lon="17.24894286660302"><ele>304.0</ele><time>2026-05-03T14:18:26Z</time></trkpt><trkpt lat="40.824726006815915" lon="17.24892003426627"><ele>304.0</ele><time>2026-05-03T14:18:27Z</time></trkpt><trkpt lat="40.82460049389634" lon="17.248901480286975"><ele>304.0</ele><time>2026-05-03T14:18:28Z</time></trkpt><trkpt lat="40.82444424937565" lon="17.248889072238097"><ele>304.0</ele><time>2026-05-03T14:18:29Z</time></trkpt><trkpt lat="40.82426430660177" lon="17.248854256750413"><ele>304.66666666666663</ele><time>2026-05-03T14:18:30Z</time></trkpt><trkpt lat="40.82408959284435" lon="17.248803526838174"><ele>305.3333333333333</ele><time>2026-05-03T14:18:31Z</time></trkpt><trkpt lat="40.82391522084843" lon="17.248749888372796"><ele>306.0</ele><time>2026-05-03T14:18:32Z</time></trkpt><trkpt lat="40.823730574439246" lon="17.248703680574565"><ele>306.0</ele><time>2026-05-03T14:18:33Z</time></trkpt><trkpt lat="40.823536199559946" lon="17.248656506927166"><ele>306.0</ele><time>2026-05-03T14:18:34Z</time></trkpt><trkpt lat="40.82333912268332" lon="17.24860759012937"><ele>306.0</ele><time>2026-05-03T14:18:35Z</time></trkpt><trkpt lat="40.823138418209986" lon="17.248585225435356"><ele>307.0</ele><time>2026-05-03T14:18:36Z</time></trkpt><trkpt lat="40.82293169670309" lon="17.248547246583804"><ele>308.0</ele><time>2026-05-03T14:18:37Z</time></trkpt><trkpt lat="40.82270103537543" lon="17.248538211526512"><ele>309.0</ele><time>2026-05-03T14:18:38Z</time></trkpt><trkpt lat="40.822453864481595" lon="17.24850678973267"><ele>310.0</ele><time>2026-05-03T14:18:39Z</time></trkpt><trkpt lat="40.82219556945662" lon="17.248488688049694"><ele>311.0</ele><time>2026-05-03T14:18:40Z</time></trkpt><trkpt lat="40.821953998662664" lon="17.248473204403243"><ele>311.5</ele><time>2026-05-03T14:18:41Z</time></trkpt><trkpt lat="40.82171721846377" lon="17.24847064868056"><ele>312.0</ele><time>2026-05-03T14:18:42Z</time></trkpt><trkpt lat="40.82147812104742" lon="17.248450937676814"><ele>312.0</ele><time>2026-05-03T14:18:43Z</time></trkpt><trkpt lat="40.8212362436208" lon="17.24843604482655"><ele>312.0</ele><time>2026-05-03T14:18:44Z</time></trkpt><trkpt lat="40.82099440487064" lon="17.248422039772603"><ele>312.5</ele><time>2026-05-03T14:18:45Z</time></trkpt><trkpt lat="40.8207585079343" lon="17.24840530245484"><ele>313.0</ele><time>2026-05-03T14:18:46Z</time></trkpt><trkpt lat="40.820516068318646" lon="17.248387475627457"><ele>313.0</ele><time>2026-05-03T14:18:47Z</time></trkpt><trkpt lat="40.82028578910705" lon="17.248372323808816"><ele>313.0</ele><time>2026-05-03T14:18:48Z</time></trkpt><trkpt lat="40.820083489882734" lon="17.248355574613615"><ele>313.0</ele><time>2026-05-03T14:18:49Z</time></trkpt><trkpt lat="40.81990593467815" lon="17.248338962475216"><ele>314.0</ele><time>2026-05-03T14:18:50Z</time></trkpt><trkpt lat="40.81971034094968" lon="17.248303306311303"><ele>315.0</ele><time>2026-05-03T14:18:51Z</time></trkpt><trkpt lat="40.81950240084482" lon="17.248248972711078"><ele>316.0</ele><time>2026-05-03T14:18:52Z</time></trkpt><trkpt lat="40.81927550370141" lon="17.248184676830522"><ele>317.5</ele><time>2026-05-03T14:18:53Z</time></trkpt><trkpt lat="40.819044500245035" lon="17.248113469499376"><ele>319.0</ele><time>2026-05-03T14:18:54Z</time></trkpt><trkpt lat="40.81879842067202" lon="17.248041574487235"><ele>319.0</ele><time>2026-05-03T14:18:55Z</time></trkpt><trkpt lat="40.81855147445072" lon="17.247966441191387"><ele>319.0</ele><time>2026-05-03T14:18:56Z</time></trkpt><trkpt lat="40.81829653153365" lon="17.247893482129754"><ele>320.3333333333333</ele><time>2026-05-03T14:18:57Z</time></trkpt><trkpt lat="40.81806354925026" lon="17.2478266752166"><ele>321.6666666666667</ele><time>2026-05-03T14:18:58Z</time></trkpt><trkpt lat="40.81785941375483" lon="17.24776667416302"><ele>323.0</ele><time>2026-05-03T14:18:59Z</time></trkpt><trkpt lat="40.81767102075312" lon="17.247710137542548"><ele>325.0</ele><time>2026-05-03T14:19:00Z</time></trkpt><trkpt lat="40.817502148402774" lon="17.247668020660132"><ele>327.0</ele><time>2026-05-03T14:19:01Z</time></trkpt><trkpt lat="40.81735161891231" lon="17.247646070637796"><ele>329.0</ele><time>2026-05-03T14:19:02Z</time></trkpt><trkpt lat="40.817211614131196" lon="17.24764649460034"><ele>329.0</ele><time>2026-05-03T14:19:03Z</time></trkpt><trkpt lat="40.81706862726015" lon="17.24766273094036"><ele>329.0</ele><time>2026-05-03T14:19:04Z</time></trkpt><trkpt lat="40.8169203770872" lon="17.247702631554176"><ele>329.0</ele><time>2026-05-03T14:19:05Z</time></trkpt><trkpt lat="40.81676175896048" lon="17.24775497799489"><ele>330.33333333333337</ele><time>2026-05-03T14:19:06Z</time></trkpt><trkpt lat="40.81660137151188" lon="17.247819881786697"><ele>331.6666666666667</ele><time>2026-05-03T14:19:07Z</time></trkpt><trkpt lat="40.81643757365527" lon="17.247880779970416"><ele>333.0</ele><time>2026-05-03T14:19:08Z</time></trkpt><trkpt lat="40.81629577389233" lon="17.247932211348505"><ele>333.0</ele><time>2026-05-03T14:19:09Z</time></trkpt><trkpt lat="40.81616605684706" lon="17.247967359875137"><ele>333.0</ele><time>2026-05-03T14:19:10Z</time></trkpt><trkpt lat="40.8160453099782" lon="17.24800439497024"><ele>333.0</ele><time>2026-05-03T14:19:11Z</time></trkpt><trkpt lat="40.81593247104038" lon="17.248040349983878"><ele>333.0</ele><time>2026-05-03T14:19:12Z</time></trkpt><trkpt lat="40.81582609059981" lon="17.248070436841733"><ele>333.5</ele><time>2026-05-03T14:19:13Z</time></trkpt><trkpt lat="40.81572240543877" lon="17.24810262924246"><ele>334.0</ele><time>2026-05-03T14:19:13.999Z</time></trkpt><trkpt lat="40.81560360096176" lon="17.248130031968813"><ele>334.5</ele><time>2026-05-03T14:19:14.999Z</time></trkpt><trkpt lat="40.81546547593057" lon="17.248165957001127"><ele>335.0</ele><time>2026-05-03T14:19:15.999Z</time></trkpt><trkpt lat="40.8153165749416" lon="17.248194433172817"><ele>335.0</ele><time>2026-05-03T14:19:16.999Z</time></trkpt><trkpt lat="40.81516490194474" lon="17.24822273197781"><ele>335.0</ele><time>2026-05-03T14:19:17.999Z</time></trkpt><trkpt lat="40.815020921663766" lon="17.24823794101554"><ele>335.0</ele><time>2026-05-03T14:19:18.999Z</time></trkpt><trkpt lat="40.81488547413933" lon="17.248245795272684"><ele>335.0</ele><time>2026-05-03T14:19:19.999Z</time></trkpt><trkpt lat="40.814754393052624" lon="17.24826729450958"><ele>337.0</ele><time>2026-05-03T14:19:20.999Z</time></trkpt><trkpt lat="40.814629331807765" lon="17.248304084355468"><ele>339.0</ele><time>2026-05-03T14:19:21.999Z</time></trkpt><trkpt lat="40.81450302810649" lon="17.24833027651461"><ele>341.0</ele><time>2026-05-03T14:19:22.999Z</time></trkpt><trkpt lat="40.81438801148731" lon="17.24835151277209"><ele>343.0</ele><time>2026-05-03T14:19:23.999Z</time></trkpt><trkpt lat="40.814265387537056" lon="17.248386200361367"><ele>344.4</ele><time>2026-05-03T14:19:24.999Z</time></trkpt><trkpt lat="40.814151128430716" lon="17.248427593797732"><ele>345.79999999999995</ele><time>2026-05-03T14:19:25.999Z</time></trkpt><trkpt lat="40.81404331101223" lon="17.248474094835494"><ele>347.2</ele><time>2026-05-03T14:19:26.999Z</time></trkpt><trkpt lat="40.813945983250036" lon="17.248516103541064"><ele>348.6</ele><time>2026-05-03T14:19:27.999Z</time></trkpt><trkpt lat="40.813853329014854" lon="17.248559489417303"><ele>350.0</ele><time>2026-05-03T14:19:28.999Z</time></trkpt><trkpt lat="40.81375710388487" lon="17.248604501098292"><ele>350.0</ele><time>2026-05-03T14:19:29.999Z</time></trkpt><trkpt lat="40.813653494847394" lon="17.248658132264225"><ele>350.0</ele><time>2026-05-03T14:19:30.999Z</time></trkpt><trkpt lat="40.813550153939126" lon="17.248702998314464"><ele>350.0</ele><time>2026-05-03T14:19:31.999Z</time></trkpt><trkpt lat="40.813442860804884" lon="17.248740713995495"><ele>350.0</ele><time>2026-05-03T14:19:32.999Z</time></trkpt><trkpt lat="40.81332822024777" lon="17.248771430641185"><ele>350.0</ele><time>2026-05-03T14:19:33.999Z</time></trkpt><trkpt lat="40.813206323159065" lon="17.248791515967284"><ele>349.5</ele><time>2026-05-03T14:19:34.999Z</time></trkpt><trkpt lat="40.81307223210957" lon="17.248799190515744"><ele>349.0</ele><time>2026-05-03T14:19:35.999Z</time></trkpt><trkpt lat="40.81293824727877" lon="17.248805043996516"><ele>348.5</ele><time>2026-05-03T14:19:36.999Z</time></trkpt><trkpt lat="40.812802379890144" lon="17.2488109708073"><ele>348.0</ele><time>2026-05-03T14:19:37.999Z</time></trkpt><trkpt lat="40.81266269242313" lon="17.248812325914866"><ele>347.75</ele><time>2026-05-03T14:19:38.999Z</time></trkpt><trkpt lat="40.812521617193255" lon="17.248816555521984"><ele>347.5</ele><time>2026-05-03T14:19:39.999Z</time></trkpt><trkpt lat="40.81237994765317" lon="17.24882548036793"><ele>347.25</ele><time>2026-05-03T14:19:40.999Z</time></trkpt><trkpt lat="40.81223817988119" lon="17.248844009984698"><ele>347.0</ele><time>2026-05-03T14:19:41.999Z</time></trkpt><trkpt lat="40.81208761181739" lon="17.248874259665246"><ele>347.0</ele><time>2026-05-03T14:19:42.999Z</time></trkpt><trkpt lat="40.81192690831912" lon="17.24890676840615"><ele>347.0</ele><time>2026-05-03T14:19:43.999Z</time></trkpt><trkpt lat="40.81177270505712" lon="17.248947836350197"><ele>347.0</ele><time>2026-05-03T14:19:44.999Z</time></trkpt><trkpt lat="40.81162182858274" lon="17.248990186911772"><ele>348.0</ele><time>2026-05-03T14:19:45.999Z</time></trkpt><trkpt lat="40.8114770041697" lon="17.249034963488604"><ele>349.0</ele><time>2026-05-03T14:19:46.999Z</time></trkpt><trkpt lat="40.811332094933874" lon="17.249079913215812"><ele>350.0</ele><time>2026-05-03T14:19:47.999Z</time></trkpt><trkpt lat="40.8111912402656" lon="17.24912333072176"><ele>351.0</ele><time>2026-05-03T14:19:48.999Z</time></trkpt><trkpt lat="40.81104235198564" lon="17.24916604533626"><ele>352.6666666666667</ele><time>2026-05-03T14:19:49.999Z</time></trkpt><trkpt lat="40.81089474140445" lon="17.24920615112883"><ele>354.33333333333337</ele><time>2026-05-03T14:19:50.999Z</time></trkpt><trkpt lat="40.810736074353194" lon="17.249244342799376"><ele>356.0</ele><time>2026-05-03T14:19:51.999Z</time></trkpt><trkpt lat="40.8105828450292" lon="17.249276708019266"><ele>356.0</ele><time>2026-05-03T14:19:52.999Z</time></trkpt><trkpt lat="40.81044023790133" lon="17.24931228150014"><ele>356.0</ele><time>2026-05-03T14:19:53.999Z</time></trkpt><trkpt lat="40.81031092051975" lon="17.249341026473356"><ele>356.0</ele><time>2026-05-03T14:19:54.999Z</time></trkpt><trkpt lat="40.81018777353216" lon="17.249362264682585"><ele>356.0</ele><time>2026-05-03T14:19:55.999Z</time></trkpt><trkpt lat="40.81006793127811" lon="17.249378536025628"><ele>356.5</ele><time>2026-05-03T14:19:56.999Z</time></trkpt><trkpt lat="40.80993651905374" lon="17.24939835609194"><ele>357.0</ele><time>2026-05-03T14:19:57.999Z</time></trkpt><trkpt lat="40.80979544912036" lon="17.249422104213693"><ele>357.5</ele><time>2026-05-03T14:19:58.999Z</time></trkpt><trkpt lat="40.80963603059779" lon="17.24944803214408"><ele>358.0</ele><time>2026-05-03T14:19:59.999Z</time></trkpt><trkpt lat="40.809481869188566" lon="17.24947334742752"><ele>358.0</ele><time>2026-05-03T14:20:00.999Z</time></trkpt><trkpt lat="40.80933661751243" lon="17.24949400631211"><ele>358.0</ele><time>2026-05-03T14:20:01.999Z</time></trkpt><trkpt lat="40.809206470826" lon="17.24951345915416"><ele>358.0</ele><time>2026-05-03T14:20:02.999Z</time></trkpt><trkpt lat="40.80908113273903" lon="17.249533832007057"><ele>358.0</ele><time>2026-05-03T14:20:03.999Z</time></trkpt><trkpt lat="40.808964328157835" lon="17.24956010605289"><ele>358.25</ele><time>2026-05-03T14:20:04.999Z</time></trkpt><trkpt lat="40.80884368786014" lon="17.249585550715953"><ele>358.5</ele><time>2026-05-03T14:20:05.999Z</time></trkpt><trkpt lat="40.808712217185544" lon="17.24961647978956"><ele>358.75</ele><time>2026-05-03T14:20:06.999Z</time></trkpt><trkpt lat="40.808564487453246" lon="17.24967779242996"><ele>359.0</ele><time>2026-05-03T14:20:08Z</time></trkpt><trkpt lat="40.80842290505593" lon="17.24975704963395"><ele>360.0</ele><time>2026-05-03T14:20:09Z</time></trkpt><trkpt lat="40.80828591199802" lon="17.249847803606404"><ele>361.0</ele><time>2026-05-03T14:20:10Z</time></trkpt><trkpt lat="40.8081618114424" lon="17.249927718050795"><ele>362.0</ele><time>2026-05-03T14:20:11Z</time></trkpt><trkpt lat="40.80804521355476" lon="17.249995354954812"><ele>363.0</ele><time>2026-05-03T14:20:12Z</time></trkpt><trkpt lat="40.807930891022984" lon="17.250056639013426"><ele>363.0</ele><time>2026-05-03T14:20:13Z</time></trkpt><trkpt lat="40.807818166074654" lon="17.25012527111146"><ele>363.0</ele><time>2026-05-03T14:20:14Z</time></trkpt><trkpt lat="40.80770937654599" lon="17.250195001453125"><ele>363.0</ele><time>2026-05-03T14:20:15Z</time></trkpt><trkpt lat="40.80759355190431" lon="17.250274035162587"><ele>363.0</ele><time>2026-05-03T14:20:16Z</time></trkpt><trkpt lat="40.80747115278438" lon="17.250354723923703"><ele>363.0</ele><time>2026-05-03T14:20:17Z</time></trkpt><trkpt lat="40.807345598354736" lon="17.250430747292757"><ele>363.0</ele><time>2026-05-03T14:20:18Z</time></trkpt><trkpt lat="40.807218041261926" lon="17.250509410365794"><ele>363.0</ele><time>2026-05-03T14:20:19Z</time></trkpt><trkpt lat="40.8070884254324" lon="17.25059018877758"><ele>363.0</ele><time>2026-05-03T14:20:20Z</time></trkpt><trkpt lat="40.80694989961874" lon="17.25067955678895"><ele>363.5</ele><time>2026-05-03T14:20:21Z</time></trkpt><trkpt lat="40.80680766993499" lon="17.25076751057528"><ele>364.0</ele><time>2026-05-03T14:20:22Z</time></trkpt><trkpt lat="40.80667257278779" lon="17.250852545636093"><ele>364.5</ele><time>2026-05-03T14:20:23Z</time></trkpt><trkpt lat="40.806553215816805" lon="17.250922630335346"><ele>365.0</ele><time>2026-05-03T14:20:24Z</time></trkpt><trkpt lat="40.8064313604996" lon="17.250997265294536"><ele>365.0</ele><time>2026-05-03T14:20:25Z</time></trkpt><trkpt lat="40.80631410150092" lon="17.251048897760715"><ele>365.0</ele><time>2026-05-03T14:20:26Z</time></trkpt><trkpt lat="40.80619238664844" lon="17.251093049340444"><ele>365.0</ele><time>2026-05-03T14:20:27Z</time></trkpt><trkpt lat="40.806066216764684" lon="17.25111621248236"><ele>365.0</ele><time>2026-05-03T14:20:28Z</time></trkpt><trkpt lat="40.805931255272405" lon="17.25109837670321"><ele>365.75</ele><time>2026-05-03T14:20:29Z</time></trkpt><trkpt lat="40.8057990846705" lon="17.251082853094122"><ele>366.5</ele><time>2026-05-03T14:20:30Z</time></trkpt><trkpt lat="40.80567750666106" lon="17.251041966789877"><ele>367.25</ele><time>2026-05-03T14:20:31Z</time></trkpt><trkpt lat="40.80554471617559" lon="17.251014777161153"><ele>368.0</ele><time>2026-05-03T14:20:32Z</time></trkpt><trkpt lat="40.8054079314485" lon="17.250967322286396"><ele>368.0</ele><time>2026-05-03T14:20:33Z</time></trkpt><trkpt lat="40.80526994938962" lon="17.25090939354187"><ele>368.0</ele><time>2026-05-03T14:20:34Z</time></trkpt><trkpt lat="40.805132488218334" lon="17.250865048881014"><ele>368.0</ele><time>2026-05-03T14:20:35Z</time></trkpt><trkpt lat="40.805003357504056" lon="17.25081484189133"><ele>368.0</ele><time>2026-05-03T14:20:36Z</time></trkpt><trkpt lat="40.80487479916057" lon="17.250763150922715"><ele>368.25</ele><time>2026-05-03T14:20:37Z</time></trkpt><trkpt lat="40.80474265337724" lon="17.250718172557836"><ele>368.5</ele><time>2026-05-03T14:20:38Z</time></trkpt><trkpt lat="40.80461670134004" lon="17.25065168186632"><ele>368.75</ele><time>2026-05-03T14:20:39Z</time></trkpt><trkpt lat="40.80448715872944" lon="17.250624932629997"><ele>369.0</ele><time>2026-05-03T14:20:40Z</time></trkpt><trkpt lat="40.80436615649559" lon="17.250558075263434"><ele>369.75</ele><time>2026-05-03T14:20:41Z</time></trkpt><trkpt lat="40.804238231617155" lon="17.250511014882456"><ele>370.5</ele><time>2026-05-03T14:20:42Z</time></trkpt><trkpt lat="40.80411541442543" lon="17.250485589106585"><ele>371.25</ele><time>2026-05-03T14:20:43Z</time></trkpt><trkpt lat="40.80396351667892" lon="17.250419136664814"><ele>372.0</ele><time>2026-05-03T14:20:44Z</time></trkpt><trkpt lat="40.8038112120245" lon="17.2503636869187"><ele>372.0</ele><time>2026-05-03T14:20:45Z</time></trkpt><trkpt lat="40.803653244497205" lon="17.250300929462828"><ele>372.0</ele><time>2026-05-03T14:20:46Z</time></trkpt><trkpt lat="40.803498155651454" lon="17.250239860039006"><ele>372.0</ele><time>2026-05-03T14:20:47Z</time></trkpt><trkpt lat="40.8033410453552" lon="17.2501776811134"><ele>372.25</ele><time>2026-05-03T14:20:48Z</time></trkpt><trkpt lat="40.803198266763104" lon="17.25012346873024"><ele>372.5</ele><time>2026-05-03T14:20:49Z</time></trkpt><trkpt lat="40.80305455059739" lon="17.25007129492286"><ele>372.75</ele><time>2026-05-03T14:20:50Z</time></trkpt><trkpt lat="40.8029113087073" lon="17.25002243637202"><ele>373.0</ele><time>2026-05-03T14:20:51Z</time></trkpt><trkpt lat="40.80276801155413" lon="17.24997158399316"><ele>372.25</ele><time>2026-05-03T14:20:52Z</time></trkpt><trkpt lat="40.80262671126058" lon="17.249920335519594"><ele>371.5</ele><time>2026-05-03T14:20:53Z</time></trkpt><trkpt lat="40.80248643904696" lon="17.24987108338452"><ele>370.75</ele><time>2026-05-03T14:20:54Z</time></trkpt><trkpt lat="40.80236055899515" lon="17.249830841316022"><ele>370.0</ele><time>2026-05-03T14:20:55Z</time></trkpt><trkpt lat="40.80223002972872" lon="17.24978753171531"><ele>369.75</ele><time>2026-05-03T14:20:56Z</time></trkpt><trkpt lat="40.802100355628205" lon="17.24974676508999"><ele>369.5</ele><time>2026-05-03T14:20:57Z</time></trkpt><trkpt lat="40.801974910887836" lon="17.24970422771625"><ele>369.25</ele><time>2026-05-03T14:20:58Z</time></trkpt><trkpt lat="40.80185578667204" lon="17.249661914581107"><ele>369.0</ele><time>2026-05-03T14:20:59Z</time></trkpt><trkpt lat="40.801745686924676" lon="17.249618819975787"><ele>368.79999999999995</ele><time>2026-05-03T14:21:00Z</time></trkpt><trkpt lat="40.80164607241924" lon="17.24957892807844"><ele>368.59999999999997</ele><time>2026-05-03T14:21:01Z</time></trkpt><trkpt lat="40.80154592121992" lon="17.249537352159994"><ele>368.4</ele><time>2026-05-03T14:21:02Z</time></trkpt><trkpt lat="40.80144457176312" lon="17.249498277452243"><ele>368.2</ele><time>2026-05-03T14:21:03Z</time></trkpt><trkpt lat="40.8013467200284" lon="17.249461720635413"><ele>368.0</ele><time>2026-05-03T14:21:04Z</time></trkpt><trkpt lat="40.80124898098991" lon="17.24942556792399"><ele>368.0</ele><time>2026-05-03T14:21:05Z</time></trkpt><trkpt lat="40.80114794045747" lon="17.249375644669836"><ele>368.0</ele><time>2026-05-03T14:21:06Z</time></trkpt><trkpt lat="40.80105366786995" lon="17.24931498103301"><ele>368.0</ele><time>2026-05-03T14:21:07Z</time></trkpt><trkpt lat="40.80097086472014" lon="17.24921591881806"><ele>368.0</ele><time>2026-05-03T14:21:08Z</time></trkpt><trkpt lat="40.80089935567449" lon="17.24911041623472"><ele>368.0</ele><time>2026-05-03T14:21:09Z</time></trkpt><trkpt lat="40.80082441835758" lon="17.249002811433815"><ele>368.59999999999997</ele><time>2026-05-03T14:21:10Z</time></trkpt><trkpt lat="40.80078894082613" lon="17.248864274052167"><ele>369.2</ele><time>2026-05-03T14:21:10.999Z</time></trkpt><trkpt lat="40.80074029530735" lon="17.248749661228594"><ele>369.8</ele><time>2026-05-03T14:21:11.999Z</time></trkpt><trkpt lat="40.80070740580047" lon="17.24862848153986"><ele>370.4</ele><time>2026-05-03T14:21:12.999Z</time></trkpt><trkpt lat="40.80066699724016" lon="17.248515325560152"><ele>371.0</ele><time>2026-05-03T14:21:13.999Z</time></trkpt><trkpt lat="40.80060998518664" lon="17.248408132933573"><ele>371.0</ele><time>2026-05-03T14:21:14.999Z</time></trkpt><trkpt lat="40.800538701873215" lon="17.248305831021298"><ele>371.0</ele><time>2026-05-03T14:21:15.999Z</time></trkpt><trkpt lat="40.8004494041756" lon="17.248201064306283"><ele>371.0</ele><time>2026-05-03T14:21:16.999Z</time></trkpt><trkpt lat="40.80034558924222" lon="17.248104097510925"><ele>371.0</ele><time>2026-05-03T14:21:17.999Z</time></trkpt><trkpt lat="40.80023403650109" lon="17.248022187308447"><ele>370.25</ele><time>2026-05-03T14:21:18.999Z</time></trkpt><trkpt lat="40.80012348829105" lon="17.247950214058495"><ele>369.5</ele><time>2026-05-03T14:21:19.999Z</time></trkpt><trkpt lat="40.800018586270504" lon="17.247885251942318"><ele>368.75</ele><time>2026-05-03T14:21:20.999Z</time></trkpt><trkpt lat="40.799913775200984" lon="17.247825615888903"><ele>368.0</ele><time>2026-05-03T14:21:21.999Z</time></trkpt><trkpt lat="40.79981095423438" lon="17.247783418962833"><ele>368.0</ele><time>2026-05-03T14:21:22.999Z</time></trkpt><trkpt lat="40.79971310925477" lon="17.24775410816304"><ele>368.0</ele><time>2026-05-03T14:21:23.999Z</time></trkpt><trkpt lat="40.79961886405969" lon="17.247727332534357"><ele>368.0</ele><time>2026-05-03T14:21:24.999Z</time></trkpt><trkpt lat="40.79952067592278" lon="17.247694788068365"><ele>368.0</ele><time>2026-05-03T14:21:25.999Z</time></trkpt><trkpt lat="40.79941926247141" lon="17.247657015854678"><ele>368.0</ele><time>2026-05-03T14:21:26.999Z</time></trkpt><trkpt lat="40.79931979540333" lon="17.24761573371833"><ele>368.25</ele><time>2026-05-03T14:21:27.999Z</time></trkpt><trkpt lat="40.799211110597554" lon="17.24756898569992"><ele>368.5</ele><time>2026-05-03T14:21:28.999Z</time></trkpt><trkpt lat="40.79909353527565" lon="17.247508301924967"><ele>368.75</ele><time>2026-05-03T14:21:29.999Z</time></trkpt><trkpt lat="40.79897301449199" lon="17.247442227648133"><ele>369.0</ele><time>2026-05-03T14:21:30.999Z</time></trkpt><trkpt lat="40.79885338972013" lon="17.24736807423364"><ele>369.0</ele><time>2026-05-03T14:21:31.999Z</time></trkpt><trkpt lat="40.798747129963715" lon="17.24729797429379"><ele>369.0</ele><time>2026-05-03T14:21:32.999Z</time></trkpt><trkpt lat="40.798641688907566" lon="17.247217915619217"><ele>369.0</ele><time>2026-05-03T14:21:33.999Z</time></trkpt><trkpt lat="40.79853589945267" lon="17.247144692209247"><ele>369.0</ele><time>2026-05-03T14:21:34.999Z</time></trkpt><trkpt lat="40.79842514809914" lon="17.247061602430197"><ele>369.0</ele><time>2026-05-03T14:21:35.999Z</time></trkpt><trkpt lat="40.79830751246043" lon="17.246976376889087"><ele>369.0</ele><time>2026-05-03T14:21:36.999Z</time></trkpt><trkpt lat="40.798186247158846" lon="17.246888031102447"><ele>369.0</ele><time>2026-05-03T14:21:37.999Z</time></trkpt><trkpt lat="40.798066067319645" lon="17.246796291567687"><ele>369.0</ele><time>2026-05-03T14:21:38.999Z</time></trkpt><trkpt lat="40.797946425992265" lon="17.24669803446816"><ele>369.0</ele><time>2026-05-03T14:21:39.999Z</time></trkpt><trkpt lat="40.797827653961086" lon="17.24660214973598"><ele>369.0</ele><time>2026-05-03T14:21:40.999Z</time></trkpt><trkpt lat="40.797703677084435" lon="17.24650954134632"><ele>369.0</ele><time>2026-05-03T14:21:41.999Z</time></trkpt><trkpt lat="40.79757990300173" lon="17.246412374853477"><ele>369.0</ele><time>2026-05-03T14:21:42.999Z</time></trkpt><trkpt lat="40.797453543716976" lon="17.246322851552044"><ele>369.75</ele><time>2026-05-03T14:21:43.999Z</time></trkpt><trkpt lat="40.79732573661572" lon="17.246231358006142"><ele>370.5</ele><time>2026-05-03T14:21:44.999Z</time></trkpt><trkpt lat="40.797199518982545" lon="17.246134980888662"><ele>371.25</ele><time>2026-05-03T14:21:45.999Z</time></trkpt><trkpt lat="40.79707524512208" lon="17.246038130800837"><ele>372.0</ele><time>2026-05-03T14:21:46.999Z</time></trkpt><trkpt lat="40.796952053217524" lon="17.24594767788613"><ele>373.0</ele><time>2026-05-03T14:21:47.999Z</time></trkpt><trkpt lat="40.796827646812474" lon="17.245860018612376"><ele>374.0</ele><time>2026-05-03T14:21:48.999Z</time></trkpt><trkpt lat="40.796702577876495" lon="17.245776444081507"><ele>375.0</ele><time>2026-05-03T14:21:49.999Z</time></trkpt><trkpt lat="40.796574941310176" lon="17.24569431240695"><ele>376.0</ele><time>2026-05-03T14:21:50.999Z</time></trkpt><trkpt lat="40.79644281946038" lon="17.245621049617267"><ele>376.25</ele><time>2026-05-03T14:21:51.999Z</time></trkpt><trkpt lat="40.796318824210665" lon="17.245555042516752"><ele>376.5</ele><time>2026-05-03T14:21:52.999Z</time></trkpt><trkpt lat="40.796188954491285" lon="17.24549491093194"><ele>376.75</ele><time>2026-05-03T14:21:53.999Z</time></trkpt><trkpt lat="40.79605963209244" lon="17.24545593555241"><ele>377.0</ele><time>2026-05-03T14:21:54.999Z</time></trkpt><trkpt lat="40.795931088757044" lon="17.245446800820826"><ele>377.75</ele><time>2026-05-03T14:21:55.999Z</time></trkpt><trkpt lat="40.7958080550623" lon="17.2454725676157"><ele>378.5</ele><time>2026-05-03T14:21:56.999Z</time></trkpt><trkpt lat="40.795685946893634" lon="17.24552059508144"><ele>379.25</ele><time>2026-05-03T14:21:57.999Z</time></trkpt><trkpt lat="40.79555902439746" lon="17.24558726266432"><ele>380.0</ele><time>2026-05-03T14:21:58.999Z</time></trkpt><trkpt lat="40.79542405473812" lon="17.24562547770363"><ele>380.0</ele><time>2026-05-03T14:21:59.999Z</time></trkpt><trkpt lat="40.79529100121403" lon="17.245670872961224"><ele>380.0</ele><time>2026-05-03T14:22:00.999Z</time></trkpt><trkpt lat="40.79517308500375" lon="17.245721787970353"><ele>380.0</ele><time>2026-05-03T14:22:01.999Z</time></trkpt><trkpt lat="40.795067196525714" lon="17.24574627070056"><ele>380.0</ele><time>2026-05-03T14:22:02.999Z</time></trkpt><trkpt lat="40.794956908871306" lon="17.24578529084324"><ele>380.5</ele><time>2026-05-03T14:22:03.999Z</time></trkpt><trkpt lat="40.79483003302119" lon="17.24583935526513"><ele>381.0</ele><time>2026-05-03T14:22:04.999Z</time></trkpt><trkpt lat="40.794688412021195" lon="17.245892154448704"><ele>381.5</ele><time>2026-05-03T14:22:05.999Z</time></trkpt><trkpt lat="40.79454374824798" lon="17.245906116407216"><ele>382.0</ele><time>2026-05-03T14:22:06.999Z</time></trkpt><trkpt lat="40.79440300193319" lon="17.245927023474607"><ele>382.66666666666663</ele><time>2026-05-03T14:22:07.999Z</time></trkpt><trkpt lat="40.794265306544546" lon="17.245940142754623"><ele>383.3333333333333</ele><time>2026-05-03T14:22:08.999Z</time></trkpt><trkpt lat="40.79411865569649" lon="17.245948847136546"><ele>384.0</ele><time>2026-05-03T14:22:09.999Z</time></trkpt><trkpt lat="40.79392283589726" lon="17.24595335078918"><ele>384.0</ele><time>2026-05-03T14:22:10.999Z</time></trkpt><trkpt lat="40.7936793505663" lon="17.2459571075016"><ele>384.0</ele><time>2026-05-03T14:22:11.999Z</time></trkpt><trkpt lat="40.79344851524241" lon="17.24596938446604"><ele>383.6666666666667</ele><time>2026-05-03T14:22:12.999Z</time></trkpt><trkpt lat="40.79326436279073" lon="17.24598328473009"><ele>383.33333333333337</ele><time>2026-05-03T14:22:14Z</time></trkpt><trkpt lat="40.79311533795925" lon="17.245966043200642"><ele>383.0</ele><time>2026-05-03T14:22:15Z</time></trkpt><trkpt lat="40.79296726640093" lon="17.245924370805426"><ele>383.0</ele><time>2026-05-03T14:22:16Z</time></trkpt><trkpt lat="40.79282920911783" lon="17.245832234952324"><ele>383.0</ele><time>2026-05-03T14:22:17Z</time></trkpt><trkpt lat="40.79271759933631" lon="17.245671096072208"><ele>383.0</ele><time>2026-05-03T14:22:18Z</time></trkpt><trkpt lat="40.79261460048481" lon="17.245532229610145"><ele>382.75</ele><time>2026-05-03T14:22:19Z</time></trkpt><trkpt lat="40.792510015013654" lon="17.245405922161126"><ele>382.5</ele><time>2026-05-03T14:22:20Z</time></trkpt><trkpt lat="40.79242653764056" lon="17.245263778692326"><ele>382.25</ele><time>2026-05-03T14:22:21Z</time></trkpt><trkpt lat="40.79233313598013" lon="17.245101059002018"><ele>382.0</ele><time>2026-05-03T14:22:22Z</time></trkpt><trkpt lat="40.79224824995503" lon="17.244928871846962"><ele>382.5</ele><time>2026-05-03T14:22:23Z</time></trkpt><trkpt lat="40.79216860130849" lon="17.244754191481828"><ele>383.0</ele><time>2026-05-03T14:22:24Z</time></trkpt><trkpt lat="40.79209272579052" lon="17.24459230782179"><ele>383.5</ele><time>2026-05-03T14:22:25Z</time></trkpt><trkpt lat="40.792018457311784" lon="17.24444294696307"><ele>384.0</ele><time>2026-05-03T14:22:26Z</time></trkpt><trkpt lat="40.791947177245405" lon="17.244292987528716"><ele>384.0</ele><time>2026-05-03T14:22:27Z</time></trkpt><trkpt lat="40.79187249377718" lon="17.24414392813927"><ele>384.0</ele><time>2026-05-03T14:22:28Z</time></trkpt><trkpt lat="40.791802891647926" lon="17.24400277870588"><ele>384.0</ele><time>2026-05-03T14:22:29Z</time></trkpt><trkpt lat="40.79173763480968" lon="17.243864684734447"><ele>384.0</ele><time>2026-05-03T14:22:30Z</time></trkpt><trkpt lat="40.79167890485253" lon="17.24374201169088"><ele>385.6666666666667</ele><time>2026-05-03T14:22:31Z</time></trkpt><trkpt lat="40.79161970952702" lon="17.243627820618073"><ele>387.33333333333337</ele><time>2026-05-03T14:22:32Z</time></trkpt><trkpt lat="40.79156597203691" lon="17.24352509076949"><ele>389.0</ele><time>2026-05-03T14:22:33Z</time></trkpt><trkpt lat="40.79151668353477" lon="17.243424632658108"><ele>390.6666666666667</ele><time>2026-05-03T14:22:34Z</time></trkpt><trkpt lat="40.79147763233253" lon="17.243335968461434"><ele>392.33333333333337</ele><time>2026-05-03T14:22:35Z</time></trkpt><trkpt lat="40.791444696981465" lon="17.243262804627125"><ele>394.0</ele><time>2026-05-03T14:22:36Z</time></trkpt><trkpt lat="40.79138968628542" lon="17.24316283978687"><ele>395.83333333333337</ele><time>2026-05-03T14:22:38Z</time></trkpt><trkpt lat="40.791352567300734" lon="17.24309115740482"><ele>397.6666666666667</ele><time>2026-05-03T14:22:40Z</time></trkpt><trkpt lat="40.791323349048234" lon="17.24298811288631"><ele>399.5</ele><time>2026-05-03T14:22:42Z</time></trkpt><trkpt lat="40.79133819960725" lon="17.24284488903562"><ele>401.33333333333337</ele><time>2026-05-03T14:22:44Z</time></trkpt><trkpt lat="40.791346722167155" lon="17.2427533333568"><ele>403.1666666666667</ele><time>2026-05-03T14:22:45Z</time></trkpt><trkpt lat="40.79132905433308" lon="17.24265175460305"><ele>405.0</ele><time>2026-05-03T14:22:46Z</time></trkpt><trkpt lat="40.791289679970546" lon="17.242577244466343"><ele>405.0</ele><time>2026-05-03T14:22:47Z</time></trkpt><trkpt lat="40.79122848979573" lon="17.242541696237367"><ele>405.0</ele><time>2026-05-03T14:22:48Z</time></trkpt><trkpt lat="40.791109253733936" lon="17.24255093683202"><ele>405.0</ele><time>2026-05-03T14:22:50Z</time></trkpt><trkpt lat="40.7910046799536" lon="17.242523939376934"><ele>405.0</ele><time>2026-05-03T14:22:52Z</time></trkpt><trkpt lat="40.79094180548235" lon="17.242499455243426"><ele>405.0</ele><time>2026-05-03T14:22:53Z</time></trkpt><trkpt lat="40.790873592285294" lon="17.242469406569775"><ele>405.0</ele><time>2026-05-03T14:22:54Z</time></trkpt><trkpt lat="40.79079566882064" lon="17.242443786873476"><ele>404.6</ele><time>2026-05-03T14:22:55Z</time></trkpt><trkpt lat="40.79070873471896" lon="17.242411986089433"><ele>404.2</ele><time>2026-05-03T14:22:56Z</time></trkpt><trkpt lat="40.790617640467325" lon="17.242378654909068"><ele>403.79999999999995</ele><time>2026-05-03T14:22:57Z</time></trkpt><trkpt lat="40.790525012789374" lon="17.242348458301493"><ele>403.4</ele><time>2026-05-03T14:22:58Z</time></trkpt><trkpt lat="40.79044020760057" lon="17.242318585513566"><ele>403.0</ele><time>2026-05-03T14:22:59Z</time></trkpt><trkpt lat="40.79035337446337" lon="17.242290702469553"><ele>403.2</ele><time>2026-05-03T14:23:00Z</time></trkpt><trkpt lat="40.79025702819748" lon="17.242256075660222"><ele>403.4</ele><time>2026-05-03T14:23:01Z</time></trkpt><trkpt lat="40.790162085013534" lon="17.24221717324072"><ele>403.59999999999997</ele><time>2026-05-03T14:23:02Z</time></trkpt><trkpt lat="40.79006479998419" lon="17.24217974023596"><ele>403.79999999999995</ele><time>2026-05-03T14:23:03Z</time></trkpt><trkpt lat="40.78996689280729" lon="17.242152703138167"><ele>404.0</ele><time>2026-05-03T14:23:04Z</time></trkpt><trkpt lat="40.789870017394975" lon="17.2421243720629"><ele>404.0</ele><time>2026-05-03T14:23:05Z</time></trkpt><trkpt lat="40.78977365446276" lon="17.24208955941346"><ele>404.0</ele><time>2026-05-03T14:23:06Z</time></trkpt><trkpt lat="40.78968113752286" lon="17.242052363983674"><ele>404.0</ele><time>2026-05-03T14:23:07Z</time></trkpt><trkpt lat="40.78959164161188" lon="17.242011733118318"><ele>404.0</ele><time>2026-05-03T14:23:08Z</time></trkpt><trkpt lat="40.78949470175214" lon="17.241979026981838"><ele>404.0</ele><time>2026-05-03T14:23:09Z</time></trkpt><trkpt lat="40.78939597802955" lon="17.241943513925527"><ele>404.2</ele><time>2026-05-03T14:23:10Z</time></trkpt><trkpt lat="40.78929426954071" lon="17.24191416973991"><ele>404.4</ele><time>2026-05-03T14:23:11Z</time></trkpt><trkpt lat="40.78919005733221" lon="17.24188064732698"><ele>404.6</ele><time>2026-05-03T14:23:12Z</time></trkpt><trkpt lat="40.789082368313956" lon="17.24183805292662"><ele>404.8</ele><time>2026-05-03T14:23:13Z</time></trkpt><trkpt lat="40.78896975346828" lon="17.241797175916414"><ele>405.0</ele><time>2026-05-03T14:23:14Z</time></trkpt><trkpt lat="40.788856749264305" lon="17.241756844607647"><ele>405.0</ele><time>2026-05-03T14:23:15Z</time></trkpt><trkpt lat="40.78874852814975" lon="17.24171706599069"><ele>405.0</ele><time>2026-05-03T14:23:16Z</time></trkpt><trkpt lat="40.788650217947975" lon="17.241684881656553"><ele>405.0</ele><time>2026-05-03T14:23:17Z</time></trkpt><trkpt lat="40.78856378636945" lon="17.241654700090677"><ele>405.0</ele><time>2026-05-03T14:23:18Z</time></trkpt><trkpt lat="40.78848413191261" lon="17.241628193695178"><ele>405.0</ele><time>2026-05-03T14:23:19Z</time></trkpt><trkpt lat="40.788416200824635" lon="17.241595386620283"><ele>405.0</ele><time>2026-05-03T14:23:20Z</time></trkpt><trkpt lat="40.78836129107646" lon="17.24155355713606"><ele>405.0</ele><time>2026-05-03T14:23:21Z</time></trkpt><trkpt lat="40.788290777778165" lon="17.241456793645238"><ele>405.0</ele><time>2026-05-03T14:23:23Z</time></trkpt><trkpt lat="40.788219989583865" lon="17.241377246003484"><ele>405.0</ele><time>2026-05-03T14:23:25Z</time></trkpt><trkpt lat="40.78814828295225" lon="17.241305215207667"><ele>405.0</ele><time>2026-05-03T14:23:26.999Z</time></trkpt><trkpt lat="40.788024991577586" lon="17.241293220071324"><ele>406.2</ele><time>2026-05-03T14:23:28.999Z</time></trkpt><trkpt lat="40.78794077594707" lon="17.241315197353114"><ele>407.4</ele><time>2026-05-03T14:23:29.999Z</time></trkpt><trkpt lat="40.787850913418445" lon="17.241339291260918"><ele>408.6</ele><time>2026-05-03T14:23:30.999Z</time></trkpt><trkpt lat="40.78775522751779" lon="17.24134370663808"><ele>409.8</ele><time>2026-05-03T14:23:31.999Z</time></trkpt><trkpt lat="40.787651356314676" lon="17.24132595616338"><ele>411.0</ele><time>2026-05-03T14:23:32.999Z</time></trkpt><trkpt lat="40.787548785410664" lon="17.241300819490597"><ele>411.0</ele><time>2026-05-03T14:23:33.999Z</time></trkpt><trkpt lat="40.7874510295102" lon="17.24125381193517"><ele>411.0</ele><time>2026-05-03T14:23:34.999Z</time></trkpt><trkpt lat="40.78736144243351" lon="17.24121145143952"><ele>411.0</ele><time>2026-05-03T14:23:35.999Z</time></trkpt><trkpt lat="40.787281247237026" lon="17.24118032752062"><ele>411.0</ele><time>2026-05-03T14:23:36.999Z</time></trkpt><trkpt lat="40.78721287951434" lon="17.2411562466411"><ele>411.0</ele><time>2026-05-03T14:23:37.999Z</time></trkpt><trkpt lat="40.78715001669016" lon="17.241136449047797"><ele>411.0</ele><time>2026-05-03T14:23:38.999Z</time></trkpt><trkpt lat="40.78704831046872" lon="17.241096745752184"><ele>411.0</ele><time>2026-05-03T14:23:40.999Z</time></trkpt><trkpt lat="40.78693587899907" lon="17.241048613968594"><ele>411.0</ele><time>2026-05-03T14:23:42.999Z</time></trkpt><trkpt lat="40.78687542414374" lon="17.241023627349982"><ele>411.0</ele><time>2026-05-03T14:23:43.999Z</time></trkpt><trkpt lat="40.78675629673529" lon="17.240973217276164"><ele>411.0</ele><time>2026-05-03T14:23:45.999Z</time></trkpt><trkpt lat="40.78664673263705" lon="17.24093872932938"><ele>411.0</ele><time>2026-05-03T14:23:47.999Z</time></trkpt><trkpt lat="40.786575072666835" lon="17.24090981045024"><ele>411.3333333333333</ele><time>2026-05-03T14:23:55.999Z</time></trkpt><trkpt lat="40.78651599917826" lon="17.240868762194992"><ele>411.66666666666663</ele><time>2026-05-03T14:23:58.999Z</time></trkpt><trkpt lat="40.78645507507889" lon="17.240814374549327"><ele>412.0</ele><time>2026-05-03T14:24:01.999Z</time></trkpt><trkpt lat="40.78635665588836" lon="17.240760364341895"><ele>412.3333333333333</ele><time>2026-05-03T14:24:03.999Z</time></trkpt><trkpt lat="40.78629903059062" lon="17.240723875287387"><ele>412.66666666666663</ele><time>2026-05-03T14:24:04.999Z</time></trkpt><trkpt lat="40.78624102372849" lon="17.240687555577143"><ele>413.0</ele><time>2026-05-03T14:24:05.999Z</time></trkpt><trkpt lat="40.78613999293366" lon="17.240624451129193"><ele>413.59999999999997</ele><time>2026-05-03T14:24:07.999Z</time></trkpt><trkpt lat="40.786047832507194" lon="17.240542902501875"><ele>414.2</ele><time>2026-05-03T14:24:09.999Z</time></trkpt><trkpt lat="40.785944988525436" lon="17.240478438436725"><ele>414.8</ele><time>2026-05-03T14:24:11.999Z</time></trkpt><trkpt lat="40.78583946788324" lon="17.240418402635743"><ele>415.4</ele><time>2026-05-03T14:24:13.999Z</time></trkpt><trkpt lat="40.785746035901425" lon="17.240350258872407"><ele>416.0</ele><time>2026-05-03T14:24:15.999Z</time></trkpt><trkpt lat="40.785677295081015" lon="17.2403090474108"><ele>416.4</ele><time>2026-05-03T14:24:18.999Z</time></trkpt><trkpt lat="40.78560183443077" lon="17.240275347182518"><ele>416.8</ele><time>2026-05-03T14:24:23Z</time></trkpt><trkpt lat="40.78552960684073" lon="17.24022543205652"><ele>417.2</ele><time>2026-05-03T14:24:26Z</time></trkpt><trkpt lat="40.78543154012923" lon="17.240319698654115"><ele>417.59999999999997</ele><time>2026-05-03T14:24:29Z</time></trkpt><trkpt lat="40.78533430819102" lon="17.240428121066447"><ele>418.0</ele><time>2026-05-03T14:24:31Z</time></trkpt><trkpt lat="40.78526993267823" lon="17.240502380920784"><ele>418.0</ele><time>2026-05-03T14:24:32Z</time></trkpt><trkpt lat="40.785221480743125" lon="17.240558272243444"><ele>418.0</ele><time>2026-05-03T14:24:33Z</time></trkpt><trkpt lat="40.7851644297392" lon="17.240651892480685"><ele>418.0</ele><time>2026-05-03T14:24:37Z</time></trkpt><trkpt lat="40.78503918032871" lon="17.240783817604964"><ele>418.0</ele><time>2026-05-03T14:24:39Z</time></trkpt><trkpt lat="40.784965533288855" lon="17.24086165001443"><ele>418.0</ele><time>2026-05-03T14:24:40Z</time></trkpt><trkpt lat="40.784910229717916" lon="17.240931408333537"><ele>417.59999999999997</ele><time>2026-05-03T14:24:41Z</time></trkpt><trkpt lat="40.78483975918576" lon="17.24101731762743"><ele>417.2</ele><time>2026-05-03T14:24:43Z</time></trkpt><trkpt lat="40.784748756294924" lon="17.24112015327342"><ele>416.8</ele><time>2026-05-03T14:24:46Z</time></trkpt><trkpt lat="40.784691817508715" lon="17.24118705188194"><ele>416.4</ele><time>2026-05-03T14:24:47Z</time></trkpt><trkpt lat="40.784624088951155" lon="17.241271253285706"><ele>416.0</ele><time>2026-05-03T14:24:48Z</time></trkpt><trkpt lat="40.78453539069377" lon="17.241364522299403"><ele>416.0</ele><time>2026-05-03T14:24:49Z</time></trkpt><trkpt lat="40.78445399285371" lon="17.241463984790983"><ele>416.0</ele><time>2026-05-03T14:24:50Z</time></trkpt><trkpt lat="40.784369457848406" lon="17.241560990355424"><ele>416.0</ele><time>2026-05-03T14:24:51Z</time></trkpt><trkpt lat="40.78428879191085" lon="17.241670978668875"><ele>416.0</ele><time>2026-05-03T14:24:52Z</time></trkpt><trkpt lat="40.78419861108925" lon="17.24175995162833"><ele>415.20000000000005</ele><time>2026-05-03T14:24:53Z</time></trkpt><trkpt lat="40.78412484281845" lon="17.24184893617632"><ele>414.40000000000003</ele><time>2026-05-03T14:24:54Z</time></trkpt><trkpt lat="40.78404423387432" lon="17.24193596839706"><ele>413.6</ele><time>2026-05-03T14:24:55Z</time></trkpt><trkpt lat="40.783967505848786" lon="17.24202747011877"><ele>412.8</ele><time>2026-05-03T14:24:56Z</time></trkpt><trkpt lat="40.78388583792913" lon="17.242119649764994"><ele>412.0</ele><time>2026-05-03T14:24:57Z</time></trkpt><trkpt lat="40.78381197637759" lon="17.24222491358826"><ele>411.25</ele><time>2026-05-03T14:24:58Z</time></trkpt><trkpt lat="40.78372793327654" lon="17.24233153114771"><ele>410.5</ele><time>2026-05-03T14:24:59Z</time></trkpt><trkpt lat="40.783639028173795" lon="17.242441187424753"><ele>409.75</ele><time>2026-05-03T14:25:00Z</time></trkpt><trkpt lat="40.783549290426706" lon="17.242547455185527"><ele>409.0</ele><time>2026-05-03T14:25:01Z</time></trkpt><trkpt lat="40.783450891165295" lon="17.24265530993385"><ele>408.5</ele><time>2026-05-03T14:25:02Z</time></trkpt><trkpt lat="40.78335662362929" lon="17.242760859541498"><ele>408.0</ele><time>2026-05-03T14:25:03Z</time></trkpt><trkpt lat="40.78325810172763" lon="17.242869232605933"><ele>407.5</ele><time>2026-05-03T14:25:04Z</time></trkpt><trkpt lat="40.78315923057913" lon="17.242983886075095"><ele>407.0</ele><time>2026-05-03T14:25:05Z</time></trkpt><trkpt lat="40.78305625617106" lon="17.243101914428074"><ele>405.75</ele><time>2026-05-03T14:25:06Z</time></trkpt><trkpt lat="40.782953978807264" lon="17.243215881895487"><ele>404.5</ele><time>2026-05-03T14:25:07Z</time></trkpt><trkpt lat="40.78285223899031" lon="17.24333057295394"><ele>403.25</ele><time>2026-05-03T14:25:08Z</time></trkpt><trkpt lat="40.782767137329756" lon="17.243468433914156"><ele>402.0</ele><time>2026-05-03T14:25:09Z</time></trkpt><trkpt lat="40.78264909891312" lon="17.243572887051812"><ele>401.25</ele><time>2026-05-03T14:25:10Z</time></trkpt><trkpt lat="40.78254226046024" lon="17.243696535918687"><ele>400.5</ele><time>2026-05-03T14:25:11Z</time></trkpt><trkpt lat="40.78243394397591" lon="17.243814363909518"><ele>399.75</ele><time>2026-05-03T14:25:12Z</time></trkpt><trkpt lat="40.78232504570976" lon="17.243934065766837"><ele>399.0</ele><time>2026-05-03T14:25:13Z</time></trkpt><trkpt lat="40.78221648956915" lon="17.24405178712627"><ele>397.66666666666663</ele><time>2026-05-03T14:25:14Z</time></trkpt><trkpt lat="40.782105311203686" lon="17.24417943314333"><ele>396.3333333333333</ele><time>2026-05-03T14:25:15Z</time></trkpt><trkpt lat="40.78198451901502" lon="17.244320127777033"><ele>395.0</ele><time>2026-05-03T14:25:16Z</time></trkpt><trkpt lat="40.78185641393403" lon="17.244479678171867"><ele>395.0</ele><time>2026-05-03T14:25:17Z</time></trkpt><trkpt lat="40.7817399900516" lon="17.24461200443374"><ele>395.0</ele><time>2026-05-03T14:25:18Z</time></trkpt><trkpt lat="40.781638563037724" lon="17.244729137503494"><ele>395.0</ele><time>2026-05-03T14:25:19Z</time></trkpt><trkpt lat="40.78154824271941" lon="17.24483494069499"><ele>395.0</ele><time>2026-05-03T14:25:20Z</time></trkpt><trkpt lat="40.78146083520414" lon="17.244935521546132"><ele>395.0</ele><time>2026-05-03T14:25:21Z</time></trkpt><trkpt lat="40.781362819733545" lon="17.245049815906096"><ele>395.0</ele><time>2026-05-03T14:25:22Z</time></trkpt><trkpt lat="40.78125395719099" lon="17.24517509472895"><ele>395.0</ele><time>2026-05-03T14:25:23Z</time></trkpt><trkpt lat="40.78113700509465" lon="17.245311495130423"><ele>395.0</ele><time>2026-05-03T14:25:24Z</time></trkpt><trkpt lat="40.78101181289395" lon="17.245454949668428"><ele>396.3333333333333</ele><time>2026-05-03T14:25:25Z</time></trkpt><trkpt lat="40.78088298180902" lon="17.24561188413149"><ele>397.66666666666663</ele><time>2026-05-03T14:25:26Z</time></trkpt><trkpt lat="40.78075601073894" lon="17.24576742485692"><ele>399.0</ele><time>2026-05-03T14:25:27Z</time></trkpt><trkpt lat="40.78063304705157" lon="17.24591401081368"><ele>399.0</ele><time>2026-05-03T14:25:28Z</time></trkpt><trkpt lat="40.78051752482852" lon="17.246053833861925"><ele>399.0</ele><time>2026-05-03T14:25:29Z</time></trkpt><trkpt lat="40.78040181897992" lon="17.246186305432925"><ele>399.0</ele><time>2026-05-03T14:25:29.999Z</time></trkpt><trkpt lat="40.780296022266704" lon="17.24630280123748"><ele>399.0</ele><time>2026-05-03T14:25:30.999Z</time></trkpt><trkpt lat="40.7800660603059" lon="17.246562423650285"><ele>399.0</ele><time>2026-05-03T14:25:32.999Z</time></trkpt><trkpt lat="40.779945532389114" lon="17.24670559615103"><ele>399.0</ele><time>2026-05-03T14:25:33.999Z</time></trkpt><trkpt lat="40.77982151836983" lon="17.24684606858497"><ele>399.0</ele><time>2026-05-03T14:25:34.999Z</time></trkpt><trkpt lat="40.77968185231055" lon="17.247007554311786"><ele>399.0</ele><time>2026-05-03T14:25:35.999Z</time></trkpt><trkpt lat="40.779544274063035" lon="17.247169374362215"><ele>399.0</ele><time>2026-05-03T14:25:36.999Z</time></trkpt><trkpt lat="40.779401818159876" lon="17.247337534678792"><ele>399.0</ele><time>2026-05-03T14:25:37.999Z</time></trkpt><trkpt lat="40.779261000535485" lon="17.24750161247122"><ele>398.33333333333337</ele><time>2026-05-03T14:25:38.999Z</time></trkpt><trkpt lat="40.77912622058241" lon="17.24766049653838"><ele>397.6666666666667</ele><time>2026-05-03T14:25:39.999Z</time></trkpt><trkpt lat="40.77898425420517" lon="17.24782870150583"><ele>397.0</ele><time>2026-05-03T14:25:40.999Z</time></trkpt><trkpt lat="40.778843984124144" lon="17.24798589534264"><ele>396.33333333333337</ele><time>2026-05-03T14:25:41.999Z</time></trkpt><trkpt lat="40.778709448886715" lon="17.248126850565093"><ele>395.66666666666663</ele><time>2026-05-03T14:25:42.999Z</time></trkpt><trkpt lat="40.77857878749955" lon="17.248242184524123"><ele>395.0</ele><time>2026-05-03T14:25:43.999Z</time></trkpt><trkpt lat="40.77844582453147" lon="17.24834746631912"><ele>395.0</ele><time>2026-05-03T14:25:44.999Z</time></trkpt><trkpt lat="40.77831304833066" lon="17.248447815016934"><ele>395.0</ele><time>2026-05-03T14:25:45.999Z</time></trkpt><trkpt lat="40.77818504096981" lon="17.248546941354903"><ele>395.0</ele><time>2026-05-03T14:25:46.999Z</time></trkpt><trkpt lat="40.778056251492046" lon="17.248648017609185"><ele>395.0</ele><time>2026-05-03T14:25:47.999Z</time></trkpt><trkpt lat="40.77793765891125" lon="17.24875742157707"><ele>395.0</ele><time>2026-05-03T14:25:48.999Z</time></trkpt><trkpt lat="40.77782129966807" lon="17.248865262822427"><ele>395.0</ele><time>2026-05-03T14:25:49.999Z</time></trkpt><trkpt lat="40.77770669594307" lon="17.248969485695497"><ele>395.0</ele><time>2026-05-03T14:25:50.999Z</time></trkpt><trkpt lat="40.77758926461255" lon="17.249070532599127"><ele>395.3333333333333</ele><time>2026-05-03T14:25:51.999Z</time></trkpt><trkpt lat="40.77746532685835" lon="17.249185809044477"><ele>395.66666666666663</ele><time>2026-05-03T14:25:52.999Z</time></trkpt><trkpt lat="40.77734943511955" lon="17.249322389383085"><ele>396.0</ele><time>2026-05-03T14:25:53.999Z</time></trkpt><trkpt lat="40.7772456780783" lon="17.249489839280198"><ele>396.0</ele><time>2026-05-03T14:25:54.999Z</time></trkpt><trkpt lat="40.77715863279571" lon="17.249692383482177"><ele>396.0</ele><time>2026-05-03T14:25:55.999Z</time></trkpt><trkpt lat="40.777078496005394" lon="17.249915979498166"><ele>396.0</ele><time>2026-05-03T14:25:56.999Z</time></trkpt><trkpt lat="40.77701487750936" lon="17.250169953671424"><ele>395.0</ele><time>2026-05-03T14:25:57.999Z</time></trkpt><trkpt lat="40.77695867390614" lon="17.250446427444068"><ele>394.0</ele><time>2026-05-03T14:25:58.999Z</time></trkpt><trkpt lat="40.77690446796586" lon="17.250733955600804"><ele>393.0</ele><time>2026-05-03T14:25:59.999Z</time></trkpt><trkpt lat="40.776846676547024" lon="17.251014916870307"><ele>393.0</ele><time>2026-05-03T14:26:00.999Z</time></trkpt><trkpt lat="40.7767891754234" lon="17.25129242770278"><ele>393.0</ele><time>2026-05-03T14:26:01.999Z</time></trkpt><trkpt lat="40.77673508691503" lon="17.25155746683628"><ele>393.0</ele><time>2026-05-03T14:26:02.999Z</time></trkpt><trkpt lat="40.77669633496952" lon="17.251798846322757"><ele>393.66666666666663</ele><time>2026-05-03T14:26:03.999Z</time></trkpt><trkpt lat="40.77666107345011" lon="17.252028010910767"><ele>394.3333333333333</ele><time>2026-05-03T14:26:04.999Z</time></trkpt><trkpt lat="40.77663759851849" lon="17.252262014221483"><ele>395.0</ele><time>2026-05-03T14:26:05.999Z</time></trkpt><trkpt lat="40.77664656312386" lon="17.25248184459076"><ele>395.3333333333333</ele><time>2026-05-03T14:26:06.999Z</time></trkpt><trkpt lat="40.776686919709" lon="17.25270308763774"><ele>395.66666666666663</ele><time>2026-05-03T14:26:07.999Z</time></trkpt><trkpt lat="40.77675528853662" lon="17.252926243552274"><ele>396.0</ele><time>2026-05-03T14:26:08.999Z</time></trkpt><trkpt lat="40.77685577000991" lon="17.25315181006437"><ele>398.0</ele><time>2026-05-03T14:26:09.999Z</time></trkpt><trkpt lat="40.7769797871193" lon="17.253391223815957"><ele>400.0</ele><time>2026-05-03T14:26:10.999Z</time></trkpt><trkpt lat="40.777124105529495" lon="17.253646381050576"><ele>400.0</ele><time>2026-05-03T14:26:11.999Z</time></trkpt><trkpt lat="40.77728041721041" lon="17.25390428793505"><ele>400.0</ele><time>2026-05-03T14:26:12.999Z</time></trkpt><trkpt lat="40.777459384970975" lon="17.254169214867364"><ele>402.0</ele><time>2026-05-03T14:26:13.999Z</time></trkpt><trkpt lat="40.77764023542309" lon="17.254434356849487"><ele>404.0</ele><time>2026-05-03T14:26:14.999Z</time></trkpt><trkpt lat="40.777820189436774" lon="17.254696476533717"><ele>407.0</ele><time>2026-05-03T14:26:15.999Z</time></trkpt><trkpt lat="40.7779776761793" lon="17.254936122695074"><ele>410.0</ele><time>2026-05-03T14:26:16.999Z</time></trkpt><trkpt lat="40.77811930221901" lon="17.255140537753764"><ele>410.0</ele><time>2026-05-03T14:26:17.999Z</time></trkpt><trkpt lat="40.77824458202282" lon="17.255326774539707"><ele>410.0</ele><time>2026-05-03T14:26:18.999Z</time></trkpt><trkpt lat="40.77836021978309" lon="17.255498032978114"><ele>410.0</ele><time>2026-05-03T14:26:19.999Z</time></trkpt><trkpt lat="40.77846352705851" lon="17.255659144945845"><ele>410.5</ele><time>2026-05-03T14:26:20.999Z</time></trkpt><trkpt lat="40.7785701163129" lon="17.255813655586955"><ele>411.0</ele><time>2026-05-03T14:26:21.999Z</time></trkpt><trkpt lat="40.77866038857881" lon="17.255963409502876"><ele>411.5</ele><time>2026-05-03T14:26:22.999Z</time></trkpt><trkpt lat="40.7787450870251" lon="17.25609843881013"><ele>412.0</ele><time>2026-05-03T14:26:23.999Z</time></trkpt><trkpt lat="40.778817160307284" lon="17.256236212462795"><ele>412.0</ele><time>2026-05-03T14:26:24.999Z</time></trkpt><trkpt lat="40.77887710986299" lon="17.25639642798647"><ele>412.0</ele><time>2026-05-03T14:26:26Z</time></trkpt><trkpt lat="40.77890912571774" lon="17.256584090079166"><ele>412.0</ele><time>2026-05-03T14:26:27Z</time></trkpt><trkpt lat="40.77891110741692" lon="17.25677817686798"><ele>412.0</ele><time>2026-05-03T14:26:28Z</time></trkpt><trkpt lat="40.77887944096551" lon="17.256970726970405"><ele>412.0</ele><time>2026-05-03T14:26:29Z</time></trkpt><trkpt lat="40.77882116609237" lon="17.257154269085383"><ele>412.0</ele><time>2026-05-03T14:26:30Z</time></trkpt><trkpt lat="40.77874865093095" lon="17.257332043827226"><ele>412.0</ele><time>2026-05-03T14:26:31Z</time></trkpt><trkpt lat="40.77865702668487" lon="17.257521095565814"><ele>412.33333333333337</ele><time>2026-05-03T14:26:32Z</time></trkpt><trkpt lat="40.778568739609476" lon="17.25770991407112"><ele>412.66666666666663</ele><time>2026-05-03T14:26:33Z</time></trkpt><trkpt lat="40.77848668163922" lon="17.25789599986313"><ele>413.0</ele><time>2026-05-03T14:26:34Z</time></trkpt><trkpt lat="40.77841083476495" lon="17.25806576322236"><ele>413.25</ele><time>2026-05-03T14:26:35Z</time></trkpt><trkpt lat="40.77833507554018" lon="17.258221565327556"><ele>413.5</ele><time>2026-05-03T14:26:36Z</time></trkpt><trkpt lat="40.77825989588185" lon="17.258378255923564"><ele>413.75</ele><time>2026-05-03T14:26:37Z</time></trkpt><trkpt lat="40.77818097643506" lon="17.258538886896385"><ele>414.0</ele><time>2026-05-03T14:26:38Z</time></trkpt><trkpt lat="40.778102083488186" lon="17.258701093935485"><ele>414.0</ele><time>2026-05-03T14:26:39Z</time></trkpt><trkpt lat="40.778025818546325" lon="17.25886258401822"><ele>414.0</ele><time>2026-05-03T14:26:40Z</time></trkpt><trkpt lat="40.777948632705574" lon="17.25903176108439"><ele>414.0</ele><time>2026-05-03T14:26:41Z</time></trkpt><trkpt lat="40.777869261506076" lon="17.259203809483136"><ele>414.0</ele><time>2026-05-03T14:26:42Z</time></trkpt><trkpt lat="40.77778755205475" lon="17.259378671014076"><ele>413.66666666666663</ele><time>2026-05-03T14:26:43Z</time></trkpt><trkpt lat="40.777703522834415" lon="17.25955942574481"><ele>413.3333333333333</ele><time>2026-05-03T14:26:44Z</time></trkpt><trkpt lat="40.777619653953764" lon="17.259744324856737"><ele>413.0</ele><time>2026-05-03T14:26:45Z</time></trkpt><trkpt lat="40.77753224256568" lon="17.259927315436602"><ele>411.66666666666663</ele><time>2026-05-03T14:26:46Z</time></trkpt><trkpt lat="40.77744924872513" lon="17.260112332816238"><ele>410.33333333333337</ele><time>2026-05-03T14:26:47Z</time></trkpt><trkpt lat="40.77736399740208" lon="17.260297542824734"><ele>409.0</ele><time>2026-05-03T14:26:48Z</time></trkpt><trkpt lat="40.77727761009442" lon="17.260486318686443"><ele>409.33333333333337</ele><time>2026-05-03T14:26:49Z</time></trkpt><trkpt lat="40.77719835042876" lon="17.26066908539421"><ele>409.66666666666663</ele><time>2026-05-03T14:26:50Z</time></trkpt><trkpt lat="40.777116869012936" lon="17.260848913618553"><ele>410.0</ele><time>2026-05-03T14:26:51Z</time></trkpt><trkpt lat="40.77703883180256" lon="17.26103199175822"><ele>410.0</ele><time>2026-05-03T14:26:52Z</time></trkpt><trkpt lat="40.77695820693742" lon="17.261214608026147"><ele>410.0</ele><time>2026-05-03T14:26:53Z</time></trkpt><trkpt lat="40.77687334102788" lon="17.261401539941712"><ele>410.0</ele><time>2026-05-03T14:26:54Z</time></trkpt><trkpt lat="40.77678310129681" lon="17.26159257627686"><ele>411.66666666666663</ele><time>2026-05-03T14:26:55Z</time></trkpt><trkpt lat="40.77668880692675" lon="17.261787453482285"><ele>413.33333333333337</ele><time>2026-05-03T14:26:56Z</time></trkpt><trkpt lat="40.77659374386437" lon="17.26198890502773"><ele>415.0</ele><time>2026-05-03T14:26:57Z</time></trkpt><trkpt lat="40.77649897366425" lon="17.262195487793385"><ele>414.6666666666667</ele><time>2026-05-03T14:26:58Z</time></trkpt><trkpt lat="40.776399742098086" lon="17.26241163545636"><ele>414.33333333333337</ele><time>2026-05-03T14:26:59Z</time></trkpt><trkpt lat="40.776296274273484" lon="17.262626321105824"><ele>414.0</ele><time>2026-05-03T14:27:00Z</time></trkpt><trkpt lat="40.77619702865706" lon="17.26284118910094"><ele>414.0</ele><time>2026-05-03T14:27:01Z</time></trkpt><trkpt lat="40.7760978699665" lon="17.263058289361236"><ele>414.0</ele><time>2026-05-03T14:27:02Z</time></trkpt><trkpt lat="40.77598987526782" lon="17.26328831692233"><ele>414.0</ele><time>2026-05-03T14:27:03Z</time></trkpt><trkpt lat="40.77588368702375" lon="17.26352511585961"><ele>414.33333333333337</ele><time>2026-05-03T14:27:04Z</time></trkpt><trkpt lat="40.77576781898925" lon="17.263776899200266"><ele>414.6666666666667</ele><time>2026-05-03T14:27:05Z</time></trkpt><trkpt lat="40.775650370911606" lon="17.26402370152363"><ele>415.0</ele><time>2026-05-03T14:27:06Z</time></trkpt><trkpt lat="40.775542813619765" lon="17.26426580445301"><ele>415.0</ele><time>2026-05-03T14:27:07Z</time></trkpt><trkpt lat="40.77542775167335" lon="17.264536423845577"><ele>415.0</ele><time>2026-05-03T14:27:08Z</time></trkpt><trkpt lat="40.775274223182116" lon="17.264842821667212"><ele>417.0</ele><time>2026-05-03T14:27:09Z</time></trkpt><trkpt lat="40.77511401212037" lon="17.26519006498003"><ele>419.0</ele><time>2026-05-03T14:27:10Z</time></trkpt><trkpt lat="40.77494842622917" lon="17.265548655872003"><ele>418.0</ele><time>2026-05-03T14:27:11Z</time></trkpt><trkpt lat="40.77478290998619" lon="17.265939901417223"><ele>417.0</ele><time>2026-05-03T14:27:12Z</time></trkpt><trkpt lat="40.77459942979594" lon="17.26632308264927"><ele>417.5</ele><time>2026-05-03T14:27:13Z</time></trkpt><trkpt lat="40.77441986567894" lon="17.26670272709425"><ele>418.0</ele><time>2026-05-03T14:27:14Z</time></trkpt><trkpt lat="40.77425644186452" lon="17.267053301996512"><ele>419.0</ele><time>2026-05-03T14:27:15Z</time></trkpt><trkpt lat="40.7740955877029" lon="17.267401931485484"><ele>420.0</ele><time>2026-05-03T14:27:16Z</time></trkpt><trkpt lat="40.77393059195266" lon="17.26775903403362"><ele>419.0</ele><time>2026-05-03T14:27:17Z</time></trkpt><trkpt lat="40.77376481635925" lon="17.26811868054922"><ele>418.0</ele><time>2026-05-03T14:27:18Z</time></trkpt><trkpt lat="40.773600352708414" lon="17.268475138616385"><ele>419.0</ele><time>2026-05-03T14:27:19Z</time></trkpt><trkpt lat="40.773442878171736" lon="17.26881733298233"><ele>420.0</ele><time>2026-05-03T14:27:20Z</time></trkpt><trkpt lat="40.77328604386287" lon="17.26915120674445"><ele>420.0</ele><time>2026-05-03T14:27:21Z</time></trkpt><trkpt lat="40.7731364873178" lon="17.269473256037116"><ele>420.0</ele><time>2026-05-03T14:27:22Z</time></trkpt><trkpt lat="40.77298561734581" lon="17.2697932404062"><ele>420.5</ele><time>2026-05-03T14:27:23Z</time></trkpt><trkpt lat="40.7728345736575" lon="17.270119764223345"><ele>421.0</ele><time>2026-05-03T14:27:24Z</time></trkpt><trkpt lat="40.77269186523018" lon="17.270429757454462"><ele>423.5</ele><time>2026-05-03T14:27:25Z</time></trkpt><trkpt lat="40.77255240400488" lon="17.27073244840658"><ele>426.0</ele><time>2026-05-03T14:27:26Z</time></trkpt><trkpt lat="40.77241764977637" lon="17.271035949495563"><ele>426.0</ele><time>2026-05-03T14:27:27Z</time></trkpt><trkpt lat="40.77229200729123" lon="17.27130577426172"><ele>426.0</ele><time>2026-05-03T14:27:28Z</time></trkpt><trkpt lat="40.772177907846796" lon="17.27155216893394"><ele>426.66666666666663</ele><time>2026-05-03T14:27:29Z</time></trkpt><trkpt lat="40.77207871903668" lon="17.27180214417312"><ele>427.3333333333333</ele><time>2026-05-03T14:27:30Z</time></trkpt><trkpt lat="40.77195505145774" lon="17.27201594663078"><ele>428.0</ele><time>2026-05-03T14:27:31Z</time></trkpt><trkpt lat="40.77184097541655" lon="17.272230381373358"><ele>427.66666666666663</ele><time>2026-05-03T14:27:32Z</time></trkpt><trkpt lat="40.771715702775666" lon="17.272417172472856"><ele>427.33333333333337</ele><time>2026-05-03T14:27:33Z</time></trkpt><trkpt lat="40.771564640787936" lon="17.272656201509232"><ele>427.0</ele><time>2026-05-03T14:27:34Z</time></trkpt><trkpt lat="40.77140343971132" lon="17.272867035017917"><ele>427.0</ele><time>2026-05-03T14:27:35Z</time></trkpt><trkpt lat="40.77123551674472" lon="17.27306774114826"><ele>427.0</ele><time>2026-05-03T14:27:36Z</time></trkpt><trkpt lat="40.77107018166072" lon="17.2732564540671"><ele>427.0</ele><time>2026-05-03T14:27:37Z</time></trkpt><trkpt lat="40.77090296448936" lon="17.273434117518352"><ele>427.0</ele><time>2026-05-03T14:27:37.999Z</time></trkpt><trkpt lat="40.77070451094777" lon="17.273612702749574"><ele>427.0</ele><time>2026-05-03T14:27:38.999Z</time></trkpt><trkpt lat="40.77049400283588" lon="17.273797291608002"><ele>424.5</ele><time>2026-05-03T14:27:39.999Z</time></trkpt><trkpt lat="40.77027301504887" lon="17.27399398327865"><ele>422.0</ele><time>2026-05-03T14:27:40.999Z</time></trkpt><trkpt lat="40.77004481389685" lon="17.274200350536965"><ele>422.0</ele><time>2026-05-03T14:27:41.999Z</time></trkpt><trkpt lat="40.769808869491385" lon="17.274409672317386"><ele>422.0</ele><time>2026-05-03T14:27:42.999Z</time></trkpt><trkpt lat="40.76957572458763" lon="17.274617894863475"><ele>420.5</ele><time>2026-05-03T14:27:43.999Z</time></trkpt><trkpt lat="40.7693440998018" lon="17.274823337346568"><ele>419.0</ele><time>2026-05-03T14:27:44.999Z</time></trkpt><trkpt lat="40.76911294782996" lon="17.275030748110378"><ele>419.0</ele><time>2026-05-03T14:27:45.999Z</time></trkpt><trkpt lat="40.76888195060349" lon="17.275242073681685"><ele>419.0</ele><time>2026-05-03T14:27:46.999Z</time></trkpt><trkpt lat="40.768643311933424" lon="17.275454580150566"><ele>416.0</ele><time>2026-05-03T14:27:47.999Z</time></trkpt><trkpt lat="40.768407618105165" lon="17.275667082121423"><ele>413.0</ele><time>2026-05-03T14:27:48.999Z</time></trkpt><trkpt lat="40.76816753427273" lon="17.275882101331625"><ele>413.0</ele><time>2026-05-03T14:27:49.999Z</time></trkpt><trkpt lat="40.76793096482272" lon="17.27609485953453"><ele>413.0</ele><time>2026-05-03T14:27:50.999Z</time></trkpt><trkpt lat="40.76769846545925" lon="17.276302775857825"><ele>412.0</ele><time>2026-05-03T14:27:51.999Z</time></trkpt><trkpt lat="40.76747267616845" lon="17.2765079425941"><ele>411.0</ele><time>2026-05-03T14:27:52.999Z</time></trkpt><trkpt lat="40.767248428168" lon="17.27672771022985"><ele>411.0</ele><time>2026-05-03T14:27:53.999Z</time></trkpt><trkpt lat="40.76702865344205" lon="17.276925082091832"><ele>411.0</ele><time>2026-05-03T14:27:54.999Z</time></trkpt><trkpt lat="40.76680691620979" lon="17.277118123695313"><ele>410.0</ele><time>2026-05-03T14:27:55.999Z</time></trkpt><trkpt lat="40.76659747255456" lon="17.277293380217653"><ele>409.0</ele><time>2026-05-03T14:27:56.999Z</time></trkpt><trkpt lat="40.76639749370667" lon="17.27747814798489"><ele>409.0</ele><time>2026-05-03T14:27:57.999Z</time></trkpt><trkpt lat="40.76620397468262" lon="17.277648538488368"><ele>409.0</ele><time>2026-05-03T14:27:58.999Z</time></trkpt><trkpt lat="40.76602178135891" lon="17.277816318603215"><ele>409.0</ele><time>2026-05-03T14:27:59.999Z</time></trkpt><trkpt lat="40.76584442652604" lon="17.277982958320113"><ele>409.0</ele><time>2026-05-03T14:28:00.999Z</time></trkpt><trkpt lat="40.765691821175125" lon="17.27813032406636"><ele>409.0</ele><time>2026-05-03T14:28:01.999Z</time></trkpt><trkpt lat="40.765561272845986" lon="17.27827850086056"><ele>409.0</ele><time>2026-05-03T14:28:02.999Z</time></trkpt><trkpt lat="40.765428808009574" lon="17.27842592019162"><ele>409.0</ele><time>2026-05-03T14:28:03.999Z</time></trkpt><trkpt lat="40.76531657151911" lon="17.278568088689692"><ele>409.0</ele><time>2026-05-03T14:28:04.999Z</time></trkpt><trkpt lat="40.76521062292408" lon="17.278721513946987"><ele>409.33333333333337</ele><time>2026-05-03T14:28:05.999Z</time></trkpt><trkpt lat="40.76510026133712" lon="17.27889386099595"><ele>409.66666666666663</ele><time>2026-05-03T14:28:06.999Z</time></trkpt><trkpt lat="40.764990623681946" lon="17.279085378154583"><ele>410.0</ele><time>2026-05-03T14:28:07.999Z</time></trkpt><trkpt lat="40.76489469453343" lon="17.27926668265566"><ele>409.66666666666663</ele><time>2026-05-03T14:28:08.999Z</time></trkpt><trkpt lat="40.76480394921796" lon="17.279446284280496"><ele>409.33333333333337</ele><time>2026-05-03T14:28:09.999Z</time></trkpt><trkpt lat="40.76471983247132" lon="17.279658975480874"><ele>409.0</ele><time>2026-05-03T14:28:10.999Z</time></trkpt><trkpt lat="40.76463474355153" lon="17.279915457149624"><ele>409.0</ele><time>2026-05-03T14:28:11.999Z</time></trkpt><trkpt lat="40.76453817140567" lon="17.280225217221794"><ele>409.0</ele><time>2026-05-03T14:28:12.999Z</time></trkpt><trkpt lat="40.76444673318679" lon="17.280567947389805"><ele>409.0</ele><time>2026-05-03T14:28:13.999Z</time></trkpt><trkpt lat="40.764379371517805" lon="17.28089726945517"><ele>409.0</ele><time>2026-05-03T14:28:14.999Z</time></trkpt><trkpt lat="40.764334039333974" lon="17.281227046630043"><ele>407.5</ele><time>2026-05-03T14:28:15.999Z</time></trkpt><trkpt lat="40.76430705908981" lon="17.281552603189205"><ele>406.0</ele><time>2026-05-03T14:28:16.999Z</time></trkpt><trkpt lat="40.764298469927304" lon="17.281888715373213"><ele>406.0</ele><time>2026-05-03T14:28:17.999Z</time></trkpt><trkpt lat="40.764301514477324" lon="17.28224747987989"><ele>406.0</ele><time>2026-05-03T14:28:18.999Z</time></trkpt><trkpt lat="40.7643099539434" lon="17.282623753911235"><ele>406.0</ele><time>2026-05-03T14:28:19.999Z</time></trkpt><trkpt lat="40.76431776730145" lon="17.282987921317606"><ele>406.0</ele><time>2026-05-03T14:28:20.999Z</time></trkpt><trkpt lat="40.764325461041516" lon="17.283345805736328"><ele>405.5</ele><time>2026-05-03T14:28:21.999Z</time></trkpt><trkpt lat="40.76433032642983" lon="17.283700335594922"><ele>405.0</ele><time>2026-05-03T14:28:22.999Z</time></trkpt><trkpt lat="40.764335615477485" lon="17.28405102913939"><ele>403.5</ele><time>2026-05-03T14:28:23.999Z</time></trkpt><trkpt lat="40.764341047916716" lon="17.284397832931884"><ele>402.0</ele><time>2026-05-03T14:28:24.999Z</time></trkpt><trkpt lat="40.76434531182148" lon="17.284739203615704"><ele>401.5</ele><time>2026-05-03T14:28:25.999Z</time></trkpt><trkpt lat="40.76434978156879" lon="17.285074473652163"><ele>401.0</ele><time>2026-05-03T14:28:26.999Z</time></trkpt><trkpt lat="40.764359126007996" lon="17.285410375846933"><ele>402.0</ele><time>2026-05-03T14:28:27.999Z</time></trkpt><trkpt lat="40.764367342520025" lon="17.285744295034316"><ele>403.0</ele><time>2026-05-03T14:28:28.999Z</time></trkpt><trkpt lat="40.76437158595891" lon="17.286075657651924"><ele>403.0</ele><time>2026-05-03T14:28:29.999Z</time></trkpt><trkpt lat="40.76437769164883" lon="17.286413699383118"><ele>403.0</ele><time>2026-05-03T14:28:30.999Z</time></trkpt><trkpt lat="40.76437782138437" lon="17.286754830469608"><ele>402.5</ele><time>2026-05-03T14:28:32Z</time></trkpt><trkpt lat="40.76438654855805" lon="17.28709731811548"><ele>402.0</ele><time>2026-05-03T14:28:33Z</time></trkpt><trkpt lat="40.76439495228227" lon="17.28745028407585"><ele>400.5</ele><time>2026-05-03T14:28:34Z</time></trkpt><trkpt lat="40.76440223379733" lon="17.2878035407981"><ele>399.0</ele><time>2026-05-03T14:28:35Z</time></trkpt><trkpt lat="40.764404983042006" lon="17.288156593851195"><ele>397.0</ele><time>2026-05-03T14:28:36Z</time></trkpt><trkpt lat="40.76440951256185" lon="17.28850887633968"><ele>395.0</ele><time>2026-05-03T14:28:37Z</time></trkpt><trkpt lat="40.76441469144705" lon="17.288862957081793"><ele>395.0</ele><time>2026-05-03T14:28:38Z</time></trkpt><trkpt lat="40.76441786896882" lon="17.289217612607253"><ele>395.0</ele><time>2026-05-03T14:28:39Z</time></trkpt><trkpt lat="40.7644283876633" lon="17.289563033268866"><ele>395.0</ele><time>2026-05-03T14:28:40Z</time></trkpt><trkpt lat="40.76441743898599" lon="17.289890126215806"><ele>395.0</ele><time>2026-05-03T14:28:41Z</time></trkpt><trkpt lat="40.76443043740842" lon="17.290267882557362"><ele>395.5</ele><time>2026-05-03T14:28:42Z</time></trkpt><trkpt lat="40.76443133304948" lon="17.290626433272262"><ele>396.0</ele><time>2026-05-03T14:28:43Z</time></trkpt><trkpt lat="40.764440144746935" lon="17.290978913236764"><ele>396.0</ele><time>2026-05-03T14:28:44Z</time></trkpt><trkpt lat="40.76444692160473" lon="17.291325871410596"><ele>396.0</ele><time>2026-05-03T14:28:45Z</time></trkpt><trkpt lat="40.764455209554384" lon="17.291647931324842"><ele>396.0</ele><time>2026-05-03T14:28:46Z</time></trkpt><trkpt lat="40.76445577395412" lon="17.2919477451238"><ele>396.0</ele><time>2026-05-03T14:28:47Z</time></trkpt><trkpt lat="40.764447428230376" lon="17.29223066909888"><ele>396.0</ele><time>2026-05-03T14:28:48Z</time></trkpt><trkpt lat="40.76443094278675" lon="17.29252058906688"><ele>396.0</ele><time>2026-05-03T14:28:49Z</time></trkpt><trkpt lat="40.76440561136174" lon="17.292811251880206"><ele>396.0</ele><time>2026-05-03T14:28:50Z</time></trkpt><trkpt lat="40.764371256459036" lon="17.293103704423885"><ele>396.0</ele><time>2026-05-03T14:28:51Z</time></trkpt><trkpt lat="40.76432605398642" lon="17.293398887141077"><ele>395.5</ele><time>2026-05-03T14:28:52Z</time></trkpt><trkpt lat="40.76426030261997" lon="17.293691124798443"><ele>395.0</ele><time>2026-05-03T14:28:53Z</time></trkpt><trkpt lat="40.76418654287464" lon="17.293986511214623"><ele>395.0</ele><time>2026-05-03T14:28:54Z</time></trkpt><trkpt lat="40.76410925513975" lon="17.29428402566637"><ele>395.0</ele><time>2026-05-03T14:28:55Z</time></trkpt><trkpt lat="40.76402786055565" lon="17.29458491970101"><ele>394.0</ele><time>2026-05-03T14:28:56Z</time></trkpt><trkpt lat="40.763950766487056" lon="17.294891352484054"><ele>393.0</ele><time>2026-05-03T14:28:57Z</time></trkpt><trkpt lat="40.763874367686" lon="17.295203619534067"><ele>393.0</ele><time>2026-05-03T14:28:58Z</time></trkpt><trkpt lat="40.76379211713598" lon="17.29552424231808"><ele>393.0</ele><time>2026-05-03T14:28:59Z</time></trkpt><trkpt lat="40.763713670471645" lon="17.295846068249894"><ele>390.5</ele><time>2026-05-03T14:29:00Z</time></trkpt><trkpt lat="40.7636304088413" lon="17.296168610763313"><ele>388.0</ele><time>2026-05-03T14:29:01Z</time></trkpt><trkpt lat="40.76354461917223" lon="17.296494981459443"><ele>389.0</ele><time>2026-05-03T14:29:02Z</time></trkpt><trkpt lat="40.76346021402758" lon="17.296827164165478"><ele>390.0</ele><time>2026-05-03T14:29:03Z</time></trkpt><trkpt lat="40.76337588246781" lon="17.297165867199517"><ele>388.0</ele><time>2026-05-03T14:29:04Z</time></trkpt><trkpt lat="40.76328398670911" lon="17.29750578933731"><ele>386.0</ele><time>2026-05-03T14:29:05Z</time></trkpt><trkpt lat="40.76319362962726" lon="17.297844846361983"><ele>385.5</ele><time>2026-05-03T14:29:06Z</time></trkpt><trkpt lat="40.763102364842204" lon="17.298198391721353"><ele>385.0</ele><time>2026-05-03T14:29:07Z</time></trkpt><trkpt lat="40.76300915014061" lon="17.298565355086236"><ele>386.5</ele><time>2026-05-03T14:29:08Z</time></trkpt><trkpt lat="40.76291358396366" lon="17.298943486520805"><ele>388.0</ele><time>2026-05-03T14:29:09Z</time></trkpt><trkpt lat="40.76281810842465" lon="17.299322920544725"><ele>388.0</ele><time>2026-05-03T14:29:10Z</time></trkpt><trkpt lat="40.76272500989224" lon="17.299697763803625"><ele>388.0</ele><time>2026-05-03T14:29:11Z</time></trkpt><trkpt lat="40.76263217458477" lon="17.30005709048159"><ele>390.5</ele><time>2026-05-03T14:29:12Z</time></trkpt><trkpt lat="40.76254534814148" lon="17.30039531626931"><ele>393.0</ele><time>2026-05-03T14:29:13Z</time></trkpt><trkpt lat="40.7624566574816" lon="17.300726959962667"><ele>393.5</ele><time>2026-05-03T14:29:14Z</time></trkpt><trkpt lat="40.76236894970039" lon="17.301068716765318"><ele>394.0</ele><time>2026-05-03T14:29:15Z</time></trkpt><trkpt lat="40.76227929391161" lon="17.30141749000115"><ele>392.0</ele><time>2026-05-03T14:29:16Z</time></trkpt><trkpt lat="40.76218914714614" lon="17.301776749982473"><ele>390.0</ele><time>2026-05-03T14:29:17Z</time></trkpt><trkpt lat="40.762100147025365" lon="17.30213057215958"><ele>389.5</ele><time>2026-05-03T14:29:18Z</time></trkpt><trkpt lat="40.762010738371096" lon="17.302472563645562"><ele>389.0</ele><time>2026-05-03T14:29:19Z</time></trkpt><trkpt lat="40.76192731734357" lon="17.3027950498293"><ele>392.0</ele><time>2026-05-03T14:29:20Z</time></trkpt><trkpt lat="40.76183960505636" lon="17.30310157483217"><ele>395.0</ele><time>2026-05-03T14:29:21Z</time></trkpt><trkpt lat="40.761766090837106" lon="17.303399694123343"><ele>395.0</ele><time>2026-05-03T14:29:22Z</time></trkpt><trkpt lat="40.761687260713856" lon="17.30370907698252"><ele>395.0</ele><time>2026-05-03T14:29:23Z</time></trkpt><trkpt lat="40.761607503665005" lon="17.304025643623937"><ele>394.5</ele><time>2026-05-03T14:29:24Z</time></trkpt><trkpt lat="40.76153147434793" lon="17.304348774902312"><ele>394.0</ele><time>2026-05-03T14:29:25Z</time></trkpt><trkpt lat="40.76144985554273" lon="17.304674022819132"><ele>393.5</ele><time>2026-05-03T14:29:26Z</time></trkpt><trkpt lat="40.76135947791622" lon="17.305001545689837"><ele>393.0</ele><time>2026-05-03T14:29:27Z</time></trkpt><trkpt lat="40.76127265410553" lon="17.305330078828163"><ele>393.0</ele><time>2026-05-03T14:29:28Z</time></trkpt><trkpt lat="40.76118853677246" lon="17.305658719532637"><ele>393.0</ele><time>2026-05-03T14:29:29Z</time></trkpt><trkpt lat="40.761114181962796" lon="17.30596242306321"><ele>393.0</ele><time>2026-05-03T14:29:30Z</time></trkpt><trkpt lat="40.76104252508428" lon="17.306256893906642"><ele>393.0</ele><time>2026-05-03T14:29:31Z</time></trkpt><trkpt lat="40.76097018943851" lon="17.306544619946408"><ele>395.0</ele><time>2026-05-03T14:29:32Z</time></trkpt><trkpt lat="40.760892227868574" lon="17.306837226327147"><ele>397.0</ele><time>2026-05-03T14:29:33Z</time></trkpt><trkpt lat="40.76081478935292" lon="17.307129292404017"><ele>396.0</ele><time>2026-05-03T14:29:34Z</time></trkpt><trkpt lat="40.760740735362255" lon="17.30741498560159"><ele>395.0</ele><time>2026-05-03T14:29:35Z</time></trkpt><trkpt lat="40.76066744933304" lon="17.307693171132364"><ele>395.0</ele><time>2026-05-03T14:29:36Z</time></trkpt><trkpt lat="40.76060356065028" lon="17.307948643960138"><ele>395.0</ele><time>2026-05-03T14:29:37Z</time></trkpt><trkpt lat="40.7605398484348" lon="17.3081916128237"><ele>395.0</ele><time>2026-05-03T14:29:38Z</time></trkpt><trkpt lat="40.76047984192912" lon="17.308418277014024"><ele>394.25</ele><time>2026-05-03T14:29:39Z</time></trkpt><trkpt lat="40.76044473370654" lon="17.308636024431355"><ele>393.5</ele><time>2026-05-03T14:29:40Z</time></trkpt><trkpt lat="40.7603973962177" lon="17.30881212627578"><ele>392.75</ele><time>2026-05-03T14:29:41Z</time></trkpt><trkpt lat="40.760355537035586" lon="17.308962800859025"><ele>392.0</ele><time>2026-05-03T14:29:42Z</time></trkpt><trkpt lat="40.760325172797614" lon="17.309082407370287"><ele>391.8</ele><time>2026-05-03T14:29:43Z</time></trkpt><trkpt lat="40.76029647421318" lon="17.309172083988095"><ele>391.6</ele><time>2026-05-03T14:29:44Z</time></trkpt><trkpt lat="40.760214200015014" lon="17.309283749048962"><ele>391.40000000000003</ele><time>2026-05-03T14:29:46Z</time></trkpt><trkpt lat="40.76014456188161" lon="17.309430819141422"><ele>391.20000000000005</ele><time>2026-05-03T14:29:48Z</time></trkpt><trkpt lat="40.760133258643876" lon="17.30959526604817"><ele>391.0</ele><time>2026-05-03T14:29:49.999Z</time></trkpt><trkpt lat="40.76013581122854" lon="17.30971260774794"><ele>391.0</ele><time>2026-05-03T14:29:50.999Z</time></trkpt><trkpt lat="40.76012577950241" lon="17.309842586393003"><ele>391.0</ele><time>2026-05-03T14:29:51.999Z</time></trkpt><trkpt lat="40.76009791890347" lon="17.3099814885706"><ele>391.0</ele><time>2026-05-03T14:29:52.999Z</time></trkpt><trkpt lat="40.76006758787315" lon="17.310121884713883"><ele>391.0</ele><time>2026-05-03T14:29:53.999Z</time></trkpt><trkpt lat="40.760031069796824" lon="17.31026856580199"><ele>391.0</ele><time>2026-05-03T14:29:54.999Z</time></trkpt><trkpt lat="40.75999067099994" lon="17.310412541176518"><ele>391.0</ele><time>2026-05-03T14:29:55.999Z</time></trkpt><trkpt lat="40.75995519870678" lon="17.310534787863247"><ele>391.0</ele><time>2026-05-03T14:29:56.999Z</time></trkpt><trkpt lat="40.7599224779865" lon="17.310649531611777"><ele>391.0</ele><time>2026-05-03T14:29:57.999Z</time></trkpt><trkpt lat="40.75989381589931" lon="17.310767300584946"><ele>391.0</ele><time>2026-05-03T14:29:58.999Z</time></trkpt><trkpt lat="40.75986722303255" lon="17.310883644008182"><ele>391.0</ele><time>2026-05-03T14:29:59.999Z</time></trkpt><trkpt lat="40.759839566914195" lon="17.3109984270311"><ele>390.50000000000006</ele><time>2026-05-03T14:30:00.999Z</time></trkpt><trkpt lat="40.759807593054035" lon="17.31110778343344"><ele>390.0</ele><time>2026-05-03T14:30:01.999Z</time></trkpt><trkpt lat="40.75978020002602" lon="17.311205209351876"><ele>389.5</ele><time>2026-05-03T14:30:02.999Z</time></trkpt><trkpt lat="40.75975090217523" lon="17.311307548430104"><ele>389.0</ele><time>2026-05-03T14:30:03.999Z</time></trkpt><trkpt lat="40.75972866124802" lon="17.31141051812561"><ele>388.50000000000006</ele><time>2026-05-03T14:30:04.999Z</time></trkpt><trkpt lat="40.75970266952178" lon="17.31150527200699"><ele>388.0</ele><time>2026-05-03T14:30:05.999Z</time></trkpt><trkpt lat="40.75967986462643" lon="17.31160663932892"><ele>387.83333333333337</ele><time>2026-05-03T14:30:06.999Z</time></trkpt><trkpt lat="40.7596540782681" lon="17.31170096110862"><ele>387.6666666666667</ele><time>2026-05-03T14:30:07.999Z</time></trkpt><trkpt lat="40.759627963958046" lon="17.31179466895502"><ele>387.5</ele><time>2026-05-03T14:30:08.999Z</time></trkpt><trkpt lat="40.75960383352464" lon="17.31189293394331"><ele>387.33333333333337</ele><time>2026-05-03T14:30:09.999Z</time></trkpt><trkpt lat="40.7595781403518" lon="17.311993225269205"><ele>387.1666666666667</ele><time>2026-05-03T14:30:10.999Z</time></trkpt><trkpt lat="40.759553423955666" lon="17.312091454463395"><ele>387.0</ele><time>2026-05-03T14:30:11.999Z</time></trkpt><trkpt lat="40.75953114679997" lon="17.31218631085802"><ele>386.8333333333333</ele><time>2026-05-03T14:30:12.999Z</time></trkpt><trkpt lat="40.75950295290562" lon="17.31228319227609"><ele>386.66666666666663</ele><time>2026-05-03T14:30:13.999Z</time></trkpt><trkpt lat="40.75948053274254" lon="17.312381674810272"><ele>386.5</ele><time>2026-05-03T14:30:14.999Z</time></trkpt><trkpt lat="40.759457617253375" lon="17.31248233728015"><ele>386.3333333333333</ele><time>2026-05-03T14:30:15.999Z</time></trkpt><trkpt lat="40.75943043791785" lon="17.312586353347573"><ele>386.16666666666663</ele><time>2026-05-03T14:30:16.999Z</time></trkpt><trkpt lat="40.7594042388973" lon="17.312687325347223"><ele>386.0</ele><time>2026-05-03T14:30:17.999Z</time></trkpt><trkpt lat="40.75937103483871" lon="17.312792023773852"><ele>385.8333333333333</ele><time>2026-05-03T14:30:18.999Z</time></trkpt><trkpt lat="40.75934722135615" lon="17.31290062990514"><ele>385.66666666666663</ele><time>2026-05-03T14:30:19.999Z</time></trkpt><trkpt lat="40.7593195850301" lon="17.313003135320113"><ele>385.5</ele><time>2026-05-03T14:30:20.999Z</time></trkpt><trkpt lat="40.759294346978194" lon="17.313113282183366"><ele>385.33333333333337</ele><time>2026-05-03T14:30:21.999Z</time></trkpt><trkpt lat="40.75926567185292" lon="17.313216458510837"><ele>385.1666666666667</ele><time>2026-05-03T14:30:22.999Z</time></trkpt><trkpt lat="40.759240652387184" lon="17.313319014193368"><ele>385.0</ele><time>2026-05-03T14:30:23.999Z</time></trkpt><trkpt lat="40.75921387424918" lon="17.313417821616007"><ele>385.00000000000006</ele><time>2026-05-03T14:30:24.999Z</time></trkpt><trkpt lat="40.75918981018892" lon="17.313516598113186"><ele>385.0</ele><time>2026-05-03T14:30:25.999Z</time></trkpt><trkpt lat="40.75916307757549" lon="17.31360953916066"><ele>385.0</ele><time>2026-05-03T14:30:26.999Z</time></trkpt><trkpt lat="40.759136872711785" lon="17.31370435937462"><ele>385.0</ele><time>2026-05-03T14:30:27.999Z</time></trkpt><trkpt lat="40.75911272290536" lon="17.31379215827448"><ele>385.00000000000006</ele><time>2026-05-03T14:30:28.999Z</time></trkpt><trkpt lat="40.75909159723634" lon="17.313877396497958"><ele>385.0</ele><time>2026-05-03T14:30:29.999Z</time></trkpt><trkpt lat="40.759053288534936" lon="17.314015588702382"><ele>384.83333333333337</ele><time>2026-05-03T14:30:31.999Z</time></trkpt><trkpt lat="40.75902334543582" lon="17.314129665726774"><ele>384.6666666666667</ele><time>2026-05-03T14:30:33.999Z</time></trkpt><trkpt lat="40.759000917823634" lon="17.314213873548887"><ele>384.5</ele><time>2026-05-03T14:30:35.999Z</time></trkpt><trkpt lat="40.75896868028033" lon="17.31432957558263"><ele>384.33333333333337</ele><time>2026-05-03T14:30:44Z</time></trkpt><trkpt lat="40.75894666949908" lon="17.314416904870217"><ele>384.1666666666667</ele><time>2026-05-03T14:30:46Z</time></trkpt><trkpt lat="40.75892785252602" lon="17.31449963867934"><ele>384.0</ele><time>2026-05-03T14:30:48Z</time></trkpt><trkpt lat="40.75890459015803" lon="17.31459470435308"><ele>383.99999999999994</ele><time>2026-05-03T14:30:51Z</time></trkpt><trkpt lat="40.758879924601686" lon="17.31469105849883"><ele>384.0</ele><time>2026-05-03T14:30:54Z</time></trkpt><trkpt lat="40.75884758473034" lon="17.314802584453652"><ele>384.0</ele><time>2026-05-03T14:30:57Z</time></trkpt><trkpt lat="40.75882960169826" lon="17.31488722983568"><ele>384.0</ele><time>2026-05-03T14:30:59Z</time></trkpt><trkpt lat="40.75880850298763" lon="17.31497688105544"><ele>384.0</ele><time>2026-05-03T14:31:03Z</time></trkpt><trkpt lat="40.75878459956214" lon="17.31506076662712"><ele>383.99999999999994</ele><time>2026-05-03T14:31:06Z</time></trkpt><trkpt lat="40.75875353385515" lon="17.315135338427712"><ele>384.0</ele><time>2026-05-03T14:31:08Z</time></trkpt><trkpt lat="40.75871627984171" lon="17.315213920622732"><ele>383.8333333333333</ele><time>2026-05-03T14:31:10Z</time></trkpt><trkpt lat="40.75868264689187" lon="17.31528513672007"><ele>383.6666666666667</ele><time>2026-05-03T14:31:12Z</time></trkpt><trkpt lat="40.75862479551122" lon="17.31537164263534"><ele>383.5</ele><time>2026-05-03T14:31:15Z</time></trkpt><trkpt lat="40.75858353560516" lon="17.31545129319345"><ele>383.33333333333337</ele><time>2026-05-03T14:31:20Z</time></trkpt><trkpt lat="40.75865402804621" lon="17.31555456020068"><ele>383.1666666666667</ele><time>2026-05-03T14:31:21Z</time></trkpt><trkpt lat="40.758663759867396" lon="17.315669996613615"><ele>383.0</ele><time>2026-05-03T14:31:24Z</time></trkpt><trkpt lat="40.75863761285536" lon="17.315782792679453"><ele>383.0</ele><time>2026-05-03T14:31:26Z</time></trkpt><trkpt lat="40.75858299389766" lon="17.315901035417333"><ele>383.0</ele><time>2026-05-03T14:31:28Z</time></trkpt><trkpt lat="40.75854641710429" lon="17.316016984409483"><ele>383.0</ele><time>2026-05-03T14:31:30Z</time></trkpt><trkpt lat="40.758518311698616" lon="17.316122755520414"><ele>383.0</ele><time>2026-05-03T14:31:32Z</time></trkpt><trkpt lat="40.75847822404555" lon="17.316284999133103"><ele>383.0</ele><time>2026-05-03T14:31:34Z</time></trkpt><trkpt lat="40.75845471306113" lon="17.31637499085842"><ele>382.6666666666667</ele><time>2026-05-03T14:31:35Z</time></trkpt><trkpt lat="40.758432104397514" lon="17.316457139680427"><ele>382.33333333333337</ele><time>2026-05-03T14:31:36Z</time></trkpt><trkpt lat="40.75838937736981" lon="17.316615836027662"><ele>382.0</ele><time>2026-05-03T14:31:38Z</time></trkpt><trkpt lat="40.758368102504136" lon="17.316699021262153"><ele>381.6666666666667</ele><time>2026-05-03T14:31:39Z</time></trkpt><trkpt lat="40.758345364314124" lon="17.316783632125308"><ele>381.3333333333333</ele><time>2026-05-03T14:31:40Z</time></trkpt><trkpt lat="40.758325364738965" lon="17.31686671623617"><ele>381.0</ele><time>2026-05-03T14:31:41Z</time></trkpt><trkpt lat="40.758305487500785" lon="17.316947207824807"><ele>381.0</ele><time>2026-05-03T14:31:42Z</time></trkpt><trkpt lat="40.758284017604346" lon="17.317025574540907"><ele>381.0</ele><time>2026-05-03T14:31:43Z</time></trkpt><trkpt lat="40.758259753936315" lon="17.317114927604447"><ele>381.0</ele><time>2026-05-03T14:31:44Z</time></trkpt><trkpt lat="40.758231453222436" lon="17.31721072274577"><ele>381.0</ele><time>2026-05-03T14:31:45Z</time></trkpt><trkpt lat="40.75820294735526" lon="17.31731902722704"><ele>381.0</ele><time>2026-05-03T14:31:46Z</time></trkpt><trkpt lat="40.7581707833065" lon="17.317433402870098"><ele>381.0</ele><time>2026-05-03T14:31:47Z</time></trkpt><trkpt lat="40.75814258338606" lon="17.317540511825065"><ele>381.5</ele><time>2026-05-03T14:31:48Z</time></trkpt><trkpt lat="40.75811447799718" lon="17.317644209195464"><ele>382.0</ele><time>2026-05-03T14:31:49Z</time></trkpt><trkpt lat="40.75808885137402" lon="17.317743399669517"><ele>382.5</ele><time>2026-05-03T14:31:50Z</time></trkpt><trkpt lat="40.75806828919266" lon="17.317842997963275"><ele>383.0</ele><time>2026-05-03T14:31:51Z</time></trkpt><trkpt lat="40.75804636316465" lon="17.317942112277848"><ele>383.5</ele><time>2026-05-03T14:31:52Z</time></trkpt><trkpt lat="40.75802506598705" lon="17.318047491126602"><ele>384.0</ele><time>2026-05-03T14:31:53Z</time></trkpt><trkpt lat="40.75798184459763" lon="17.31815375155907"><ele>384.0</ele><time>2026-05-03T14:31:54Z</time></trkpt><trkpt lat="40.757949256944705" lon="17.31828245586659"><ele>384.0</ele><time>2026-05-03T14:31:55Z</time></trkpt><trkpt lat="40.75791243071788" lon="17.31842570900132"><ele>384.0</ele><time>2026-05-03T14:31:56Z</time></trkpt><trkpt lat="40.75787594722844" lon="17.318568267520494"><ele>384.0</ele><time>2026-05-03T14:31:57Z</time></trkpt><trkpt lat="40.757841136433676" lon="17.3187039762773"><ele>384.0</ele><time>2026-05-03T14:31:58Z</time></trkpt><trkpt lat="40.75780868135335" lon="17.318830328470558"><ele>384.0</ele><time>2026-05-03T14:31:59Z</time></trkpt><trkpt lat="40.75777450048981" lon="17.318963399368034"><ele>384.0</ele><time>2026-05-03T14:32:00Z</time></trkpt><trkpt lat="40.757732264279625" lon="17.319127830860715"><ele>384.0</ele><time>2026-05-03T14:32:01Z</time></trkpt><trkpt lat="40.7576915294099" lon="17.319286417428962"><ele>384.0</ele><time>2026-05-03T14:32:01.999Z</time></trkpt><trkpt lat="40.75765327703244" lon="17.319435339302753"><ele>383.25</ele><time>2026-05-03T14:32:02.999Z</time></trkpt><trkpt lat="40.75761757268438" lon="17.319574718890536"><ele>382.5</ele><time>2026-05-03T14:32:03.999Z</time></trkpt><trkpt lat="40.757580402042905" lon="17.31971736807589"><ele>381.75</ele><time>2026-05-03T14:32:04.999Z</time></trkpt><trkpt lat="40.757542492464054" lon="17.319863023780766"><ele>381.0</ele><time>2026-05-03T14:32:05.999Z</time></trkpt><trkpt lat="40.75750387765522" lon="17.320011389115535"><ele>381.0</ele><time>2026-05-03T14:32:06.999Z</time></trkpt><trkpt lat="40.75746631524388" lon="17.320155710941226"><ele>381.0</ele><time>2026-05-03T14:32:07.999Z</time></trkpt><trkpt lat="40.757426251038694" lon="17.320310219747544"><ele>381.0</ele><time>2026-05-03T14:32:08.999Z</time></trkpt><trkpt lat="40.7573825913846" lon="17.32049097733497"><ele>381.0</ele><time>2026-05-03T14:32:09.999Z</time></trkpt><trkpt lat="40.75734356314385" lon="17.320659876305967"><ele>381.20000000000005</ele><time>2026-05-03T14:32:10.999Z</time></trkpt><trkpt lat="40.757320863460905" lon="17.32081637195633"><ele>381.40000000000003</ele><time>2026-05-03T14:32:11.999Z</time></trkpt><trkpt lat="40.75727398476536" lon="17.320931349344935"><ele>381.6</ele><time>2026-05-03T14:32:12.999Z</time></trkpt><trkpt lat="40.75724864875029" lon="17.321033347697007"><ele>381.8</ele><time>2026-05-03T14:32:13.999Z</time></trkpt><trkpt lat="40.75722790379206" lon="17.32111943927171"><ele>382.0</ele><time>2026-05-03T14:32:14.999Z</time></trkpt><trkpt lat="40.75721809956339" lon="17.321225725100277"><ele>382.0</ele><time>2026-05-03T14:32:15.999Z</time></trkpt><trkpt lat="40.7571863586357" lon="17.32131955081735"><ele>382.0</ele><time>2026-05-03T14:32:16.999Z</time></trkpt><trkpt lat="40.75715604699957" lon="17.321406948665665"><ele>382.0</ele><time>2026-05-03T14:32:17.999Z</time></trkpt><trkpt lat="40.75714199469602" lon="17.321504157815227"><ele>382.0</ele><time>2026-05-03T14:32:18.999Z</time></trkpt><trkpt lat="40.757110155983426" lon="17.321586985226453"><ele>382.0</ele><time>2026-05-03T14:32:19.999Z</time></trkpt><trkpt lat="40.757086130800495" lon="17.32168109717381"><ele>382.0</ele><time>2026-05-03T14:32:20.999Z</time></trkpt><trkpt lat="40.75706209344599" lon="17.32177542461267"><ele>382.0</ele><time>2026-05-03T14:32:21.999Z</time></trkpt><trkpt lat="40.75703834004498" lon="17.321869065223755"><ele>382.0</ele><time>2026-05-03T14:32:22.999Z</time></trkpt><trkpt lat="40.75701500114415" lon="17.321962753378457"><ele>382.0</ele><time>2026-05-03T14:32:23.999Z</time></trkpt><trkpt lat="40.75699187180665" lon="17.322055600285907"><ele>382.0</ele><time>2026-05-03T14:32:24.999Z</time></trkpt><trkpt lat="40.7569681923135" lon="17.322150655657158"><ele>382.0</ele><time>2026-05-03T14:32:25.999Z</time></trkpt><trkpt lat="40.756941940971274" lon="17.322248258338657"><ele>382.0</ele><time>2026-05-03T14:32:26.999Z</time></trkpt><trkpt lat="40.75691522095182" lon="17.32234685938771"><ele>382.0</ele><time>2026-05-03T14:32:27.999Z</time></trkpt><trkpt lat="40.756889406988954" lon="17.322442116948693"><ele>382.6</ele><time>2026-05-03T14:32:28.999Z</time></trkpt><trkpt lat="40.756862146979955" lon="17.322542710754167"><ele>383.20000000000005</ele><time>2026-05-03T14:32:29.999Z</time></trkpt><trkpt lat="40.75685029148234" lon="17.322644999648936"><ele>383.8</ele><time>2026-05-03T14:32:30.999Z</time></trkpt><trkpt lat="40.75680899697467" lon="17.322733632968486"><ele>384.4</ele><time>2026-05-03T14:32:31.999Z</time></trkpt><trkpt lat="40.756767066836844" lon="17.322884418266817"><ele>385.0</ele><time>2026-05-03T14:32:33.999Z</time></trkpt><trkpt lat="40.75672495282761" lon="17.32304288700267"><ele>384.8</ele><time>2026-05-03T14:32:35.999Z</time></trkpt><trkpt lat="40.75668324570665" lon="17.3232012458196"><ele>384.6</ele><time>2026-05-03T14:32:37.999Z</time></trkpt><trkpt lat="40.756642324697424" lon="17.323360087771288"><ele>384.4</ele><time>2026-05-03T14:32:39.999Z</time></trkpt><trkpt lat="40.75662081839435" lon="17.323443168409877"><ele>384.2</ele><time>2026-05-03T14:32:40.999Z</time></trkpt><trkpt lat="40.756595496059944" lon="17.323541087596194"><ele>384.0</ele><time>2026-05-03T14:32:41.999Z</time></trkpt><trkpt lat="40.75657005174569" lon="17.323643480450045"><ele>384.0</ele><time>2026-05-03T14:32:42.999Z</time></trkpt><trkpt lat="40.75654322694478" lon="17.32375142864558"><ele>384.0</ele><time>2026-05-03T14:32:44Z</time></trkpt><trkpt lat="40.75651689239251" lon="17.323858233792617"><ele>384.0</ele><time>2026-05-03T14:32:45Z</time></trkpt><trkpt lat="40.75648995914837" lon="17.323967920481525"><ele>384.0</ele><time>2026-05-03T14:32:46Z</time></trkpt><trkpt lat="40.756465107617224" lon="17.324069129307556"><ele>384.0</ele><time>2026-05-03T14:32:47Z</time></trkpt><trkpt lat="40.75644035647203" lon="17.32416992931281"><ele>384.0</ele><time>2026-05-03T14:32:48Z</time></trkpt><trkpt lat="40.75641631153077" lon="17.324267853451506"><ele>383.99999999999994</ele><time>2026-05-03T14:32:49Z</time></trkpt><trkpt lat="40.756390277891875" lon="17.32436628871204"><ele>384.0</ele><time>2026-05-03T14:32:50Z</time></trkpt><trkpt lat="40.7563670890978" lon="17.32445602849816"><ele>384.0</ele><time>2026-05-03T14:32:51Z</time></trkpt><trkpt lat="40.75634397652736" lon="17.324544790612862"><ele>384.0</ele><time>2026-05-03T14:32:52Z</time></trkpt><trkpt lat="40.75632126333392" lon="17.324632018947785"><ele>384.0</ele><time>2026-05-03T14:32:53Z</time></trkpt><trkpt lat="40.75629661494195" lon="17.324726679264842"><ele>383.99999999999994</ele><time>2026-05-03T14:32:54Z</time></trkpt><trkpt lat="40.75629980922949" lon="17.324825420349672"><ele>384.0</ele><time>2026-05-03T14:32:55Z</time></trkpt><trkpt lat="40.75627730890628" lon="17.324917179801545"><ele>385.0</ele><time>2026-05-03T14:32:56Z</time></trkpt><trkpt lat="40.756255056738695" lon="17.325006003729445"><ele>386.0</ele><time>2026-05-03T14:32:57Z</time></trkpt><trkpt lat="40.75623230332089" lon="17.32509565077528"><ele>387.0</ele><time>2026-05-03T14:32:58Z</time></trkpt><trkpt lat="40.75620911390004" lon="17.325179101980197"><ele>388.0</ele><time>2026-05-03T14:32:59Z</time></trkpt><trkpt lat="40.756155464292874" lon="17.325286404759826"><ele>389.0</ele><time>2026-05-03T14:33:01Z</time></trkpt><trkpt lat="40.756125861370435" lon="17.325403769900714"><ele>390.0</ele><time>2026-05-03T14:33:31Z</time></trkpt><trkpt lat="40.75609295903251" lon="17.325530536435345"><ele>390.3333333333333</ele><time>2026-05-03T14:33:33Z</time></trkpt><trkpt lat="40.75606242489134" lon="17.325647214953147"><ele>390.66666666666663</ele><time>2026-05-03T14:33:35Z</time></trkpt><trkpt lat="40.75603301387429" lon="17.32576187920999"><ele>391.0</ele><time>2026-05-03T14:33:37Z</time></trkpt><trkpt lat="40.75599992488426" lon="17.325889923084805"><ele>391.3333333333333</ele><time>2026-05-03T14:33:39Z</time></trkpt><trkpt lat="40.75597306336364" lon="17.325994052342505"><ele>391.66666666666663</ele><time>2026-05-03T14:33:41Z</time></trkpt><trkpt lat="40.755951264395264" lon="17.32607853353329"><ele>392.0</ele><time>2026-05-03T14:33:43Z</time></trkpt><trkpt lat="40.755925797643535" lon="17.326177229098583"><ele>392.0</ele><time>2026-05-03T14:33:45Z</time></trkpt><trkpt lat="40.75585706661635" lon="17.326256055278304"><ele>392.0</ele><time>2026-05-03T14:33:48Z</time></trkpt><trkpt lat="40.75572022346004" lon="17.326224046527958"><ele>392.0</ele><time>2026-05-03T14:33:50Z</time></trkpt><trkpt lat="40.7556487512224" lon="17.32620862193898"><ele>392.0</ele><time>2026-05-03T14:33:51Z</time></trkpt><trkpt lat="40.75557343843284" lon="17.326200097969355"><ele>392.0</ele><time>2026-05-03T14:33:52Z</time></trkpt><trkpt lat="40.755494926941196" lon="17.326193386047105"><ele>391.99999999999994</ele><time>2026-05-03T14:33:53Z</time></trkpt><trkpt lat="40.755415586780096" lon="17.326191652878464"><ele>392.0</ele><time>2026-05-03T14:33:54Z</time></trkpt><trkpt lat="40.755345620441815" lon="17.326183934773233"><ele>392.0</ele><time>2026-05-03T14:33:55Z</time></trkpt><trkpt lat="40.755240657051" lon="17.326191545051934"><ele>392.0</ele><time>2026-05-03T14:33:57Z</time></trkpt><trkpt lat="40.75516886537517" lon="17.326188732671337"><ele>391.99999999999994</ele><time>2026-05-03T14:33:59Z</time></trkpt><trkpt lat="40.7551038342549" lon="17.326193078739987"><ele>392.0</ele><time>2026-05-03T14:34:10.999Z</time></trkpt><trkpt lat="40.75501853500415" lon="17.32618897711118"><ele>391.6</ele><time>2026-05-03T14:34:12.999Z</time></trkpt><trkpt lat="40.7549221095817" lon="17.326178904170522"><ele>391.20000000000005</ele><time>2026-05-03T14:34:14.999Z</time></trkpt><trkpt lat="40.75480451695722" lon="17.32617930122892"><ele>390.8</ele><time>2026-05-03T14:34:16.999Z</time></trkpt><trkpt lat="40.754703479557605" lon="17.326173408398564"><ele>390.4</ele><time>2026-05-03T14:34:18.999Z</time></trkpt><trkpt lat="40.75461603313102" lon="17.326174286093792"><ele>390.0</ele><time>2026-05-03T14:34:20.999Z</time></trkpt><trkpt lat="40.754518058555654" lon="17.32615708938697"><ele>390.0</ele><time>2026-05-03T14:34:22.999Z</time></trkpt><trkpt lat="40.75439587544163" lon="17.326170518762222"><ele>390.0</ele><time>2026-05-03T14:34:24.999Z</time></trkpt><trkpt lat="40.75432336598662" lon="17.32617658432415"><ele>390.0</ele><time>2026-05-03T14:34:25.999Z</time></trkpt><trkpt lat="40.75424658931183" lon="17.326185229480988"><ele>390.0</ele><time>2026-05-03T14:34:26.999Z</time></trkpt><trkpt lat="40.75416637530227" lon="17.32619354434017"><ele>390.0</ele><time>2026-05-03T14:34:27.999Z</time></trkpt><trkpt lat="40.75408724109244" lon="17.326209735205982"><ele>390.0</ele><time>2026-05-03T14:34:28.999Z</time></trkpt><trkpt lat="40.754016211005116" lon="17.326226548435514"><ele>389.85714285714283</ele><time>2026-05-03T14:34:29.999Z</time></trkpt><trkpt lat="40.753951392477205" lon="17.326241157170678"><ele>389.71428571428567</ele><time>2026-05-03T14:34:30.999Z</time></trkpt><trkpt lat="40.75388462922299" lon="17.326262513314823"><ele>389.57142857142856</ele><time>2026-05-03T14:34:31.999Z</time></trkpt><trkpt lat="40.753824331204804" lon="17.326292750528275"><ele>389.42857142857144</ele><time>2026-05-03T14:34:32.999Z</time></trkpt><trkpt lat="40.753771754175844" lon="17.326340687208397"><ele>389.2857142857143</ele><time>2026-05-03T14:34:33.999Z</time></trkpt><trkpt lat="40.753715562" lon="17.32638482627768"><ele>389.14285714285717</ele><time>2026-05-03T14:34:34.999Z</time></trkpt><trkpt lat="40.75365755711465" lon="17.326423168562396"><ele>389.0</ele><time>2026-05-03T14:34:35.999Z</time></trkpt><trkpt lat="40.75359673765515" lon="17.326463053849082"><ele>388.99999999999994</ele><time>2026-05-03T14:34:36.999Z</time></trkpt><trkpt lat="40.753493552896515" lon="17.326564035614528"><ele>389.0</ele><time>2026-05-03T14:34:38.999Z</time></trkpt><trkpt lat="40.75342932897835" lon="17.326600850873167"><ele>389.0</ele><time>2026-05-03T14:34:39.999Z</time></trkpt><trkpt lat="40.75336957399356" lon="17.326641627072206"><ele>389.0</ele><time>2026-05-03T14:34:40.999Z</time></trkpt><trkpt lat="40.75330982103558" lon="17.326671248308443"><ele>388.99999999999994</ele><time>2026-05-03T14:34:41.999Z</time></trkpt><trkpt lat="40.753252649210026" lon="17.32671156202473"><ele>389.0</ele><time>2026-05-03T14:34:42.999Z</time></trkpt><trkpt lat="40.75318356692899" lon="17.326759379932216"><ele>389.0</ele><time>2026-05-03T14:34:43.999Z</time></trkpt><trkpt lat="40.75310488036087" lon="17.326826016909298"><ele>389.0</ele><time>2026-05-03T14:34:44.999Z</time></trkpt><trkpt lat="40.753004644237855" lon="17.3268822542189"><ele>389.0</ele><time>2026-05-03T14:34:45.999Z</time></trkpt><trkpt lat="40.75289868573168" lon="17.32696165013014"><ele>389.0</ele><time>2026-05-03T14:34:46.999Z</time></trkpt><trkpt lat="40.75279083576177" lon="17.32704246332061"><ele>389.0</ele><time>2026-05-03T14:34:47.999Z</time></trkpt><trkpt lat="40.752668674117494" lon="17.32713400041856"><ele>389.5</ele><time>2026-05-03T14:34:48.999Z</time></trkpt><trkpt lat="40.75255197614644" lon="17.327221443518837"><ele>390.0</ele><time>2026-05-03T14:34:50Z</time></trkpt><trkpt lat="40.752440095299505" lon="17.327305277094425"><ele>390.5</ele><time>2026-05-03T14:34:51Z</time></trkpt><trkpt lat="40.752335993040866" lon="17.32738418813677"><ele>391.0</ele><time>2026-05-03T14:34:52Z</time></trkpt><trkpt lat="40.75223336497922" lon="17.327462257936936"><ele>391.0</ele><time>2026-05-03T14:34:53Z</time></trkpt><trkpt lat="40.752130090726645" lon="17.32754128424354"><ele>391.0</ele><time>2026-05-03T14:34:54Z</time></trkpt><trkpt lat="40.75201807043608" lon="17.327629230089244"><ele>391.0</ele><time>2026-05-03T14:34:55Z</time></trkpt><trkpt lat="40.75188621046665" lon="17.327732751838262"><ele>391.0</ele><time>2026-05-03T14:34:56Z</time></trkpt><trkpt lat="40.75174346158251" lon="17.327859612899434"><ele>388.6666666666667</ele><time>2026-05-03T14:34:57Z</time></trkpt><trkpt lat="40.751583492085096" lon="17.32797054577332"><ele>386.33333333333337</ele><time>2026-05-03T14:34:58Z</time></trkpt><trkpt lat="40.75142678556546" lon="17.328094573893868"><ele>384.0</ele><time>2026-05-03T14:34:59Z</time></trkpt><trkpt lat="40.75126299603288" lon="17.32822224980779"><ele>384.0</ele><time>2026-05-03T14:35:00Z</time></trkpt><trkpt lat="40.75109592953221" lon="17.328357332443492"><ele>384.0</ele><time>2026-05-03T14:35:01Z</time></trkpt><trkpt lat="40.75091639039285" lon="17.3284966469596"><ele>384.0</ele><time>2026-05-03T14:35:02Z</time></trkpt><trkpt lat="40.75073224950689" lon="17.328634499004025"><ele>379.3333333333333</ele><time>2026-05-03T14:35:03Z</time></trkpt><trkpt lat="40.75055517511302" lon="17.328761645425946"><ele>374.66666666666663</ele><time>2026-05-03T14:35:04Z</time></trkpt><trkpt lat="40.75038303270289" lon="17.32887822132416"><ele>370.0</ele><time>2026-05-03T14:35:05Z</time></trkpt><trkpt lat="40.75021570055968" lon="17.32898105997711"><ele>368.0</ele><time>2026-05-03T14:35:06Z</time></trkpt><trkpt lat="40.750049580763594" lon="17.32907432101826"><ele>366.0</ele><time>2026-05-03T14:35:07Z</time></trkpt><trkpt lat="40.74989000335438" lon="17.32915528121189"><ele>364.0</ele><time>2026-05-03T14:35:08Z</time></trkpt><trkpt lat="40.74973190784289" lon="17.32922793519103"><ele>364.0</ele><time>2026-05-03T14:35:09Z</time></trkpt><trkpt lat="40.74958803861406" lon="17.32928722186109"><ele>364.0</ele><time>2026-05-03T14:35:10Z</time></trkpt><trkpt lat="40.749473951818935" lon="17.329324402548295"><ele>364.0</ele><time>2026-05-03T14:35:11Z</time></trkpt><trkpt lat="40.749394177623024" lon="17.329347938717348"><ele>364.0</ele><time>2026-05-03T14:35:12Z</time></trkpt><trkpt lat="40.74933095018896" lon="17.329348991712305"><ele>364.0</ele><time>2026-05-03T14:35:13Z</time></trkpt><trkpt lat="40.74926592029069" lon="17.32932115310527"><ele>363.57142857142856</ele><time>2026-05-03T14:35:14Z</time></trkpt><trkpt lat="40.74920260109243" lon="17.3293150783314"><ele>363.1428571428571</ele><time>2026-05-03T14:35:15Z</time></trkpt><trkpt lat="40.74914479295326" lon="17.32934963531938"><ele>362.7142857142857</ele><time>2026-05-03T14:35:16Z</time></trkpt><trkpt lat="40.74909390033664" lon="17.32940493197216"><ele>362.2857142857143</ele><time>2026-05-03T14:35:17Z</time></trkpt><trkpt lat="40.74904444240977" lon="17.32945983025977"><ele>361.85714285714283</ele><time>2026-05-03T14:35:18Z</time></trkpt><trkpt lat="40.748977295315136" lon="17.32951504008824"><ele>361.42857142857144</ele><time>2026-05-03T14:35:19Z</time></trkpt><trkpt lat="40.74889652500857" lon="17.32957004753562"><ele>361.0</ele><time>2026-05-03T14:35:20Z</time></trkpt><trkpt lat="40.74881286415419" lon="17.329610451964886"><ele>361.0</ele><time>2026-05-03T14:35:21Z</time></trkpt><trkpt lat="40.748741522257916" lon="17.329641619248466"><ele>361.0</ele><time>2026-05-03T14:35:22Z</time></trkpt><trkpt lat="40.74863424903302" lon="17.329677539636798"><ele>361.0</ele><time>2026-05-03T14:35:24Z</time></trkpt><trkpt lat="40.74852944372496" lon="17.329715670884955"><ele>361.0</ele><time>2026-05-03T14:35:26Z</time></trkpt><trkpt lat="40.748426271427654" lon="17.3297624344366"><ele>361.0</ele><time>2026-05-03T14:35:28Z</time></trkpt><trkpt lat="40.748311939238874" lon="17.32981565588918"><ele>360.4</ele><time>2026-05-03T14:35:30Z</time></trkpt><trkpt lat="40.748196903661686" lon="17.329872066826088"><ele>359.8</ele><time>2026-05-03T14:35:32Z</time></trkpt><trkpt lat="40.748103405726255" lon="17.329907924106205"><ele>359.2</ele><time>2026-05-03T14:35:34Z</time></trkpt><trkpt lat="40.7479829311841" lon="17.329961779578454"><ele>358.59999999999997</ele><time>2026-05-03T14:35:36Z</time></trkpt><trkpt lat="40.74790525592949" lon="17.329993345286756"><ele>358.0</ele><time>2026-05-03T14:35:37Z</time></trkpt><trkpt lat="40.74782253598529" lon="17.330026534801117"><ele>358.0</ele><time>2026-05-03T14:35:38Z</time></trkpt><trkpt lat="40.74773390948555" lon="17.330062428899346"><ele>358.0</ele><time>2026-05-03T14:35:39Z</time></trkpt><trkpt lat="40.747639279846304" lon="17.330103345701534"><ele>358.0</ele><time>2026-05-03T14:35:40Z</time></trkpt><trkpt lat="40.747520809165714" lon="17.33015480676817"><ele>358.0</ele><time>2026-05-03T14:35:41Z</time></trkpt><trkpt lat="40.747378282758234" lon="17.33021308301015"><ele>358.3333333333333</ele><time>2026-05-03T14:35:42Z</time></trkpt><trkpt lat="40.74721550406662" lon="17.33028229112222"><ele>358.6666666666667</ele><time>2026-05-03T14:35:43Z</time></trkpt><trkpt lat="40.74705347780779" lon="17.330351541774082"><ele>359.0</ele><time>2026-05-03T14:35:44Z</time></trkpt><trkpt lat="40.746898020623064" lon="17.330416400286136"><ele>359.33333333333337</ele><time>2026-05-03T14:35:45Z</time></trkpt><trkpt lat="40.74672480185108" lon="17.33048974753837"><ele>359.6666666666667</ele><time>2026-05-03T14:35:46Z</time></trkpt><trkpt lat="40.74653752032975" lon="17.330565642126263"><ele>360.0</ele><time>2026-05-03T14:35:47Z</time></trkpt><trkpt lat="40.74634637459547" lon="17.330642803443567"><ele>360.0</ele><time>2026-05-03T14:35:48Z</time></trkpt><trkpt lat="40.746174952797205" lon="17.33071677708519"><ele>360.0</ele><time>2026-05-03T14:35:49Z</time></trkpt><trkpt lat="40.74599732658131" lon="17.330785063877816"><ele>360.0</ele><time>2026-05-03T14:35:50Z</time></trkpt><trkpt lat="40.74581154304224" lon="17.330869879627944"><ele>362.0</ele><time>2026-05-03T14:35:51Z</time></trkpt><trkpt lat="40.74560777902308" lon="17.33095174903293"><ele>364.0</ele><time>2026-05-03T14:35:52Z</time></trkpt><trkpt lat="40.745401647971015" lon="17.331031987354514"><ele>366.0</ele><time>2026-05-03T14:35:53Z</time></trkpt><trkpt lat="40.74520099989549" lon="17.331112260835695"><ele>367.3333333333333</ele><time>2026-05-03T14:35:54Z</time></trkpt><trkpt lat="40.74500388079942" lon="17.331191713416782"><ele>368.66666666666663</ele><time>2026-05-03T14:35:55Z</time></trkpt><trkpt lat="40.74480770553664" lon="17.331267452842315"><ele>370.0</ele><time>2026-05-03T14:35:56Z</time></trkpt><trkpt lat="40.74461326766945" lon="17.331342632719753"><ele>369.0</ele><time>2026-05-03T14:35:57Z</time></trkpt><trkpt lat="40.7444106797697" lon="17.331435363311105"><ele>368.0</ele><time>2026-05-03T14:35:58Z</time></trkpt><trkpt lat="40.74420062957822" lon="17.331521346040102"><ele>367.0</ele><time>2026-05-03T14:35:59Z</time></trkpt><trkpt lat="40.74399550201218" lon="17.331600927624564"><ele>367.0</ele><time>2026-05-03T14:36:00Z</time></trkpt><trkpt lat="40.74379064321221" lon="17.331680649452423"><ele>367.0</ele><time>2026-05-03T14:36:01Z</time></trkpt><trkpt lat="40.74358906280361" lon="17.33176294983026"><ele>367.0</ele><time>2026-05-03T14:36:02Z</time></trkpt><trkpt lat="40.74339280023194" lon="17.331844197281708"><ele>368.0</ele><time>2026-05-03T14:36:03Z</time></trkpt><trkpt lat="40.743207694256284" lon="17.331919652228546"><ele>369.0</ele><time>2026-05-03T14:36:04Z</time></trkpt><trkpt lat="40.74303011772294" lon="17.33199342101686"><ele>370.0</ele><time>2026-05-03T14:36:05Z</time></trkpt><trkpt lat="40.742857707961925" lon="17.332055807447528"><ele>370.0</ele><time>2026-05-03T14:36:05.999Z</time></trkpt><trkpt lat="40.742685834905444" lon="17.332122861382157"><ele>370.0</ele><time>2026-05-03T14:36:06.999Z</time></trkpt><trkpt lat="40.74251993691939" lon="17.33219190255181"><ele>370.0</ele><time>2026-05-03T14:36:07.999Z</time></trkpt><trkpt lat="40.742347044489016" lon="17.33226499429227"><ele>370.3333333333333</ele><time>2026-05-03T14:36:08.999Z</time></trkpt><trkpt lat="40.74216040672305" lon="17.332333014517108"><ele>370.6666666666667</ele><time>2026-05-03T14:36:09.999Z</time></trkpt><trkpt lat="40.74197773556075" lon="17.332402403310745"><ele>371.0</ele><time>2026-05-03T14:36:10.999Z</time></trkpt><trkpt lat="40.741793880544805" lon="17.332438684365638"><ele>370.0</ele><time>2026-05-03T14:36:11.999Z</time></trkpt><trkpt lat="40.74159148516842" lon="17.33244965997854"><ele>369.0</ele><time>2026-05-03T14:36:12.999Z</time></trkpt><trkpt lat="40.74136164660608" lon="17.33244389051689"><ele>368.0</ele><time>2026-05-03T14:36:13.999Z</time></trkpt><trkpt lat="40.74112198412689" lon="17.332444992085374"><ele>366.0</ele><time>2026-05-03T14:36:14.999Z</time></trkpt><trkpt lat="40.74088268920163" lon="17.332457724045405"><ele>364.0</ele><time>2026-05-03T14:36:15.999Z</time></trkpt><trkpt lat="40.740637080334444" lon="17.33246980797025"><ele>364.0</ele><time>2026-05-03T14:36:16.999Z</time></trkpt><trkpt lat="40.740388369026256" lon="17.33247546397992"><ele>364.0</ele><time>2026-05-03T14:36:17.999Z</time></trkpt><trkpt lat="40.74015190361033" lon="17.332483522856123"><ele>363.0</ele><time>2026-05-03T14:36:18.999Z</time></trkpt><trkpt lat="40.73993088831052" lon="17.332485902244276"><ele>362.0</ele><time>2026-05-03T14:36:19.999Z</time></trkpt><trkpt lat="40.73971861587265" lon="17.332488909358585"><ele>361.0</ele><time>2026-05-03T14:36:20.999Z</time></trkpt><trkpt lat="40.739517140587864" lon="17.33248993278325"><ele>359.3333333333333</ele><time>2026-05-03T14:36:21.999Z</time></trkpt><trkpt lat="40.73931813557652" lon="17.33248881715027"><ele>357.6666666666667</ele><time>2026-05-03T14:36:22.999Z</time></trkpt><trkpt lat="40.739118976771884" lon="17.33248386279201"><ele>356.0</ele><time>2026-05-03T14:36:23.999Z</time></trkpt><trkpt lat="40.73892251249064" lon="17.332489075941304"><ele>356.0</ele><time>2026-05-03T14:36:24.999Z</time></trkpt><trkpt lat="40.73871345148922" lon="17.33249420410835"><ele>356.0</ele><time>2026-05-03T14:36:25.999Z</time></trkpt><trkpt lat="40.738488593551466" lon="17.332496122142604"><ele>356.0</ele><time>2026-05-03T14:36:26.999Z</time></trkpt><trkpt lat="40.738259703419764" lon="17.33250210530989"><ele>355.0</ele><time>2026-05-03T14:36:27.999Z</time></trkpt><trkpt lat="40.73803707018232" lon="17.3324997793635"><ele>354.0</ele><time>2026-05-03T14:36:28.999Z</time></trkpt><trkpt lat="40.73782507345706" lon="17.332501696999017"><ele>353.0</ele><time>2026-05-03T14:36:29.999Z</time></trkpt><trkpt lat="40.73762546181339" lon="17.332508220857616"><ele>351.6666666666667</ele><time>2026-05-03T14:36:30.999Z</time></trkpt><trkpt lat="40.73744080959382" lon="17.332512427106902"><ele>350.3333333333333</ele><time>2026-05-03T14:36:31.999Z</time></trkpt><trkpt lat="40.73727703272294" lon="17.332508890137206"><ele>349.0</ele><time>2026-05-03T14:36:32.999Z</time></trkpt><trkpt lat="40.7371355423445" lon="17.332513157625566"><ele>349.0</ele><time>2026-05-03T14:36:33.999Z</time></trkpt><trkpt lat="40.736998765381585" lon="17.332517743727085"><ele>349.0</ele><time>2026-05-03T14:36:34.999Z</time></trkpt><trkpt lat="40.73687136563663" lon="17.332517430041037"><ele>349.0</ele><time>2026-05-03T14:36:35.999Z</time></trkpt><trkpt lat="40.73676027752402" lon="17.332518085727624"><ele>349.0</ele><time>2026-05-03T14:36:36.999Z</time></trkpt><trkpt lat="40.73665724029143" lon="17.332515899345864"><ele>348.6</ele><time>2026-05-03T14:36:37.999Z</time></trkpt><trkpt lat="40.73656054426724" lon="17.33252108072674"><ele>348.2</ele><time>2026-05-03T14:36:38.999Z</time></trkpt><trkpt lat="40.736462455915444" lon="17.332522750963353"><ele>347.8</ele><time>2026-05-03T14:36:39.999Z</time></trkpt><trkpt lat="40.73636667861913" lon="17.332523149396646"><ele>347.40000000000003</ele><time>2026-05-03T14:36:40.999Z</time></trkpt><trkpt lat="40.73627236036494" lon="17.33252277908828"><ele>347.0</ele><time>2026-05-03T14:36:41.999Z</time></trkpt><trkpt lat="40.736181938508025" lon="17.332517624498813"><ele>347.0</ele><time>2026-05-03T14:36:42.999Z</time></trkpt><trkpt lat="40.73609811980288" lon="17.332489561235995"><ele>347.0</ele><time>2026-05-03T14:36:43.999Z</time></trkpt><trkpt lat="40.73602782190857" lon="17.33243320963671"><ele>347.0</ele><time>2026-05-03T14:36:44.999Z</time></trkpt><trkpt lat="40.73597286235412" lon="17.332371087775392"><ele>347.0</ele><time>2026-05-03T14:36:45.999Z</time></trkpt><trkpt lat="40.73591481606977" lon="17.332331436192565"><ele>347.0</ele><time>2026-05-03T14:36:46.999Z</time></trkpt><trkpt lat="40.73584797917231" lon="17.332324387706905"><ele>347.0</ele><time>2026-05-03T14:36:47.999Z</time></trkpt><trkpt lat="40.735782989755" lon="17.332352156051265"><ele>347.0</ele><time>2026-05-03T14:36:48.999Z</time></trkpt><trkpt lat="40.73572477907942" lon="17.332391966606234"><ele>347.0</ele><time>2026-05-03T14:36:49.999Z</time></trkpt><trkpt lat="40.735667539456045" lon="17.332451852489733"><ele>347.0</ele><time>2026-05-03T14:36:50.999Z</time></trkpt><trkpt lat="40.73558421801486" lon="17.332515885707153"><ele>347.0</ele><time>2026-05-03T14:36:51.999Z</time></trkpt><trkpt lat="40.73548318593572" lon="17.332533403528586"><ele>347.0</ele><time>2026-05-03T14:36:52.999Z</time></trkpt><trkpt lat="40.735359949758916" lon="17.332535284371243"><ele>347.0</ele><time>2026-05-03T14:36:53.999Z</time></trkpt><trkpt lat="40.7352168401406" lon="17.332532991188064"><ele>347.0</ele><time>2026-05-03T14:36:54.999Z</time></trkpt><trkpt lat="40.73506660885552" lon="17.332531816536886"><ele>347.0</ele><time>2026-05-03T14:36:56Z</time></trkpt><trkpt lat="40.73490783769848" lon="17.33253363500721"><ele>347.0</ele><time>2026-05-03T14:36:57Z</time></trkpt><trkpt lat="40.734733073487014" lon="17.332532484473543"><ele>347.0</ele><time>2026-05-03T14:36:58Z</time></trkpt><trkpt lat="40.734530445657704" lon="17.332532453300022"><ele>347.0</ele><time>2026-05-03T14:36:59Z</time></trkpt><trkpt lat="40.73430665360235" lon="17.332535385979288"><ele>347.0</ele><time>2026-05-03T14:37:00Z</time></trkpt><trkpt lat="40.734078872219264" lon="17.3325461825403"><ele>348.5</ele><time>2026-05-03T14:37:01Z</time></trkpt><trkpt lat="40.73383139450736" lon="17.332561091496885"><ele>350.0</ele><time>2026-05-03T14:37:02Z</time></trkpt><trkpt lat="40.73356106944496" lon="17.332543832022292"><ele>351.0</ele><time>2026-05-03T14:37:03Z</time></trkpt><trkpt lat="40.73327474821502" lon="17.3325477161152"><ele>352.0</ele><time>2026-05-03T14:37:04Z</time></trkpt><trkpt lat="40.73299714555072" lon="17.332550579653127"><ele>352.0</ele><time>2026-05-03T14:37:05Z</time></trkpt><trkpt lat="40.73273063557736" lon="17.332569904793242"><ele>352.0</ele><time>2026-05-03T14:37:06Z</time></trkpt><trkpt lat="40.73248163120585" lon="17.332569219301366"><ele>352.5</ele><time>2026-05-03T14:37:07Z</time></trkpt><trkpt lat="40.732233612761995" lon="17.332569172813603"><ele>353.0</ele><time>2026-05-03T14:37:08Z</time></trkpt><trkpt lat="40.73198076422329" lon="17.332567650500327"><ele>352.5</ele><time>2026-05-03T14:37:09Z</time></trkpt><trkpt lat="40.7317242886377" lon="17.332571624562522"><ele>352.0</ele><time>2026-05-03T14:37:10Z</time></trkpt><trkpt lat="40.73146520913071" lon="17.33257396203437"><ele>352.0</ele><time>2026-05-03T14:37:11Z</time></trkpt><trkpt lat="40.73120239524191" lon="17.332578234379255"><ele>352.0</ele><time>2026-05-03T14:37:12Z</time></trkpt><trkpt lat="40.73093519665808" lon="17.332579781094797"><ele>352.0</ele><time>2026-05-03T14:37:13Z</time></trkpt><trkpt lat="40.73068295626902" lon="17.332580805270023"><ele>352.0</ele><time>2026-05-03T14:37:14Z</time></trkpt><trkpt lat="40.730439002233" lon="17.33258008990071"><ele>355.5</ele><time>2026-05-03T14:37:15Z</time></trkpt><trkpt lat="40.73020114176602" lon="17.332584111031682"><ele>359.0</ele><time>2026-05-03T14:37:16Z</time></trkpt><trkpt lat="40.72997014381969" lon="17.332586910178676"><ele>359.0</ele><time>2026-05-03T14:37:17Z</time></trkpt><trkpt lat="40.7297475281142" lon="17.33259293340277"><ele>359.0</ele><time>2026-05-03T14:37:18Z</time></trkpt><trkpt lat="40.729534636699505" lon="17.33259697613699"><ele>359.0</ele><time>2026-05-03T14:37:19Z</time></trkpt><trkpt lat="40.72932630211721" lon="17.332596552554936"><ele>358.0</ele><time>2026-05-03T14:37:20Z</time></trkpt><trkpt lat="40.729108716566515" lon="17.33260185903137"><ele>357.0</ele><time>2026-05-03T14:37:21Z</time></trkpt><trkpt lat="40.72887656017842" lon="17.332608989813963"><ele>357.0</ele><time>2026-05-03T14:37:22Z</time></trkpt><trkpt lat="40.728633481056086" lon="17.332615374097724"><ele>357.0</ele><time>2026-05-03T14:37:23Z</time></trkpt><trkpt lat="40.72838172648149" lon="17.332615591883247"><ele>355.5</ele><time>2026-05-03T14:37:24Z</time></trkpt><trkpt lat="40.728118606842564" lon="17.33261682377381"><ele>354.0</ele><time>2026-05-03T14:37:25Z</time></trkpt><trkpt lat="40.72784966551097" lon="17.33261953366602"><ele>353.5</ele><time>2026-05-03T14:37:26Z</time></trkpt><trkpt lat="40.727593845979555" lon="17.332620190261096"><ele>353.0</ele><time>2026-05-03T14:37:27Z</time></trkpt><trkpt lat="40.72735004009906" lon="17.33262935309594"><ele>353.0</ele><time>2026-05-03T14:37:28Z</time></trkpt><trkpt lat="40.727120745648044" lon="17.332612390642275"><ele>353.0</ele><time>2026-05-03T14:37:29Z</time></trkpt><trkpt lat="40.726904085017345" lon="17.33263119766547"><ele>353.0</ele><time>2026-05-03T14:37:30Z</time></trkpt><trkpt lat="40.726695258345124" lon="17.332628330082137"><ele>353.6666666666667</ele><time>2026-05-03T14:37:31Z</time></trkpt><trkpt lat="40.72648373345064" lon="17.332626204680082"><ele>354.3333333333333</ele><time>2026-05-03T14:37:32Z</time></trkpt><trkpt lat="40.72626268664754" lon="17.332627038107358"><ele>355.0</ele><time>2026-05-03T14:37:33Z</time></trkpt><trkpt lat="40.72603808126569" lon="17.33262842437268"><ele>355.0</ele><time>2026-05-03T14:37:34Z</time></trkpt><trkpt lat="40.72582006609459" lon="17.332636544674433"><ele>355.0</ele><time>2026-05-03T14:37:35Z</time></trkpt><trkpt lat="40.72560527703609" lon="17.332640132837927"><ele>355.0</ele><time>2026-05-03T14:37:36Z</time></trkpt><trkpt lat="40.72539940973361" lon="17.332644130556588"><ele>355.0</ele><time>2026-05-03T14:37:37Z</time></trkpt><trkpt lat="40.72520659690845" lon="17.332638050801656"><ele>355.0</ele><time>2026-05-03T14:37:38Z</time></trkpt><trkpt lat="40.72501765177431" lon="17.33263667980732"><ele>355.0</ele><time>2026-05-03T14:37:39Z</time></trkpt><trkpt lat="40.72482536699106" lon="17.332638290733843"><ele>355.0</ele><time>2026-05-03T14:37:40Z</time></trkpt><trkpt lat="40.72461467268633" lon="17.33264732111208"><ele>355.0</ele><time>2026-05-03T14:37:41Z</time></trkpt><trkpt lat="40.72440074126317" lon="17.332661320163133"><ele>355.0</ele><time>2026-05-03T14:37:42Z</time></trkpt><trkpt lat="40.72418115059638" lon="17.332666525165777"><ele>355.3333333333333</ele><time>2026-05-03T14:37:43Z</time></trkpt><trkpt lat="40.72396103951653" lon="17.33266860329007"><ele>355.6666666666667</ele><time>2026-05-03T14:37:44Z</time></trkpt><trkpt lat="40.72375553568614" lon="17.33267203886758"><ele>356.0</ele><time>2026-05-03T14:37:45Z</time></trkpt><trkpt lat="40.72355406653702" lon="17.332667494122425"><ele>357.0</ele><time>2026-05-03T14:37:46Z</time></trkpt><trkpt lat="40.72336125484666" lon="17.332660940047695"><ele>358.0</ele><time>2026-05-03T14:37:47Z</time></trkpt><trkpt lat="40.72317897763087" lon="17.33265749891059"><ele>359.0</ele><time>2026-05-03T14:37:48Z</time></trkpt><trkpt lat="40.723032419715295" lon="17.332659912633314"><ele>359.0</ele><time>2026-05-03T14:37:49Z</time></trkpt><trkpt lat="40.722869026295434" lon="17.332661327437876"><ele>359.0</ele><time>2026-05-03T14:37:50Z</time></trkpt><trkpt lat="40.72269876745428" lon="17.33266443241132"><ele>359.0</ele><time>2026-05-03T14:37:51Z</time></trkpt><trkpt lat="40.72252027412645" lon="17.33266618363099"><ele>358.6666666666667</ele><time>2026-05-03T14:37:52Z</time></trkpt><trkpt lat="40.72236592951118" lon="17.33267426818692"><ele>358.3333333333333</ele><time>2026-05-03T14:37:53Z</time></trkpt><trkpt lat="40.7222144100151" lon="17.332671682587065"><ele>358.0</ele><time>2026-05-03T14:37:54Z</time></trkpt><trkpt lat="40.72206598889536" lon="17.332672830166693"><ele>358.0</ele><time>2026-05-03T14:37:55Z</time></trkpt><trkpt lat="40.72191252772214" lon="17.332674339180674"><ele>358.0</ele><time>2026-05-03T14:37:56Z</time></trkpt><trkpt lat="40.72175804795166" lon="17.332683351154657"><ele>358.0</ele><time>2026-05-03T14:37:57Z</time></trkpt><trkpt lat="40.72161094128353" lon="17.33268320064519"><ele>357.25</ele><time>2026-05-03T14:37:58Z</time></trkpt><trkpt lat="40.721473336465955" lon="17.332685365384812"><ele>356.5</ele><time>2026-05-03T14:37:59Z</time></trkpt><trkpt lat="40.72133595098151" lon="17.33268276857266"><ele>355.75</ele><time>2026-05-03T14:38:00Z</time></trkpt><trkpt lat="40.72120136303093" lon="17.332684755542278"><ele>355.0</ele><time>2026-05-03T14:38:01Z</time></trkpt><trkpt lat="40.721065418387454" lon="17.332688895405195"><ele>354.75</ele><time>2026-05-03T14:38:02Z</time></trkpt><trkpt lat="40.72093068148058" lon="17.332687999002857"><ele>354.5</ele><time>2026-05-03T14:38:03Z</time></trkpt><trkpt lat="40.72078835899534" lon="17.332685822602325"><ele>354.25</ele><time>2026-05-03T14:38:04Z</time></trkpt><trkpt lat="40.72064408432596" lon="17.33268833656394"><ele>354.0</ele><time>2026-05-03T14:38:05Z</time></trkpt><trkpt lat="40.72049584850545" lon="17.332686839245717"><ele>354.0</ele><time>2026-05-03T14:38:06Z</time></trkpt><trkpt lat="40.720346533187424" lon="17.332688542818968"><ele>354.0</ele><time>2026-05-03T14:38:07Z</time></trkpt><trkpt lat="40.72019589624515" lon="17.33268783201029"><ele>354.0</ele><time>2026-05-03T14:38:08Z</time></trkpt><trkpt lat="40.720038965868866" lon="17.33269143257203"><ele>353.0</ele><time>2026-05-03T14:38:09Z</time></trkpt><trkpt lat="40.71987283106385" lon="17.33269765536854"><ele>352.0</ele><time>2026-05-03T14:38:10Z</time></trkpt><trkpt lat="40.71970209967281" lon="17.33270337274736"><ele>351.0</ele><time>2026-05-03T14:38:11Z</time></trkpt><trkpt lat="40.719529358838976" lon="17.33270931427975"><ele>351.3333333333333</ele><time>2026-05-03T14:38:12Z</time></trkpt><trkpt lat="40.7193606293062" lon="17.332712853464226"><ele>351.66666666666663</ele><time>2026-05-03T14:38:13Z</time></trkpt><trkpt lat="40.719199817261746" lon="17.33271128149474"><ele>352.0</ele><time>2026-05-03T14:38:14Z</time></trkpt><trkpt lat="40.71904221717183" lon="17.33271006000437"><ele>352.0</ele><time>2026-05-03T14:38:15Z</time></trkpt><trkpt lat="40.71889723199408" lon="17.33270935853522"><ele>352.0</ele><time>2026-05-03T14:38:16Z</time></trkpt><trkpt lat="40.718755219025155" lon="17.332708389851238"><ele>352.0</ele><time>2026-05-03T14:38:17Z</time></trkpt><trkpt lat="40.718620585762416" lon="17.33270817027584"><ele>352.0</ele><time>2026-05-03T14:38:18Z</time></trkpt><trkpt lat="40.71848949488863" lon="17.332712137678907"><ele>352.20000000000005</ele><time>2026-05-03T14:38:19Z</time></trkpt><trkpt lat="40.71836563261754" lon="17.33271263420843"><ele>352.4</ele><time>2026-05-03T14:38:19.999Z</time></trkpt><trkpt lat="40.71825569940113" lon="17.332719118475516"><ele>352.6</ele><time>2026-05-03T14:38:20.999Z</time></trkpt><trkpt lat="40.71814763845622" lon="17.332730491598692"><ele>352.79999999999995</ele><time>2026-05-03T14:38:21.999Z</time></trkpt><trkpt lat="40.71804499446541" lon="17.332735663646783"><ele>353.0</ele><time>2026-05-03T14:38:22.999Z</time></trkpt><trkpt lat="40.71794781845456" lon="17.33273207939794"><ele>353.0</ele><time>2026-05-03T14:38:23.999Z</time></trkpt><trkpt lat="40.71786328115906" lon="17.332729777086893"><ele>353.0</ele><time>2026-05-03T14:38:24.999Z</time></trkpt><trkpt lat="40.717782823036885" lon="17.332722219392004"><ele>353.0</ele><time>2026-05-03T14:38:25.999Z</time></trkpt><trkpt lat="40.71771386267531" lon="17.33271537239477"><ele>353.0</ele><time>2026-05-03T14:38:26.999Z</time></trkpt><trkpt lat="40.71761284925274" lon="17.332672961841713"><ele>353.0</ele><time>2026-05-03T14:38:28.999Z</time></trkpt><trkpt lat="40.71750467953822" lon="17.332631975076367"><ele>353.25</ele><time>2026-05-03T14:38:30.999Z</time></trkpt><trkpt lat="40.71741557048141" lon="17.3326507244811"><ele>353.5</ele><time>2026-05-03T14:38:31.999Z</time></trkpt><trkpt lat="40.71731645318208" lon="17.33268923483967"><ele>353.75</ele><time>2026-05-03T14:38:32.999Z</time></trkpt><trkpt lat="40.71719841433349" lon="17.33272274768051"><ele>354.0</ele><time>2026-05-03T14:38:33.999Z</time></trkpt><trkpt lat="40.71705558841724" lon="17.332730396754116"><ele>354.0</ele><time>2026-05-03T14:38:34.999Z</time></trkpt><trkpt lat="40.7169158722568" lon="17.33273185288994"><ele>354.0</ele><time>2026-05-03T14:38:35.999Z</time></trkpt><trkpt lat="40.716764498841464" lon="17.332734232022062"><ele>354.0</ele><time>2026-05-03T14:38:36.999Z</time></trkpt><trkpt lat="40.7165994749461" lon="17.33273979653192"><ele>354.6666666666667</ele><time>2026-05-03T14:38:37.999Z</time></trkpt><trkpt lat="40.71642374522239" lon="17.332744127587322"><ele>355.33333333333337</ele><time>2026-05-03T14:38:38.999Z</time></trkpt><trkpt lat="40.716245431492204" lon="17.332743563354594"><ele>356.0</ele><time>2026-05-03T14:38:39.999Z</time></trkpt><trkpt lat="40.71607726730973" lon="17.3327514979886"><ele>356.33333333333337</ele><time>2026-05-03T14:38:40.999Z</time></trkpt><trkpt lat="40.7159294187721" lon="17.332749150646958"><ele>356.6666666666667</ele><time>2026-05-03T14:38:41.999Z</time></trkpt><trkpt lat="40.71576931975359" lon="17.332754243131877"><ele>357.0</ele><time>2026-05-03T14:38:42.999Z</time></trkpt><trkpt lat="40.71560293972669" lon="17.332754004807015"><ele>357.0</ele><time>2026-05-03T14:38:43.999Z</time></trkpt><trkpt lat="40.7154328903113" lon="17.332758498405095"><ele>357.0</ele><time>2026-05-03T14:38:44.999Z</time></trkpt><trkpt lat="40.715261103936086" lon="17.332762941143606"><ele>357.0</ele><time>2026-05-03T14:38:45.999Z</time></trkpt><trkpt lat="40.715102244169216" lon="17.332771266708328"><ele>357.6</ele><time>2026-05-03T14:38:46.999Z</time></trkpt><trkpt lat="40.71496624142032" lon="17.332773196760183"><ele>358.20000000000005</ele><time>2026-05-03T14:38:47.999Z</time></trkpt><trkpt lat="40.71484867317064" lon="17.33277253559986"><ele>358.8</ele><time>2026-05-03T14:38:48.999Z</time></trkpt><trkpt lat="40.714751763037164" lon="17.33276953237507"><ele>359.4</ele><time>2026-05-03T14:38:49.999Z</time></trkpt><trkpt lat="40.714661195725526" lon="17.332768003096078"><ele>360.0</ele><time>2026-05-03T14:38:50.999Z</time></trkpt><trkpt lat="40.7145793772421" lon="17.332767230366915"><ele>360.0</ele><time>2026-05-03T14:38:51.999Z</time></trkpt><trkpt lat="40.714503507659444" lon="17.33276717623981"><ele>360.0</ele><time>2026-05-03T14:38:52.999Z</time></trkpt><trkpt lat="40.71441145470997" lon="17.33276723437542"><ele>360.0</ele><time>2026-05-03T14:38:53.999Z</time></trkpt><trkpt lat="40.71430079606318" lon="17.332770980784073"><ele>360.0</ele><time>2026-05-03T14:38:54.999Z</time></trkpt><trkpt lat="40.71417806837524" lon="17.33276697363153"><ele>360.0</ele><time>2026-05-03T14:38:55.999Z</time></trkpt><trkpt lat="40.71404172720744" lon="17.332771840859348"><ele>361.0</ele><time>2026-05-03T14:38:56.999Z</time></trkpt><trkpt lat="40.713894739366125" lon="17.332765730240247"><ele>362.0</ele><time>2026-05-03T14:38:57.999Z</time></trkpt><trkpt lat="40.713731806582736" lon="17.33276738037819"><ele>363.0</ele><time>2026-05-03T14:38:58.999Z</time></trkpt><trkpt lat="40.713574175531924" lon="17.33276719157967"><ele>364.5</ele><time>2026-05-03T14:38:59.999Z</time></trkpt><trkpt lat="40.713447582739555" lon="17.33276679671667"><ele>366.0</ele><time>2026-05-03T14:39:00.999Z</time></trkpt><trkpt lat="40.713344535862255" lon="17.332771753812995"><ele>367.5</ele><time>2026-05-03T14:39:02Z</time></trkpt><trkpt lat="40.713237387585444" lon="17.332777335946155"><ele>369.0</ele><time>2026-05-03T14:39:03Z</time></trkpt><trkpt lat="40.71311727729495" lon="17.332787017148167"><ele>369.0</ele><time>2026-05-03T14:39:04Z</time></trkpt><trkpt lat="40.712993303996754" lon="17.33280488361678"><ele>369.0</ele><time>2026-05-03T14:39:05Z</time></trkpt><trkpt lat="40.71286842490524" lon="17.332856918125596"><ele>369.0</ele><time>2026-05-03T14:39:06Z</time></trkpt><trkpt lat="40.71275164928432" lon="17.332945564935137"><ele>369.0</ele><time>2026-05-03T14:39:07Z</time></trkpt><trkpt lat="40.71264363170003" lon="17.333075745711916"><ele>371.0</ele><time>2026-05-03T14:39:08Z</time></trkpt><trkpt lat="40.71253276452388" lon="17.33323203923017"><ele>373.0</ele><time>2026-05-03T14:39:09Z</time></trkpt><trkpt lat="40.71241224540904" lon="17.333401138374732"><ele>375.0</ele><time>2026-05-03T14:39:10Z</time></trkpt><trkpt lat="40.712286546353255" lon="17.333562143331736"><ele>375.0</ele><time>2026-05-03T14:39:11Z</time></trkpt><trkpt lat="40.712171813599205" lon="17.333708835023078"><ele>375.0</ele><time>2026-05-03T14:39:12Z</time></trkpt><trkpt lat="40.71204987541241" lon="17.333841779558572"><ele>375.0</ele><time>2026-05-03T14:39:13Z</time></trkpt><trkpt lat="40.71189555231473" lon="17.333934329443746"><ele>376.3333333333333</ele><time>2026-05-03T14:39:14Z</time></trkpt><trkpt lat="40.71175475792718" lon="17.3340737962782"><ele>377.66666666666663</ele><time>2026-05-03T14:39:15Z</time></trkpt><trkpt lat="40.71161659461465" lon="17.33420589464701"><ele>379.0</ele><time>2026-05-03T14:39:16Z</time></trkpt><trkpt lat="40.71150320695263" lon="17.33434713578174"><ele>379.0</ele><time>2026-05-03T14:39:17Z</time></trkpt><trkpt lat="40.71139493700271" lon="17.334474409228154"><ele>379.0</ele><time>2026-05-03T14:39:18Z</time></trkpt><trkpt lat="40.71128881588638" lon="17.334585196308346"><ele>379.0</ele><time>2026-05-03T14:39:19Z</time></trkpt><trkpt lat="40.711188083704194" lon="17.334690690444727"><ele>379.0</ele><time>2026-05-03T14:39:20Z</time></trkpt><trkpt lat="40.7110990530444" lon="17.33479918264735"><ele>380.75</ele><time>2026-05-03T14:39:21Z</time></trkpt><trkpt lat="40.711010427548636" lon="17.334902787101974"><ele>382.5</ele><time>2026-05-03T14:39:22Z</time></trkpt><trkpt lat="40.71091107812962" lon="17.334989223990284"><ele>384.25</ele><time>2026-05-03T14:39:23Z</time></trkpt><trkpt lat="40.710795215092354" lon="17.33504207845452"><ele>386.0</ele><time>2026-05-03T14:39:24Z</time></trkpt><trkpt lat="40.71067724969442" lon="17.33506410220996"><ele>386.0</ele><time>2026-05-03T14:39:25Z</time></trkpt><trkpt lat="40.71056149863652" lon="17.335077592315"><ele>386.0</ele><time>2026-05-03T14:39:26Z</time></trkpt><trkpt lat="40.71044841980699" lon="17.33508877088333"><ele>386.0</ele><time>2026-05-03T14:39:27Z</time></trkpt><trkpt lat="40.71033532084577" lon="17.33513323575933"><ele>386.0</ele><time>2026-05-03T14:39:28Z</time></trkpt><trkpt lat="40.7102454499792" lon="17.335181230585693"><ele>386.0</ele><time>2026-05-03T14:39:29Z</time></trkpt><trkpt lat="40.71018380211519" lon="17.3352263649977"><ele>387.16666666666663</ele><time>2026-05-03T14:39:30Z</time></trkpt><trkpt lat="40.71012529841105" lon="17.335283101304096"><ele>388.3333333333333</ele><time>2026-05-03T14:39:31Z</time></trkpt><trkpt lat="40.71006515262613" lon="17.335321056099335"><ele>389.5</ele><time>2026-05-03T14:39:32Z</time></trkpt><trkpt lat="40.709999576022376" lon="17.335349916222256"><ele>390.66666666666663</ele><time>2026-05-03T14:39:33Z</time></trkpt><trkpt lat="40.70992410570503" lon="17.335384595728403"><ele>391.8333333333333</ele><time>2026-05-03T14:39:34Z</time></trkpt><trkpt lat="40.70984566425574" lon="17.33544025557418"><ele>393.0</ele><time>2026-05-03T14:39:35Z</time></trkpt><trkpt lat="40.709762990533584" lon="17.335523777816583"><ele>391.5</ele><time>2026-05-03T14:39:36Z</time></trkpt><trkpt lat="40.70968795024801" lon="17.335642750105112"><ele>390.0</ele><time>2026-05-03T14:39:37Z</time></trkpt><trkpt lat="40.70962557026424" lon="17.335786632736802"><ele>388.5</ele><time>2026-05-03T14:39:38Z</time></trkpt><trkpt lat="40.70956386383854" lon="17.335937432331328"><ele>387.0</ele><time>2026-05-03T14:39:39Z</time></trkpt><trkpt lat="40.70949700242967" lon="17.336082377885973"><ele>387.0</ele><time>2026-05-03T14:39:40Z</time></trkpt><trkpt lat="40.709415545238194" lon="17.33621892164923"><ele>387.0</ele><time>2026-05-03T14:39:41Z</time></trkpt><trkpt lat="40.70933327912904" lon="17.336342933912817"><ele>387.0</ele><time>2026-05-03T14:39:42Z</time></trkpt><trkpt lat="40.70925426536218" lon="17.336471097185036"><ele>387.0</ele><time>2026-05-03T14:39:43Z</time></trkpt><trkpt lat="40.70919124398759" lon="17.336611013573883"><ele>389.75</ele><time>2026-05-03T14:39:44Z</time></trkpt><trkpt lat="40.7091294194815" lon="17.336753983367615"><ele>392.5</ele><time>2026-05-03T14:39:45Z</time></trkpt><trkpt lat="40.70907381610418" lon="17.33690025974306"><ele>395.25</ele><time>2026-05-03T14:39:46Z</time></trkpt><trkpt lat="40.709028595769546" lon="17.337043041591997"><ele>398.0</ele><time>2026-05-03T14:39:47Z</time></trkpt><trkpt lat="40.70896306754629" lon="17.337183191281447"><ele>396.25</ele><time>2026-05-03T14:39:48Z</time></trkpt><trkpt lat="40.70887376683319" lon="17.337315178463598"><ele>394.5</ele><time>2026-05-03T14:39:49Z</time></trkpt><trkpt lat="40.70876777841661" lon="17.33742815275272"><ele>392.75</ele><time>2026-05-03T14:39:50Z</time></trkpt><trkpt lat="40.70867087122246" lon="17.337503467698127"><ele>391.0</ele><time>2026-05-03T14:39:51Z</time></trkpt><trkpt lat="40.7085951111883" lon="17.337589457902393"><ele>393.83333333333337</ele><time>2026-05-03T14:39:52Z</time></trkpt><trkpt lat="40.7085166048654" lon="17.337660391104478"><ele>396.6666666666667</ele><time>2026-05-03T14:39:53Z</time></trkpt><trkpt lat="40.70844893797835" lon="17.33771484577732"><ele>399.5</ele><time>2026-05-03T14:39:54Z</time></trkpt><trkpt lat="40.70839128857816" lon="17.33777181543909"><ele>402.33333333333337</ele><time>2026-05-03T14:39:55Z</time></trkpt><trkpt lat="40.70833158310379" lon="17.337831955503667"><ele>405.1666666666667</ele><time>2026-05-03T14:39:56Z</time></trkpt><trkpt lat="40.70826860284925" lon="17.33789384211922"><ele>408.0</ele><time>2026-05-03T14:39:57Z</time></trkpt><trkpt lat="40.70820585939149" lon="17.337956194640427"><ele>408.0</ele><time>2026-05-03T14:39:58Z</time></trkpt><trkpt lat="40.70814437004055" lon="17.338014460700172"><ele>408.0</ele><time>2026-05-03T14:39:59Z</time></trkpt><trkpt lat="40.70809443206596" lon="17.338066314476464"><ele>408.0</ele><time>2026-05-03T14:40:00Z</time></trkpt><trkpt lat="40.70800768109302" lon="17.33815840434282"><ele>408.0</ele><time>2026-05-03T14:40:02Z</time></trkpt><trkpt lat="40.70791217149919" lon="17.33823677911577"><ele>408.0</ele><time>2026-05-03T14:40:04Z</time></trkpt><trkpt lat="40.70785558242059" lon="17.338283165711157"><ele>408.0</ele><time>2026-05-03T14:40:05Z</time></trkpt><trkpt lat="40.70779844120876" lon="17.33832870640367"><ele>408.57142857142856</ele><time>2026-05-03T14:40:06Z</time></trkpt><trkpt lat="40.70773994938089" lon="17.338379200774234"><ele>409.14285714285717</ele><time>2026-05-03T14:40:07Z</time></trkpt><trkpt lat="40.707676536052965" lon="17.33843058103765"><ele>409.71428571428567</ele><time>2026-05-03T14:40:08Z</time></trkpt><trkpt lat="40.70761053758467" lon="17.338488586615465"><ele>410.2857142857143</ele><time>2026-05-03T14:40:09Z</time></trkpt><trkpt lat="40.707542716025976" lon="17.33854239333403"><ele>410.85714285714283</ele><time>2026-05-03T14:40:10Z</time></trkpt><trkpt lat="40.7074744168789" lon="17.33859051633907"><ele>411.4285714285714</ele><time>2026-05-03T14:40:11Z</time></trkpt><trkpt lat="40.707413013982396" lon="17.33863138313744"><ele>412.0</ele><time>2026-05-03T14:40:12Z</time></trkpt><trkpt lat="40.707307219624774" lon="17.338698962253826"><ele>412.0</ele><time>2026-05-03T14:40:14Z</time></trkpt><trkpt lat="40.707203527146525" lon="17.33875053843595"><ele>412.0</ele><time>2026-05-03T14:40:16Z</time></trkpt><trkpt lat="40.707093485936284" lon="17.33879821507414"><ele>412.0</ele><time>2026-05-03T14:40:18Z</time></trkpt><trkpt lat="40.70702806157242" lon="17.33881785786031"><ele>412.0</ele><time>2026-05-03T14:40:19Z</time></trkpt><trkpt lat="40.70690332866555" lon="17.338888631153118"><ele>412.0</ele><time>2026-05-03T14:40:21Z</time></trkpt><trkpt lat="40.706839631581545" lon="17.338937396120322"><ele>413.6666666666667</ele><time>2026-05-03T14:40:22Z</time></trkpt><trkpt lat="40.706798083078894" lon="17.339008892837754"><ele>415.33333333333337</ele><time>2026-05-03T14:40:22.999Z</time></trkpt><trkpt lat="40.70673731246656" lon="17.339095795880663"><ele>417.0</ele><time>2026-05-03T14:40:24.999Z</time></trkpt><trkpt lat="40.70667462177954" lon="17.339174646399535"><ele>418.66666666666663</ele><time>2026-05-03T14:40:26.999Z</time></trkpt><trkpt lat="40.70662820092727" lon="17.339237013780366"><ele>420.3333333333333</ele><time>2026-05-03T14:40:27.999Z</time></trkpt><trkpt lat="40.7065672929621" lon="17.339299216616578"><ele>422.0</ele><time>2026-05-03T14:40:28.999Z</time></trkpt><trkpt lat="40.70649344658979" lon="17.339349071154782"><ele>421.99999999999994</ele><time>2026-05-03T14:40:29.999Z</time></trkpt><trkpt lat="40.70642310165702" lon="17.339419726003023"><ele>422.0</ele><time>2026-05-03T14:40:30.999Z</time></trkpt><trkpt lat="40.706370657810524" lon="17.33950568730917"><ele>422.0</ele><time>2026-05-03T14:40:31.999Z</time></trkpt><trkpt lat="40.70631746548504" lon="17.339573764606335"><ele>422.0</ele><time>2026-05-03T14:40:32.999Z</time></trkpt><trkpt lat="40.706281718624204" lon="17.33964657597132"><ele>421.99999999999994</ele><time>2026-05-03T14:40:33.999Z</time></trkpt><trkpt lat="40.70623746252" lon="17.33972600630736"><ele>422.0</ele><time>2026-05-03T14:40:34.999Z</time></trkpt><trkpt lat="40.70621006776185" lon="17.339821432119187"><ele>421.14285714285717</ele><time>2026-05-03T14:40:35.999Z</time></trkpt><trkpt lat="40.70617596562651" lon="17.33991076432307"><ele>420.28571428571433</ele><time>2026-05-03T14:40:36.999Z</time></trkpt><trkpt lat="40.70614745473367" lon="17.340006996818204"><ele>419.42857142857144</ele><time>2026-05-03T14:40:37.999Z</time></trkpt><trkpt lat="40.70611446426714" lon="17.34008792004216"><ele>418.57142857142856</ele><time>2026-05-03T14:40:38.999Z</time></trkpt><trkpt lat="40.70606881072303" lon="17.340152699136002"><ele>417.7142857142857</ele><time>2026-05-03T14:40:39.999Z</time></trkpt><trkpt lat="40.7060131813955" lon="17.340201379950564"><ele>416.85714285714283</ele><time>2026-05-03T14:40:40.999Z</time></trkpt><trkpt lat="40.70594839386537" lon="17.34024960202743"><ele>416.0</ele><time>2026-05-03T14:40:41.999Z</time></trkpt><trkpt lat="40.705877438921725" lon="17.340291712174572"><ele>417.99999999999994</ele><time>2026-05-03T14:40:42.999Z</time></trkpt><trkpt lat="40.70580236267601" lon="17.34032667319464"><ele>420.0</ele><time>2026-05-03T14:40:43.999Z</time></trkpt><trkpt lat="40.7057239528802" lon="17.340349679330295"><ele>422.0</ele><time>2026-05-03T14:40:44.999Z</time></trkpt><trkpt lat="40.70565160042771" lon="17.340375383715813"><ele>424.0</ele><time>2026-05-03T14:40:45.999Z</time></trkpt><trkpt lat="40.705581267432514" lon="17.340378354353206"><ele>425.99999999999994</ele><time>2026-05-03T14:40:46.999Z</time></trkpt><trkpt lat="40.70551694509367" lon="17.340383382243346"><ele>428.0</ele><time>2026-05-03T14:40:47.999Z</time></trkpt><trkpt lat="40.705420787964805" lon="17.340392319834905"><ele>428.00000000000006</ele><time>2026-05-03T14:40:49.999Z</time></trkpt><trkpt lat="40.70535539094906" lon="17.340377282133606"><ele>428.0</ele><time>2026-05-03T14:40:53.999Z</time></trkpt><trkpt lat="40.70527384866136" lon="17.3403709524811"><ele>428.0</ele><time>2026-05-03T14:40:55.999Z</time></trkpt><trkpt lat="40.70521223677325" lon="17.340399331315545"><ele>428.0</ele><time>2026-05-03T14:40:59.999Z</time></trkpt><trkpt lat="40.705131427535164" lon="17.340399763054897"><ele>428.0</ele><time>2026-05-03T14:41:03.999Z</time></trkpt><trkpt lat="40.70506425257361" lon="17.340387903443514"><ele>428.00000000000006</ele><time>2026-05-03T14:41:08Z</time></trkpt><trkpt lat="40.70498087463621" lon="17.340389021776836"><ele>428.0</ele><time>2026-05-03T14:41:11Z</time></trkpt><trkpt lat="40.704915981883005" lon="17.34038989217302"><ele>428.42857142857144</ele><time>2026-05-03T14:41:15Z</time></trkpt><trkpt lat="40.70484866739375" lon="17.34039193551708"><ele>428.8571428571429</ele><time>2026-05-03T14:41:20Z</time></trkpt><trkpt lat="40.704762132809535" lon="17.340400569665757"><ele>429.28571428571433</ele><time>2026-05-03T14:41:24Z</time></trkpt><trkpt lat="40.7046908009304" lon="17.340403821460225"><ele>429.7142857142857</ele><time>2026-05-03T14:41:28Z</time></trkpt><trkpt lat="40.70462677090169" lon="17.34040645380714"><ele>430.1428571428571</ele><time>2026-05-03T14:41:34Z</time></trkpt><trkpt lat="40.704561818600446" lon="17.340400239619022"><ele>430.5714285714286</ele><time>2026-05-03T14:41:39Z</time></trkpt><trkpt lat="40.70448931830299" lon="17.34037446890812"><ele>431.0</ele><time>2026-05-03T14:42:03Z</time></trkpt><trkpt lat="40.70443094867833" lon="17.34034098284303"><ele>431.3333333333333</ele><time>2026-05-03T14:42:08Z</time></trkpt><trkpt lat="40.70437951906628" lon="17.34028185628666"><ele>431.66666666666663</ele><time>2026-05-03T14:42:18Z</time></trkpt><trkpt lat="40.7043098706914" lon="17.340222046036097"><ele>432.0</ele><time>2026-05-03T14:42:21Z</time></trkpt><trkpt lat="40.70422681943453" lon="17.34015496525613"><ele>432.33333333333337</ele><time>2026-05-03T14:42:24Z</time></trkpt><trkpt lat="40.70417627681602" lon="17.34010471880315"><ele>432.6666666666667</ele><time>2026-05-03T14:42:27.999Z</time></trkpt><trkpt lat="40.70412080258244" lon="17.34005182669486"><ele>433.0</ele><time>2026-05-03T14:42:31.999Z</time></trkpt><trkpt lat="40.70406267804586" lon="17.339987903405373"><ele>432.99999999999994</ele><time>2026-05-03T14:42:35.999Z</time></trkpt><trkpt lat="40.70399861577089" lon="17.339945785082175"><ele>433.0</ele><time>2026-05-03T14:42:38.999Z</time></trkpt><trkpt lat="40.70393210462285" lon="17.33990953516937"><ele>433.0</ele><time>2026-05-03T14:43:23Z</time></trkpt><trkpt lat="40.70386825656858" lon="17.339881905265628"><ele>433.0</ele><time>2026-05-03T14:43:27Z</time></trkpt><trkpt lat="40.7038009154254" lon="17.339852763751573"><ele>433.0</ele><time>2026-05-03T14:43:29Z</time></trkpt><trkpt lat="40.70373204157392" lon="17.339822958968696"><ele>432.99999999999994</ele><time>2026-05-03T14:43:31Z</time></trkpt><trkpt lat="40.70366461371353" lon="17.339807234359952"><ele>433.0</ele><time>2026-05-03T14:43:33Z</time></trkpt><trkpt lat="40.70359752769597" lon="17.339774995527208"><ele>432.4285714285714</ele><time>2026-05-03T14:43:35Z</time></trkpt><trkpt lat="40.70353268646892" lon="17.339747084346158"><ele>431.85714285714283</ele><time>2026-05-03T14:43:37Z</time></trkpt><trkpt lat="40.70346948874752" lon="17.339717322011335"><ele>431.2857142857143</ele><time>2026-05-03T14:43:39Z</time></trkpt><trkpt lat="40.7034064461291" lon="17.339688669508803"><ele>430.71428571428567</ele><time>2026-05-03T14:43:41Z</time></trkpt><trkpt lat="40.70332768668483" lon="17.339653403819426"><ele>430.14285714285717</ele><time>2026-05-03T14:43:44Z</time></trkpt><trkpt lat="40.7032658649465" lon="17.3396214872024"><ele>429.57142857142856</ele><time>2026-05-03T14:44:41.999Z</time></trkpt><trkpt lat="40.70317732236257" lon="17.33958337380979"><ele>429.0</ele><time>2026-05-03T14:44:44.999Z</time></trkpt><trkpt lat="40.70310638020381" lon="17.33955283647959"><ele>428.79999999999995</ele><time>2026-05-03T14:44:46.999Z</time></trkpt><trkpt lat="40.70301070672324" lon="17.339511879705093"><ele>428.59999999999997</ele><time>2026-05-03T14:44:48.999Z</time></trkpt><trkpt lat="40.702914563758505" lon="17.339485425452107"><ele>428.4</ele><time>2026-05-03T14:44:50.999Z</time></trkpt><trkpt lat="40.702869443747204" lon="17.33939086663883"><ele>428.2</ele><time>2026-05-03T14:44:53.999Z</time></trkpt><trkpt lat="40.702918252241155" lon="17.339264940275438"><ele>428.0</ele><time>2026-05-03T14:44:55.999Z</time></trkpt><trkpt lat="40.70295817600201" lon="17.339132238386664"><ele>428.0</ele><time>2026-05-03T14:44:57.999Z</time></trkpt><trkpt lat="40.70299053242318" lon="17.3390161762492"><ele>427.99999999999994</ele><time>2026-05-03T14:44:59.999Z</time></trkpt><trkpt lat="40.70298721318207" lon="17.33911698707969"><ele>427.99999999999994</ele><time>2026-05-03T14:47:14.999Z</time></trkpt><trkpt lat="40.702999311915" lon="17.33923277402049"><ele>428.0</ele><time>2026-05-03T14:47:20.999Z</time></trkpt><trkpt lat="40.70298345808722" lon="17.339316197813925"><ele>428.0</ele><time>2026-05-03T14:47:27Z</time></trkpt><trkpt lat="40.70278568152052" lon="17.339431567353483"><ele>428.0</ele><time>2026-05-03T14:48:04.481Z</time></trkpt><trkpt lat="40.702975397521016" lon="17.339327153011173"><ele>427.99999999999994</ele><time>2026-05-03T14:52:17.997Z</time></trkpt><trkpt lat="40.70299548042938" lon="17.33924452622622"><ele>427.99999999999994</ele><time>2026-05-03T14:52:34Z</time></trkpt><trkpt lat="40.70299070408035" lon="17.339159061609045"><ele>428.0</ele><time>2026-05-03T14:52:40Z</time></trkpt><trkpt lat="40.702976838942625" lon="17.339072459129365"><ele>428.0</ele><time>2026-05-03T14:52:46Z</time></trkpt><trkpt lat="40.70303867947003" lon="17.33902287376056"><ele>428.0</ele><time>2026-05-03T14:52:54Z</time></trkpt><trkpt lat="40.70301106434297" lon="17.338942336782573"><ele>428.0</ele><time>2026-05-03T14:53:30.999Z</time></trkpt><trkpt lat="40.70307408517243" lon="17.338931132235327"><ele>428.0</ele><time>2026-05-03T14:55:37.999Z</time></trkpt><trkpt lat="40.70308989340094" lon="17.33880218154762"><ele>427.0</ele><time>2026-05-03T14:56:07.999Z</time></trkpt><trkpt lat="40.7030624626976" lon="17.338889164426654"><ele>428.0</ele><time>2026-05-03T15:00:24.999Z</time></trkpt><trkpt lat="40.702993537844655" lon="17.338921926727867"><ele>428.0</ele><time>2026-05-03T15:00:40.999Z</time></trkpt></trkseg><trkseg><trkpt lat="40.70796209931514" lon="17.338319328335974"><ele>400.0</ele><time>2026-05-03T15:11:13Z</time></trkpt><trkpt lat="40.70789540024028" lon="17.338386873333278"><ele>400.0</ele><time>2026-05-03T15:11:14Z</time></trkpt><trkpt lat="40.707853194708456" lon="17.338467469485927"><ele>400.0</ele><time>2026-05-03T15:11:14.999Z</time></trkpt><trkpt lat="40.70784008612368" lon="17.338592993337638"><ele>400.0</ele><time>2026-05-03T15:11:15.999Z</time></trkpt><trkpt lat="40.707862710795304" lon="17.33872611257619"><ele>400.0</ele><time>2026-05-03T15:11:16.999Z</time></trkpt><trkpt lat="40.70788106382193" lon="17.338895344172908"><ele>398.75</ele><time>2026-05-03T15:11:17.999Z</time></trkpt><trkpt lat="40.70790245126136" lon="17.339064201483005"><ele>397.5</ele><time>2026-05-03T15:11:18.999Z</time></trkpt><trkpt lat="40.707934375172755" lon="17.339237973505607"><ele>396.25</ele><time>2026-05-03T15:11:19.999Z</time></trkpt><trkpt lat="40.707945989710424" lon="17.339403835173652"><ele>395.0</ele><time>2026-05-03T15:11:20.999Z</time></trkpt><trkpt lat="40.70795378314477" lon="17.339566295941903"><ele>393.6</ele><time>2026-05-03T15:11:21.999Z</time></trkpt><trkpt lat="40.70795016483054" lon="17.339721205730168"><ele>392.2</ele><time>2026-05-03T15:11:22.999Z</time></trkpt><trkpt lat="40.707933654791226" lon="17.339864230590063"><ele>390.79999999999995</ele><time>2026-05-03T15:11:23.999Z</time></trkpt><trkpt lat="40.70790774283805" lon="17.339997552889702"><ele>389.4</ele><time>2026-05-03T15:11:24.999Z</time></trkpt><trkpt lat="40.707882989764215" lon="17.34012824865926"><ele>388.0</ele><time>2026-05-03T15:11:25.999Z</time></trkpt><trkpt lat="40.70784711276401" lon="17.340261826557484"><ele>388.0</ele><time>2026-05-03T15:11:26.999Z</time></trkpt><trkpt lat="40.70778278679145" lon="17.340390927282783"><ele>388.0</ele><time>2026-05-03T15:11:27.999Z</time></trkpt><trkpt lat="40.70771515630945" lon="17.340517309901973"><ele>388.0</ele><time>2026-05-03T15:11:28.999Z</time></trkpt><trkpt lat="40.7076559027913" lon="17.340661402702576"><ele>388.0</ele><time>2026-05-03T15:11:29.999Z</time></trkpt><trkpt lat="40.70761875022244" lon="17.340826641574065"><ele>388.0</ele><time>2026-05-03T15:11:30.999Z</time></trkpt><trkpt lat="40.707601529090034" lon="17.34100581542019"><ele>388.0</ele><time>2026-05-03T15:11:31.999Z</time></trkpt><trkpt lat="40.70758876474192" lon="17.341184274801215"><ele>388.0</ele><time>2026-05-03T15:11:32.999Z</time></trkpt><trkpt lat="40.70758297671454" lon="17.34135243896213"><ele>388.0</ele><time>2026-05-03T15:11:33.999Z</time></trkpt><trkpt lat="40.70757776634438" lon="17.341507729905594"><ele>388.0</ele><time>2026-05-03T15:11:34.999Z</time></trkpt><trkpt lat="40.707585191093365" lon="17.341658190376915"><ele>388.0</ele><time>2026-05-03T15:11:35.999Z</time></trkpt><trkpt lat="40.70761811814827" lon="17.341806010078916"><ele>388.0</ele><time>2026-05-03T15:11:36.999Z</time></trkpt><trkpt lat="40.7076762197983" lon="17.3419522993537"><ele>388.0</ele><time>2026-05-03T15:11:37.999Z</time></trkpt><trkpt lat="40.70773719631103" lon="17.342086955766504"><ele>385.25</ele><time>2026-05-03T15:11:38.999Z</time></trkpt><trkpt lat="40.70779742988718" lon="17.342213938633467"><ele>382.5</ele><time>2026-05-03T15:11:39.999Z</time></trkpt><trkpt lat="40.70785793942119" lon="17.34234388861516"><ele>379.75</ele><time>2026-05-03T15:11:40.999Z</time></trkpt><trkpt lat="40.70791607591534" lon="17.342481740506678"><ele>377.0</ele><time>2026-05-03T15:11:41.999Z</time></trkpt><trkpt lat="40.70797378623633" lon="17.34262785372859"><ele>376.5</ele><time>2026-05-03T15:11:42.999Z</time></trkpt><trkpt lat="40.70803358336419" lon="17.34278162436929"><ele>376.0</ele><time>2026-05-03T15:11:43.999Z</time></trkpt><trkpt lat="40.708085007414645" lon="17.342953855855374"><ele>375.5</ele><time>2026-05-03T15:11:44.999Z</time></trkpt><trkpt lat="40.7081348920815" lon="17.343149313494028"><ele>375.0</ele><time>2026-05-03T15:11:45.999Z</time></trkpt><trkpt lat="40.708185512279314" lon="17.34336401464766"><ele>374.3333333333333</ele><time>2026-05-03T15:11:46.999Z</time></trkpt><trkpt lat="40.70823516815861" lon="17.343592624116482"><ele>373.66666666666663</ele><time>2026-05-03T15:11:47.999Z</time></trkpt><trkpt lat="40.70828070562143" lon="17.343825699883677"><ele>373.0</ele><time>2026-05-03T15:11:48.999Z</time></trkpt><trkpt lat="40.708326069050614" lon="17.344072404354858"><ele>372.0</ele><time>2026-05-03T15:11:49.999Z</time></trkpt><trkpt lat="40.70837982649864" lon="17.344342644684"><ele>371.0</ele><time>2026-05-03T15:11:50.999Z</time></trkpt><trkpt lat="40.70844849232945" lon="17.344633442524366"><ele>370.0</ele><time>2026-05-03T15:11:51.999Z</time></trkpt><trkpt lat="40.70853038234837" lon="17.344941244037145"><ele>368.5</ele><time>2026-05-03T15:11:52.999Z</time></trkpt><trkpt lat="40.70861874135301" lon="17.345247505380915"><ele>367.0</ele><time>2026-05-03T15:11:53.999Z</time></trkpt><trkpt lat="40.708718041186884" lon="17.34553345808148"><ele>367.66666666666663</ele><time>2026-05-03T15:11:54.999Z</time></trkpt><trkpt lat="40.70882359724825" lon="17.345788680573627"><ele>368.3333333333333</ele><time>2026-05-03T15:11:55.999Z</time></trkpt><trkpt lat="40.708912211709915" lon="17.34603198218622"><ele>369.0</ele><time>2026-05-03T15:11:56.999Z</time></trkpt><trkpt lat="40.708998392114616" lon="17.346279123950705"><ele>370.0</ele><time>2026-05-03T15:11:57.999Z</time></trkpt><trkpt lat="40.7090928658068" lon="17.34652066332008"><ele>371.0</ele><time>2026-05-03T15:11:58.999Z</time></trkpt><trkpt lat="40.70917217725474" lon="17.34674929601417"><ele>372.0</ele><time>2026-05-03T15:11:59.999Z</time></trkpt><trkpt lat="40.70924138323905" lon="17.346966838404434"><ele>372.0</ele><time>2026-05-03T15:12:00.999Z</time></trkpt><trkpt lat="40.709304310434455" lon="17.34718390941511"><ele>372.0</ele><time>2026-05-03T15:12:02Z</time></trkpt><trkpt lat="40.70936361818635" lon="17.34741248205449"><ele>372.0</ele><time>2026-05-03T15:12:03Z</time></trkpt><trkpt lat="40.70941608994291" lon="17.347634502871298"><ele>371.6666666666667</ele><time>2026-05-03T15:12:04Z</time></trkpt><trkpt lat="40.7094697840019" lon="17.347880866832146"><ele>371.33333333333337</ele><time>2026-05-03T15:12:05Z</time></trkpt><trkpt lat="40.70952011637108" lon="17.34811638072615"><ele>371.0</ele><time>2026-05-03T15:12:06Z</time></trkpt><trkpt lat="40.70957346586206" lon="17.348334114555005"><ele>369.33333333333337</ele><time>2026-05-03T15:12:07Z</time></trkpt><trkpt lat="40.70962986566692" lon="17.34854056862945"><ele>367.6666666666667</ele><time>2026-05-03T15:12:08Z</time></trkpt><trkpt lat="40.70969506992364" lon="17.348739350799534"><ele>366.0</ele><time>2026-05-03T15:12:09Z</time></trkpt><trkpt lat="40.70975500495693" lon="17.348941550479207"><ele>364.3333333333333</ele><time>2026-05-03T15:12:10Z</time></trkpt><trkpt lat="40.709793528475785" lon="17.34915197102646"><ele>362.66666666666663</ele><time>2026-05-03T15:12:11Z</time></trkpt><trkpt lat="40.709815429167" lon="17.34938575052946"><ele>361.0</ele><time>2026-05-03T15:12:12Z</time></trkpt><trkpt lat="40.70982035782771" lon="17.349642116177918"><ele>359.66666666666663</ele><time>2026-05-03T15:12:13Z</time></trkpt><trkpt lat="40.7098293238243" lon="17.349907039591194"><ele>358.3333333333333</ele><time>2026-05-03T15:12:14Z</time></trkpt><trkpt lat="40.70983876882193" lon="17.35016841577776"><ele>357.0</ele><time>2026-05-03T15:12:15Z</time></trkpt><trkpt lat="40.70985224227085" lon="17.35041209420999"><ele>356.3333333333333</ele><time>2026-05-03T15:12:16Z</time></trkpt><trkpt lat="40.709856540245895" lon="17.350649791297645"><ele>355.66666666666663</ele><time>2026-05-03T15:12:17Z</time></trkpt><trkpt lat="40.70986526918453" lon="17.350851268278245"><ele>355.0</ele><time>2026-05-03T15:12:18Z</time></trkpt><trkpt lat="40.7098700084375" lon="17.35104665261604"><ele>355.0</ele><time>2026-05-03T15:12:19Z</time></trkpt><trkpt lat="40.70987545383865" lon="17.35122912121031"><ele>355.0</ele><time>2026-05-03T15:12:20Z</time></trkpt><trkpt lat="40.70988037416348" lon="17.351402934149718"><ele>355.0</ele><time>2026-05-03T15:12:21Z</time></trkpt><trkpt lat="40.70988848694046" lon="17.351568010457534"><ele>355.0</ele><time>2026-05-03T15:12:22Z</time></trkpt><trkpt lat="40.70990152186137" lon="17.351726206038244"><ele>354.75</ele><time>2026-05-03T15:12:23Z</time></trkpt><trkpt lat="40.709920680527354" lon="17.35189175326677"><ele>354.5</ele><time>2026-05-03T15:12:24Z</time></trkpt><trkpt lat="40.70995821511546" lon="17.35207020838628"><ele>354.25</ele><time>2026-05-03T15:12:25Z</time></trkpt><trkpt lat="40.71001182312027" lon="17.35225386234365"><ele>354.0</ele><time>2026-05-03T15:12:26Z</time></trkpt><trkpt lat="40.710072905634156" lon="17.35243414643256"><ele>353.6666666666667</ele><time>2026-05-03T15:12:27Z</time></trkpt><trkpt lat="40.710132679077894" lon="17.352613427443288"><ele>353.33333333333337</ele><time>2026-05-03T15:12:28Z</time></trkpt><trkpt lat="40.710192235036466" lon="17.352793942387756"><ele>353.0</ele><time>2026-05-03T15:12:29Z</time></trkpt><trkpt lat="40.71025666718089" lon="17.352982792107174"><ele>350.6666666666667</ele><time>2026-05-03T15:12:30Z</time></trkpt><trkpt lat="40.710323647355175" lon="17.35317074938919"><ele>348.3333333333333</ele><time>2026-05-03T15:12:31Z</time></trkpt><trkpt lat="40.71041155476776" lon="17.353374592888102"><ele>346.0</ele><time>2026-05-03T15:12:32Z</time></trkpt><trkpt lat="40.71048763086552" lon="17.353625175884375"><ele>345.0</ele><time>2026-05-03T15:12:33Z</time></trkpt><trkpt lat="40.71059141267905" lon="17.353890533819364"><ele>344.0</ele><time>2026-05-03T15:12:34Z</time></trkpt><trkpt lat="40.710707289934064" lon="17.354175097456963"><ele>344.0</ele><time>2026-05-03T15:12:35Z</time></trkpt><trkpt lat="40.71082785592171" lon="17.354438618540524"><ele>344.0</ele><time>2026-05-03T15:12:36Z</time></trkpt><trkpt lat="40.71091459359921" lon="17.35470550416791"><ele>343.33333333333337</ele><time>2026-05-03T15:12:37Z</time></trkpt><trkpt lat="40.71100125179522" lon="17.35495695960981"><ele>342.6666666666667</ele><time>2026-05-03T15:12:38Z</time></trkpt><trkpt lat="40.711091760771765" lon="17.355178421830054"><ele>342.0</ele><time>2026-05-03T15:12:39Z</time></trkpt><trkpt lat="40.71118196866339" lon="17.355402169181566"><ele>341.3333333333333</ele><time>2026-05-03T15:12:40Z</time></trkpt><trkpt lat="40.71129633187441" lon="17.355607358648772"><ele>340.66666666666663</ele><time>2026-05-03T15:12:41Z</time></trkpt><trkpt lat="40.71143621311168" lon="17.35580187080602"><ele>340.0</ele><time>2026-05-03T15:12:42Z</time></trkpt><trkpt lat="40.71159849712144" lon="17.356001111958964"><ele>340.0</ele><time>2026-05-03T15:12:43Z</time></trkpt><trkpt lat="40.711775671842325" lon="17.35621656259578"><ele>340.0</ele><time>2026-05-03T15:12:44Z</time></trkpt><trkpt lat="40.71194834881376" lon="17.356432404626467"><ele>340.0</ele><time>2026-05-03T15:12:45Z</time></trkpt><trkpt lat="40.71211609143794" lon="17.356644976139766"><ele>340.0</ele><time>2026-05-03T15:12:46Z</time></trkpt><trkpt lat="40.71229908421632" lon="17.356866321710253"><ele>340.0</ele><time>2026-05-03T15:12:47Z</time></trkpt><trkpt lat="40.712479431278524" lon="17.357085250004932"><ele>340.0</ele><time>2026-05-03T15:12:48Z</time></trkpt><trkpt lat="40.71263900089705" lon="17.3572899435495"><ele>341.66666666666663</ele><time>2026-05-03T15:12:49Z</time></trkpt><trkpt lat="40.7127776206039" lon="17.357474674889364"><ele>343.3333333333333</ele><time>2026-05-03T15:12:50Z</time></trkpt><trkpt lat="40.712869353880514" lon="17.357672706014263"><ele>345.0</ele><time>2026-05-03T15:12:51Z</time></trkpt><trkpt lat="40.71295946725009" lon="17.357863413091867"><ele>345.6666666666667</ele><time>2026-05-03T15:12:52Z</time></trkpt><trkpt lat="40.71305984849682" lon="17.35806987375839"><ele>346.33333333333337</ele><time>2026-05-03T15:12:53Z</time></trkpt><trkpt lat="40.713141736563685" lon="17.358293524910504"><ele>347.0</ele><time>2026-05-03T15:12:54Z</time></trkpt><trkpt lat="40.71322206084312" lon="17.358526908147486"><ele>347.0</ele><time>2026-05-03T15:12:55Z</time></trkpt><trkpt lat="40.71330440864578" lon="17.35875534345954"><ele>347.0</ele><time>2026-05-03T15:12:56Z</time></trkpt><trkpt lat="40.71338507164337" lon="17.358958744135283"><ele>347.0</ele><time>2026-05-03T15:12:57Z</time></trkpt><trkpt lat="40.71346907330638" lon="17.359136982126547"><ele>347.25</ele><time>2026-05-03T15:12:58Z</time></trkpt><trkpt lat="40.71355589272775" lon="17.359305351925954"><ele>347.5</ele><time>2026-05-03T15:12:59Z</time></trkpt><trkpt lat="40.71362090734136" lon="17.359470460267637"><ele>347.75</ele><time>2026-05-03T15:13:00Z</time></trkpt><trkpt lat="40.71365372197547" lon="17.359637844431447"><ele>348.0</ele><time>2026-05-03T15:13:01Z</time></trkpt><trkpt lat="40.71365392297233" lon="17.35982500315546"><ele>348.3333333333333</ele><time>2026-05-03T15:13:02Z</time></trkpt><trkpt lat="40.71362681825363" lon="17.36000456769422"><ele>348.66666666666663</ele><time>2026-05-03T15:13:03Z</time></trkpt><trkpt lat="40.713591483739734" lon="17.360194386775664"><ele>349.0</ele><time>2026-05-03T15:13:04Z</time></trkpt><trkpt lat="40.71355636682593" lon="17.36041302234844"><ele>348.66666666666663</ele><time>2026-05-03T15:13:05Z</time></trkpt><trkpt lat="40.71351226946362" lon="17.360626072974576"><ele>348.3333333333333</ele><time>2026-05-03T15:13:06Z</time></trkpt><trkpt lat="40.713479115629546" lon="17.360840205525562"><ele>348.0</ele><time>2026-05-03T15:13:07Z</time></trkpt><trkpt lat="40.71344528621061" lon="17.361064149100553"><ele>348.0</ele><time>2026-05-03T15:13:08Z</time></trkpt><trkpt lat="40.7134223334278" lon="17.36128182013911"><ele>348.0</ele><time>2026-05-03T15:13:09Z</time></trkpt><trkpt lat="40.71341114261308" lon="17.36149197040379"><ele>348.0</ele><time>2026-05-03T15:13:10Z</time></trkpt><trkpt lat="40.7134222670293" lon="17.36170820006191"><ele>347.3333333333333</ele><time>2026-05-03T15:13:11Z</time></trkpt><trkpt lat="40.713446402317416" lon="17.361922756212486"><ele>346.66666666666663</ele><time>2026-05-03T15:13:12Z</time></trkpt><trkpt lat="40.71347748926261" lon="17.362123672197384"><ele>346.0</ele><time>2026-05-03T15:13:13Z</time></trkpt><trkpt lat="40.71352780568596" lon="17.36233571317034"><ele>345.66666666666663</ele><time>2026-05-03T15:13:14Z</time></trkpt><trkpt lat="40.71358725434395" lon="17.362539052170625"><ele>345.3333333333333</ele><time>2026-05-03T15:13:15Z</time></trkpt><trkpt lat="40.713660623186236" lon="17.362746715821245"><ele>345.0</ele><time>2026-05-03T15:13:16Z</time></trkpt><trkpt lat="40.71372065399894" lon="17.36295068645754"><ele>344.0</ele><time>2026-05-03T15:13:17Z</time></trkpt><trkpt lat="40.7137833198829" lon="17.363144975494283"><ele>343.0</ele><time>2026-05-03T15:13:18Z</time></trkpt><trkpt lat="40.713801034117736" lon="17.363340206693046"><ele>342.0</ele><time>2026-05-03T15:13:19Z</time></trkpt><trkpt lat="40.713792348675504" lon="17.363535321759265"><ele>342.0</ele><time>2026-05-03T15:13:20Z</time></trkpt><trkpt lat="40.71377542190806" lon="17.363731904503638"><ele>342.0</ele><time>2026-05-03T15:13:21Z</time></trkpt><trkpt lat="40.713766267195375" lon="17.36395130278246"><ele>342.0</ele><time>2026-05-03T15:13:22Z</time></trkpt><trkpt lat="40.71373608065204" lon="17.36418530225704"><ele>340.3333333333333</ele><time>2026-05-03T15:13:23Z</time></trkpt><trkpt lat="40.713708297752845" lon="17.36443021338781"><ele>338.66666666666663</ele><time>2026-05-03T15:13:24Z</time></trkpt><trkpt lat="40.71368010897335" lon="17.364694886680056"><ele>337.0</ele><time>2026-05-03T15:13:25Z</time></trkpt><trkpt lat="40.713636130510615" lon="17.364957544535308"><ele>335.0</ele><time>2026-05-03T15:13:26Z</time></trkpt><trkpt lat="40.71360643761048" lon="17.365222111346462"><ele>333.0</ele><time>2026-05-03T15:13:27Z</time></trkpt><trkpt lat="40.71359279580878" lon="17.36548898464237"><ele>331.0</ele><time>2026-05-03T15:13:28Z</time></trkpt><trkpt lat="40.713572261551086" lon="17.36574388974616"><ele>329.0</ele><time>2026-05-03T15:13:29Z</time></trkpt><trkpt lat="40.713568130349906" lon="17.36601288557675"><ele>327.0</ele><time>2026-05-03T15:13:30Z</time></trkpt><trkpt lat="40.7135717904258" lon="17.36629432097311"><ele>325.0</ele><time>2026-05-03T15:13:30.999Z</time></trkpt><trkpt lat="40.713592996351395" lon="17.366566177131975"><ele>324.3333333333333</ele><time>2026-05-03T15:13:31.999Z</time></trkpt><trkpt lat="40.71362492404233" lon="17.36682886937242"><ele>323.6666666666667</ele><time>2026-05-03T15:13:32.999Z</time></trkpt><trkpt lat="40.71367698979209" lon="17.367075233484456"><ele>323.0</ele><time>2026-05-03T15:13:33.999Z</time></trkpt><trkpt lat="40.7137494146319" lon="17.367320394304762"><ele>322.0</ele><time>2026-05-03T15:13:34.999Z</time></trkpt><trkpt lat="40.71384677882296" lon="17.367576637342857"><ele>321.0</ele><time>2026-05-03T15:13:35.999Z</time></trkpt><trkpt lat="40.713956881031535" lon="17.36784220864913"><ele>320.0</ele><time>2026-05-03T15:13:36.999Z</time></trkpt><trkpt lat="40.71406598209774" lon="17.368105913817395"><ele>319.0</ele><time>2026-05-03T15:13:37.999Z</time></trkpt><trkpt lat="40.714170952245134" lon="17.36837918350134"><ele>318.0</ele><time>2026-05-03T15:13:38.999Z</time></trkpt><trkpt lat="40.714274505984875" lon="17.368660405120153"><ele>317.5</ele><time>2026-05-03T15:13:39.999Z</time></trkpt><trkpt lat="40.71437510445954" lon="17.368939625092867"><ele>317.0</ele><time>2026-05-03T15:13:40.999Z</time></trkpt><trkpt lat="40.71447195151298" lon="17.369208542991743"><ele>317.0</ele><time>2026-05-03T15:13:41.999Z</time></trkpt><trkpt lat="40.714563224625344" lon="17.369475131541503"><ele>317.0</ele><time>2026-05-03T15:13:42.999Z</time></trkpt><trkpt lat="40.71465432105864" lon="17.369737006756978"><ele>317.0</ele><time>2026-05-03T15:13:43.999Z</time></trkpt><trkpt lat="40.714753182294444" lon="17.369968346829825"><ele>317.0</ele><time>2026-05-03T15:13:44.999Z</time></trkpt><trkpt lat="40.71486126302334" lon="17.37021337837281"><ele>317.0</ele><time>2026-05-03T15:13:45.999Z</time></trkpt><trkpt lat="40.714980020358354" lon="17.370428245517928"><ele>317.0</ele><time>2026-05-03T15:13:46.999Z</time></trkpt><trkpt lat="40.71512799140966" lon="17.370633695975997"><ele>316.6666666666667</ele><time>2026-05-03T15:13:47.999Z</time></trkpt><trkpt lat="40.71527873355779" lon="17.370834815929303"><ele>316.3333333333333</ele><time>2026-05-03T15:13:48.999Z</time></trkpt><trkpt lat="40.71542966706921" lon="17.37100412793773"><ele>316.0</ele><time>2026-05-03T15:13:49.999Z</time></trkpt><trkpt lat="40.7155730371835" lon="17.37112491815048"><ele>316.0</ele><time>2026-05-03T15:13:50.999Z</time></trkpt><trkpt lat="40.715729985065174" lon="17.371233907963152"><ele>316.0</ele><time>2026-05-03T15:13:51.999Z</time></trkpt><trkpt lat="40.71590755824387" lon="17.371321898358353"><ele>316.0</ele><time>2026-05-03T15:13:52.999Z</time></trkpt><trkpt lat="40.71608933042993" lon="17.37139231194634"><ele>317.66666666666663</ele><time>2026-05-03T15:13:53.999Z</time></trkpt><trkpt lat="40.71625506070517" lon="17.371486298934677"><ele>319.3333333333333</ele><time>2026-05-03T15:13:54.999Z</time></trkpt><trkpt lat="40.71638858802164" lon="17.37163679936089"><ele>321.0</ele><time>2026-05-03T15:13:55.999Z</time></trkpt><trkpt lat="40.71653303084077" lon="17.371771362294037"><ele>321.0</ele><time>2026-05-03T15:13:56.999Z</time></trkpt><trkpt lat="40.71664817162371" lon="17.37193435248673"><ele>321.0</ele><time>2026-05-03T15:13:57.999Z</time></trkpt><trkpt lat="40.71671864177403" lon="17.37211560880192"><ele>321.0</ele><time>2026-05-03T15:13:58.999Z</time></trkpt><trkpt lat="40.71679229146036" lon="17.3723030394342"><ele>322.6666666666667</ele><time>2026-05-03T15:13:59.999Z</time></trkpt><trkpt lat="40.716880497370944" lon="17.372485073149672"><ele>324.33333333333337</ele><time>2026-05-03T15:14:00.999Z</time></trkpt><trkpt lat="40.71696698226868" lon="17.372675749528433"><ele>326.0</ele><time>2026-05-03T15:14:01.999Z</time></trkpt><trkpt lat="40.71708229443073" lon="17.372863834132204"><ele>325.6666666666667</ele><time>2026-05-03T15:14:02.999Z</time></trkpt><trkpt lat="40.71721860638029" lon="17.373053967653867"><ele>325.3333333333333</ele><time>2026-05-03T15:14:03.999Z</time></trkpt><trkpt lat="40.71736735042111" lon="17.373246671075243"><ele>325.0</ele><time>2026-05-03T15:14:04.999Z</time></trkpt><trkpt lat="40.7175242591872" lon="17.373450817322514"><ele>325.0</ele><time>2026-05-03T15:14:05.999Z</time></trkpt><trkpt lat="40.717680714828305" lon="17.373662498474037"><ele>325.0</ele><time>2026-05-03T15:14:06.999Z</time></trkpt><trkpt lat="40.71782845413586" lon="17.373843847857348"><ele>325.0</ele><time>2026-05-03T15:14:08Z</time></trkpt><trkpt lat="40.71795411921673" lon="17.3739976382827"><ele>325.3333333333333</ele><time>2026-05-03T15:14:09Z</time></trkpt><trkpt lat="40.71806409188371" lon="17.374140776607614"><ele>325.6666666666667</ele><time>2026-05-03T15:14:10Z</time></trkpt><trkpt lat="40.71817643003205" lon="17.37428588402925"><ele>326.0</ele><time>2026-05-03T15:14:11Z</time></trkpt><trkpt lat="40.71829941300891" lon="17.374444022885342"><ele>326.0</ele><time>2026-05-03T15:14:12Z</time></trkpt><trkpt lat="40.718413232482774" lon="17.374621998806564"><ele>326.0</ele><time>2026-05-03T15:14:13Z</time></trkpt><trkpt lat="40.71852450137208" lon="17.374777198926267"><ele>326.0</ele><time>2026-05-03T15:14:14Z</time></trkpt><trkpt lat="40.71863436364269" lon="17.37493678841612"><ele>324.33333333333337</ele><time>2026-05-03T15:14:15Z</time></trkpt><trkpt lat="40.718745260009115" lon="17.37508070147433"><ele>322.6666666666667</ele><time>2026-05-03T15:14:16Z</time></trkpt><trkpt lat="40.718826940159616" lon="17.375254418907158"><ele>321.0</ele><time>2026-05-03T15:14:17Z</time></trkpt><trkpt lat="40.71888172166331" lon="17.375462807029756"><ele>319.3333333333333</ele><time>2026-05-03T15:14:18Z</time></trkpt><trkpt lat="40.71895700216367" lon="17.375684132116874"><ele>317.66666666666663</ele><time>2026-05-03T15:14:19Z</time></trkpt><trkpt lat="40.71904649772158" lon="17.37591188809302"><ele>316.0</ele><time>2026-05-03T15:14:20Z</time></trkpt><trkpt lat="40.71913323802438" lon="17.37616815321271"><ele>312.5</ele><time>2026-05-03T15:14:21Z</time></trkpt><trkpt lat="40.71922969476318" lon="17.37644042226318"><ele>309.0</ele><time>2026-05-03T15:14:22Z</time></trkpt><trkpt lat="40.71933144951532" lon="17.37673089667466"><ele>307.5</ele><time>2026-05-03T15:14:23Z</time></trkpt><trkpt lat="40.71943954758305" lon="17.37704114622749"><ele>306.0</ele><time>2026-05-03T15:14:24Z</time></trkpt><trkpt lat="40.71953839760027" lon="17.377376885727855"><ele>306.0</ele><time>2026-05-03T15:14:25Z</time></trkpt><trkpt lat="40.71966268340625" lon="17.377685593086028"><ele>306.0</ele><time>2026-05-03T15:14:26Z</time></trkpt><trkpt lat="40.71975765515486" lon="17.377970300014816"><ele>305.6666666666667</ele><time>2026-05-03T15:14:27Z</time></trkpt><trkpt lat="40.71984695939086" lon="17.37822389700634"><ele>305.33333333333337</ele><time>2026-05-03T15:14:28Z</time></trkpt><trkpt lat="40.719903512574696" lon="17.378474335553435"><ele>305.0</ele><time>2026-05-03T15:14:29Z</time></trkpt><trkpt lat="40.7199587102066" lon="17.378720851414865"><ele>304.6666666666667</ele><time>2026-05-03T15:14:30Z</time></trkpt><trkpt lat="40.72000879534529" lon="17.378975882925484"><ele>304.3333333333333</ele><time>2026-05-03T15:14:31Z</time></trkpt><trkpt lat="40.72007165752897" lon="17.379218448061685"><ele>304.0</ele><time>2026-05-03T15:14:32Z</time></trkpt><trkpt lat="40.720114286323124" lon="17.379458498142093"><ele>303.66666666666663</ele><time>2026-05-03T15:14:33Z</time></trkpt><trkpt lat="40.72017078278939" lon="17.37969250998284"><ele>303.3333333333333</ele><time>2026-05-03T15:14:34Z</time></trkpt><trkpt lat="40.720248260026814" lon="17.37991539619375"><ele>303.0</ele><time>2026-05-03T15:14:35Z</time></trkpt><trkpt lat="40.72034199100091" lon="17.38010818710078"><ele>303.6666666666667</ele><time>2026-05-03T15:14:36Z</time></trkpt><trkpt lat="40.72045081676733" lon="17.38027691831378"><ele>304.33333333333337</ele><time>2026-05-03T15:14:37Z</time></trkpt><trkpt lat="40.72058742691012" lon="17.38043467973022"><ele>305.0</ele><time>2026-05-03T15:14:38Z</time></trkpt><trkpt lat="40.72072811942439" lon="17.38059226532087"><ele>305.0</ele><time>2026-05-03T15:14:39Z</time></trkpt><trkpt lat="40.720873999236794" lon="17.380754448073834"><ele>305.0</ele><time>2026-05-03T15:14:40Z</time></trkpt><trkpt lat="40.721022584417824" lon="17.380916403340752"><ele>305.0</ele><time>2026-05-03T15:14:41Z</time></trkpt><trkpt lat="40.72116304056214" lon="17.381080041502578"><ele>305.0</ele><time>2026-05-03T15:14:42Z</time></trkpt><trkpt lat="40.72130639490179" lon="17.381244188045024"><ele>305.0</ele><time>2026-05-03T15:14:43Z</time></trkpt><trkpt lat="40.72144872657577" lon="17.38140806278726"><ele>305.0</ele><time>2026-05-03T15:14:44Z</time></trkpt><trkpt lat="40.721594163230286" lon="17.38159005190968"><ele>305.0</ele><time>2026-05-03T15:14:45Z</time></trkpt><trkpt lat="40.72173765134745" lon="17.381787409616138"><ele>305.0</ele><time>2026-05-03T15:14:46Z</time></trkpt><trkpt lat="40.72187768396833" lon="17.38201806283692"><ele>305.0</ele><time>2026-05-03T15:14:47Z</time></trkpt><trkpt lat="40.72204127059245" lon="17.382251565284573"><ele>305.0</ele><time>2026-05-03T15:14:48Z</time></trkpt><trkpt lat="40.7222079711433" lon="17.382492599281655"><ele>305.0</ele><time>2026-05-03T15:14:49Z</time></trkpt><trkpt lat="40.72238597103425" lon="17.382726855224657"><ele>305.0</ele><time>2026-05-03T15:14:50Z</time></trkpt><trkpt lat="40.72254877441403" lon="17.382969872974446"><ele>305.0</ele><time>2026-05-03T15:14:51Z</time></trkpt><trkpt lat="40.72270608210253" lon="17.383194264237453"><ele>305.6666666666667</ele><time>2026-05-03T15:14:52Z</time></trkpt><trkpt lat="40.72287072024064" lon="17.383381387082068"><ele>306.3333333333333</ele><time>2026-05-03T15:14:53Z</time></trkpt><trkpt lat="40.72305353796358" lon="17.38354523859759"><ele>307.0</ele><time>2026-05-03T15:14:54Z</time></trkpt><trkpt lat="40.723246128893884" lon="17.383687316468297"><ele>307.0</ele><time>2026-05-03T15:14:55Z</time></trkpt><trkpt lat="40.7234484838422" lon="17.38381745208063"><ele>307.0</ele><time>2026-05-03T15:14:56Z</time></trkpt><trkpt lat="40.723625767505744" lon="17.383969093304923"><ele>307.0</ele><time>2026-05-03T15:14:57Z</time></trkpt><trkpt lat="40.723802685978995" lon="17.384096813957186"><ele>308.66666666666663</ele><time>2026-05-03T15:14:58Z</time></trkpt><trkpt lat="40.72396782970441" lon="17.3842160345952"><ele>310.3333333333333</ele><time>2026-05-03T15:14:59Z</time></trkpt><trkpt lat="40.7241439638606" lon="17.384341159947"><ele>312.0</ele><time>2026-05-03T15:15:00Z</time></trkpt><trkpt lat="40.72432672316734" lon="17.384470330267877"><ele>311.3333333333333</ele><time>2026-05-03T15:15:01Z</time></trkpt><trkpt lat="40.72450867672799" lon="17.38459893105932"><ele>310.66666666666663</ele><time>2026-05-03T15:15:02Z</time></trkpt><trkpt lat="40.72470135140571" lon="17.384735109318864"><ele>310.0</ele><time>2026-05-03T15:15:03Z</time></trkpt><trkpt lat="40.72487597360726" lon="17.384856349649"><ele>310.66666666666663</ele><time>2026-05-03T15:15:04Z</time></trkpt><trkpt lat="40.725036976977215" lon="17.384987021266973"><ele>311.3333333333333</ele><time>2026-05-03T15:15:05Z</time></trkpt><trkpt lat="40.72517875790221" lon="17.385136402321244"><ele>312.0</ele><time>2026-05-03T15:15:06Z</time></trkpt><trkpt lat="40.725295611043016" lon="17.38527563240865"><ele>312.0</ele><time>2026-05-03T15:15:07Z</time></trkpt><trkpt lat="40.725403875244346" lon="17.38546697163602"><ele>312.0</ele><time>2026-05-03T15:15:08Z</time></trkpt><trkpt lat="40.725495793001215" lon="17.38564813044451"><ele>312.0</ele><time>2026-05-03T15:15:09Z</time></trkpt><trkpt lat="40.72558155429428" lon="17.385808820118353"><ele>313.3333333333333</ele><time>2026-05-03T15:15:10Z</time></trkpt><trkpt lat="40.72564808394079" lon="17.385983492628892"><ele>314.66666666666663</ele><time>2026-05-03T15:15:11Z</time></trkpt><trkpt lat="40.725706079102196" lon="17.386173728224193"><ele>316.0</ele><time>2026-05-03T15:15:12Z</time></trkpt><trkpt lat="40.72578839330911" lon="17.386387540684833"><ele>317.0</ele><time>2026-05-03T15:15:13Z</time></trkpt><trkpt lat="40.72588742400184" lon="17.386644772484818"><ele>318.0</ele><time>2026-05-03T15:15:14Z</time></trkpt><trkpt lat="40.72599191667944" lon="17.386914758989892"><ele>319.0</ele><time>2026-05-03T15:15:15Z</time></trkpt><trkpt lat="40.7261070114936" lon="17.387202959734445"><ele>323.5</ele><time>2026-05-03T15:15:16Z</time></trkpt><trkpt lat="40.726219028347785" lon="17.387468946330557"><ele>328.0</ele><time>2026-05-03T15:15:17Z</time></trkpt><trkpt lat="40.72631604716966" lon="17.387751925718504"><ele>328.0</ele><time>2026-05-03T15:15:18Z</time></trkpt><trkpt lat="40.72643449744759" lon="17.38800903755506"><ele>328.0</ele><time>2026-05-03T15:15:19Z</time></trkpt><trkpt lat="40.72652931579651" lon="17.38824721121312"><ele>328.0</ele><time>2026-05-03T15:15:20Z</time></trkpt><trkpt lat="40.726599211829736" lon="17.3884742032562"><ele>329.66666666666663</ele><time>2026-05-03T15:15:21Z</time></trkpt><trkpt lat="40.72667445223039" lon="17.388671582195876"><ele>331.3333333333333</ele><time>2026-05-03T15:15:22Z</time></trkpt><trkpt lat="40.72675082007232" lon="17.38886962215673"><ele>333.0</ele><time>2026-05-03T15:15:23Z</time></trkpt><trkpt lat="40.726803713691716" lon="17.3890974674715"><ele>333.0</ele><time>2026-05-03T15:15:24Z</time></trkpt><trkpt lat="40.72685706876944" lon="17.389321414474153"><ele>333.0</ele><time>2026-05-03T15:15:25Z</time></trkpt><trkpt lat="40.726931896690935" lon="17.389529911839606"><ele>333.0</ele><time>2026-05-03T15:15:26Z</time></trkpt><trkpt lat="40.72701344664218" lon="17.389741814820276"><ele>335.3333333333333</ele><time>2026-05-03T15:15:27Z</time></trkpt><trkpt lat="40.72711517574838" lon="17.38991516053673"><ele>337.66666666666663</ele><time>2026-05-03T15:15:28Z</time></trkpt><trkpt lat="40.72724036658763" lon="17.390086105112132"><ele>340.0</ele><time>2026-05-03T15:15:29Z</time></trkpt><trkpt lat="40.72737520556187" lon="17.390257686707287"><ele>340.0</ele><time>2026-05-03T15:15:30Z</time></trkpt><trkpt lat="40.727534675815164" lon="17.390396669197365"><ele>340.0</ele><time>2026-05-03T15:15:30.999Z</time></trkpt><trkpt lat="40.7276939566709" lon="17.390538229098293"><ele>340.0</ele><time>2026-05-03T15:15:31.999Z</time></trkpt><trkpt lat="40.72783641867305" lon="17.39068113343593"><ele>341.3333333333333</ele><time>2026-05-03T15:15:32.999Z</time></trkpt><trkpt lat="40.72798545875262" lon="17.390801194479202"><ele>342.6666666666667</ele><time>2026-05-03T15:15:33.999Z</time></trkpt><trkpt lat="40.728131562295744" lon="17.390927647623517"><ele>344.0</ele><time>2026-05-03T15:15:34.999Z</time></trkpt><trkpt lat="40.728152292175764" lon="17.391142797276608"><ele>343.6666666666667</ele><time>2026-05-03T15:15:35.999Z</time></trkpt><trkpt lat="40.728225517742295" lon="17.39134155423185"><ele>343.3333333333333</ele><time>2026-05-03T15:15:36.999Z</time></trkpt><trkpt lat="40.72829932420844" lon="17.391544074633945"><ele>343.0</ele><time>2026-05-03T15:15:37.999Z</time></trkpt><trkpt lat="40.7283793109973" lon="17.391752686452953"><ele>343.0</ele><time>2026-05-03T15:15:38.999Z</time></trkpt><trkpt lat="40.728453421833684" lon="17.39195120533875"><ele>343.0</ele><time>2026-05-03T15:15:39.999Z</time></trkpt><trkpt lat="40.728521137369206" lon="17.39214816766486"><ele>343.0</ele><time>2026-05-03T15:15:40.999Z</time></trkpt><trkpt lat="40.728598780963324" lon="17.39235295164139"><ele>342.3333333333333</ele><time>2026-05-03T15:15:41.999Z</time></trkpt><trkpt lat="40.7286844527959" lon="17.392554492316833"><ele>341.6666666666667</ele><time>2026-05-03T15:15:42.999Z</time></trkpt><trkpt lat="40.72876725662489" lon="17.39276608476108"><ele>341.0</ele><time>2026-05-03T15:15:43.999Z</time></trkpt><trkpt lat="40.728846450798756" lon="17.392975173250388"><ele>341.33333333333337</ele><time>2026-05-03T15:15:44.999Z</time></trkpt><trkpt lat="40.72892582272435" lon="17.393193918742902"><ele>341.6666666666667</ele><time>2026-05-03T15:15:45.999Z</time></trkpt><trkpt lat="40.7290167730171" lon="17.39341905689653"><ele>342.0</ele><time>2026-05-03T15:15:46.999Z</time></trkpt><trkpt lat="40.7291092633551" lon="17.393646751761697"><ele>341.6666666666667</ele><time>2026-05-03T15:15:47.999Z</time></trkpt><trkpt lat="40.72918604041747" lon="17.393877765400962"><ele>341.33333333333337</ele><time>2026-05-03T15:15:48.999Z</time></trkpt><trkpt lat="40.729238470069" lon="17.394113306878648"><ele>341.0</ele><time>2026-05-03T15:15:49.999Z</time></trkpt><trkpt lat="40.72928399569657" lon="17.394349730503684"><ele>341.0</ele><time>2026-05-03T15:15:50.999Z</time></trkpt><trkpt lat="40.72929851235325" lon="17.39459300218706"><ele>341.0</ele><time>2026-05-03T15:15:51.999Z</time></trkpt><trkpt lat="40.72928201525639" lon="17.39485426431313"><ele>341.0</ele><time>2026-05-03T15:15:52.999Z</time></trkpt><trkpt lat="40.72924452042253" lon="17.395119421695338"><ele>341.0</ele><time>2026-05-03T15:15:53.999Z</time></trkpt><trkpt lat="40.72920140121194" lon="17.395378092178184"><ele>341.0</ele><time>2026-05-03T15:15:54.999Z</time></trkpt><trkpt lat="40.72917405596205" lon="17.395646361277848"><ele>341.0</ele><time>2026-05-03T15:15:55.999Z</time></trkpt><trkpt lat="40.72917181787413" lon="17.395936234764598"><ele>341.0</ele><time>2026-05-03T15:15:56.999Z</time></trkpt><trkpt lat="40.729193598808465" lon="17.396236657885105"><ele>341.0</ele><time>2026-05-03T15:15:57.999Z</time></trkpt><trkpt lat="40.72923407245699" lon="17.396528785322726"><ele>340.33333333333337</ele><time>2026-05-03T15:15:58.999Z</time></trkpt><trkpt lat="40.72928534445907" lon="17.396798803930327"><ele>339.6666666666667</ele><time>2026-05-03T15:15:59.999Z</time></trkpt><trkpt lat="40.72935287714189" lon="17.397050598749345"><ele>339.0</ele><time>2026-05-03T15:16:00.999Z</time></trkpt><trkpt lat="40.72943958728893" lon="17.397287840899317"><ele>340.3333333333333</ele><time>2026-05-03T15:16:01.999Z</time></trkpt><trkpt lat="40.72955990784863" lon="17.397503492184587"><ele>341.66666666666663</ele><time>2026-05-03T15:16:02.999Z</time></trkpt><trkpt lat="40.729708146675605" lon="17.39770954637152"><ele>343.0</ele><time>2026-05-03T15:16:03.999Z</time></trkpt><trkpt lat="40.72987101010506" lon="17.39791526838198"><ele>339.5</ele><time>2026-05-03T15:16:04.999Z</time></trkpt><trkpt lat="40.73003617609683" lon="17.398145888696597"><ele>336.0</ele><time>2026-05-03T15:16:05.999Z</time></trkpt><trkpt lat="40.730201513627925" lon="17.398420529195494"><ele>337.5</ele><time>2026-05-03T15:16:06.999Z</time></trkpt><trkpt lat="40.7303539149006" lon="17.398728237658435"><ele>339.0</ele><time>2026-05-03T15:16:07.999Z</time></trkpt><trkpt lat="40.73050504765206" lon="17.399022599098288"><ele>339.0</ele><time>2026-05-03T15:16:08.999Z</time></trkpt><trkpt lat="40.73065798649881" lon="17.399297779676775"><ele>339.0</ele><time>2026-05-03T15:16:09.999Z</time></trkpt><trkpt lat="40.730802314266214" lon="17.399549718145185"><ele>340.0</ele><time>2026-05-03T15:16:10.999Z</time></trkpt><trkpt lat="40.73095375394981" lon="17.39977721765917"><ele>341.0</ele><time>2026-05-03T15:16:11.999Z</time></trkpt><trkpt lat="40.7311310894938" lon="17.400011880196413"><ele>342.5</ele><time>2026-05-03T15:16:12.999Z</time></trkpt><trkpt lat="40.731313701778255" lon="17.400231711743505"><ele>344.0</ele><time>2026-05-03T15:16:14Z</time></trkpt><trkpt lat="40.731474986072435" lon="17.400473882701398"><ele>344.5</ele><time>2026-05-03T15:16:15Z</time></trkpt><trkpt lat="40.731661782205094" lon="17.40067949409843"><ele>345.0</ele><time>2026-05-03T15:16:16Z</time></trkpt><trkpt lat="40.73182748758806" lon="17.400881837510923"><ele>345.0</ele><time>2026-05-03T15:16:17Z</time></trkpt><trkpt lat="40.73197034247284" lon="17.401079150624543"><ele>345.0</ele><time>2026-05-03T15:16:18Z</time></trkpt><trkpt lat="40.73208167593765" lon="17.401275373265975"><ele>345.0</ele><time>2026-05-03T15:16:19Z</time></trkpt><trkpt lat="40.73216170619007" lon="17.40149009916439"><ele>345.3333333333333</ele><time>2026-05-03T15:16:20Z</time></trkpt><trkpt lat="40.73221207798245" lon="17.401717834748702"><ele>345.66666666666663</ele><time>2026-05-03T15:16:21Z</time></trkpt><trkpt lat="40.73223089062039" lon="17.401947133796163"><ele>346.0</ele><time>2026-05-03T15:16:22Z</time></trkpt><trkpt lat="40.73222631123341" lon="17.402195165488127"><ele>345.3333333333333</ele><time>2026-05-03T15:16:23Z</time></trkpt><trkpt lat="40.73220225389473" lon="17.40245399648141"><ele>344.6666666666667</ele><time>2026-05-03T15:16:24Z</time></trkpt><trkpt lat="40.73218676989287" lon="17.402699647327914"><ele>344.0</ele><time>2026-05-03T15:16:25Z</time></trkpt><trkpt lat="40.73220092322011" lon="17.402940217171246"><ele>343.6666666666667</ele><time>2026-05-03T15:16:26Z</time></trkpt><trkpt lat="40.73224760751609" lon="17.40317908315318"><ele>343.3333333333333</ele><time>2026-05-03T15:16:27Z</time></trkpt><trkpt lat="40.73231818275277" lon="17.403419576359184"><ele>343.0</ele><time>2026-05-03T15:16:28Z</time></trkpt><trkpt lat="40.73240765135426" lon="17.403673509500017"><ele>342.5</ele><time>2026-05-03T15:16:29Z</time></trkpt><trkpt lat="40.732509910758914" lon="17.403942021918446"><ele>342.0</ele><time>2026-05-03T15:16:30Z</time></trkpt><trkpt lat="40.7326071363174" lon="17.40422616445873"><ele>342.0</ele><time>2026-05-03T15:16:31Z</time></trkpt><trkpt lat="40.73270215880974" lon="17.40451705580088"><ele>342.0</ele><time>2026-05-03T15:16:32Z</time></trkpt><trkpt lat="40.73279818850464" lon="17.404804088936572"><ele>342.0</ele><time>2026-05-03T15:16:33Z</time></trkpt><trkpt lat="40.73287869707377" lon="17.405083976058034"><ele>342.0</ele><time>2026-05-03T15:16:34Z</time></trkpt><trkpt lat="40.73296160500254" lon="17.40534176396959"><ele>342.0</ele><time>2026-05-03T15:16:35Z</time></trkpt><trkpt lat="40.7330257320532" lon="17.405592726045313"><ele>343.0</ele><time>2026-05-03T15:16:36Z</time></trkpt><trkpt lat="40.73307351956538" lon="17.405854773245142"><ele>344.0</ele><time>2026-05-03T15:16:37Z</time></trkpt><trkpt lat="40.73310314588392" lon="17.40613965834463"><ele>345.0</ele><time>2026-05-03T15:16:38Z</time></trkpt><trkpt lat="40.73312082232571" lon="17.40643779736996"><ele>345.0</ele><time>2026-05-03T15:16:39Z</time></trkpt><trkpt lat="40.73313837904718" lon="17.40675714398352"><ele>345.0</ele><time>2026-05-03T15:16:40Z</time></trkpt><trkpt lat="40.733150239164445" lon="17.40707369135881"><ele>345.0</ele><time>2026-05-03T15:16:41Z</time></trkpt><trkpt lat="40.733178691909146" lon="17.407399318362934"><ele>345.0</ele><time>2026-05-03T15:16:42Z</time></trkpt><trkpt lat="40.73319330679459" lon="17.40772928125362"><ele>345.5</ele><time>2026-05-03T15:16:43Z</time></trkpt><trkpt lat="40.73320936658081" lon="17.408052513960445"><ele>346.0</ele><time>2026-05-03T15:16:44Z</time></trkpt><trkpt lat="40.73320582179652" lon="17.408349039352814"><ele>346.0</ele><time>2026-05-03T15:16:45Z</time></trkpt><trkpt lat="40.73323865766333" lon="17.40862082880866"><ele>346.0</ele><time>2026-05-03T15:16:46Z</time></trkpt><trkpt lat="40.73324807185409" lon="17.408875211982675"><ele>346.0</ele><time>2026-05-03T15:16:47Z</time></trkpt><trkpt lat="40.73328970058305" lon="17.40912538217118"><ele>344.66666666666663</ele><time>2026-05-03T15:16:48Z</time></trkpt><trkpt lat="40.733366597061156" lon="17.40939885906414"><ele>343.3333333333333</ele><time>2026-05-03T15:16:49Z</time></trkpt><trkpt lat="40.7334270672363" lon="17.40959133716659"><ele>342.0</ele><time>2026-05-03T15:16:50Z</time></trkpt><trkpt lat="40.73349869266383" lon="17.409786894133685"><ele>341.0</ele><time>2026-05-03T15:16:51Z</time></trkpt><trkpt lat="40.73357439666772" lon="17.40996665702319"><ele>340.0</ele><time>2026-05-03T15:16:52Z</time></trkpt><trkpt lat="40.733656563741" lon="17.41013804518495"><ele>339.0</ele><time>2026-05-03T15:16:53Z</time></trkpt><trkpt lat="40.73375991907676" lon="17.410312596140916"><ele>339.0</ele><time>2026-05-03T15:16:54Z</time></trkpt><trkpt lat="40.73387668903505" lon="17.410485895689884"><ele>339.0</ele><time>2026-05-03T15:16:55Z</time></trkpt><trkpt lat="40.73400154049225" lon="17.41065874121395"><ele>339.0</ele><time>2026-05-03T15:16:56Z</time></trkpt><trkpt lat="40.734144973708645" lon="17.410815963954366"><ele>339.3333333333333</ele><time>2026-05-03T15:16:57Z</time></trkpt><trkpt lat="40.73428864304999" lon="17.41097502652266"><ele>339.66666666666663</ele><time>2026-05-03T15:16:58Z</time></trkpt><trkpt lat="40.73444709040692" lon="17.41111430939675"><ele>340.0</ele><time>2026-05-03T15:16:59Z</time></trkpt><trkpt lat="40.73460801215772" lon="17.411248653195695"><ele>339.0</ele><time>2026-05-03T15:17:00Z</time></trkpt><trkpt lat="40.73476447886488" lon="17.411365434003645"><ele>338.0</ele><time>2026-05-03T15:17:01Z</time></trkpt><trkpt lat="40.73490542760757" lon="17.411513763373478"><ele>337.0</ele><time>2026-05-03T15:17:02Z</time></trkpt><trkpt lat="40.73504165715418" lon="17.411682258831256"><ele>337.0</ele><time>2026-05-03T15:17:03Z</time></trkpt><trkpt lat="40.73515620019619" lon="17.411895112416786"><ele>337.0</ele><time>2026-05-03T15:17:04Z</time></trkpt><trkpt lat="40.735269555216" lon="17.412113986059"><ele>337.0</ele><time>2026-05-03T15:17:05Z</time></trkpt><trkpt lat="40.73539579175985" lon="17.412342194986984"><ele>334.66666666666663</ele><time>2026-05-03T15:17:06Z</time></trkpt><trkpt lat="40.73550601606188" lon="17.412588476680625"><ele>332.3333333333333</ele><time>2026-05-03T15:17:07Z</time></trkpt><trkpt lat="40.73562084001313" lon="17.41282333155515"><ele>330.0</ele><time>2026-05-03T15:17:08Z</time></trkpt><trkpt lat="40.73572664054725" lon="17.41305543016563"><ele>329.6666666666667</ele><time>2026-05-03T15:17:09Z</time></trkpt><trkpt lat="40.73584319851381" lon="17.41326921616614"><ele>329.33333333333337</ele><time>2026-05-03T15:17:10Z</time></trkpt><trkpt lat="40.73597782204322" lon="17.413462788449113"><ele>329.0</ele><time>2026-05-03T15:17:11Z</time></trkpt><trkpt lat="40.7361258803801" lon="17.41363717282635"><ele>331.0</ele><time>2026-05-03T15:17:12Z</time></trkpt><trkpt lat="40.73628168848317" lon="17.413801483172264"><ele>333.0</ele><time>2026-05-03T15:17:13Z</time></trkpt><trkpt lat="40.7364218578363" lon="17.413940057476122"><ele>335.0</ele><time>2026-05-03T15:17:14Z</time></trkpt><trkpt lat="40.73655403950521" lon="17.414027023546964"><ele>335.4</ele><time>2026-05-03T15:17:15Z</time></trkpt><trkpt lat="40.73667699598972" lon="17.414114481488387"><ele>335.8</ele><time>2026-05-03T15:17:16Z</time></trkpt><trkpt lat="40.73677607340517" lon="17.41420300464244"><ele>336.20000000000005</ele><time>2026-05-03T15:17:17Z</time></trkpt><trkpt lat="40.73684771744019" lon="17.41429745333114"><ele>336.6</ele><time>2026-05-03T15:17:18Z</time></trkpt><trkpt lat="40.7368946738297" lon="17.414394108344897"><ele>337.0</ele><time>2026-05-03T15:17:19Z</time></trkpt><trkpt lat="40.736922372527644" lon="17.414477985291423"><ele>337.20000000000005</ele><time>2026-05-03T15:17:20Z</time></trkpt><trkpt lat="40.736951987854255" lon="17.414645062615506"><ele>337.4</ele><time>2026-05-03T15:17:22Z</time></trkpt><trkpt lat="40.7369714226397" lon="17.414740912423493"><ele>337.6</ele><time>2026-05-03T15:17:23Z</time></trkpt><trkpt lat="40.737024080365316" lon="17.414817159597423"><ele>337.79999999999995</ele><time>2026-05-03T15:17:24Z</time></trkpt><trkpt lat="40.73710824980306" lon="17.414869914980564"><ele>338.0</ele><time>2026-05-03T15:17:25Z</time></trkpt><trkpt lat="40.7372055545173" lon="17.414907466269458"><ele>338.0</ele><time>2026-05-03T15:17:26Z</time></trkpt><trkpt lat="40.737303957226096" lon="17.414962076274055"><ele>338.0</ele><time>2026-05-03T15:17:27Z</time></trkpt><trkpt lat="40.73738620866541" lon="17.415055075645977"><ele>338.0</ele><time>2026-05-03T15:17:28Z</time></trkpt><trkpt lat="40.73745371365475" lon="17.4151754164531"><ele>338.0</ele><time>2026-05-03T15:17:29Z</time></trkpt><trkpt lat="40.7374949758368" lon="17.415319066486212"><ele>338.0</ele><time>2026-05-03T15:17:30Z</time></trkpt><trkpt lat="40.73755421309172" lon="17.41546535484575"><ele>338.0</ele><time>2026-05-03T15:17:31Z</time></trkpt><trkpt lat="40.737623038280695" lon="17.415630756145674"><ele>338.0</ele><time>2026-05-03T15:17:32Z</time></trkpt><trkpt lat="40.73769154014955" lon="17.415796971499244"><ele>338.0</ele><time>2026-05-03T15:17:33Z</time></trkpt><trkpt lat="40.7377748403453" lon="17.415952785848262"><ele>338.0</ele><time>2026-05-03T15:17:34Z</time></trkpt><trkpt lat="40.73785122833366" lon="17.41613171260746"><ele>336.33333333333337</ele><time>2026-05-03T15:17:35Z</time></trkpt><trkpt lat="40.73793595963883" lon="17.416318397506355"><ele>334.6666666666667</ele><time>2026-05-03T15:17:36Z</time></trkpt><trkpt lat="40.73803222958883" lon="17.416510387553014"><ele>333.0</ele><time>2026-05-03T15:17:37Z</time></trkpt><trkpt lat="40.73813578078164" lon="17.41669660314899"><ele>332.3333333333333</ele><time>2026-05-03T15:17:38Z</time></trkpt><trkpt lat="40.73826506410652" lon="17.41688346943005"><ele>331.66666666666663</ele><time>2026-05-03T15:17:39Z</time></trkpt><trkpt lat="40.73837674440591" lon="17.417082790295236"><ele>331.0</ele><time>2026-05-03T15:17:40Z</time></trkpt><trkpt lat="40.73849462939796" lon="17.41726369436705"><ele>330.3333333333333</ele><time>2026-05-03T15:17:40.999Z</time></trkpt><trkpt lat="40.738602268280424" lon="17.417444410977406"><ele>329.6666666666667</ele><time>2026-05-03T15:17:41.999Z</time></trkpt><trkpt lat="40.738715095650484" lon="17.417623217885488"><ele>329.0</ele><time>2026-05-03T15:17:42.999Z</time></trkpt><trkpt lat="40.73884299339995" lon="17.417792370357265"><ele>329.0</ele><time>2026-05-03T15:17:43.999Z</time></trkpt><trkpt lat="40.73899786646421" lon="17.417952398335807"><ele>329.0</ele><time>2026-05-03T15:17:44.999Z</time></trkpt><trkpt lat="40.739177932426" lon="17.418098842353377"><ele>329.0</ele><time>2026-05-03T15:17:45.999Z</time></trkpt><trkpt lat="40.73936687734634" lon="17.41822064796715"><ele>331.0</ele><time>2026-05-03T15:17:46.999Z</time></trkpt><trkpt lat="40.7395541586725" lon="17.418333133715883"><ele>333.0</ele><time>2026-05-03T15:17:47.999Z</time></trkpt><trkpt lat="40.73972980182772" lon="17.41844648854531"><ele>335.0</ele><time>2026-05-03T15:17:48.999Z</time></trkpt><trkpt lat="40.73987966952494" lon="17.418583273621188"><ele>335.0</ele><time>2026-05-03T15:17:49.999Z</time></trkpt><trkpt lat="40.74003080627298" lon="17.418736626327373"><ele>335.0</ele><time>2026-05-03T15:17:50.999Z</time></trkpt><trkpt lat="40.740161172029815" lon="17.418891135315206"><ele>335.0</ele><time>2026-05-03T15:17:51.999Z</time></trkpt><trkpt lat="40.74029253862191" lon="17.419039981308263"><ele>337.0</ele><time>2026-05-03T15:17:52.999Z</time></trkpt><trkpt lat="40.7403819796485" lon="17.41916638975288"><ele>339.0</ele><time>2026-05-03T15:17:53.999Z</time></trkpt><trkpt lat="40.74044421380279" lon="17.419277075223793"><ele>341.0</ele><time>2026-05-03T15:17:54.999Z</time></trkpt><trkpt lat="40.740536588170045" lon="17.41939412279462"><ele>343.0</ele><time>2026-05-03T15:17:55.999Z</time></trkpt><trkpt lat="40.74061425304746" lon="17.41951026177674"><ele>343.5</ele><time>2026-05-03T15:17:56.999Z</time></trkpt><trkpt lat="40.74068799562469" lon="17.419655368749062"><ele>344.0</ele><time>2026-05-03T15:17:57.999Z</time></trkpt><trkpt lat="40.74075610592744" lon="17.41983004073357"><ele>344.5</ele><time>2026-05-03T15:17:58.999Z</time></trkpt><trkpt lat="40.74079787455629" lon="17.420034199620623"><ele>345.0</ele><time>2026-05-03T15:17:59.999Z</time></trkpt><trkpt lat="40.74083794855098" lon="17.420245585058186"><ele>345.0</ele><time>2026-05-03T15:18:00.999Z</time></trkpt><trkpt lat="40.74087003063084" lon="17.420459272159547"><ele>345.0</ele><time>2026-05-03T15:18:01.999Z</time></trkpt><trkpt lat="40.74087183607626" lon="17.42068720197559"><ele>345.0</ele><time>2026-05-03T15:18:02.999Z</time></trkpt><trkpt lat="40.74084303384716" lon="17.420895508342447"><ele>345.6666666666667</ele><time>2026-05-03T15:18:03.999Z</time></trkpt><trkpt lat="40.740805231682636" lon="17.42111410945284"><ele>346.33333333333337</ele><time>2026-05-03T15:18:04.999Z</time></trkpt><trkpt lat="40.74072794586572" lon="17.42132210210682"><ele>347.0</ele><time>2026-05-03T15:18:05.999Z</time></trkpt><trkpt lat="40.74064521552335" lon="17.421547155400763"><ele>347.33333333333337</ele><time>2026-05-03T15:18:06.999Z</time></trkpt><trkpt lat="40.74055685923188" lon="17.421799346040036"><ele>347.6666666666667</ele><time>2026-05-03T15:18:07.999Z</time></trkpt><trkpt lat="40.74043271425706" lon="17.4220492749295"><ele>348.0</ele><time>2026-05-03T15:18:08.999Z</time></trkpt><trkpt lat="40.74032068038579" lon="17.422299521112194"><ele>348.6666666666667</ele><time>2026-05-03T15:18:09.999Z</time></trkpt><trkpt lat="40.74022096092501" lon="17.422549765434887"><ele>349.33333333333337</ele><time>2026-05-03T15:18:10.999Z</time></trkpt><trkpt lat="40.74011734932395" lon="17.422790936774383"><ele>350.0</ele><time>2026-05-03T15:18:11.999Z</time></trkpt><trkpt lat="40.74000723936134" lon="17.423035011380037"><ele>349.6666666666667</ele><time>2026-05-03T15:18:12.999Z</time></trkpt><trkpt lat="40.739919626843275" lon="17.423296000233485"><ele>349.3333333333333</ele><time>2026-05-03T15:18:13.999Z</time></trkpt><trkpt lat="40.739812209839535" lon="17.423558032497432"><ele>349.0</ele><time>2026-05-03T15:18:14.999Z</time></trkpt><trkpt lat="40.73972444037276" lon="17.42382896119576"><ele>349.0</ele><time>2026-05-03T15:18:15.999Z</time></trkpt><trkpt lat="40.739638520010644" lon="17.424108013580817"><ele>349.0</ele><time>2026-05-03T15:18:16.999Z</time></trkpt><trkpt lat="40.73956050561652" lon="17.424400830736143"><ele>351.0</ele><time>2026-05-03T15:18:17.999Z</time></trkpt><trkpt lat="40.739478258857716" lon="17.424674424002582"><ele>353.0</ele><time>2026-05-03T15:18:18.999Z</time></trkpt><trkpt lat="40.73938455855867" lon="17.424950653512656"><ele>348.5</ele><time>2026-05-03T15:18:20Z</time></trkpt><trkpt lat="40.73930249624272" lon="17.425253751333322"><ele>344.0</ele><time>2026-05-03T15:18:21Z</time></trkpt><trkpt lat="40.73921461020546" lon="17.42551784463734"><ele>344.0</ele><time>2026-05-03T15:18:22Z</time></trkpt><trkpt lat="40.739133892769246" lon="17.42581967258388"><ele>344.0</ele><time>2026-05-03T15:18:23Z</time></trkpt><trkpt lat="40.739043620284555" lon="17.4260997892324"><ele>345.6666666666667</ele><time>2026-05-03T15:18:24Z</time></trkpt><trkpt lat="40.73896429791305" lon="17.426373440566856"><ele>347.3333333333333</ele><time>2026-05-03T15:18:25Z</time></trkpt><trkpt lat="40.73889598078183" lon="17.426640193443642"><ele>349.0</ele><time>2026-05-03T15:18:26Z</time></trkpt><trkpt lat="40.738839872106404" lon="17.426895692937062"><ele>353.3333333333333</ele><time>2026-05-03T15:18:27Z</time></trkpt><trkpt lat="40.73879297141472" lon="17.427144679503076"><ele>357.6666666666667</ele><time>2026-05-03T15:18:28Z</time></trkpt><trkpt lat="40.73875285569219" lon="17.427389646695175"><ele>362.0</ele><time>2026-05-03T15:18:29Z</time></trkpt><trkpt lat="40.73871109651273" lon="17.427619616614383"><ele>362.0</ele><time>2026-05-03T15:18:30Z</time></trkpt><trkpt lat="40.73868677303468" lon="17.427858521305645"><ele>362.0</ele><time>2026-05-03T15:18:31Z</time></trkpt><trkpt lat="40.73867622045495" lon="17.428082139146195"><ele>362.0</ele><time>2026-05-03T15:18:32Z</time></trkpt><trkpt lat="40.73865089166141" lon="17.428308487001733"><ele>363.6666666666667</ele><time>2026-05-03T15:18:33Z</time></trkpt><trkpt lat="40.73861633898452" lon="17.428530859584075"><ele>365.3333333333333</ele><time>2026-05-03T15:18:34Z</time></trkpt><trkpt lat="40.73855201162883" lon="17.42874609608206"><ele>367.0</ele><time>2026-05-03T15:18:35Z</time></trkpt><trkpt lat="40.738489513796495" lon="17.42896368326268"><ele>360.3333333333333</ele><time>2026-05-03T15:18:36Z</time></trkpt><trkpt lat="40.73842582076536" lon="17.429193910371097"><ele>353.6666666666667</ele><time>2026-05-03T15:18:37Z</time></trkpt><trkpt lat="40.73832531443781" lon="17.42939708046431"><ele>347.0</ele><time>2026-05-03T15:18:38Z</time></trkpt><trkpt lat="40.738215425129184" lon="17.429594555367828"><ele>348.33333333333337</ele><time>2026-05-03T15:18:39Z</time></trkpt><trkpt lat="40.73810327883166" lon="17.429785965878555"><ele>349.6666666666667</ele><time>2026-05-03T15:18:40Z</time></trkpt><trkpt lat="40.73798604209643" lon="17.429977924169144"><ele>351.0</ele><time>2026-05-03T15:18:41Z</time></trkpt><trkpt lat="40.737861021672195" lon="17.43016583869398"><ele>351.0</ele><time>2026-05-03T15:18:42Z</time></trkpt><trkpt lat="40.73772107703572" lon="17.430345544332628"><ele>351.0</ele><time>2026-05-03T15:18:43Z</time></trkpt><trkpt lat="40.73756477389535" lon="17.430503880160533"><ele>351.0</ele><time>2026-05-03T15:18:44Z</time></trkpt><trkpt lat="40.73739561048422" lon="17.430639578550323"><ele>347.3333333333333</ele><time>2026-05-03T15:18:45Z</time></trkpt><trkpt lat="40.73720898784079" lon="17.430737254620958"><ele>343.66666666666663</ele><time>2026-05-03T15:18:46Z</time></trkpt><trkpt lat="40.73702526149825" lon="17.430824656018714"><ele>340.0</ele><time>2026-05-03T15:18:47Z</time></trkpt><trkpt lat="40.736839813297856" lon="17.430894850274903"><ele>338.0</ele><time>2026-05-03T15:18:48Z</time></trkpt><trkpt lat="40.736655845897175" lon="17.430965943481738"><ele>336.0</ele><time>2026-05-03T15:18:49Z</time></trkpt><trkpt lat="40.73647199337248" lon="17.431018006097144"><ele>334.0</ele><time>2026-05-03T15:18:50Z</time></trkpt><trkpt lat="40.73629326426999" lon="17.431086524833027"><ele>334.0</ele><time>2026-05-03T15:18:51Z</time></trkpt><trkpt lat="40.736113590757085" lon="17.43117553567979"><ele>334.0</ele><time>2026-05-03T15:18:52Z</time></trkpt><trkpt lat="40.735939279977174" lon="17.4312928093218"><ele>334.0</ele><time>2026-05-03T15:18:53Z</time></trkpt><trkpt lat="40.735776484711835" lon="17.4314197369869"><ele>332.66666666666663</ele><time>2026-05-03T15:18:54Z</time></trkpt><trkpt lat="40.735630991898006" lon="17.431548039717764"><ele>331.3333333333333</ele><time>2026-05-03T15:18:55Z</time></trkpt><trkpt lat="40.73548435484381" lon="17.43170165160809"><ele>330.0</ele><time>2026-05-03T15:18:56Z</time></trkpt><trkpt lat="40.735356856610316" lon="17.431867461217912"><ele>330.0</ele><time>2026-05-03T15:18:57Z</time></trkpt><trkpt lat="40.73522604895031" lon="17.432040082941025"><ele>330.0</ele><time>2026-05-03T15:18:58Z</time></trkpt><trkpt lat="40.73511761693923" lon="17.43221092532561"><ele>330.0</ele><time>2026-05-03T15:18:59Z</time></trkpt><trkpt lat="40.73501871516545" lon="17.432363311723353"><ele>329.5</ele><time>2026-05-03T15:19:00Z</time></trkpt><trkpt lat="40.734926681102536" lon="17.432508186961858"><ele>329.0</ele><time>2026-05-03T15:19:01Z</time></trkpt><trkpt lat="40.73484164379207" lon="17.432644599335784"><ele>328.5</ele><time>2026-05-03T15:19:02Z</time></trkpt><trkpt lat="40.73477824739359" lon="17.432792481622215"><ele>328.0</ele><time>2026-05-03T15:19:03Z</time></trkpt><trkpt lat="40.73472569471589" lon="17.4329474417855"><ele>329.0</ele><time>2026-05-03T15:19:04Z</time></trkpt><trkpt lat="40.73468416756125" lon="17.433104888942516"><ele>330.0</ele><time>2026-05-03T15:19:05Z</time></trkpt><trkpt lat="40.734649419855565" lon="17.43325915174177"><ele>331.0</ele><time>2026-05-03T15:19:06Z</time></trkpt><trkpt lat="40.73462723351227" lon="17.433409232270485"><ele>332.0</ele><time>2026-05-03T15:19:07Z</time></trkpt><trkpt lat="40.734617144115816" lon="17.433545119079852"><ele>332.0</ele><time>2026-05-03T15:19:08Z</time></trkpt><trkpt lat="40.734611692095676" lon="17.433668691556935"><ele>332.0</ele><time>2026-05-03T15:19:09Z</time></trkpt><trkpt lat="40.73461386855707" lon="17.433773505263485"><ele>332.0</ele><time>2026-05-03T15:19:10Z</time></trkpt><trkpt lat="40.73461974462725" lon="17.433882617595632"><ele>332.0</ele><time>2026-05-03T15:19:11Z</time></trkpt><trkpt lat="40.7346272855739" lon="17.433979148975443"><ele>332.0</ele><time>2026-05-03T15:19:12Z</time></trkpt><trkpt lat="40.73462989149584" lon="17.434068100836654"><ele>332.0</ele><time>2026-05-03T15:19:13Z</time></trkpt><trkpt lat="40.7346303043715" lon="17.43422691022228"><ele>333.0</ele><time>2026-05-03T15:19:15Z</time></trkpt><trkpt lat="40.73460835478035" lon="17.434390886548606"><ele>334.0</ele><time>2026-05-03T15:19:17Z</time></trkpt><trkpt lat="40.73463401048202" lon="17.43450479293878"><ele>335.0</ele><time>2026-05-03T15:19:18Z</time></trkpt><trkpt lat="40.734691137121814" lon="17.434604254622336"><ele>336.0</ele><time>2026-05-03T15:19:19Z</time></trkpt><trkpt lat="40.73475471057223" lon="17.43470602886479"><ele>337.0</ele><time>2026-05-03T15:19:20Z</time></trkpt><trkpt lat="40.7348347446378" lon="17.43481328992483"><ele>337.75</ele><time>2026-05-03T15:19:21Z</time></trkpt><trkpt lat="40.73491286168209" lon="17.434940683530296"><ele>338.5</ele><time>2026-05-03T15:19:22Z</time></trkpt><trkpt lat="40.73499366138414" lon="17.435084277749223"><ele>339.25</ele><time>2026-05-03T15:19:23Z</time></trkpt><trkpt lat="40.73508421878388" lon="17.435228366348476"><ele>340.0</ele><time>2026-05-03T15:19:24Z</time></trkpt><trkpt lat="40.73519996597029" lon="17.43539091761275"><ele>344.66666666666663</ele><time>2026-05-03T15:19:25Z</time></trkpt><trkpt lat="40.73534373158226" lon="17.435545709843563"><ele>349.3333333333333</ele><time>2026-05-03T15:19:26Z</time></trkpt><trkpt lat="40.73551772156528" lon="17.435693219926172"><ele>354.0</ele><time>2026-05-03T15:19:27Z</time></trkpt><trkpt lat="40.73573498023077" lon="17.43584564680793"><ele>354.0</ele><time>2026-05-03T15:19:28Z</time></trkpt><trkpt lat="40.73595557058737" lon="17.436017649253646"><ele>354.0</ele><time>2026-05-03T15:19:29Z</time></trkpt><trkpt lat="40.73614738975593" lon="17.436169249469703"><ele>354.6666666666667</ele><time>2026-05-03T15:19:30Z</time></trkpt><trkpt lat="40.73631605353985" lon="17.436291802247265"><ele>355.33333333333337</ele><time>2026-05-03T15:19:31Z</time></trkpt><trkpt lat="40.7364924892596" lon="17.436393506220565"><ele>356.0</ele><time>2026-05-03T15:19:32Z</time></trkpt><trkpt lat="40.7366714464761" lon="17.43645091375694"><ele>356.0</ele><time>2026-05-03T15:19:33Z</time></trkpt><trkpt lat="40.73685753032527" lon="17.4364763022595"><ele>356.0</ele><time>2026-05-03T15:19:34Z</time></trkpt><trkpt lat="40.7370546753095" lon="17.436458822620555"><ele>356.0</ele><time>2026-05-03T15:19:35Z</time></trkpt><trkpt lat="40.73724723455493" lon="17.436412003376258"><ele>356.0</ele><time>2026-05-03T15:19:36Z</time></trkpt><trkpt lat="40.73743436811137" lon="17.43632080534279"><ele>356.0</ele><time>2026-05-03T15:19:37Z</time></trkpt><trkpt lat="40.73763308023233" lon="17.43619561262539"><ele>356.0</ele><time>2026-05-03T15:19:38Z</time></trkpt><trkpt lat="40.73783022303611" lon="17.436065748320075"><ele>358.0</ele><time>2026-05-03T15:19:39Z</time></trkpt><trkpt lat="40.73801902938117" lon="17.435972729706148"><ele>360.0</ele><time>2026-05-03T15:19:40Z</time></trkpt><trkpt lat="40.7382082087488" lon="17.435947831346827"><ele>362.0</ele><time>2026-05-03T15:19:41Z</time></trkpt><trkpt lat="40.73840196358477" lon="17.435948204654782"><ele>363.33333333333337</ele><time>2026-05-03T15:19:42Z</time></trkpt><trkpt lat="40.73858623108517" lon="17.436005635378073"><ele>364.6666666666667</ele><time>2026-05-03T15:19:43Z</time></trkpt><trkpt lat="40.73875915816162" lon="17.43607218733203"><ele>366.0</ele><time>2026-05-03T15:19:44Z</time></trkpt><trkpt lat="40.73893408590286" lon="17.436176799747674"><ele>366.0</ele><time>2026-05-03T15:19:45Z</time></trkpt><trkpt lat="40.73911268577487" lon="17.436324862659983"><ele>366.0</ele><time>2026-05-03T15:19:46Z</time></trkpt><trkpt lat="40.73929271588603" lon="17.436473137367653"><ele>366.0</ele><time>2026-05-03T15:19:46.999Z</time></trkpt><trkpt lat="40.739443486778164" lon="17.436592990503584"><ele>364.6666666666667</ele><time>2026-05-03T15:19:47.999Z</time></trkpt><trkpt lat="40.739642112629234" lon="17.43675644031186"><ele>363.33333333333337</ele><time>2026-05-03T15:19:48.999Z</time></trkpt><trkpt lat="40.73983723558938" lon="17.43687325696856"><ele>362.0</ele><time>2026-05-03T15:19:49.999Z</time></trkpt><trkpt lat="40.74001956785445" lon="17.43696941604189"><ele>362.0</ele><time>2026-05-03T15:19:50.999Z</time></trkpt><trkpt lat="40.74019867852724" lon="17.437051189587915"><ele>362.0</ele><time>2026-05-03T15:19:51.999Z</time></trkpt><trkpt lat="40.740393172338905" lon="17.43712198821945"><ele>362.0</ele><time>2026-05-03T15:19:52.999Z</time></trkpt><trkpt lat="40.74060059124051" lon="17.437167440291738"><ele>359.33333333333337</ele><time>2026-05-03T15:19:53.999Z</time></trkpt><trkpt lat="40.74080083750237" lon="17.43719288578562"><ele>356.6666666666667</ele><time>2026-05-03T15:19:54.999Z</time></trkpt><trkpt lat="40.74098399371453" lon="17.437194167799298"><ele>354.0</ele><time>2026-05-03T15:19:55.999Z</time></trkpt><trkpt lat="40.74114552188724" lon="17.437177590138276"><ele>353.2</ele><time>2026-05-03T15:19:56.999Z</time></trkpt><trkpt lat="40.74128665557999" lon="17.437157370435596"><ele>352.4</ele><time>2026-05-03T15:19:57.999Z</time></trkpt><trkpt lat="40.74140309436298" lon="17.43714649739425"><ele>351.6</ele><time>2026-05-03T15:19:58.999Z</time></trkpt><trkpt lat="40.74149483102195" lon="17.437153710027832"><ele>350.8</ele><time>2026-05-03T15:19:59.999Z</time></trkpt><trkpt lat="40.74157421561162" lon="17.437169000208876"><ele>350.0</ele><time>2026-05-03T15:20:00.999Z</time></trkpt><trkpt lat="40.74165033630336" lon="17.43721317303481"><ele>350.0</ele><time>2026-05-03T15:20:01.999Z</time></trkpt><trkpt lat="40.74172446584051" lon="17.43729062828579"><ele>350.0</ele><time>2026-05-03T15:20:02.999Z</time></trkpt><trkpt lat="40.7417980847856" lon="17.43741783617719"><ele>350.0</ele><time>2026-05-03T15:20:03.999Z</time></trkpt><trkpt lat="40.74185976427313" lon="17.43756135420007"><ele>350.0</ele><time>2026-05-03T15:20:04.999Z</time></trkpt><trkpt lat="40.741904197942404" lon="17.43770923027354"><ele>348.75</ele><time>2026-05-03T15:20:05.999Z</time></trkpt><trkpt lat="40.74194444135592" lon="17.437892132787166"><ele>347.5</ele><time>2026-05-03T15:20:06.999Z</time></trkpt><trkpt lat="40.74196997433935" lon="17.43809881739335"><ele>346.25</ele><time>2026-05-03T15:20:07.999Z</time></trkpt><trkpt lat="40.7419900852359" lon="17.43828005998848"><ele>345.0</ele><time>2026-05-03T15:20:08.999Z</time></trkpt><trkpt lat="40.74201295517712" lon="17.438460826079186"><ele>345.0</ele><time>2026-05-03T15:20:09.999Z</time></trkpt><trkpt lat="40.742036629472715" lon="17.438645455955452"><ele>345.0</ele><time>2026-05-03T15:20:10.999Z</time></trkpt><trkpt lat="40.74205101227028" lon="17.438840694914667"><ele>345.0</ele><time>2026-05-03T15:20:11.999Z</time></trkpt><trkpt lat="40.74204638479598" lon="17.439060368585036"><ele>342.6666666666667</ele><time>2026-05-03T15:20:12.999Z</time></trkpt><trkpt lat="40.74201721938865" lon="17.43929324971066"><ele>340.33333333333337</ele><time>2026-05-03T15:20:13.999Z</time></trkpt><trkpt lat="40.74197163820842" lon="17.43954297539602"><ele>338.0</ele><time>2026-05-03T15:20:14.999Z</time></trkpt><trkpt lat="40.74190781985494" lon="17.439801456047054"><ele>338.6666666666667</ele><time>2026-05-03T15:20:15.999Z</time></trkpt><trkpt lat="40.74183886043041" lon="17.440061117604067"><ele>339.3333333333333</ele><time>2026-05-03T15:20:16.999Z</time></trkpt><trkpt lat="40.74176188961024" lon="17.44034145015517"><ele>340.0</ele><time>2026-05-03T15:20:17.999Z</time></trkpt><trkpt lat="40.741691432104965" lon="17.440620225161123"><ele>337.66666666666663</ele><time>2026-05-03T15:20:18.999Z</time></trkpt><trkpt lat="40.74163058292931" lon="17.440884864932176"><ele>335.3333333333333</ele><time>2026-05-03T15:20:19.999Z</time></trkpt><trkpt lat="40.741581257567105" lon="17.44114401327149"><ele>333.0</ele><time>2026-05-03T15:20:20.999Z</time></trkpt><trkpt lat="40.74156492983246" lon="17.441396610763107"><ele>332.3333333333333</ele><time>2026-05-03T15:20:21.999Z</time></trkpt><trkpt lat="40.74156928994931" lon="17.44165344783946"><ele>331.66666666666663</ele><time>2026-05-03T15:20:22.999Z</time></trkpt><trkpt lat="40.741581182766446" lon="17.441910460322312"><ele>331.0</ele><time>2026-05-03T15:20:23.999Z</time></trkpt><trkpt lat="40.74156277109373" lon="17.4421647436601"><ele>330.0</ele><time>2026-05-03T15:20:24.999Z</time></trkpt><trkpt lat="40.74148632808475" lon="17.44239655854288"><ele>329.0</ele><time>2026-05-03T15:20:26Z</time></trkpt><trkpt lat="40.74143679410399" lon="17.442641873336505"><ele>328.0</ele><time>2026-05-03T15:20:27Z</time></trkpt><trkpt lat="40.74138722165448" lon="17.442880948293254"><ele>328.3333333333333</ele><time>2026-05-03T15:20:28Z</time></trkpt><trkpt lat="40.74135908581115" lon="17.443122291995834"><ele>328.6666666666667</ele><time>2026-05-03T15:20:29Z</time></trkpt><trkpt lat="40.741290656929785" lon="17.443316610285557"><ele>329.0</ele><time>2026-05-03T15:20:30Z</time></trkpt><trkpt lat="40.741219308539236" lon="17.44348264123394"><ele>329.0</ele><time>2026-05-03T15:20:31Z</time></trkpt><trkpt lat="40.74115432732303" lon="17.443652950494904"><ele>329.0</ele><time>2026-05-03T15:20:32Z</time></trkpt><trkpt lat="40.741018498772846" lon="17.443780749026946"><ele>329.0</ele><time>2026-05-03T15:20:33Z</time></trkpt><trkpt lat="40.74089922955755" lon="17.443940080906664"><ele>329.33333333333337</ele><time>2026-05-03T15:20:34Z</time></trkpt><trkpt lat="40.740769087706646" lon="17.44408646771275"><ele>329.6666666666667</ele><time>2026-05-03T15:20:35Z</time></trkpt><trkpt lat="40.74066236209493" lon="17.444259095315232"><ele>330.0</ele><time>2026-05-03T15:20:36Z</time></trkpt><trkpt lat="40.740593260866994" lon="17.4444642999085"><ele>328.0</ele><time>2026-05-03T15:20:37Z</time></trkpt><trkpt lat="40.74055411890712" lon="17.44470760524524"><ele>326.0</ele><time>2026-05-03T15:20:38Z</time></trkpt><trkpt lat="40.7405252381649" lon="17.44496204298412"><ele>324.0</ele><time>2026-05-03T15:20:39Z</time></trkpt><trkpt lat="40.740500199113995" lon="17.44520509355136"><ele>324.0</ele><time>2026-05-03T15:20:40Z</time></trkpt><trkpt lat="40.74050330037268" lon="17.445444157214506"><ele>324.0</ele><time>2026-05-03T15:20:41Z</time></trkpt><trkpt lat="40.74052481921374" lon="17.445691093232234"><ele>324.0</ele><time>2026-05-03T15:20:42Z</time></trkpt><trkpt lat="40.74053682723287" lon="17.445954011957166"><ele>323.0</ele><time>2026-05-03T15:20:43Z</time></trkpt><trkpt lat="40.740554742441184" lon="17.446193811504802"><ele>322.0</ele><time>2026-05-03T15:20:44Z</time></trkpt><trkpt lat="40.74057057883819" lon="17.44642058383852"><ele>321.0</ele><time>2026-05-03T15:20:45Z</time></trkpt><trkpt lat="40.740565229121586" lon="17.44663126578474"><ele>319.3333333333333</ele><time>2026-05-03T15:20:46Z</time></trkpt><trkpt lat="40.74053207117272" lon="17.446848008500222"><ele>317.66666666666663</ele><time>2026-05-03T15:20:47Z</time></trkpt><trkpt lat="40.740482347357464" lon="17.447101674011897"><ele>316.0</ele><time>2026-05-03T15:20:48Z</time></trkpt><trkpt lat="40.740428036954356" lon="17.447358241257717"><ele>314.3333333333333</ele><time>2026-05-03T15:20:49Z</time></trkpt><trkpt lat="40.74038592451485" lon="17.447618269193367"><ele>312.6666666666667</ele><time>2026-05-03T15:20:50Z</time></trkpt><trkpt lat="40.740332793560796" lon="17.447869693560246"><ele>311.0</ele><time>2026-05-03T15:20:51Z</time></trkpt><trkpt lat="40.74029572265946" lon="17.448124918184337"><ele>309.5</ele><time>2026-05-03T15:20:52Z</time></trkpt><trkpt lat="40.74026960452852" lon="17.44839814647205"><ele>308.0</ele><time>2026-05-03T15:20:53Z</time></trkpt><trkpt lat="40.740236343472226" lon="17.448720001401323"><ele>308.33333333333337</ele><time>2026-05-03T15:20:54Z</time></trkpt><trkpt lat="40.740236107423094" lon="17.448998794945577"><ele>308.6666666666667</ele><time>2026-05-03T15:20:55Z</time></trkpt><trkpt lat="40.7402036237556" lon="17.449303215168694"><ele>309.0</ele><time>2026-05-03T15:20:56Z</time></trkpt><trkpt lat="40.74018514561104" lon="17.449612395293745"><ele>309.0</ele><time>2026-05-03T15:20:57Z</time></trkpt><trkpt lat="40.74016348711146" lon="17.449900835365693"><ele>309.0</ele><time>2026-05-03T15:20:58Z</time></trkpt><trkpt lat="40.740137042005294" lon="17.450180463989"><ele>309.0</ele><time>2026-05-03T15:20:59Z</time></trkpt><trkpt lat="40.740112930606216" lon="17.450424443029263"><ele>309.0</ele><time>2026-05-03T15:21:00Z</time></trkpt><trkpt lat="40.740085767998735" lon="17.450687730265077"><ele>309.0</ele><time>2026-05-03T15:21:01Z</time></trkpt><trkpt lat="40.74005794357202" lon="17.450954892232183"><ele>309.0</ele><time>2026-05-03T15:21:02Z</time></trkpt><trkpt lat="40.740031252111315" lon="17.451211175775082"><ele>309.0</ele><time>2026-05-03T15:21:03Z</time></trkpt><trkpt lat="40.74000460697901" lon="17.451467014504832"><ele>309.0</ele><time>2026-05-03T15:21:04Z</time></trkpt><trkpt lat="40.7399789887454" lon="17.4517129932465"><ele>309.0</ele><time>2026-05-03T15:21:05Z</time></trkpt><trkpt lat="40.739954353229635" lon="17.451949536235208"><ele>308.6666666666667</ele><time>2026-05-03T15:21:06Z</time></trkpt><trkpt lat="40.739934146175536" lon="17.45217483787035"><ele>308.33333333333337</ele><time>2026-05-03T15:21:07Z</time></trkpt><trkpt lat="40.73994013360399" lon="17.452385841388338"><ele>308.0</ele><time>2026-05-03T15:21:08Z</time></trkpt><trkpt lat="40.73994500717244" lon="17.452601318505785"><ele>308.0</ele><time>2026-05-03T15:21:09Z</time></trkpt><trkpt lat="40.739940408869394" lon="17.452808677860915"><ele>308.0</ele><time>2026-05-03T15:21:10Z</time></trkpt><trkpt lat="40.73992668894761" lon="17.452998481551177"><ele>308.0</ele><time>2026-05-03T15:21:11Z</time></trkpt><trkpt lat="40.739893608015265" lon="17.45318048509244"><ele>308.0</ele><time>2026-05-03T15:21:12Z</time></trkpt><trkpt lat="40.73984982898171" lon="17.453370605905434"><ele>306.33333333333337</ele><time>2026-05-03T15:21:13Z</time></trkpt><trkpt lat="40.73981577128304" lon="17.453582519198484"><ele>304.6666666666667</ele><time>2026-05-03T15:21:14Z</time></trkpt><trkpt lat="40.73976453202626" lon="17.4537938027416"><ele>303.0</ele><time>2026-05-03T15:21:15Z</time></trkpt><trkpt lat="40.73972786171688" lon="17.453963384398833"><ele>301.75</ele><time>2026-05-03T15:21:16Z</time></trkpt><trkpt lat="40.73968561631716" lon="17.454136029993453"><ele>300.5</ele><time>2026-05-03T15:21:17Z</time></trkpt><trkpt lat="40.73966733228743" lon="17.454307508521847"><ele>299.25</ele><time>2026-05-03T15:21:18Z</time></trkpt><trkpt lat="40.73968645696879" lon="17.4544790810161"><ele>298.0</ele><time>2026-05-03T15:21:19Z</time></trkpt><trkpt lat="40.73972325080748" lon="17.454661989425773"><ele>297.0</ele><time>2026-05-03T15:21:20Z</time></trkpt><trkpt lat="40.739783870398135" lon="17.4548494316312"><ele>296.0</ele><time>2026-05-03T15:21:21Z</time></trkpt><trkpt lat="40.73986736863662" lon="17.455026620139954"><ele>295.0</ele><time>2026-05-03T15:21:22Z</time></trkpt><trkpt lat="40.73997801037687" lon="17.45520316840416"><ele>295.0</ele><time>2026-05-03T15:21:23Z</time></trkpt><trkpt lat="40.74011810841767" lon="17.455384701946624"><ele>295.0</ele><time>2026-05-03T15:21:24Z</time></trkpt><trkpt lat="40.74027301308527" lon="17.455581637478083"><ele>295.0</ele><time>2026-05-03T15:21:25Z</time></trkpt><trkpt lat="40.74042798865035" lon="17.45579845731593"><ele>294.0</ele><time>2026-05-03T15:21:26Z</time></trkpt><trkpt lat="40.74059090563123" lon="17.456018880799615"><ele>293.0</ele><time>2026-05-03T15:21:27Z</time></trkpt><trkpt lat="40.74074455259576" lon="17.45622278395424"><ele>293.33333333333337</ele><time>2026-05-03T15:21:28Z</time></trkpt><trkpt lat="40.74088931955925" lon="17.456417924897142"><ele>293.6666666666667</ele><time>2026-05-03T15:21:29Z</time></trkpt><trkpt lat="40.74101052658119" lon="17.456615033226438"><ele>294.0</ele><time>2026-05-03T15:21:30Z</time></trkpt><trkpt lat="40.74112527732251" lon="17.456772147299404"><ele>295.25</ele><time>2026-05-03T15:21:31Z</time></trkpt><trkpt lat="40.741215964729456" lon="17.456918377077812"><ele>296.5</ele><time>2026-05-03T15:21:32Z</time></trkpt><trkpt lat="40.74127428148446" lon="17.457059172878058"><ele>297.75</ele><time>2026-05-03T15:21:33Z</time></trkpt><trkpt lat="40.74133221271422" lon="17.457210741742948"><ele>299.0</ele><time>2026-05-03T15:21:34Z</time></trkpt><trkpt lat="40.74134565074267" lon="17.457403329855786"><ele>299.33333333333337</ele><time>2026-05-03T15:21:35Z</time></trkpt><trkpt lat="40.74132645272227" lon="17.457617360504837"><ele>299.6666666666667</ele><time>2026-05-03T15:21:36Z</time></trkpt><trkpt lat="40.741276578426394" lon="17.457826740826356"><ele>300.0</ele><time>2026-05-03T15:21:37Z</time></trkpt><trkpt lat="40.7411553253082" lon="17.458001252639555"><ele>300.0</ele><time>2026-05-03T15:21:38Z</time></trkpt><trkpt lat="40.74105229974311" lon="17.458203973817795"><ele>300.0</ele><time>2026-05-03T15:21:39Z</time></trkpt><trkpt lat="40.74094037417979" lon="17.45841374406405"><ele>300.0</ele><time>2026-05-03T15:21:40Z</time></trkpt><trkpt lat="40.74082836566458" lon="17.45862195421665"><ele>302.3333333333333</ele><time>2026-05-03T15:21:41Z</time></trkpt><trkpt lat="40.74071548451847" lon="17.458828099428533"><ele>304.66666666666663</ele><time>2026-05-03T15:21:42Z</time></trkpt><trkpt lat="40.74059737290996" lon="17.45902958285382"><ele>307.0</ele><time>2026-05-03T15:21:43Z</time></trkpt><trkpt lat="40.740487521897805" lon="17.45924763118597"><ele>307.0</ele><time>2026-05-03T15:21:44Z</time></trkpt><trkpt lat="40.74035534040677" lon="17.4594343146944"><ele>307.0</ele><time>2026-05-03T15:21:45Z</time></trkpt><trkpt lat="40.74024104830526" lon="17.459616123189683"><ele>307.0</ele><time>2026-05-03T15:21:45.999Z</time></trkpt><trkpt lat="40.74011956569345" lon="17.459775238510268"><ele>308.3333333333333</ele><time>2026-05-03T15:21:46.999Z</time></trkpt><trkpt lat="40.74000291246892" lon="17.4599318054845"><ele>309.6666666666667</ele><time>2026-05-03T15:21:47.999Z</time></trkpt><trkpt lat="40.73988521159665" lon="17.460072314711883"><ele>311.0</ele><time>2026-05-03T15:21:48.999Z</time></trkpt><trkpt lat="40.73979733532577" lon="17.460225436556495"><ele>311.0</ele><time>2026-05-03T15:21:49.999Z</time></trkpt><trkpt lat="40.73973537065687" lon="17.460403442892115"><ele>311.0</ele><time>2026-05-03T15:21:50.999Z</time></trkpt><trkpt lat="40.73970097026869" lon="17.46059910275477"><ele>311.0</ele><time>2026-05-03T15:21:51.999Z</time></trkpt><trkpt lat="40.73970444009101" lon="17.460801668873106"><ele>309.33333333333337</ele><time>2026-05-03T15:21:52.999Z</time></trkpt><trkpt lat="40.73973115933514" lon="17.46100585901676"><ele>307.6666666666667</ele><time>2026-05-03T15:21:53.999Z</time></trkpt><trkpt lat="40.739780651625026" lon="17.461223323430282"><ele>306.0</ele><time>2026-05-03T15:21:54.999Z</time></trkpt><trkpt lat="40.739795917123146" lon="17.461438019343802"><ele>305.75</ele><time>2026-05-03T15:21:55.999Z</time></trkpt><trkpt lat="40.73980177679746" lon="17.46163436932248"><ele>305.5</ele><time>2026-05-03T15:21:56.999Z</time></trkpt><trkpt lat="40.73977443404817" lon="17.461817391921"><ele>305.25</ele><time>2026-05-03T15:21:57.999Z</time></trkpt><trkpt lat="40.73972346343299" lon="17.46200180381432"><ele>305.0</ele><time>2026-05-03T15:21:58.999Z</time></trkpt><trkpt lat="40.73965688714012" lon="17.462199192587953"><ele>305.0</ele><time>2026-05-03T15:21:59.999Z</time></trkpt><trkpt lat="40.73960106217618" lon="17.46239982107531"><ele>305.0</ele><time>2026-05-03T15:22:00.999Z</time></trkpt><trkpt lat="40.73955868990643" lon="17.46258901099641"><ele>305.0</ele><time>2026-05-03T15:22:01.999Z</time></trkpt><trkpt lat="40.73955512492501" lon="17.462775696980103"><ele>305.75</ele><time>2026-05-03T15:22:02.999Z</time></trkpt><trkpt lat="40.7395863552704" lon="17.46295631892898"><ele>306.5</ele><time>2026-05-03T15:22:03.999Z</time></trkpt><trkpt lat="40.73963079254771" lon="17.46314299216069"><ele>307.25</ele><time>2026-05-03T15:22:04.999Z</time></trkpt><trkpt lat="40.73963269630993" lon="17.46331719063816"><ele>308.0</ele><time>2026-05-03T15:22:05.999Z</time></trkpt><trkpt lat="40.73960996280853" lon="17.46349354466731"><ele>308.0</ele><time>2026-05-03T15:22:06.999Z</time></trkpt><trkpt lat="40.73956979998964" lon="17.463680022071035"><ele>308.0</ele><time>2026-05-03T15:22:07.999Z</time></trkpt><trkpt lat="40.739499622352355" lon="17.463908780181324"><ele>308.0</ele><time>2026-05-03T15:22:08.999Z</time></trkpt><trkpt lat="40.73944651079371" lon="17.464112227282335"><ele>307.5</ele><time>2026-05-03T15:22:09.999Z</time></trkpt><trkpt lat="40.73938032084573" lon="17.464278590953796"><ele>307.0</ele><time>2026-05-03T15:22:10.999Z</time></trkpt><trkpt lat="40.73932788669909" lon="17.464446140544712"><ele>306.5</ele><time>2026-05-03T15:22:11.999Z</time></trkpt><trkpt lat="40.739293948249305" lon="17.464613061199543"><ele>306.0</ele><time>2026-05-03T15:22:12.999Z</time></trkpt><trkpt lat="40.73928889029378" lon="17.464801369275698"><ele>306.0</ele><time>2026-05-03T15:22:13.999Z</time></trkpt><trkpt lat="40.73930192316026" lon="17.46501110789411"><ele>306.0</ele><time>2026-05-03T15:22:14.999Z</time></trkpt><trkpt lat="40.73929784221588" lon="17.46520456638263"><ele>306.0</ele><time>2026-05-03T15:22:15.999Z</time></trkpt><trkpt lat="40.739299129573915" lon="17.465386295467244"><ele>306.0</ele><time>2026-05-03T15:22:16.999Z</time></trkpt><trkpt lat="40.73930030960279" lon="17.465552873494772"><ele>304.6</ele><time>2026-05-03T15:22:17.999Z</time></trkpt><trkpt lat="40.739301420526274" lon="17.465709696179925"><ele>303.20000000000005</ele><time>2026-05-03T15:22:18.999Z</time></trkpt><trkpt lat="40.73931708715118" lon="17.46585788456601"><ele>301.79999999999995</ele><time>2026-05-03T15:22:19.999Z</time></trkpt><trkpt lat="40.73931175663398" lon="17.46599985613558"><ele>300.4</ele><time>2026-05-03T15:22:20.999Z</time></trkpt><trkpt lat="40.73932140062892" lon="17.466129061240142"><ele>299.0</ele><time>2026-05-03T15:22:21.999Z</time></trkpt><trkpt lat="40.739331660457516" lon="17.466249569588776"><ele>298.33333333333337</ele><time>2026-05-03T15:22:22.999Z</time></trkpt><trkpt lat="40.73934126592015" lon="17.466345975892747"><ele>297.6666666666667</ele><time>2026-05-03T15:22:23.999Z</time></trkpt><trkpt lat="40.73935591160686" lon="17.46643085606605"><ele>297.0</ele><time>2026-05-03T15:22:24.999Z</time></trkpt><trkpt lat="40.73936297861033" lon="17.46651716445398"><ele>296.3333333333333</ele><time>2026-05-03T15:22:25.999Z</time></trkpt><trkpt lat="40.739374958801974" lon="17.466674966116564"><ele>295.66666666666663</ele><time>2026-05-03T15:22:27.999Z</time></trkpt><trkpt lat="40.73938091259282" lon="17.46677621820205"><ele>295.0</ele><time>2026-05-03T15:22:28.999Z</time></trkpt><trkpt lat="40.7393598335615" lon="17.466883490904685"><ele>295.0</ele><time>2026-05-03T15:22:29.999Z</time></trkpt><trkpt lat="40.73933427065845" lon="17.467013474251754"><ele>295.0</ele><time>2026-05-03T15:22:30.999Z</time></trkpt><trkpt lat="40.73930689122411" lon="17.46714845425412"><ele>295.0</ele><time>2026-05-03T15:22:32Z</time></trkpt><trkpt lat="40.739295256400936" lon="17.46728022668588"><ele>295.0</ele><time>2026-05-03T15:22:33Z</time></trkpt><trkpt lat="40.739262622409896" lon="17.46739759506188"><ele>295.0</ele><time>2026-05-03T15:22:34Z</time></trkpt><trkpt lat="40.73923990669181" lon="17.467514756051028"><ele>294.6</ele><time>2026-05-03T15:22:35Z</time></trkpt><trkpt lat="40.73921543609377" lon="17.467628910899876"><ele>294.2</ele><time>2026-05-03T15:22:36Z</time></trkpt><trkpt lat="40.73919315151551" lon="17.46775510601018"><ele>293.8</ele><time>2026-05-03T15:22:37Z</time></trkpt><trkpt lat="40.73917116671634" lon="17.467880830695226"><ele>293.4</ele><time>2026-05-03T15:22:38Z</time></trkpt><trkpt lat="40.73916492703713" lon="17.46799688939676"><ele>293.0</ele><time>2026-05-03T15:22:39Z</time></trkpt><trkpt lat="40.73916324199799" lon="17.46810506079911"><ele>292.83333333333337</ele><time>2026-05-03T15:22:40Z</time></trkpt><trkpt lat="40.73916647522161" lon="17.468205944329917"><ele>292.6666666666667</ele><time>2026-05-03T15:22:41Z</time></trkpt><trkpt lat="40.73916039892109" lon="17.468379315554664"><ele>292.5</ele><time>2026-05-03T15:22:43Z</time></trkpt><trkpt lat="40.739147593857055" lon="17.468466061937114"><ele>292.3333333333333</ele><time>2026-05-03T15:22:44Z</time></trkpt><trkpt lat="40.739131602162296" lon="17.46855212464949"><ele>292.16666666666663</ele><time>2026-05-03T15:22:45Z</time></trkpt><trkpt lat="40.73910389583467" lon="17.468646295783937"><ele>292.0</ele><time>2026-05-03T15:22:46Z</time></trkpt><trkpt lat="40.73906775672042" lon="17.468735421101073"><ele>292.2857142857143</ele><time>2026-05-03T15:22:47Z</time></trkpt><trkpt lat="40.73902471048296" lon="17.468816005769664"><ele>292.57142857142856</ele><time>2026-05-03T15:22:48Z</time></trkpt><trkpt lat="40.73897860100548" lon="17.468894533849628"><ele>292.8571428571429</ele><time>2026-05-03T15:22:49Z</time></trkpt><trkpt lat="40.73892925521743" lon="17.46897611848366"><ele>293.1428571428571</ele><time>2026-05-03T15:22:50Z</time></trkpt><trkpt lat="40.73887944435797" lon="17.46905506447105"><ele>293.42857142857144</ele><time>2026-05-03T15:22:51Z</time></trkpt><trkpt lat="40.738834497616274" lon="17.469126116222792"><ele>293.7142857142857</ele><time>2026-05-03T15:22:52Z</time></trkpt><trkpt lat="40.738792932455326" lon="17.46919381320424"><ele>294.0</ele><time>2026-05-03T15:22:53Z</time></trkpt><trkpt lat="40.73874733298871" lon="17.469277428517636"><ele>294.0</ele><time>2026-05-03T15:22:54Z</time></trkpt><trkpt lat="40.7387055076698" lon="17.46935901408525"><ele>294.0</ele><time>2026-05-03T15:22:55Z</time></trkpt><trkpt lat="40.7386587177636" lon="17.4694709765818"><ele>294.0</ele><time>2026-05-03T15:22:57Z</time></trkpt><trkpt lat="40.73862368935311" lon="17.469576089829097"><ele>294.0</ele><time>2026-05-03T15:22:59Z</time></trkpt><trkpt lat="40.73856936518139" lon="17.469746606004772"><ele>294.0</ele><time>2026-05-03T15:23:01Z</time></trkpt><trkpt lat="40.738521577639816" lon="17.469905583978374"><ele>295.0</ele><time>2026-05-03T15:23:02Z</time></trkpt><trkpt lat="40.73846874280985" lon="17.47007564187246"><ele>296.0</ele><time>2026-05-03T15:23:03Z</time></trkpt><trkpt lat="40.73842887020071" lon="17.47020401868575"><ele>297.0</ele><time>2026-05-03T15:23:04Z</time></trkpt><trkpt lat="40.738394007203055" lon="17.470316249675705"><ele>298.0</ele><time>2026-05-03T15:23:05Z</time></trkpt><trkpt lat="40.738364730063346" lon="17.470410498603542"><ele>299.0</ele><time>2026-05-03T15:23:06Z</time></trkpt><trkpt lat="40.73833853878038" lon="17.47049480853707"><ele>299.33333333333337</ele><time>2026-05-03T15:23:07Z</time></trkpt><trkpt lat="40.7383336167391" lon="17.470580853504796"><ele>299.6666666666667</ele><time>2026-05-03T15:23:08Z</time></trkpt><trkpt lat="40.738305302805486" lon="17.470702126140225"><ele>300.0</ele><time>2026-05-03T15:23:10Z</time></trkpt><trkpt lat="40.738272977703076" lon="17.47079394403721"><ele>300.3333333333333</ele><time>2026-05-03T15:23:11Z</time></trkpt><trkpt lat="40.738214943934075" lon="17.470899602890366"><ele>300.66666666666663</ele><time>2026-05-03T15:23:12Z</time></trkpt><trkpt lat="40.73818696154797" lon="17.471037795135274"><ele>301.0</ele><time>2026-05-03T15:23:13Z</time></trkpt><trkpt lat="40.738148167533666" lon="17.47117737436971"><ele>300.6</ele><time>2026-05-03T15:23:14Z</time></trkpt><trkpt lat="40.73811610454049" lon="17.4712975953108"><ele>300.20000000000005</ele><time>2026-05-03T15:23:15Z</time></trkpt><trkpt lat="40.73809167072256" lon="17.47140865754192"><ele>299.79999999999995</ele><time>2026-05-03T15:23:16Z</time></trkpt><trkpt lat="40.738058332499584" lon="17.471514258664918"><ele>299.4</ele><time>2026-05-03T15:23:17Z</time></trkpt><trkpt lat="40.73806129787991" lon="17.471662587506763"><ele>299.0</ele><time>2026-05-03T15:23:18Z</time></trkpt><trkpt lat="40.73806380617276" lon="17.471827523376433"><ele>299.0</ele><time>2026-05-03T15:23:19Z</time></trkpt><trkpt lat="40.738066676223596" lon="17.472009040490757"><ele>299.0</ele><time>2026-05-03T15:23:20Z</time></trkpt><trkpt lat="40.738069570287514" lon="17.47219170492443"><ele>299.0</ele><time>2026-05-03T15:23:21Z</time></trkpt><trkpt lat="40.73807014969393" lon="17.47236331305147"><ele>299.0</ele><time>2026-05-03T15:23:22Z</time></trkpt><trkpt lat="40.73807297380493" lon="17.472535781133253"><ele>298.33333333333337</ele><time>2026-05-03T15:23:23Z</time></trkpt><trkpt lat="40.73803448649356" lon="17.472705413397286"><ele>297.6666666666667</ele><time>2026-05-03T15:23:24Z</time></trkpt><trkpt lat="40.73802295518944" lon="17.472880199157665"><ele>297.0</ele><time>2026-05-03T15:23:25Z</time></trkpt><trkpt lat="40.73786049791919" lon="17.473000857834233"><ele>297.0</ele><time>2026-05-03T15:23:26Z</time></trkpt><trkpt lat="40.73777369296107" lon="17.473156274212755"><ele>297.0</ele><time>2026-05-03T15:23:27Z</time></trkpt><trkpt lat="40.73767110713385" lon="17.473295669290728"><ele>297.0</ele><time>2026-05-03T15:23:28Z</time></trkpt><trkpt lat="40.73760012389324" lon="17.473443218882334"><ele>297.0</ele><time>2026-05-03T15:23:29Z</time></trkpt><trkpt lat="40.737551360524854" lon="17.47360263297404"><ele>297.0</ele><time>2026-05-03T15:23:30Z</time></trkpt><trkpt lat="40.73748112600621" lon="17.473740740571042"><ele>297.0</ele><time>2026-05-03T15:23:31Z</time></trkpt><trkpt lat="40.73742537574338" lon="17.473883130758576"><ele>297.0</ele><time>2026-05-03T15:23:32Z</time></trkpt><trkpt lat="40.73736915964338" lon="17.474029028848463"><ele>297.0</ele><time>2026-05-03T15:23:33Z</time></trkpt><trkpt lat="40.73731843587484" lon="17.47416179538628"><ele>296.4</ele><time>2026-05-03T15:23:34Z</time></trkpt><trkpt lat="40.737273860565494" lon="17.47428058221786"><ele>295.79999999999995</ele><time>2026-05-03T15:23:35Z</time></trkpt><trkpt lat="40.73724758075403" lon="17.47440322403485"><ele>295.2</ele><time>2026-05-03T15:23:36Z</time></trkpt><trkpt lat="40.73719967861915" lon="17.474508232267556"><ele>294.59999999999997</ele><time>2026-05-03T15:23:37Z</time></trkpt><trkpt lat="40.737168684470056" lon="17.474619571440567"><ele>294.0</ele><time>2026-05-03T15:23:38Z</time></trkpt><trkpt lat="40.737140981374495" lon="17.474720470003074"><ele>293.1666666666667</ele><time>2026-05-03T15:23:39Z</time></trkpt><trkpt lat="40.737151155994106" lon="17.474814761510267"><ele>292.3333333333333</ele><time>2026-05-03T15:23:40Z</time></trkpt><trkpt lat="40.737194861354205" lon="17.47489575970648"><ele>291.5</ele><time>2026-05-03T15:23:41Z</time></trkpt><trkpt lat="40.73724081819351" lon="17.474979361145905"><ele>290.66666666666663</ele><time>2026-05-03T15:23:42Z</time></trkpt><trkpt lat="40.73724522079525" lon="17.475074856265778"><ele>289.8333333333333</ele><time>2026-05-03T15:23:43Z</time></trkpt><trkpt lat="40.73728033217149" lon="17.475166490787633"><ele>289.0</ele><time>2026-05-03T15:23:44Z</time></trkpt><trkpt lat="40.737272461535134" lon="17.475276683190202"><ele>289.0</ele><time>2026-05-03T15:23:45Z</time></trkpt><trkpt lat="40.73727826219403" lon="17.47538572754902"><ele>289.0</ele><time>2026-05-03T15:23:46Z</time></trkpt><trkpt lat="40.73729544722511" lon="17.475499835249316"><ele>289.0</ele><time>2026-05-03T15:23:47Z</time></trkpt><trkpt lat="40.737287509542945" lon="17.47562793989716"><ele>289.0</ele><time>2026-05-03T15:23:48Z</time></trkpt><trkpt lat="40.73725272688164" lon="17.475756073189704"><ele>289.0</ele><time>2026-05-03T15:23:49Z</time></trkpt><trkpt lat="40.73721429918134" lon="17.47589128231207"><ele>288.0</ele><time>2026-05-03T15:23:50Z</time></trkpt><trkpt lat="40.73716281344783" lon="17.476032880723583"><ele>287.0</ele><time>2026-05-03T15:23:51Z</time></trkpt><trkpt lat="40.737102106371175" lon="17.47618729620447"><ele>286.0</ele><time>2026-05-03T15:23:51.999Z</time></trkpt><trkpt lat="40.73703680802399" lon="17.476335116165696"><ele>285.0</ele><time>2026-05-03T15:23:52.999Z</time></trkpt><trkpt lat="40.736964053756296" lon="17.476482896494584"><ele>285.0</ele><time>2026-05-03T15:23:53.999Z</time></trkpt><trkpt lat="40.736890264863646" lon="17.47664684030085"><ele>285.0</ele><time>2026-05-03T15:23:54.999Z</time></trkpt><trkpt lat="40.73679918725225" lon="17.476792490380177"><ele>285.0</ele><time>2026-05-03T15:23:55.999Z</time></trkpt><trkpt lat="40.736709412187935" lon="17.476935869292205"><ele>285.0</ele><time>2026-05-03T15:23:56.999Z</time></trkpt><trkpt lat="40.73662812786752" lon="17.477081705912"><ele>285.25</ele><time>2026-05-03T15:23:57.999Z</time></trkpt><trkpt lat="40.736556827585275" lon="17.477221679343938"><ele>285.5</ele><time>2026-05-03T15:23:58.999Z</time></trkpt><trkpt lat="40.736486347840774" lon="17.47735076923254"><ele>285.75</ele><time>2026-05-03T15:23:59.999Z</time></trkpt><trkpt lat="40.736410538880904" lon="17.477472051810274"><ele>286.0</ele><time>2026-05-03T15:24:00.999Z</time></trkpt><trkpt lat="40.736337209206965" lon="17.47759366726725"><ele>286.0</ele><time>2026-05-03T15:24:01.999Z</time></trkpt><trkpt lat="40.73626846856382" lon="17.477714283577832"><ele>286.0</ele><time>2026-05-03T15:24:02.999Z</time></trkpt><trkpt lat="40.73620864956048" lon="17.477834387822078"><ele>286.0</ele><time>2026-05-03T15:24:03.999Z</time></trkpt><trkpt lat="40.73615780075314" lon="17.477970549270886"><ele>286.0</ele><time>2026-05-03T15:24:04.999Z</time></trkpt><trkpt lat="40.73611507787135" lon="17.47811725047787"><ele>286.25</ele><time>2026-05-03T15:24:05.999Z</time></trkpt><trkpt lat="40.736075684395516" lon="17.478276002540067"><ele>286.5</ele><time>2026-05-03T15:24:06.999Z</time></trkpt><trkpt lat="40.73604307705906" lon="17.478447152746384"><ele>286.75</ele><time>2026-05-03T15:24:07.999Z</time></trkpt><trkpt lat="40.73601010491781" lon="17.47862515963327"><ele>287.0</ele><time>2026-05-03T15:24:08.999Z</time></trkpt><trkpt lat="40.73599106969314" lon="17.478805334360423"><ele>287.0</ele><time>2026-05-03T15:24:09.999Z</time></trkpt><trkpt lat="40.73597590088444" lon="17.47897905451406"><ele>287.0</ele><time>2026-05-03T15:24:10.999Z</time></trkpt><trkpt lat="40.73596157761523" lon="17.479133138902792"><ele>287.0</ele><time>2026-05-03T15:24:11.999Z</time></trkpt><trkpt lat="40.73594224325247" lon="17.479279770010944"><ele>287.0</ele><time>2026-05-03T15:24:12.999Z</time></trkpt><trkpt lat="40.73593181239327" lon="17.479430983579842"><ele>287.0</ele><time>2026-05-03T15:24:13.999Z</time></trkpt><trkpt lat="40.73591240001833" lon="17.479587967269115"><ele>287.0</ele><time>2026-05-03T15:24:14.999Z</time></trkpt><trkpt lat="40.735886458784776" lon="17.479749024415568"><ele>287.0</ele><time>2026-05-03T15:24:15.999Z</time></trkpt><trkpt lat="40.73584237673555" lon="17.47990489047876"><ele>287.0</ele><time>2026-05-03T15:24:16.999Z</time></trkpt><trkpt lat="40.73578403512534" lon="17.480053869119637"><ele>285.6666666666667</ele><time>2026-05-03T15:24:17.999Z</time></trkpt><trkpt lat="40.735700504846" lon="17.4801933441171"><ele>284.3333333333333</ele><time>2026-05-03T15:24:18.999Z</time></trkpt><trkpt lat="40.735596044939115" lon="17.480345178246683"><ele>283.0</ele><time>2026-05-03T15:24:19.999Z</time></trkpt><trkpt lat="40.735463317521" lon="17.48052025033204"><ele>281.66666666666663</ele><time>2026-05-03T15:24:20.999Z</time></trkpt><trkpt lat="40.73530956480023" lon="17.480699396098945"><ele>280.3333333333333</ele><time>2026-05-03T15:24:21.999Z</time></trkpt><trkpt lat="40.73517140888757" lon="17.48087719738841"><ele>279.0</ele><time>2026-05-03T15:24:22.999Z</time></trkpt><trkpt lat="40.735053674187114" lon="17.48104417273277"><ele>279.0</ele><time>2026-05-03T15:24:23.999Z</time></trkpt><trkpt lat="40.734954199215416" lon="17.48120789745441"><ele>279.0</ele><time>2026-05-03T15:24:24.999Z</time></trkpt><trkpt lat="40.734871304481366" lon="17.481428532114396"><ele>279.0</ele><time>2026-05-03T15:24:25.999Z</time></trkpt><trkpt lat="40.734741790080776" lon="17.48168132045726"><ele>277.0</ele><time>2026-05-03T15:24:26.999Z</time></trkpt><trkpt lat="40.73462084601271" lon="17.481958236180823"><ele>275.0</ele><time>2026-05-03T15:24:27.999Z</time></trkpt><trkpt lat="40.73451134777638" lon="17.482245435959594"><ele>276.0</ele><time>2026-05-03T15:24:28.999Z</time></trkpt><trkpt lat="40.734385804049275" lon="17.482529680171464"><ele>277.0</ele><time>2026-05-03T15:24:29.999Z</time></trkpt><trkpt lat="40.73426541058178" lon="17.48281926676491"><ele>277.5</ele><time>2026-05-03T15:24:30.999Z</time></trkpt><trkpt lat="40.73414422269625" lon="17.483104518977598"><ele>278.0</ele><time>2026-05-03T15:24:31.999Z</time></trkpt><trkpt lat="40.734005438973455" lon="17.48338096151576"><ele>278.0</ele><time>2026-05-03T15:24:32.999Z</time></trkpt><trkpt lat="40.733881960607974" lon="17.483659596695983"><ele>278.0</ele><time>2026-05-03T15:24:33.999Z</time></trkpt><trkpt lat="40.73376663502032" lon="17.48391550455237"><ele>279.0</ele><time>2026-05-03T15:24:34.999Z</time></trkpt><trkpt lat="40.73363556486909" lon="17.484129236913788"><ele>280.0</ele><time>2026-05-03T15:24:35.999Z</time></trkpt><trkpt lat="40.733498365304385" lon="17.484319845940792"><ele>281.0</ele><time>2026-05-03T15:24:36.999Z</time></trkpt><trkpt lat="40.73339188701828" lon="17.484504713701945"><ele>279.33333333333337</ele><time>2026-05-03T15:24:38Z</time></trkpt><trkpt lat="40.73329703568557" lon="17.48466556261574"><ele>277.6666666666667</ele><time>2026-05-03T15:24:39Z</time></trkpt><trkpt lat="40.73325230102249" lon="17.48483720582878"><ele>276.0</ele><time>2026-05-03T15:24:40Z</time></trkpt><trkpt lat="40.73324286388011" lon="17.485051226034297"><ele>276.0</ele><time>2026-05-03T15:24:41Z</time></trkpt><trkpt lat="40.73323205094078" lon="17.485303648712602"><ele>276.0</ele><time>2026-05-03T15:24:42Z</time></trkpt><trkpt lat="40.73317656105108" lon="17.48557202338914"><ele>276.0</ele><time>2026-05-03T15:24:43Z</time></trkpt><trkpt lat="40.73309962399738" lon="17.485826675554673"><ele>276.0</ele><time>2026-05-03T15:24:44Z</time></trkpt><trkpt lat="40.733020783790025" lon="17.48611029165815"><ele>276.0</ele><time>2026-05-03T15:24:45Z</time></trkpt><trkpt lat="40.73291452198889" lon="17.48639565247164"><ele>276.0</ele><time>2026-05-03T15:24:46Z</time></trkpt><trkpt lat="40.73283142693727" lon="17.48666103856752"><ele>276.0</ele><time>2026-05-03T15:24:47Z</time></trkpt><trkpt lat="40.73275170467922" lon="17.48698720628539"><ele>270.5</ele><time>2026-05-03T15:24:48Z</time></trkpt><trkpt lat="40.7326866517317" lon="17.48730874911977"><ele>265.0</ele><time>2026-05-03T15:24:49Z</time></trkpt><trkpt lat="40.7326320435286" lon="17.487607037310436"><ele>265.0</ele><time>2026-05-03T15:24:50Z</time></trkpt><trkpt lat="40.73257596615841" lon="17.487885390767246"><ele>265.0</ele><time>2026-05-03T15:24:51Z</time></trkpt><trkpt lat="40.73248906073013" lon="17.48812404658823"><ele>265.0</ele><time>2026-05-03T15:24:52Z</time></trkpt><trkpt lat="40.732389372016215" lon="17.4883461743328"><ele>265.0</ele><time>2026-05-03T15:24:53Z</time></trkpt><trkpt lat="40.732274160060086" lon="17.48857371277009"><ele>265.0</ele><time>2026-05-03T15:24:54Z</time></trkpt><trkpt lat="40.73216838062836" lon="17.488796001238807"><ele>265.0</ele><time>2026-05-03T15:24:55Z</time></trkpt><trkpt lat="40.732051916174164" lon="17.488990860980948"><ele>266.0</ele><time>2026-05-03T15:24:56Z</time></trkpt><trkpt lat="40.731911319794804" lon="17.489164373386423"><ele>267.0</ele><time>2026-05-03T15:24:57Z</time></trkpt><trkpt lat="40.73174342712422" lon="17.489332796515043"><ele>268.0</ele><time>2026-05-03T15:24:58Z</time></trkpt><trkpt lat="40.731558254173706" lon="17.4895107607687"><ele>265.5</ele><time>2026-05-03T15:24:59Z</time></trkpt><trkpt lat="40.73137092640955" lon="17.48970170547511"><ele>263.0</ele><time>2026-05-03T15:25:00Z</time></trkpt><trkpt lat="40.731183620279396" lon="17.48990462376061"><ele>259.5</ele><time>2026-05-03T15:25:01Z</time></trkpt><trkpt lat="40.73098770226463" lon="17.490121108216204"><ele>256.0</ele><time>2026-05-03T15:25:02Z</time></trkpt><trkpt lat="40.73078636386085" lon="17.490342250511542"><ele>259.5</ele><time>2026-05-03T15:25:03Z</time></trkpt><trkpt lat="40.73058897863957" lon="17.4905644718572"><ele>263.0</ele><time>2026-05-03T15:25:04Z</time></trkpt><trkpt lat="40.73039787540353" lon="17.49078180680037"><ele>258.5</ele><time>2026-05-03T15:25:05Z</time></trkpt><trkpt lat="40.730209840070174" lon="17.490970547263554"><ele>254.0</ele><time>2026-05-03T15:25:06Z</time></trkpt><trkpt lat="40.7300263173587" lon="17.491144187207844"><ele>257.0</ele><time>2026-05-03T15:25:07Z</time></trkpt><trkpt lat="40.729840233898884" lon="17.491310742965947"><ele>260.0</ele><time>2026-05-03T15:25:08Z</time></trkpt><trkpt lat="40.7296531932181" lon="17.491476814868477"><ele>260.0</ele><time>2026-05-03T15:25:09Z</time></trkpt><trkpt lat="40.72948246436305" lon="17.491641082292105"><ele>260.0</ele><time>2026-05-03T15:25:10Z</time></trkpt><trkpt lat="40.72931742530267" lon="17.4918052595558"><ele>260.0</ele><time>2026-05-03T15:25:11Z</time></trkpt><trkpt lat="40.72915963280235" lon="17.491995246640137"><ele>259.5</ele><time>2026-05-03T15:25:12Z</time></trkpt><trkpt lat="40.72900110522489" lon="17.49220693407041"><ele>259.0</ele><time>2026-05-03T15:25:13Z</time></trkpt><trkpt lat="40.72884952461775" lon="17.492434816746975"><ele>259.0</ele><time>2026-05-03T15:25:14Z</time></trkpt><trkpt lat="40.72870111327791" lon="17.492642365836478"><ele>259.0</ele><time>2026-05-03T15:25:15Z</time></trkpt><trkpt lat="40.72854971651027" lon="17.49284445060587"><ele>259.0</ele><time>2026-05-03T15:25:16Z</time></trkpt><trkpt lat="40.72840859430321" lon="17.493034904424874"><ele>257.3333333333333</ele><time>2026-05-03T15:25:17Z</time></trkpt><trkpt lat="40.72827462107277" lon="17.493232044567296"><ele>255.66666666666669</ele><time>2026-05-03T15:25:18Z</time></trkpt><trkpt lat="40.72816789767804" lon="17.493454085721233"><ele>254.0</ele><time>2026-05-03T15:25:19Z</time></trkpt><trkpt lat="40.72808285669898" lon="17.493714737078292"><ele>257.0</ele><time>2026-05-03T15:25:20Z</time></trkpt><trkpt lat="40.7279956465265" lon="17.493995822860448"><ele>260.0</ele><time>2026-05-03T15:25:21Z</time></trkpt><trkpt lat="40.727903287652815" lon="17.494279878052666"><ele>260.0</ele><time>2026-05-03T15:25:22Z</time></trkpt><trkpt lat="40.72780516389118" lon="17.49456166999672"><ele>260.0</ele><time>2026-05-03T15:25:23Z</time></trkpt><trkpt lat="40.727708706344764" lon="17.49483213134732"><ele>258.0</ele><time>2026-05-03T15:25:24Z</time></trkpt><trkpt lat="40.72762234688235" lon="17.495084871146474"><ele>256.0</ele><time>2026-05-03T15:25:25Z</time></trkpt><trkpt lat="40.7275169530858" lon="17.49529613727587"><ele>254.0</ele><time>2026-05-03T15:25:26Z</time></trkpt><trkpt lat="40.72740122923508" lon="17.495492744421007"><ele>254.0</ele><time>2026-05-03T15:25:27Z</time></trkpt><trkpt lat="40.727272168293894" lon="17.495700596721235"><ele>254.0</ele><time>2026-05-03T15:25:28Z</time></trkpt><trkpt lat="40.72714024883365" lon="17.495909429883366"><ele>254.0</ele><time>2026-05-03T15:25:29Z</time></trkpt><trkpt lat="40.727012746597026" lon="17.49608713058695"><ele>254.66666666666669</ele><time>2026-05-03T15:25:30Z</time></trkpt><trkpt lat="40.72689566373928" lon="17.49625670134799"><ele>255.33333333333331</ele><time>2026-05-03T15:25:31Z</time></trkpt><trkpt lat="40.726772171236625" lon="17.49641017292019"><ele>256.0</ele><time>2026-05-03T15:25:32Z</time></trkpt><trkpt lat="40.7266476493367" lon="17.496569164404345"><ele>254.0</ele><time>2026-05-03T15:25:33Z</time></trkpt><trkpt lat="40.72656361697263" lon="17.496721852398597"><ele>252.0</ele><time>2026-05-03T15:25:34Z</time></trkpt><trkpt lat="40.72651124696032" lon="17.496908035198242"><ele>250.0</ele><time>2026-05-03T15:25:35Z</time></trkpt><trkpt lat="40.72648499077231" lon="17.49711775104814"><ele>250.0</ele><time>2026-05-03T15:25:36Z</time></trkpt><trkpt lat="40.72647627959964" lon="17.49737756671638"><ele>250.0</ele><time>2026-05-03T15:25:37Z</time></trkpt><trkpt lat="40.726468941270085" lon="17.497665767840367"><ele>250.0</ele><time>2026-05-03T15:25:38Z</time></trkpt><trkpt lat="40.72646168970865" lon="17.49796753314861"><ele>249.0</ele><time>2026-05-03T15:25:39Z</time></trkpt><trkpt lat="40.72646244823085" lon="17.49827254128941"><ele>248.0</ele><time>2026-05-03T15:25:40Z</time></trkpt><trkpt lat="40.72646618656057" lon="17.498594010037145"><ele>248.0</ele><time>2026-05-03T15:25:41Z</time></trkpt><trkpt lat="40.72647065806497" lon="17.498927695368646"><ele>248.0</ele><time>2026-05-03T15:25:42Z</time></trkpt><trkpt lat="40.72647878461084" lon="17.499261884816804"><ele>247.0</ele><time>2026-05-03T15:25:43Z</time></trkpt><trkpt lat="40.726485172915716" lon="17.499593676851667"><ele>246.0</ele><time>2026-05-03T15:25:44Z</time></trkpt><trkpt lat="40.726489098912516" lon="17.49992246876558"><ele>246.0</ele><time>2026-05-03T15:25:45Z</time></trkpt><trkpt lat="40.72648940259072" lon="17.500243147205655"><ele>246.0</ele><time>2026-05-03T15:25:46Z</time></trkpt><trkpt lat="40.7264884202034" lon="17.500561128710654"><ele>244.5</ele><time>2026-05-03T15:25:47Z</time></trkpt><trkpt lat="40.726483709339476" lon="17.50087111217042"><ele>243.0</ele><time>2026-05-03T15:25:48Z</time></trkpt><trkpt lat="40.72647661537209" lon="17.501175264711733"><ele>242.33333333333331</ele><time>2026-05-03T15:25:49Z</time></trkpt><trkpt lat="40.72648218002924" lon="17.501460682573427"><ele>241.66666666666666</ele><time>2026-05-03T15:25:50Z</time></trkpt><trkpt lat="40.72651952874624" lon="17.50173900314832"><ele>241.0</ele><time>2026-05-03T15:25:51Z</time></trkpt><trkpt lat="40.726583987204684" lon="17.50201832961463"><ele>240.5</ele><time>2026-05-03T15:25:52Z</time></trkpt><trkpt lat="40.72665352833143" lon="17.502308337020292"><ele>240.0</ele><time>2026-05-03T15:25:53Z</time></trkpt><trkpt lat="40.726717583601754" lon="17.502608651005165"><ele>240.0</ele><time>2026-05-03T15:25:54Z</time></trkpt><trkpt lat="40.72677345280272" lon="17.502903943214243"><ele>240.0</ele><time>2026-05-03T15:25:55Z</time></trkpt><trkpt lat="40.726829097660044" lon="17.503178986846493"><ele>240.0</ele><time>2026-05-03T15:25:55.999Z</time></trkpt><trkpt lat="40.72688343757873" lon="17.50344093873073"><ele>240.0</ele><time>2026-05-03T15:25:56.999Z</time></trkpt><trkpt lat="40.726923544281654" lon="17.503710622826258"><ele>240.0</ele><time>2026-05-03T15:25:57.999Z</time></trkpt><trkpt lat="40.726925188201015" lon="17.504010493892267"><ele>240.0</ele><time>2026-05-03T15:25:58.999Z</time></trkpt><trkpt lat="40.72691771859763" lon="17.504313178505473"><ele>241.33333333333331</ele><time>2026-05-03T15:25:59.999Z</time></trkpt><trkpt lat="40.72690426560535" lon="17.50460586943939"><ele>242.66666666666666</ele><time>2026-05-03T15:26:00.999Z</time></trkpt><trkpt lat="40.72690278177994" lon="17.504884965512247"><ele>244.0</ele><time>2026-05-03T15:26:01.999Z</time></trkpt><trkpt lat="40.72690509343408" lon="17.505159824766643"><ele>244.0</ele><time>2026-05-03T15:26:02.999Z</time></trkpt><trkpt lat="40.726916652645265" lon="17.505411608595516"><ele>244.0</ele><time>2026-05-03T15:26:03.999Z</time></trkpt><trkpt lat="40.726953840896066" lon="17.505670442396646"><ele>244.0</ele><time>2026-05-03T15:26:04.999Z</time></trkpt><trkpt lat="40.72699281439483" lon="17.505956488321644"><ele>245.5</ele><time>2026-05-03T15:26:05.999Z</time></trkpt><trkpt lat="40.72699849596135" lon="17.506256776563873"><ele>247.0</ele><time>2026-05-03T15:26:06.999Z</time></trkpt><trkpt lat="40.726999423582185" lon="17.50655085745527"><ele>247.0</ele><time>2026-05-03T15:26:07.999Z</time></trkpt><trkpt lat="40.72697407378529" lon="17.506861556182454"><ele>247.0</ele><time>2026-05-03T15:26:08.999Z</time></trkpt><trkpt lat="40.726941267136006" lon="17.507138235172448"><ele>247.0</ele><time>2026-05-03T15:26:09.999Z</time></trkpt><trkpt lat="40.72690876138266" lon="17.507395206432708"><ele>247.0</ele><time>2026-05-03T15:26:10.999Z</time></trkpt><trkpt lat="40.726909416684194" lon="17.5076393608868"><ele>247.0</ele><time>2026-05-03T15:26:11.999Z</time></trkpt><trkpt lat="40.72694672113732" lon="17.50789895629341"><ele>247.0</ele><time>2026-05-03T15:26:12.999Z</time></trkpt><trkpt lat="40.72698113199748" lon="17.50819028686218"><ele>246.0</ele><time>2026-05-03T15:26:13.999Z</time></trkpt><trkpt lat="40.72698422566199" lon="17.508489522874903"><ele>245.0</ele><time>2026-05-03T15:26:14.999Z</time></trkpt><trkpt lat="40.726961454173484" lon="17.508786407779077"><ele>243.33333333333334</ele><time>2026-05-03T15:26:15.999Z</time></trkpt><trkpt lat="40.72695637492407" lon="17.509071526541266"><ele>241.66666666666669</ele><time>2026-05-03T15:26:16.999Z</time></trkpt><trkpt lat="40.7269957149693" lon="17.509340474043228"><ele>240.0</ele><time>2026-05-03T15:26:17.999Z</time></trkpt><trkpt lat="40.72703720828205" lon="17.50959637214479"><ele>238.66666666666669</ele><time>2026-05-03T15:26:18.999Z</time></trkpt><trkpt lat="40.72705488971041" lon="17.509863493001976"><ele>237.33333333333334</ele><time>2026-05-03T15:26:19.999Z</time></trkpt><trkpt lat="40.72703410677931" lon="17.510140277119717"><ele>236.0</ele><time>2026-05-03T15:26:20.999Z</time></trkpt><trkpt lat="40.72698635578652" lon="17.51043043822866"><ele>235.0</ele><time>2026-05-03T15:26:21.999Z</time></trkpt><trkpt lat="40.726914463581764" lon="17.510711571116435"><ele>234.0</ele><time>2026-05-03T15:26:22.999Z</time></trkpt><trkpt lat="40.72683486086552" lon="17.51099229331531"><ele>232.5</ele><time>2026-05-03T15:26:23.999Z</time></trkpt><trkpt lat="40.72677311297358" lon="17.511285817657107"><ele>231.0</ele><time>2026-05-03T15:26:24.999Z</time></trkpt><trkpt lat="40.72672755409939" lon="17.511617901574716"><ele>231.0</ele><time>2026-05-03T15:26:25.999Z</time></trkpt><trkpt lat="40.726669208396" lon="17.51198713317935"><ele>231.0</ele><time>2026-05-03T15:26:26.999Z</time></trkpt><trkpt lat="40.726614497482295" lon="17.51234353891531"><ele>231.0</ele><time>2026-05-03T15:26:27.999Z</time></trkpt><trkpt lat="40.72656186406253" lon="17.512651226418388"><ele>231.0</ele><time>2026-05-03T15:26:28.999Z</time></trkpt><trkpt lat="40.72650830503203" lon="17.512941011768643"><ele>231.66666666666669</ele><time>2026-05-03T15:26:29.999Z</time></trkpt><trkpt lat="40.72645849854807" lon="17.51321802890708"><ele>232.33333333333334</ele><time>2026-05-03T15:26:30.999Z</time></trkpt><trkpt lat="40.726411636254426" lon="17.513471728883736"><ele>233.0</ele><time>2026-05-03T15:26:31.999Z</time></trkpt><trkpt lat="40.726382547629996" lon="17.5136990864204"><ele>233.25</ele><time>2026-05-03T15:26:32.999Z</time></trkpt><trkpt lat="40.72637428667955" lon="17.513893097767507"><ele>233.5</ele><time>2026-05-03T15:26:33.999Z</time></trkpt><trkpt lat="40.72639393665705" lon="17.514080854557154"><ele>233.75</ele><time>2026-05-03T15:26:34.999Z</time></trkpt><trkpt lat="40.726467495023456" lon="17.514255086441473"><ele>234.0</ele><time>2026-05-03T15:26:35.999Z</time></trkpt><trkpt lat="40.726576826587014" lon="17.51442035626609"><ele>234.0</ele><time>2026-05-03T15:26:36.999Z</time></trkpt><trkpt lat="40.72667856041739" lon="17.514606437492876"><ele>234.0</ele><time>2026-05-03T15:26:37.999Z</time></trkpt><trkpt lat="40.72673642476798" lon="17.514838004098365"><ele>234.0</ele><time>2026-05-03T15:26:38.999Z</time></trkpt><trkpt lat="40.72676769241311" lon="17.51509580425723"><ele>234.0</ele><time>2026-05-03T15:26:39.999Z</time></trkpt><trkpt lat="40.72680389392018" lon="17.51535898455869"><ele>234.0</ele><time>2026-05-03T15:26:40.999Z</time></trkpt><trkpt lat="40.72683510673431" lon="17.515610366820578"><ele>234.0</ele><time>2026-05-03T15:26:41.999Z</time></trkpt><trkpt lat="40.7268574096186" lon="17.515850009749343"><ele>234.33333333333331</ele><time>2026-05-03T15:26:42.999Z</time></trkpt><trkpt lat="40.726851010998985" lon="17.516097400011148"><ele>234.66666666666666</ele><time>2026-05-03T15:26:44Z</time></trkpt><trkpt lat="40.72683302189284" lon="17.516360647159235"><ele>235.0</ele><time>2026-05-03T15:26:45Z</time></trkpt><trkpt lat="40.72681502572637" lon="17.516644707652326"><ele>234.0</ele><time>2026-05-03T15:26:46Z</time></trkpt><trkpt lat="40.72679696177478" lon="17.5169430787258"><ele>233.0</ele><time>2026-05-03T15:26:47Z</time></trkpt><trkpt lat="40.72677830423594" lon="17.517236790392538"><ele>232.5</ele><time>2026-05-03T15:26:48Z</time></trkpt><trkpt lat="40.72675393759606" lon="17.517535226309207"><ele>232.0</ele><time>2026-05-03T15:26:49Z</time></trkpt><trkpt lat="40.72672499606549" lon="17.517841218358356"><ele>231.5</ele><time>2026-05-03T15:26:50Z</time></trkpt><trkpt lat="40.72669587296951" lon="17.518144876913894"><ele>231.0</ele><time>2026-05-03T15:26:51Z</time></trkpt><trkpt lat="40.72667200182588" lon="17.518444465604947"><ele>230.5</ele><time>2026-05-03T15:26:52Z</time></trkpt><trkpt lat="40.72666435820552" lon="17.518751736476265"><ele>230.0</ele><time>2026-05-03T15:26:53Z</time></trkpt><trkpt lat="40.72665710942582" lon="17.51906316918067"><ele>230.0</ele><time>2026-05-03T15:26:54Z</time></trkpt><trkpt lat="40.72664996716891" lon="17.519380083120378"><ele>230.0</ele><time>2026-05-03T15:26:55Z</time></trkpt><trkpt lat="40.726641031905416" lon="17.51969878071167"><ele>231.0</ele><time>2026-05-03T15:26:56Z</time></trkpt><trkpt lat="40.726630027535094" lon="17.52001670368257"><ele>232.0</ele><time>2026-05-03T15:26:57Z</time></trkpt><trkpt lat="40.72662056317662" lon="17.520336315059545"><ele>233.5</ele><time>2026-05-03T15:26:58Z</time></trkpt><trkpt lat="40.72660888241577" lon="17.520657352347527"><ele>235.0</ele><time>2026-05-03T15:26:59Z</time></trkpt><trkpt lat="40.72660012312541" lon="17.520975017794715"><ele>236.5</ele><time>2026-05-03T15:27:00Z</time></trkpt><trkpt lat="40.726587103424606" lon="17.521287676406192"><ele>238.0</ele><time>2026-05-03T15:27:01Z</time></trkpt><trkpt lat="40.7265808458077" lon="17.521585047400684"><ele>238.0</ele><time>2026-05-03T15:27:02Z</time></trkpt><trkpt lat="40.726570227439346" lon="17.521863760545628"><ele>238.0</ele><time>2026-05-03T15:27:03Z</time></trkpt><trkpt lat="40.72652593085952" lon="17.522132245780604"><ele>238.0</ele><time>2026-05-03T15:27:04Z</time></trkpt><trkpt lat="40.72646006036528" lon="17.52240111539651"><ele>239.0</ele><time>2026-05-03T15:27:05Z</time></trkpt><trkpt lat="40.72639146147761" lon="17.522683569952566"><ele>240.0</ele><time>2026-05-03T15:27:06Z</time></trkpt><trkpt lat="40.72633794255652" lon="17.522978621657426"><ele>240.0</ele><time>2026-05-03T15:27:07Z</time></trkpt><trkpt lat="40.72628557412735" lon="17.52329532187167"><ele>240.0</ele><time>2026-05-03T15:27:08Z</time></trkpt><trkpt lat="40.72624875096664" lon="17.52361340828651"><ele>240.0</ele><time>2026-05-03T15:27:09Z</time></trkpt><trkpt lat="40.726198131181974" lon="17.523901787089976"><ele>240.0</ele><time>2026-05-03T15:27:10Z</time></trkpt><trkpt lat="40.72615245494922" lon="17.524167406868642"><ele>240.0</ele><time>2026-05-03T15:27:11Z</time></trkpt><trkpt lat="40.726083699219124" lon="17.524405606320613"><ele>236.66666666666669</ele><time>2026-05-03T15:27:12Z</time></trkpt><trkpt lat="40.725997956687884" lon="17.524626071962878"><ele>233.33333333333334</ele><time>2026-05-03T15:27:13Z</time></trkpt><trkpt lat="40.72588443753566" lon="17.524851283233986"><ele>230.0</ele><time>2026-05-03T15:27:14Z</time></trkpt><trkpt lat="40.7257471014436" lon="17.525083021738077"><ele>230.0</ele><time>2026-05-03T15:27:15Z</time></trkpt><trkpt lat="40.72562896103443" lon="17.52534116326594"><ele>230.0</ele><time>2026-05-03T15:27:16Z</time></trkpt><trkpt lat="40.725510340803716" lon="17.52558702473297"><ele>230.0</ele><time>2026-05-03T15:27:17Z</time></trkpt><trkpt lat="40.72540540972621" lon="17.52585376426813"><ele>230.0</ele><time>2026-05-03T15:27:18Z</time></trkpt><trkpt lat="40.72530245173055" lon="17.52611584398452"><ele>230.0</ele><time>2026-05-03T15:27:19Z</time></trkpt><trkpt lat="40.72521516350686" lon="17.526387742223726"><ele>230.0</ele><time>2026-05-03T15:27:20Z</time></trkpt><trkpt lat="40.7251393682151" lon="17.526676884933355"><ele>230.0</ele><time>2026-05-03T15:27:21Z</time></trkpt><trkpt lat="40.725074054771866" lon="17.52698339009101"><ele>230.0</ele><time>2026-05-03T15:27:22Z</time></trkpt><trkpt lat="40.7250140651489" lon="17.527274093421838"><ele>230.0</ele><time>2026-05-03T15:27:23Z</time></trkpt><trkpt lat="40.724949546639" lon="17.527525891921634"><ele>230.0</ele><time>2026-05-03T15:27:24Z</time></trkpt><trkpt lat="40.72491321671945" lon="17.527790343712326"><ele>230.0</ele><time>2026-05-03T15:27:25Z</time></trkpt><trkpt lat="40.724911778022324" lon="17.52808476543224"><ele>230.0</ele><time>2026-05-03T15:27:26Z</time></trkpt><trkpt lat="40.72488763375016" lon="17.528391638492067"><ele>230.0</ele><time>2026-05-03T15:27:27Z</time></trkpt><trkpt lat="40.72487608592434" lon="17.528696867590924"><ele>229.66666666666669</ele><time>2026-05-03T15:27:28Z</time></trkpt><trkpt lat="40.724855001927054" lon="17.528988054389828"><ele>229.33333333333331</ele><time>2026-05-03T15:27:29Z</time></trkpt><trkpt lat="40.72483383925849" lon="17.529275357490462"><ele>229.0</ele><time>2026-05-03T15:27:30Z</time></trkpt><trkpt lat="40.72481374499729" lon="17.529548156114412"><ele>229.0</ele><time>2026-05-03T15:27:31Z</time></trkpt><trkpt lat="40.724796015838976" lon="17.529788846042916"><ele>229.0</ele><time>2026-05-03T15:27:32Z</time></trkpt><trkpt lat="40.724775976318895" lon="17.53005914231118"><ele>229.0</ele><time>2026-05-03T15:27:33Z</time></trkpt><trkpt lat="40.72476296533175" lon="17.530326290312253"><ele>229.33333333333331</ele><time>2026-05-03T15:27:34Z</time></trkpt><trkpt lat="40.72475958558228" lon="17.53059184369433"><ele>229.66666666666669</ele><time>2026-05-03T15:27:35Z</time></trkpt><trkpt lat="40.72475602755377" lon="17.530852716295694"><ele>230.0</ele><time>2026-05-03T15:27:36Z</time></trkpt><trkpt lat="40.72474193425436" lon="17.531126753063738"><ele>229.0</ele><time>2026-05-03T15:27:37Z</time></trkpt><trkpt lat="40.72475903119081" lon="17.5314027680947"><ele>228.0</ele><time>2026-05-03T15:27:38Z</time></trkpt><trkpt lat="40.7247348941699" lon="17.531662955729875"><ele>227.0</ele><time>2026-05-03T15:27:39Z</time></trkpt><trkpt lat="40.7247176535624" lon="17.53191083563392"><ele>225.33333333333334</ele><time>2026-05-03T15:27:40Z</time></trkpt><trkpt lat="40.724725094271164" lon="17.53214643134594"><ele>223.66666666666669</ele><time>2026-05-03T15:27:41Z</time></trkpt><trkpt lat="40.7247577861467" lon="17.532381954348324"><ele>222.0</ele><time>2026-05-03T15:27:42Z</time></trkpt><trkpt lat="40.72482857747082" lon="17.532608028104335"><ele>222.0</ele><time>2026-05-03T15:27:43Z</time></trkpt><trkpt lat="40.724924729936" lon="17.53281715139836"><ele>222.0</ele><time>2026-05-03T15:27:44Z</time></trkpt><trkpt lat="40.72503753528835" lon="17.533001998463206"><ele>222.0</ele><time>2026-05-03T15:27:45Z</time></trkpt><trkpt lat="40.72512386677004" lon="17.533185600100122"><ele>220.0</ele><time>2026-05-03T15:27:46Z</time></trkpt><trkpt lat="40.72516748308067" lon="17.533382544799476"><ele>218.0</ele><time>2026-05-03T15:27:47Z</time></trkpt><trkpt lat="40.725173999792446" lon="17.533583533340817"><ele>216.0</ele><time>2026-05-03T15:27:48Z</time></trkpt><trkpt lat="40.72515877202151" lon="17.53380433014184"><ele>215.33333333333331</ele><time>2026-05-03T15:27:49Z</time></trkpt><trkpt lat="40.72511042033021" lon="17.53406320230041"><ele>214.66666666666666</ele><time>2026-05-03T15:27:50Z</time></trkpt><trkpt lat="40.725052599203075" lon="17.534334705848362"><ele>214.0</ele><time>2026-05-03T15:27:51Z</time></trkpt><trkpt lat="40.72498391890981" lon="17.53457089916965"><ele>213.33333333333331</ele><time>2026-05-03T15:27:52Z</time></trkpt><trkpt lat="40.72489599216358" lon="17.534766758303594"><ele>212.66666666666669</ele><time>2026-05-03T15:27:53Z</time></trkpt><trkpt lat="40.724807589114185" lon="17.534926507772237"><ele>212.0</ele><time>2026-05-03T15:27:54Z</time></trkpt><trkpt lat="40.72474792030994" lon="17.535082905608167"><ele>212.0</ele><time>2026-05-03T15:27:55Z</time></trkpt><trkpt lat="40.7247301392846" lon="17.535261237980936"><ele>212.0</ele><time>2026-05-03T15:27:56Z</time></trkpt><trkpt lat="40.724762227989245" lon="17.535444416326005"><ele>212.0</ele><time>2026-05-03T15:27:57Z</time></trkpt><trkpt lat="40.72483114460997" lon="17.535619368722305"><ele>212.0</ele><time>2026-05-03T15:27:57.999Z</time></trkpt><trkpt lat="40.72493226133284" lon="17.535794749294542"><ele>211.66666666666669</ele><time>2026-05-03T15:27:58.999Z</time></trkpt><trkpt lat="40.72501527549498" lon="17.535978866086463"><ele>211.33333333333331</ele><time>2026-05-03T15:27:59.999Z</time></trkpt><trkpt lat="40.72503148638797" lon="17.536161017967185"><ele>211.0</ele><time>2026-05-03T15:28:00.999Z</time></trkpt><trkpt lat="40.72499865033195" lon="17.5363675545614"><ele>211.66666666666666</ele><time>2026-05-03T15:28:01.999Z</time></trkpt><trkpt lat="40.72495186851006" lon="17.53661020708287"><ele>212.33333333333331</ele><time>2026-05-03T15:28:02.999Z</time></trkpt><trkpt lat="40.72494156934765" lon="17.536859555627828"><ele>213.0</ele><time>2026-05-03T15:28:03.999Z</time></trkpt><trkpt lat="40.72496188244934" lon="17.537101089986255"><ele>213.33333333333331</ele><time>2026-05-03T15:28:04.999Z</time></trkpt><trkpt lat="40.72498356221877" lon="17.537315137889074"><ele>213.66666666666666</ele><time>2026-05-03T15:28:05.999Z</time></trkpt><trkpt lat="40.72499149621378" lon="17.537518579725"><ele>214.0</ele><time>2026-05-03T15:28:06.999Z</time></trkpt><trkpt lat="40.72498167730922" lon="17.537722129901606"><ele>215.66666666666666</ele><time>2026-05-03T15:28:07.999Z</time></trkpt><trkpt lat="40.724958246593985" lon="17.53792845940026"><ele>217.33333333333331</ele><time>2026-05-03T15:28:08.999Z</time></trkpt><trkpt lat="40.724922253821454" lon="17.538125236947828"><ele>219.0</ele><time>2026-05-03T15:28:09.999Z</time></trkpt><trkpt lat="40.724891110902085" lon="17.538319149069896"><ele>219.0</ele><time>2026-05-03T15:28:10.999Z</time></trkpt><trkpt lat="40.72487046238532" lon="17.53851374363261"><ele>219.0</ele><time>2026-05-03T15:28:11.999Z</time></trkpt><trkpt lat="40.724852151480114" lon="17.538727643983854"><ele>219.0</ele><time>2026-05-03T15:28:12.999Z</time></trkpt><trkpt lat="40.72482565980276" lon="17.538953689640234"><ele>219.66666666666669</ele><time>2026-05-03T15:28:13.999Z</time></trkpt><trkpt lat="40.72479220618268" lon="17.539183442639136"><ele>220.33333333333334</ele><time>2026-05-03T15:28:14.999Z</time></trkpt><trkpt lat="40.72475846212329" lon="17.53941058206192"><ele>221.0</ele><time>2026-05-03T15:28:15.999Z</time></trkpt><trkpt lat="40.724724376629936" lon="17.539645200235256"><ele>221.66666666666669</ele><time>2026-05-03T15:28:16.999Z</time></trkpt><trkpt lat="40.724692452489414" lon="17.539880425091717"><ele>222.33333333333331</ele><time>2026-05-03T15:28:17.999Z</time></trkpt><trkpt lat="40.72465138706015" lon="17.54011307761945"><ele>223.0</ele><time>2026-05-03T15:28:18.999Z</time></trkpt><trkpt lat="40.72461586517172" lon="17.540357671150577"><ele>224.0</ele><time>2026-05-03T15:28:19.999Z</time></trkpt><trkpt lat="40.724582686548594" lon="17.5406154503115"><ele>225.0</ele><time>2026-05-03T15:28:20.999Z</time></trkpt><trkpt lat="40.724558289500926" lon="17.540855828149862"><ele>226.0</ele><time>2026-05-03T15:28:21.999Z</time></trkpt><trkpt lat="40.72455685359188" lon="17.541105715088644"><ele>229.5</ele><time>2026-05-03T15:28:22.999Z</time></trkpt><trkpt lat="40.7245768420094" lon="17.541399524545056"><ele>233.0</ele><time>2026-05-03T15:28:23.999Z</time></trkpt><trkpt lat="40.72463292068543" lon="17.541728203089193"><ele>235.0</ele><time>2026-05-03T15:28:24.999Z</time></trkpt><trkpt lat="40.72470865641629" lon="17.542085893728498"><ele>237.0</ele><time>2026-05-03T15:28:25.999Z</time></trkpt><trkpt lat="40.72478277204651" lon="17.542386654676456"><ele>237.0</ele><time>2026-05-03T15:28:26.999Z</time></trkpt><trkpt lat="40.724833626769204" lon="17.542645024859116"><ele>237.0</ele><time>2026-05-03T15:28:27.999Z</time></trkpt><trkpt lat="40.724854537454895" lon="17.542886994865487"><ele>237.0</ele><time>2026-05-03T15:28:28.999Z</time></trkpt><trkpt lat="40.72485269667345" lon="17.543126522623353"><ele>237.25</ele><time>2026-05-03T15:28:29.999Z</time></trkpt><trkpt lat="40.72484482995221" lon="17.543348248370457"><ele>237.5</ele><time>2026-05-03T15:28:30.999Z</time></trkpt><trkpt lat="40.72482964711368" lon="17.543539900510854"><ele>237.75</ele><time>2026-05-03T15:28:31.999Z</time></trkpt><trkpt lat="40.724799629827565" lon="17.543711886639365"><ele>238.0</ele><time>2026-05-03T15:28:32.999Z</time></trkpt><trkpt lat="40.72475723551093" lon="17.54388408727486"><ele>238.0</ele><time>2026-05-03T15:28:33.999Z</time></trkpt><trkpt lat="40.72473013442191" lon="17.54405992168186"><ele>238.0</ele><time>2026-05-03T15:28:34.999Z</time></trkpt><trkpt lat="40.72474490437818" lon="17.544248773911"><ele>238.0</ele><time>2026-05-03T15:28:35.999Z</time></trkpt><trkpt lat="40.7247862740577" lon="17.54445224244125"><ele>238.0</ele><time>2026-05-03T15:28:36.999Z</time></trkpt><trkpt lat="40.72483448311701" lon="17.544659282864124"><ele>238.0</ele><time>2026-05-03T15:28:37.999Z</time></trkpt><trkpt lat="40.72487343109706" lon="17.544864896051372"><ele>238.0</ele><time>2026-05-03T15:28:38.999Z</time></trkpt><trkpt lat="40.72490422615159" lon="17.54506026879643"><ele>238.0</ele><time>2026-05-03T15:28:39.999Z</time></trkpt><trkpt lat="40.72494771826486" lon="17.545250574463548"><ele>238.0</ele><time>2026-05-03T15:28:40.999Z</time></trkpt><trkpt lat="40.72501369643501" lon="17.545421662079583"><ele>238.0</ele><time>2026-05-03T15:28:41.999Z</time></trkpt><trkpt lat="40.72508919588084" lon="17.545582339080898"><ele>238.0</ele><time>2026-05-03T15:28:42.999Z</time></trkpt><trkpt lat="40.72515777224541" lon="17.545745467604252"><ele>238.0</ele><time>2026-05-03T15:28:43.999Z</time></trkpt><trkpt lat="40.72521084309462" lon="17.54591628182855"><ele>237.33333333333331</ele><time>2026-05-03T15:28:44.999Z</time></trkpt><trkpt lat="40.725249796985025" lon="17.54610382576319"><ele>236.66666666666669</ele><time>2026-05-03T15:28:45.999Z</time></trkpt><trkpt lat="40.7252597519601" lon="17.54629695972807"><ele>236.0</ele><time>2026-05-03T15:28:46.999Z</time></trkpt><trkpt lat="40.72523788222436" lon="17.546503477154413"><ele>236.0</ele><time>2026-05-03T15:28:47.999Z</time></trkpt><trkpt lat="40.72519679195682" lon="17.54670507098375"><ele>236.0</ele><time>2026-05-03T15:28:48.999Z</time></trkpt><trkpt lat="40.72516700247586" lon="17.546883605233152"><ele>236.0</ele><time>2026-05-03T15:28:50Z</time></trkpt><trkpt lat="40.72514218631139" lon="17.54706999890762"><ele>236.0</ele><time>2026-05-03T15:28:51Z</time></trkpt><trkpt lat="40.72512427301495" lon="17.547270790724216"><ele>235.0</ele><time>2026-05-03T15:28:52Z</time></trkpt><trkpt lat="40.725122224159584" lon="17.5474868147567"><ele>234.0</ele><time>2026-05-03T15:28:53Z</time></trkpt><trkpt lat="40.725148539397246" lon="17.547702292485603"><ele>233.0</ele><time>2026-05-03T15:28:54Z</time></trkpt><trkpt lat="40.725136907680294" lon="17.54792177964149"><ele>233.0</ele><time>2026-05-03T15:28:55Z</time></trkpt><trkpt lat="40.72510953116965" lon="17.548129171021518"><ele>233.0</ele><time>2026-05-03T15:28:56Z</time></trkpt><trkpt lat="40.72504081993574" lon="17.54835353997314"><ele>233.0</ele><time>2026-05-03T15:28:57Z</time></trkpt><trkpt lat="40.724982254842345" lon="17.548587196660552"><ele>233.66666666666669</ele><time>2026-05-03T15:28:58Z</time></trkpt><trkpt lat="40.72492017595275" lon="17.548796259329837"><ele>234.33333333333331</ele><time>2026-05-03T15:28:59Z</time></trkpt><trkpt lat="40.72487869688371" lon="17.54900943051129"><ele>235.0</ele><time>2026-05-03T15:29:00Z</time></trkpt><trkpt lat="40.72485799807954" lon="17.549229345873368"><ele>235.0</ele><time>2026-05-03T15:29:01Z</time></trkpt><trkpt lat="40.72486367932903" lon="17.54943468343689"><ele>235.0</ele><time>2026-05-03T15:29:02Z</time></trkpt><trkpt lat="40.724884748861626" lon="17.549643416531968"><ele>235.0</ele><time>2026-05-03T15:29:03Z</time></trkpt><trkpt lat="40.72490293374329" lon="17.549852221382018"><ele>234.66666666666666</ele><time>2026-05-03T15:29:04Z</time></trkpt><trkpt lat="40.72492668211268" lon="17.550058229457505"><ele>234.33333333333331</ele><time>2026-05-03T15:29:05Z</time></trkpt><trkpt lat="40.72493217347386" lon="17.55025997505774"><ele>234.0</ele><time>2026-05-03T15:29:06Z</time></trkpt><trkpt lat="40.72495434665134" lon="17.55045611847652"><ele>232.75</ele><time>2026-05-03T15:29:07Z</time></trkpt><trkpt lat="40.725003782157145" lon="17.55064445733106"><ele>231.5</ele><time>2026-05-03T15:29:08Z</time></trkpt><trkpt lat="40.72505132964704" lon="17.550826510245123"><ele>230.25</ele><time>2026-05-03T15:29:09Z</time></trkpt><trkpt lat="40.72511991274175" lon="17.550992318100953"><ele>229.0</ele><time>2026-05-03T15:29:10Z</time></trkpt><trkpt lat="40.72520449923716" lon="17.551153213424726"><ele>228.0</ele><time>2026-05-03T15:29:11Z</time></trkpt><trkpt lat="40.72531169049586" lon="17.551301212798148"><ele>227.0</ele><time>2026-05-03T15:29:12Z</time></trkpt><trkpt lat="40.72544151305137" lon="17.55142580576963"><ele>226.0</ele><time>2026-05-03T15:29:13Z</time></trkpt><trkpt lat="40.72554761057597" lon="17.55158839446438"><ele>226.0</ele><time>2026-05-03T15:29:14Z</time></trkpt><trkpt lat="40.72564079321493" lon="17.551747185678696"><ele>226.0</ele><time>2026-05-03T15:29:15Z</time></trkpt><trkpt lat="40.7257149956029" lon="17.551953739593515"><ele>226.0</ele><time>2026-05-03T15:29:16Z</time></trkpt><trkpt lat="40.725770853437275" lon="17.552162162513966"><ele>225.66666666666666</ele><time>2026-05-03T15:29:17Z</time></trkpt><trkpt lat="40.72582512760438" lon="17.552370862080025"><ele>225.33333333333331</ele><time>2026-05-03T15:29:18Z</time></trkpt><trkpt lat="40.72587534473103" lon="17.552576878082373"><ele>225.0</ele><time>2026-05-03T15:29:19Z</time></trkpt><trkpt lat="40.725924695063775" lon="17.552784976388924"><ele>226.0</ele><time>2026-05-03T15:29:20Z</time></trkpt><trkpt lat="40.72596880885584" lon="17.552970993461628"><ele>227.0</ele><time>2026-05-03T15:29:21Z</time></trkpt><trkpt lat="40.72601363515838" lon="17.55315064346702"><ele>228.0</ele><time>2026-05-03T15:29:22Z</time></trkpt><trkpt lat="40.72609468221379" lon="17.55330791344504"><ele>229.0</ele><time>2026-05-03T15:29:23Z</time></trkpt><trkpt lat="40.72619809518239" lon="17.55345714877486"><ele>230.66666666666666</ele><time>2026-05-03T15:29:24Z</time></trkpt><trkpt lat="40.72632065978143" lon="17.553605254509787"><ele>232.33333333333331</ele><time>2026-05-03T15:29:25Z</time></trkpt><trkpt lat="40.726423243998596" lon="17.553777203405044"><ele>234.0</ele><time>2026-05-03T15:29:26Z</time></trkpt><trkpt lat="40.72654053066106" lon="17.55391414520586"><ele>234.25</ele><time>2026-05-03T15:29:27Z</time></trkpt><trkpt lat="40.7266327338924" lon="17.55405821715496"><ele>234.5</ele><time>2026-05-03T15:29:28Z</time></trkpt><trkpt lat="40.72671009056484" lon="17.55421579281626"><ele>234.75</ele><time>2026-05-03T15:29:29Z</time></trkpt><trkpt lat="40.72681420411462" lon="17.55437106853833"><ele>235.0</ele><time>2026-05-03T15:29:30Z</time></trkpt><trkpt lat="40.72689189088609" lon="17.55455277398976"><ele>236.75</ele><time>2026-05-03T15:29:31Z</time></trkpt><trkpt lat="40.72693952244075" lon="17.55474351658507"><ele>238.5</ele><time>2026-05-03T15:29:32Z</time></trkpt><trkpt lat="40.726959849534744" lon="17.55493434621764"><ele>240.25</ele><time>2026-05-03T15:29:33Z</time></trkpt><trkpt lat="40.72692134832471" lon="17.555127331674203"><ele>242.0</ele><time>2026-05-03T15:29:34Z</time></trkpt><trkpt lat="40.72692457098631" lon="17.555323369411145"><ele>242.0</ele><time>2026-05-03T15:29:35Z</time></trkpt><trkpt lat="40.72692783250949" lon="17.55552736398188"><ele>242.0</ele><time>2026-05-03T15:29:36Z</time></trkpt><trkpt lat="40.72693019749915" lon="17.55574134581982"><ele>242.0</ele><time>2026-05-03T15:29:37Z</time></trkpt><trkpt lat="40.726932584763226" lon="17.55595734271269"><ele>242.0</ele><time>2026-05-03T15:29:38Z</time></trkpt><trkpt lat="40.726934910497945" lon="17.556169025051233"><ele>242.0</ele><time>2026-05-03T15:29:39Z</time></trkpt><trkpt lat="40.72693771652546" lon="17.556375890193753"><ele>242.0</ele><time>2026-05-03T15:29:40Z</time></trkpt><trkpt lat="40.726948095126396" lon="17.556576286638503"><ele>240.0</ele><time>2026-05-03T15:29:41Z</time></trkpt><trkpt lat="40.7269871399312" lon="17.55677627169675"><ele>238.0</ele><time>2026-05-03T15:29:42Z</time></trkpt><trkpt lat="40.727029996850504" lon="17.556981780025676"><ele>236.0</ele><time>2026-05-03T15:29:43Z</time></trkpt><trkpt lat="40.72710144681865" lon="17.55718504160344"><ele>233.33333333333334</ele><time>2026-05-03T15:29:44Z</time></trkpt><trkpt lat="40.72719551334177" lon="17.557377646849606"><ele>230.66666666666669</ele><time>2026-05-03T15:29:45Z</time></trkpt><trkpt lat="40.727296206695385" lon="17.557575465702673"><ele>228.0</ele><time>2026-05-03T15:29:46Z</time></trkpt><trkpt lat="40.727383201415556" lon="17.55776748639673"><ele>227.66666666666669</ele><time>2026-05-03T15:29:47Z</time></trkpt><trkpt lat="40.727444319924984" lon="17.557963022828034"><ele>227.33333333333334</ele><time>2026-05-03T15:29:48Z</time></trkpt><trkpt lat="40.7274802873852" lon="17.55818416056339"><ele>227.0</ele><time>2026-05-03T15:29:49Z</time></trkpt><trkpt lat="40.727502590004256" lon="17.558434563565616"><ele>227.0</ele><time>2026-05-03T15:29:50Z</time></trkpt><trkpt lat="40.72751719970494" lon="17.558687047816264"><ele>227.0</ele><time>2026-05-03T15:29:51Z</time></trkpt><trkpt lat="40.727527222593785" lon="17.55892235639056"><ele>227.0</ele><time>2026-05-03T15:29:52Z</time></trkpt><trkpt lat="40.72753609381893" lon="17.55914097926998"><ele>227.33333333333334</ele><time>2026-05-03T15:29:53Z</time></trkpt><trkpt lat="40.727545044424886" lon="17.55936155865347"><ele>227.66666666666669</ele><time>2026-05-03T15:29:54Z</time></trkpt><trkpt lat="40.72755387817269" lon="17.55957925842036"><ele>228.0</ele><time>2026-05-03T15:29:55Z</time></trkpt><trkpt lat="40.72756494416137" lon="17.55978661986908"><ele>228.0</ele><time>2026-05-03T15:29:56Z</time></trkpt><trkpt lat="40.72757884421998" lon="17.559989984629542"><ele>228.0</ele><time>2026-05-03T15:29:57Z</time></trkpt><trkpt lat="40.72759554331531" lon="17.56018070129608"><ele>228.0</ele><time>2026-05-03T15:29:58Z</time></trkpt><trkpt lat="40.72761764262227" lon="17.560373059366892"><ele>228.0</ele><time>2026-05-03T15:29:58.999Z</time></trkpt><trkpt lat="40.72765499274909" lon="17.560565528182217"><ele>227.25</ele><time>2026-05-03T15:29:59.999Z</time></trkpt><trkpt lat="40.72772255833228" lon="17.560747200562854"><ele>226.5</ele><time>2026-05-03T15:30:00.999Z</time></trkpt><trkpt lat="40.727768278308446" lon="17.560922773434907"><ele>225.75</ele><time>2026-05-03T15:30:01.999Z</time></trkpt><trkpt lat="40.72782979049569" lon="17.561086993380258"><ele>225.0</ele><time>2026-05-03T15:30:02.999Z</time></trkpt><trkpt lat="40.72789392832738" lon="17.56123906584426"><ele>223.5</ele><time>2026-05-03T15:30:03.999Z</time></trkpt><trkpt lat="40.727950366849136" lon="17.56138632719652"><ele>222.0</ele><time>2026-05-03T15:30:04.999Z</time></trkpt><trkpt lat="40.727988903820986" lon="17.56155833085306"><ele>220.5</ele><time>2026-05-03T15:30:05.999Z</time></trkpt><trkpt lat="40.72800298656383" lon="17.56178109783581"><ele>219.0</ele><time>2026-05-03T15:30:06.999Z</time></trkpt><trkpt lat="40.7279739176849" lon="17.56201220034426"><ele>219.0</ele><time>2026-05-03T15:30:07.999Z</time></trkpt><trkpt lat="40.727963568987526" lon="17.56226442613554"><ele>219.0</ele><time>2026-05-03T15:30:08.999Z</time></trkpt><trkpt lat="40.72800718488816" lon="17.562497098395617"><ele>219.0</ele><time>2026-05-03T15:30:09.999Z</time></trkpt><trkpt lat="40.72806138420337" lon="17.56276228293755"><ele>219.66666666666669</ele><time>2026-05-03T15:30:10.999Z</time></trkpt><trkpt lat="40.72811386534967" lon="17.563032001394763"><ele>220.33333333333334</ele><time>2026-05-03T15:30:11.999Z</time></trkpt><trkpt lat="40.72815866713386" lon="17.56326427822636"><ele>221.0</ele><time>2026-05-03T15:30:12.999Z</time></trkpt><trkpt lat="40.728196837653705" lon="17.563473919967464"><ele>221.0</ele><time>2026-05-03T15:30:13.999Z</time></trkpt><trkpt lat="40.7282178499262" lon="17.563678972653925"><ele>221.0</ele><time>2026-05-03T15:30:14.999Z</time></trkpt><trkpt lat="40.72821327116337" lon="17.563923843259623"><ele>221.0</ele><time>2026-05-03T15:30:15.999Z</time></trkpt><trkpt lat="40.72819649500563" lon="17.564153981195222"><ele>222.75</ele><time>2026-05-03T15:30:16.999Z</time></trkpt><trkpt lat="40.728198903132245" lon="17.564363221040733"><ele>224.5</ele><time>2026-05-03T15:30:17.999Z</time></trkpt><trkpt lat="40.728208209494206" lon="17.56455351104901"><ele>226.25</ele><time>2026-05-03T15:30:18.999Z</time></trkpt><trkpt lat="40.72822054201259" lon="17.564724669926772"><ele>228.0</ele><time>2026-05-03T15:30:19.999Z</time></trkpt><trkpt lat="40.72822699809191" lon="17.564902953672025"><ele>229.0</ele><time>2026-05-03T15:30:20.999Z</time></trkpt><trkpt lat="40.72819606219842" lon="17.565073976131327"><ele>230.0</ele><time>2026-05-03T15:30:21.999Z</time></trkpt><trkpt lat="40.728139251699574" lon="17.565229975572752"><ele>231.0</ele><time>2026-05-03T15:30:22.999Z</time></trkpt><trkpt lat="40.7280735922664" lon="17.56534908591425"><ele>232.0</ele><time>2026-05-03T15:30:23.999Z</time></trkpt><trkpt lat="40.72801088519713" lon="17.56544319697492"><ele>232.66666666666666</ele><time>2026-05-03T15:30:24.999Z</time></trkpt><trkpt lat="40.72793370368742" lon="17.56548615506884"><ele>233.33333333333331</ele><time>2026-05-03T15:30:25.999Z</time></trkpt><trkpt lat="40.7278803248574" lon="17.56555716671313"><ele>234.0</ele><time>2026-05-03T15:30:26.999Z</time></trkpt><trkpt lat="40.727820998342075" lon="17.565594785293072"><ele>234.66666666666669</ele><time>2026-05-03T15:30:27.999Z</time></trkpt><trkpt lat="40.72772823403917" lon="17.56567366608319"><ele>235.33333333333334</ele><time>2026-05-03T15:30:29.999Z</time></trkpt><trkpt lat="40.72766140196199" lon="17.56573705702818"><ele>236.0</ele><time>2026-05-03T15:30:31.999Z</time></trkpt><trkpt lat="40.72759243745728" lon="17.565803936552875"><ele>236.00000000000003</ele><time>2026-05-03T15:30:33.999Z</time></trkpt><trkpt lat="40.727509256954654" lon="17.565879783615134"><ele>236.0</ele><time>2026-05-03T15:30:35.999Z</time></trkpt><trkpt lat="40.72743393954539" lon="17.565956987007624"><ele>236.0</ele><time>2026-05-03T15:30:37.999Z</time></trkpt><trkpt lat="40.72736652176798" lon="17.566025383265618"><ele>236.0</ele><time>2026-05-03T15:30:39.999Z</time></trkpt><trkpt lat="40.727311863055405" lon="17.566089750492168"><ele>236.00000000000003</ele><time>2026-05-03T15:30:41.999Z</time></trkpt><trkpt lat="40.72724488188177" lon="17.566148535511907"><ele>236.0</ele><time>2026-05-03T15:30:43.999Z</time></trkpt><trkpt lat="40.72718624447593" lon="17.566202518956942"><ele>236.00000000000003</ele><time>2026-05-03T15:30:45.999Z</time></trkpt><trkpt lat="40.72715281122622" lon="17.56627800436371"><ele>236.0</ele><time>2026-05-03T15:30:47.999Z</time></trkpt><trkpt lat="40.72716237843714" lon="17.566415456881124"><ele>236.0</ele><time>2026-05-03T15:30:49.999Z</time></trkpt><trkpt lat="40.72717631183709" lon="17.566573957704932"><ele>236.0</ele><time>2026-05-03T15:30:51.999Z</time></trkpt><trkpt lat="40.727190254761545" lon="17.56666471223553"><ele>236.00000000000003</ele><time>2026-05-03T15:30:52.999Z</time></trkpt><trkpt lat="40.72721135832059" lon="17.56675055002841"><ele>236.0</ele><time>2026-05-03T15:30:53.999Z</time></trkpt><trkpt lat="40.72725200976306" lon="17.566834167155402"><ele>236.0</ele><time>2026-05-03T15:30:54.999Z</time></trkpt><trkpt lat="40.727307917757436" lon="17.566921310532464"><ele>236.00000000000003</ele><time>2026-05-03T15:30:56Z</time></trkpt><trkpt lat="40.72736825133015" lon="17.56701096994424"><ele>236.00000000000003</ele><time>2026-05-03T15:30:57Z</time></trkpt><trkpt lat="40.72744246928613" lon="17.567098462279912"><ele>236.0</ele><time>2026-05-03T15:30:58Z</time></trkpt><trkpt lat="40.72752772873493" lon="17.567187546931866"><ele>236.0</ele><time>2026-05-03T15:30:59Z</time></trkpt><trkpt lat="40.7276070253839" lon="17.56728478194475"><ele>235.5</ele><time>2026-05-03T15:31:00Z</time></trkpt><trkpt lat="40.72768958706213" lon="17.567381066400685"><ele>235.0</ele><time>2026-05-03T15:31:01Z</time></trkpt><trkpt lat="40.72776717608621" lon="17.567493688794784"><ele>234.5</ele><time>2026-05-03T15:31:02Z</time></trkpt><trkpt lat="40.72781425275174" lon="17.56764415886876"><ele>234.0</ele><time>2026-05-03T15:31:03Z</time></trkpt><trkpt lat="40.72785984158701" lon="17.567794505185613"><ele>233.5</ele><time>2026-05-03T15:31:04Z</time></trkpt><trkpt lat="40.727900515584665" lon="17.56795114435837"><ele>233.0</ele><time>2026-05-03T15:31:05Z</time></trkpt><trkpt lat="40.7279520241649" lon="17.568110106064356"><ele>232.5</ele><time>2026-05-03T15:31:06Z</time></trkpt><trkpt lat="40.72796666450004" lon="17.568275653571273"><ele>232.0</ele><time>2026-05-03T15:31:07Z</time></trkpt><trkpt lat="40.72800310822347" lon="17.56842632765754"><ele>232.0</ele><time>2026-05-03T15:31:08Z</time></trkpt><trkpt lat="40.72802894771723" lon="17.568578682668992"><ele>232.0</ele><time>2026-05-03T15:31:09Z</time></trkpt><trkpt lat="40.72805012433897" lon="17.568718947284587"><ele>232.0</ele><time>2026-05-03T15:31:10Z</time></trkpt><trkpt lat="40.72807224660502" lon="17.56884495663517"><ele>232.0</ele><time>2026-05-03T15:31:11Z</time></trkpt><trkpt lat="40.72809570718909" lon="17.56896449156203"><ele>232.0</ele><time>2026-05-03T15:31:12Z</time></trkpt><trkpt lat="40.728119885733015" lon="17.569075191753463"><ele>231.83333333333331</ele><time>2026-05-03T15:31:13Z</time></trkpt><trkpt lat="40.72814439403316" lon="17.569178587325922"><ele>231.66666666666666</ele><time>2026-05-03T15:31:14Z</time></trkpt><trkpt lat="40.72816850790758" lon="17.569281563995922"><ele>231.5</ele><time>2026-05-03T15:31:15Z</time></trkpt><trkpt lat="40.72819252067854" lon="17.5693783549197"><ele>231.33333333333331</ele><time>2026-05-03T15:31:16Z</time></trkpt><trkpt lat="40.7282173214953" lon="17.569477295424303"><ele>231.16666666666666</ele><time>2026-05-03T15:31:17Z</time></trkpt><trkpt lat="40.72823727668769" lon="17.56957886762318"><ele>231.0</ele><time>2026-05-03T15:31:18Z</time></trkpt><trkpt lat="40.72825210410409" lon="17.56966254055288"><ele>231.4</ele><time>2026-05-03T15:31:19Z</time></trkpt><trkpt lat="40.72825955818186" lon="17.569820367825876"><ele>231.8</ele><time>2026-05-03T15:31:21Z</time></trkpt><trkpt lat="40.72823314523704" lon="17.569973768338077"><ele>232.20000000000002</ele><time>2026-05-03T15:31:23Z</time></trkpt><trkpt lat="40.72820721073832" lon="17.57013382605277"><ele>232.60000000000002</ele><time>2026-05-03T15:31:25Z</time></trkpt><trkpt lat="40.72817462879245" lon="17.57021340915908"><ele>233.0</ele><time>2026-05-03T15:31:26Z</time></trkpt><trkpt lat="40.728120776123724" lon="17.5702878558686"><ele>233.00000000000003</ele><time>2026-05-03T15:31:27Z</time></trkpt><trkpt lat="40.72806485815027" lon="17.57036151253897"><ele>233.0</ele><time>2026-05-03T15:31:28Z</time></trkpt><trkpt lat="40.728051398458156" lon="17.570461628801993"><ele>233.0</ele><time>2026-05-03T15:31:29Z</time></trkpt><trkpt lat="40.728026082916806" lon="17.570560803722937"><ele>233.0</ele><time>2026-05-03T15:31:30Z</time></trkpt><trkpt lat="40.72804406269564" lon="17.570665083144"><ele>233.00000000000003</ele><time>2026-05-03T15:31:31Z</time></trkpt><trkpt lat="40.72809891386317" lon="17.57075090516551"><ele>233.0</ele><time>2026-05-03T15:31:32Z</time></trkpt><trkpt lat="40.7281562912399" lon="17.570844522823563"><ele>233.0</ele><time>2026-05-03T15:31:33Z</time></trkpt><trkpt lat="40.72817903416151" lon="17.570955637679045"><ele>233.0</ele><time>2026-05-03T15:31:34Z</time></trkpt><trkpt lat="40.72820292939843" lon="17.57105788227732"><ele>233.0</ele><time>2026-05-03T15:31:35Z</time></trkpt><trkpt lat="40.72820858674726" lon="17.571185591507735"><ele>233.0</ele><time>2026-05-03T15:31:36Z</time></trkpt><trkpt lat="40.72822336572634" lon="17.57132947851912"><ele>233.0</ele><time>2026-05-03T15:31:37Z</time></trkpt><trkpt lat="40.728231570035064" lon="17.571482886314385"><ele>232.75</ele><time>2026-05-03T15:31:38Z</time></trkpt><trkpt lat="40.728238093864746" lon="17.57163518887769"><ele>232.5</ele><time>2026-05-03T15:31:39Z</time></trkpt><trkpt lat="40.728241704846624" lon="17.57178945256065"><ele>232.25</ele><time>2026-05-03T15:31:40Z</time></trkpt><trkpt lat="40.728260501406325" lon="17.57194113109808"><ele>232.0</ele><time>2026-05-03T15:31:41Z</time></trkpt><trkpt lat="40.728262349206304" lon="17.572081241535425"><ele>231.83333333333331</ele><time>2026-05-03T15:31:42Z</time></trkpt><trkpt lat="40.728265134256596" lon="17.572210903542178"><ele>231.66666666666666</ele><time>2026-05-03T15:31:43Z</time></trkpt><trkpt lat="40.7282667685534" lon="17.572321447251195"><ele>231.5</ele><time>2026-05-03T15:31:44Z</time></trkpt><trkpt lat="40.72825503551423" lon="17.572412586244614"><ele>231.33333333333331</ele><time>2026-05-03T15:31:45Z</time></trkpt><trkpt lat="40.728217046247465" lon="17.572573844625435"><ele>231.16666666666666</ele><time>2026-05-03T15:31:47Z</time></trkpt><trkpt lat="40.728185778858446" lon="17.57265436908137"><ele>231.0</ele><time>2026-05-03T15:31:48Z</time></trkpt><trkpt lat="40.72816627750816" lon="17.57274231871955"><ele>231.0</ele><time>2026-05-03T15:31:49Z</time></trkpt><trkpt lat="40.72816721458282" lon="17.572836557694874"><ele>231.0</ele><time>2026-05-03T15:31:50Z</time></trkpt><trkpt lat="40.72818970519448" lon="17.572934987597705"><ele>231.0</ele><time>2026-05-03T15:31:51Z</time></trkpt><trkpt lat="40.72821116964401" lon="17.573038934151608"><ele>231.0</ele><time>2026-05-03T15:31:52Z</time></trkpt><trkpt lat="40.72821671944786" lon="17.573149101524077"><ele>231.0</ele><time>2026-05-03T15:31:53Z</time></trkpt><trkpt lat="40.72819575790361" lon="17.573258945370316"><ele>231.0</ele><time>2026-05-03T15:31:54Z</time></trkpt><trkpt lat="40.728161868708455" lon="17.573357239942105"><ele>231.33333333333334</ele><time>2026-05-03T15:31:55Z</time></trkpt><trkpt lat="40.72812423581672" lon="17.573448913556785"><ele>231.66666666666669</ele><time>2026-05-03T15:31:56Z</time></trkpt><trkpt lat="40.7280873982731" lon="17.57352922843087"><ele>232.0</ele><time>2026-05-03T15:31:57Z</time></trkpt><trkpt lat="40.72805323312243" lon="17.573605936203712"><ele>232.33333333333334</ele><time>2026-05-03T15:31:58Z</time></trkpt><trkpt lat="40.72800409037687" lon="17.573716766987612"><ele>232.66666666666669</ele><time>2026-05-03T15:32:00Z</time></trkpt><trkpt lat="40.72796864185454" lon="17.57379805280375"><ele>233.0</ele><time>2026-05-03T15:32:50.999Z</time></trkpt><trkpt lat="40.7279286301796" lon="17.573915781461928"><ele>233.4</ele><time>2026-05-03T15:32:52.999Z</time></trkpt><trkpt lat="40.72790082963901" lon="17.57399156436124"><ele>233.8</ele><time>2026-05-03T15:32:53.999Z</time></trkpt><trkpt lat="40.72784811709989" lon="17.5741342806536"><ele>234.2</ele><time>2026-05-03T15:32:55.999Z</time></trkpt><trkpt lat="40.72780122341069" lon="17.574287982792534"><ele>234.6</ele><time>2026-05-03T15:32:57.999Z</time></trkpt><trkpt lat="40.727772597608734" lon="17.57436830778365"><ele>235.0</ele><time>2026-05-03T15:32:58.999Z</time></trkpt><trkpt lat="40.7277317767556" lon="17.57445103885804"><ele>235.66666666666666</ele><time>2026-05-03T15:32:59.999Z</time></trkpt><trkpt lat="40.72769526314906" lon="17.57454491509821"><ele>236.33333333333331</ele><time>2026-05-03T15:33:00.999Z</time></trkpt><trkpt lat="40.727652421644635" lon="17.57465583722614"><ele>237.0</ele><time>2026-05-03T15:33:02Z</time></trkpt><trkpt lat="40.727611778594415" lon="17.57476111291409"><ele>237.66666666666669</ele><time>2026-05-03T15:33:03Z</time></trkpt><trkpt lat="40.727572764152384" lon="17.574862170728895"><ele>238.33333333333334</ele><time>2026-05-03T15:33:04Z</time></trkpt><trkpt lat="40.727535357653885" lon="17.574959806009783"><ele>239.0</ele><time>2026-05-03T15:33:05Z</time></trkpt><trkpt lat="40.72751306523976" lon="17.57506528810261"><ele>239.0</ele><time>2026-05-03T15:33:06Z</time></trkpt><trkpt lat="40.72747014807028" lon="17.575171806083322"><ele>238.99999999999997</ele><time>2026-05-03T15:33:07Z</time></trkpt><trkpt lat="40.72742796162691" lon="17.575280196509993"><ele>238.99999999999997</ele><time>2026-05-03T15:33:08Z</time></trkpt><trkpt lat="40.72736620881473" lon="17.57540261310905"><ele>239.0</ele><time>2026-05-03T15:33:09Z</time></trkpt><trkpt lat="40.72731186040628" lon="17.575545097157956"><ele>239.0</ele><time>2026-05-03T15:33:10Z</time></trkpt><trkpt lat="40.72727154031378" lon="17.57565076985032"><ele>239.50000000000003</ele><time>2026-05-03T15:33:11Z</time></trkpt><trkpt lat="40.727235105630534" lon="17.57574625961859"><ele>240.0</ele><time>2026-05-03T15:33:12Z</time></trkpt><trkpt lat="40.727199703180695" lon="17.575839044277078"><ele>240.5</ele><time>2026-05-03T15:33:13Z</time></trkpt><trkpt lat="40.72716818082413" lon="17.57592194563351"><ele>241.0</ele><time>2026-05-03T15:33:14Z</time></trkpt><trkpt lat="40.72713345034859" lon="17.57601324810969"><ele>241.50000000000003</ele><time>2026-05-03T15:33:15Z</time></trkpt><trkpt lat="40.72709848499756" lon="17.576105168030633"><ele>242.0</ele><time>2026-05-03T15:33:16Z</time></trkpt><trkpt lat="40.72706379746181" lon="17.576196357608183"><ele>242.00000000000003</ele><time>2026-05-03T15:33:17Z</time></trkpt><trkpt lat="40.727027138472906" lon="17.576292729946548"><ele>242.0</ele><time>2026-05-03T15:33:18Z</time></trkpt><trkpt lat="40.726994625695916" lon="17.576378202365436"><ele>242.0</ele><time>2026-05-03T15:33:19Z</time></trkpt><trkpt lat="40.72696608399155" lon="17.576453235257492"><ele>242.0</ele><time>2026-05-03T15:33:20Z</time></trkpt><trkpt lat="40.72693754592517" lon="17.57652825932598"><ele>242.00000000000003</ele><time>2026-05-03T15:33:21Z</time></trkpt><trkpt lat="40.72689368044914" lon="17.57664119683152"><ele>242.0</ele><time>2026-05-03T15:33:23Z</time></trkpt><trkpt lat="40.72686828517215" lon="17.576741217135268"><ele>242.00000000000003</ele><time>2026-05-03T15:33:25Z</time></trkpt><trkpt lat="40.726830269826095" lon="17.57684378993893"><ele>242.0</ele><time>2026-05-03T15:33:27Z</time></trkpt><trkpt lat="40.72678303246284" lon="17.576952789650218"><ele>242.0</ele><time>2026-05-03T15:33:29Z</time></trkpt><trkpt lat="40.72671751234506" lon="17.577009060615104"><ele>242.0</ele><time>2026-05-03T15:33:32Z</time></trkpt><trkpt lat="40.726634981893895" lon="17.57706411417472"><ele>242.00000000000003</ele><time>2026-05-03T15:34:04Z</time></trkpt><trkpt lat="40.72655539281901" lon="17.577024617563417"><ele>242.0</ele><time>2026-05-03T15:34:05Z</time></trkpt><trkpt lat="40.72649287090032" lon="17.576988087757645"><ele>242.0</ele><time>2026-05-03T15:34:06Z</time></trkpt><trkpt lat="40.72639205104596" lon="17.576932802277472"><ele>242.0</ele><time>2026-05-03T15:34:08Z</time></trkpt><trkpt lat="40.726282363389224" lon="17.576855024289156"><ele>242.0</ele><time>2026-05-03T15:34:10Z</time></trkpt><trkpt lat="40.72620800614647" lon="17.576822036256633"><ele>242.0</ele><time>2026-05-03T15:34:11Z</time></trkpt><trkpt lat="40.72609451917429" lon="17.576806144137315"><ele>242.0</ele><time>2026-05-03T15:34:12Z</time></trkpt><trkpt lat="40.72598740251658" lon="17.576756400385655"><ele>242.00000000000003</ele><time>2026-05-03T15:34:12.999Z</time></trkpt><trkpt lat="40.72590491947452" lon="17.576692601207505"><ele>242.0</ele><time>2026-05-03T15:34:13.999Z</time></trkpt><trkpt lat="40.725840074016155" lon="17.57665191260709"><ele>242.0</ele><time>2026-05-03T15:34:14.999Z</time></trkpt><trkpt lat="40.72578495128738" lon="17.576603879388806"><ele>242.0</ele><time>2026-05-03T15:34:15.999Z</time></trkpt><trkpt lat="40.725751710580184" lon="17.57652370390471"><ele>242.00000000000003</ele><time>2026-05-03T15:34:16.999Z</time></trkpt><trkpt lat="40.72572866765333" lon="17.576414803905813"><ele>242.0</ele><time>2026-05-03T15:34:17.999Z</time></trkpt><trkpt lat="40.72575793337216" lon="17.576307875694418"><ele>242.0</ele><time>2026-05-03T15:34:18.999Z</time></trkpt><trkpt lat="40.72576022437897" lon="17.57619925470551"><ele>242.0</ele><time>2026-05-03T15:34:19.999Z</time></trkpt><trkpt lat="40.72577627177499" lon="17.57607198176976"><ele>242.0</ele><time>2026-05-03T15:34:20.999Z</time></trkpt><trkpt lat="40.72580416360119" lon="17.57592360567378"><ele>242.0</ele><time>2026-05-03T15:34:21.999Z</time></trkpt><trkpt lat="40.72581102296411" lon="17.57577927607948"><ele>242.0</ele><time>2026-05-03T15:34:22.999Z</time></trkpt><trkpt lat="40.7258318705441" lon="17.575663702100357"><ele>241.25</ele><time>2026-05-03T15:34:23.999Z</time></trkpt><trkpt lat="40.725863219511126" lon="17.575563064964225"><ele>240.5</ele><time>2026-05-03T15:34:24.999Z</time></trkpt><trkpt lat="40.72586042534025" lon="17.575471420156894"><ele>239.75</ele><time>2026-05-03T15:34:25.999Z</time></trkpt><trkpt lat="40.72586019697794" lon="17.57533444194627"><ele>239.0</ele><time>2026-05-03T15:34:27.999Z</time></trkpt><trkpt lat="40.72566299516355" lon="17.57530653802881"><ele>238.79999999999998</ele><time>2026-05-03T15:34:29.999Z</time></trkpt><trkpt lat="40.7255555136936" lon="17.57529175110772"><ele>238.59999999999997</ele><time>2026-05-03T15:34:30.999Z</time></trkpt><trkpt lat="40.725453822142825" lon="17.575257787588125"><ele>238.4</ele><time>2026-05-03T15:34:31.999Z</time></trkpt><trkpt lat="40.72537572896385" lon="17.57522391423272"><ele>238.2</ele><time>2026-05-03T15:34:32.999Z</time></trkpt><trkpt lat="40.72530867290203" lon="17.5752122204843"><ele>238.0</ele><time>2026-05-03T15:34:33.999Z</time></trkpt><trkpt lat="40.72533374821917" lon="17.574959031322784"><ele>237.99999999999997</ele><time>2026-05-03T15:34:36.999Z</time></trkpt><trkpt lat="40.72537152276754" lon="17.57486959994208"><ele>238.0</ele><time>2026-05-03T15:34:37.999Z</time></trkpt><trkpt lat="40.725409515989455" lon="17.574773159149675"><ele>238.0</ele><time>2026-05-03T15:34:38.999Z</time></trkpt><trkpt lat="40.72543975080442" lon="17.574673429486342"><ele>238.0</ele><time>2026-05-03T15:34:39.999Z</time></trkpt><trkpt lat="40.725472800094764" lon="17.574578226470912"><ele>237.99999999999997</ele><time>2026-05-03T15:34:40.999Z</time></trkpt><trkpt lat="40.72549558192598" lon="17.57449842220491"><ele>238.0</ele><time>2026-05-03T15:34:41.999Z</time></trkpt><trkpt lat="40.725550949378274" lon="17.574399337559772"><ele>237.8</ele><time>2026-05-03T15:34:43.999Z</time></trkpt><trkpt lat="40.7254055396503" lon="17.574289622689072"><ele>237.60000000000002</ele><time>2026-05-03T15:34:45.999Z</time></trkpt><trkpt lat="40.725342228623276" lon="17.57423135076539"><ele>237.39999999999998</ele><time>2026-05-03T15:34:46.999Z</time></trkpt><trkpt lat="40.725263579396284" lon="17.574213520021576"><ele>237.2</ele><time>2026-05-03T15:34:47.999Z</time></trkpt><trkpt lat="40.72517229422701" lon="17.57418284736611"><ele>237.0</ele><time>2026-05-03T15:34:48.999Z</time></trkpt><trkpt lat="40.725091940714016" lon="17.5741908932185"><ele>237.0</ele><time>2026-05-03T15:34:49.999Z</time></trkpt><trkpt lat="40.72501070588301" lon="17.574208686326756"><ele>237.0</ele><time>2026-05-03T15:34:50.999Z</time></trkpt><trkpt lat="40.72493366231947" lon="17.574220867633404"><ele>237.0</ele><time>2026-05-03T15:34:51.999Z</time></trkpt><trkpt lat="40.72485450087622" lon="17.574232133408046"><ele>237.0</ele><time>2026-05-03T15:34:52.999Z</time></trkpt><trkpt lat="40.7247734280028" lon="17.57424267113003"><ele>237.0</ele><time>2026-05-03T15:34:53.999Z</time></trkpt><trkpt lat="40.724691571516786" lon="17.574254753026874"><ele>237.0</ele><time>2026-05-03T15:34:54.999Z</time></trkpt><trkpt lat="40.724611671618426" lon="17.574267945664463"><ele>237.0</ele><time>2026-05-03T15:34:55.999Z</time></trkpt><trkpt lat="40.7245318980143" lon="17.5742702806945"><ele>237.0</ele><time>2026-05-03T15:34:56.999Z</time></trkpt><trkpt lat="40.72445047199293" lon="17.57425722691419"><ele>237.0</ele><time>2026-05-03T15:34:57.999Z</time></trkpt><trkpt lat="40.72438051813797" lon="17.5742507092898"><ele>237.0</ele><time>2026-05-03T15:34:58.999Z</time></trkpt><trkpt lat="40.72427420415175" lon="17.57403400927728"><ele>237.0</ele><time>2026-05-03T15:35:00.999Z</time></trkpt><trkpt lat="40.72427263416698" lon="17.573920828142505"><ele>237.0</ele><time>2026-05-03T15:35:01.999Z</time></trkpt><trkpt lat="40.7242950648577" lon="17.573801954322814"><ele>237.0</ele><time>2026-05-03T15:35:02.999Z</time></trkpt><trkpt lat="40.72434022170182" lon="17.573708846820338"><ele>237.0</ele><time>2026-05-03T15:35:03.999Z</time></trkpt><trkpt lat="40.724394049771924" lon="17.57361853894869"><ele>237.0</ele><time>2026-05-03T15:35:04.999Z</time></trkpt><trkpt lat="40.724440649952115" lon="17.573527949324376"><ele>237.0</ele><time>2026-05-03T15:35:05.999Z</time></trkpt><trkpt lat="40.7244905098543" lon="17.573446358044993"><ele>237.0</ele><time>2026-05-03T15:35:06.999Z</time></trkpt><trkpt lat="40.72455685915282" lon="17.573364859259012"><ele>237.0</ele><time>2026-05-03T15:35:08Z</time></trkpt><trkpt lat="40.724635305923286" lon="17.573321157657702"><ele>237.0</ele><time>2026-05-03T15:35:09Z</time></trkpt><trkpt lat="40.72471681946491" lon="17.573276529688822"><ele>237.0</ele><time>2026-05-03T15:35:10Z</time></trkpt><trkpt lat="40.72477641834109" lon="17.573186870068618"><ele>237.0</ele><time>2026-05-03T15:35:11Z</time></trkpt><trkpt lat="40.72481080868669" lon="17.57308798679644"><ele>237.0</ele><time>2026-05-03T15:35:12Z</time></trkpt><trkpt lat="40.72484127791765" lon="17.572993366007076"><ele>237.0</ele><time>2026-05-03T15:35:14Z</time></trkpt><trkpt lat="40.72471862582497" lon="17.572888003398926"><ele>237.0</ele><time>2026-05-03T15:35:15Z</time></trkpt><trkpt lat="40.724578259830004" lon="17.57301363478142"><ele>237.0</ele><time>2026-05-03T15:35:17Z</time></trkpt><trkpt lat="40.72454411305271" lon="17.573163060802734"><ele>237.0</ele><time>2026-05-03T15:35:19Z</time></trkpt><trkpt lat="40.72447814554419" lon="17.57330736646804"><ele>237.0</ele><time>2026-05-03T15:35:21Z</time></trkpt><trkpt lat="40.724428179107214" lon="17.57336633574298"><ele>237.2</ele><time>2026-05-03T15:35:22Z</time></trkpt><trkpt lat="40.72437849829385" lon="17.573493660520047"><ele>237.39999999999998</ele><time>2026-05-03T15:35:24Z</time></trkpt><trkpt lat="40.7243130696647" lon="17.573532438582355"><ele>237.60000000000002</ele><time>2026-05-03T15:35:27Z</time></trkpt><trkpt lat="40.724349140620774" lon="17.57346079111789"><ele>237.8</ele><time>2026-05-03T15:39:55Z</time></trkpt><trkpt lat="40.72421265528867" lon="17.5735616837919"><ele>238.0</ele><time>2026-05-03T15:40:07Z</time></trkpt><trkpt lat="40.72421830682123" lon="17.57334824913502"><ele>237.99999999999997</ele><time>2026-05-03T15:40:08Z</time></trkpt><trkpt lat="40.72416810825979" lon="17.5732906965616"><ele>238.0</ele><time>2026-05-03T15:40:10Z</time></trkpt><trkpt lat="40.72408638502372" lon="17.573264206428657"><ele>238.0</ele><time>2026-05-03T15:40:12Z</time></trkpt><trkpt lat="40.724151474799484" lon="17.573285559934558"><ele>238.0</ele><time>2026-05-03T15:40:13Z</time></trkpt><trkpt lat="40.724055521010236" lon="17.573200052698898"><ele>237.99999999999997</ele><time>2026-05-03T15:40:14Z</time></trkpt><trkpt lat="40.724015260526606" lon="17.57312697402635"><ele>238.0</ele><time>2026-05-03T15:40:17Z</time></trkpt><trkpt lat="40.724099602790346" lon="17.5732555887457"><ele>238.0</ele><time>2026-05-03T15:40:20Z</time></trkpt><trkpt lat="40.724019932493015" lon="17.573335015006514"><ele>238.0</ele><time>2026-05-03T15:40:21Z</time></trkpt><trkpt lat="40.724055762664634" lon="17.57340992498501"><ele>238.0</ele><time>2026-05-03T15:40:23Z</time></trkpt><trkpt lat="40.72407213228713" lon="17.57349515608354"><ele>238.0</ele><time>2026-05-03T15:40:25.999Z</time></trkpt><trkpt lat="40.724276556734665" lon="17.573422051966023"><ele>238.0</ele><time>2026-05-03T15:40:32.999Z</time></trkpt><trkpt lat="40.72421076912263" lon="17.57341751575892"><ele>238.0</ele><time>2026-05-03T15:42:17.999Z</time></trkpt><trkpt lat="40.72415083767487" lon="17.573503732763818"><ele>238.0</ele><time>2026-05-03T15:44:30.999Z</time></trkpt></trkseg></trk></gpx>